<?xml version="1.0" encoding="UTF-8" standalone="no" ?>
<gpx xmlns="http://www.topografix.com/GPX/1/1" creator="MapSource 6.16.3" version="1.1" xmlns:xsi="http://www.w3.org/2001/XMLSchema-instance" xsi:schemaLocation="http://www.topografix.com/GPX/1/1 http://www.topografix.com/GPX/1/1/gpx.xsd">

  <metadata>
    <link href="http://www.garmin.com">
      <text>Garmin International</text>
    </link>
    <time>2012-05-29T15:52:06Z</time>
    <bounds maxlat="38.62708336673677" maxlon="-109.28120383992791" minlat="38.525509117171168" minlon="-109.57571206614375"/>
  </metadata>

  <trk>
    <name>Untitled</name>
    <extensions>
      <gpxx:TrackExtension xmlns:gpxx="http://www.garmin.com/xmlschemas/GpxExtensions/v3">
        <gpxx:DisplayColor>Red</gpxx:DisplayColor>
      </gpxx:TrackExtension>
    </extensions>
    <trkseg>
      <trkpt lat="38.525509117171168" lon="-109.28148882463574">
        <ele>2848</ele>
        <time>2012-05-14T15:39:48Z</time>
      </trkpt>
      <trkpt lat="38.525557816028595" lon="-109.28152059204876">
        <ele>2847.800048828125</ele>
        <time>2012-05-14T15:39:53Z</time>
      </trkpt>
      <trkpt lat="38.525587739422917" lon="-109.28152461536229">
        <ele>2847.800048828125</ele>
        <time>2012-05-14T15:39:55Z</time>
      </trkpt>
      <trkpt lat="38.525606263428926" lon="-109.28152520209551">
        <ele>2847.800048828125</ele>
        <time>2012-05-14T15:40:00Z</time>
      </trkpt>
      <trkpt lat="38.525610873475671" lon="-109.28151103667915">
        <ele>2848</ele>
        <time>2012-05-14T15:40:06Z</time>
      </trkpt>
      <trkpt lat="38.525613974779844" lon="-109.28150751627982">
        <ele>2848</ele>
        <time>2012-05-14T15:40:16Z</time>
      </trkpt>
      <trkpt lat="38.525628810748458" lon="-109.28149720653892">
        <ele>2848.199951171875</ele>
        <time>2012-05-14T15:40:42Z</time>
      </trkpt>
      <trkpt lat="38.525617495179176" lon="-109.28149620071054">
        <ele>2848</ele>
        <time>2012-05-14T15:40:56Z</time>
      </trkpt>
      <trkpt lat="38.525613890960813" lon="-109.28150961175561">
        <ele>2848</ele>
        <time>2012-05-14T15:41:34Z</time>
      </trkpt>
      <trkpt lat="38.525628391653299" lon="-109.2815029900521">
        <ele>2848</ele>
        <time>2012-05-14T15:41:40Z</time>
      </trkpt>
      <trkpt lat="38.525677425786853" lon="-109.28148530423641">
        <ele>2848.199951171875</ele>
        <time>2012-05-14T15:42:03Z</time>
      </trkpt>
      <trkpt lat="38.525714054703712" lon="-109.28142067976296">
        <ele>2848.800048828125</ele>
        <time>2012-05-14T15:42:08Z</time>
      </trkpt>
      <trkpt lat="38.525759819895029" lon="-109.28133166395128">
        <ele>2849.60009765625</ele>
        <time>2012-05-14T15:42:13Z</time>
      </trkpt>
      <trkpt lat="38.525854870676994" lon="-109.28131540305912">
        <ele>2850</ele>
        <time>2012-05-14T15:42:17Z</time>
      </trkpt>
      <trkpt lat="38.525925111025572" lon="-109.28122253157198">
        <ele>2851.39990234375</ele>
        <time>2012-05-14T15:42:21Z</time>
      </trkpt>
      <trkpt lat="38.525966852903366" lon="-109.28120383992791">
        <ele>2852</ele>
        <time>2012-05-14T15:42:23Z</time>
      </trkpt>
      <trkpt lat="38.526021335273981" lon="-109.28120786324143">
        <ele>2852.199951171875</ele>
        <time>2012-05-14T15:42:25Z</time>
      </trkpt>
      <trkpt lat="38.526160223409534" lon="-109.28125103004277">
        <ele>2852</ele>
        <time>2012-05-14T15:42:29Z</time>
      </trkpt>
      <trkpt lat="38.526290478184819" lon="-109.28127684630454">
        <ele>2852.800048828125</ele>
        <time>2012-05-14T15:42:33Z</time>
      </trkpt>
      <trkpt lat="38.526307074353099" lon="-109.28127567283809">
        <ele>2853.199951171875</ele>
        <time>2012-05-14T15:42:34Z</time>
      </trkpt>
      <trkpt lat="38.526332722976804" lon="-109.28128665313125">
        <ele>2853.39990234375</ele>
        <time>2012-05-14T15:42:35Z</time>
      </trkpt>
      <trkpt lat="38.526391899213195" lon="-109.28131867200136">
        <ele>2853.800048828125</ele>
        <time>2012-05-14T15:42:37Z</time>
      </trkpt>
      <trkpt lat="38.526527769863605" lon="-109.28137063980103">
        <ele>2854.60009765625</ele>
        <time>2012-05-14T15:42:41Z</time>
      </trkpt>
      <trkpt lat="38.526615193113685" lon="-109.28145010024309">
        <ele>2854.60009765625</ele>
        <time>2012-05-14T15:42:45Z</time>
      </trkpt>
      <trkpt lat="38.526646541431546" lon="-109.28147885017097">
        <ele>2854.39990234375</ele>
        <time>2012-05-14T15:42:46Z</time>
      </trkpt>
      <trkpt lat="38.526688534766436" lon="-109.28153735585511">
        <ele>2853.60009765625</ele>
        <time>2012-05-14T15:42:48Z</time>
      </trkpt>
      <trkpt lat="38.526725079864264" lon="-109.28162637166679">
        <ele>2853.39990234375</ele>
        <time>2012-05-14T15:42:50Z</time>
      </trkpt>
      <trkpt lat="38.526808982715011" lon="-109.28168504498899">
        <ele>2854</ele>
        <time>2012-05-14T15:42:53Z</time>
      </trkpt>
      <trkpt lat="38.526838487014174" lon="-109.28170876577497">
        <ele>2854.800048828125</ele>
        <time>2012-05-14T15:42:56Z</time>
      </trkpt>
      <trkpt lat="38.526838403195143" lon="-109.28170616738498">
        <ele>2854.800048828125</ele>
        <time>2012-05-14T15:42:57Z</time>
      </trkpt>
      <trkpt lat="38.526854747906327" lon="-109.28171957843006">
        <ele>2855.199951171875</ele>
        <time>2012-05-14T15:43:02Z</time>
      </trkpt>
      <trkpt lat="38.526886431500316" lon="-109.28180825896561">
        <ele>2855.39990234375</ele>
        <time>2012-05-14T15:43:09Z</time>
      </trkpt>
      <trkpt lat="38.526898417621851" lon="-109.2819054890424">
        <ele>2855.199951171875</ele>
        <time>2012-05-14T15:43:16Z</time>
      </trkpt>
      <trkpt lat="38.526903446763754" lon="-109.28197137080133">
        <ele>2855</ele>
        <time>2012-05-14T15:43:20Z</time>
      </trkpt>
      <trkpt lat="38.526921048760414" lon="-109.28200104273856">
        <ele>2855.39990234375</ele>
        <time>2012-05-14T15:43:23Z</time>
      </trkpt>
      <trkpt lat="38.526973016560078" lon="-109.28207086399198">
        <ele>2856.199951171875</ele>
        <time>2012-05-14T15:43:31Z</time>
      </trkpt>
      <trkpt lat="38.526989445090294" lon="-109.28208997473121">
        <ele>2856.39990234375</ele>
        <time>2012-05-14T15:43:34Z</time>
      </trkpt>
      <trkpt lat="38.526988942176104" lon="-109.28209248930216">
        <ele>2856.39990234375</ele>
        <time>2012-05-14T15:43:37Z</time>
      </trkpt>
      <trkpt lat="38.526992378756404" lon="-109.28210799582303">
        <ele>2856.39990234375</ele>
        <time>2012-05-14T15:43:44Z</time>
      </trkpt>
      <trkpt lat="38.527023643255234" lon="-109.28217086009681">
        <ele>2856.800048828125</ele>
        <time>2012-05-14T15:43:48Z</time>
      </trkpt>
      <trkpt lat="38.527110060676932" lon="-109.28229373879731">
        <ele>2858</ele>
        <time>2012-05-14T15:43:54Z</time>
      </trkpt>
      <trkpt lat="38.527187341824174" lon="-109.2824131809175">
        <ele>2859.39990234375</ele>
        <time>2012-05-14T15:44:01Z</time>
      </trkpt>
      <trkpt lat="38.527276609092951" lon="-109.28250940516591">
        <ele>2861.199951171875</ele>
        <time>2012-05-14T15:44:07Z</time>
      </trkpt>
      <trkpt lat="38.527361266314983" lon="-109.28258400410414">
        <ele>2863</ele>
        <time>2012-05-14T15:44:13Z</time>
      </trkpt>
      <trkpt lat="38.52738356217742" lon="-109.28259154781699">
        <ele>2863.60009765625</ele>
        <time>2012-05-14T15:44:17Z</time>
      </trkpt>
      <trkpt lat="38.527390602976084" lon="-109.28259842097759">
        <ele>2863.60009765625</ele>
        <time>2012-05-14T15:44:18Z</time>
      </trkpt>
      <trkpt lat="38.52743829600513" lon="-109.28263949230313">
        <ele>2864.39990234375</ele>
        <time>2012-05-14T15:44:24Z</time>
      </trkpt>
      <trkpt lat="38.52745832875371" lon="-109.28264938294888">
        <ele>2864.800048828125</ele>
        <time>2012-05-14T15:44:27Z</time>
      </trkpt>
      <trkpt lat="38.527493448927999" lon="-109.28268240764737">
        <ele>2865.60009765625</ele>
        <time>2012-05-14T15:44:32Z</time>
      </trkpt>
      <trkpt lat="38.527522031217813" lon="-109.28274770267308">
        <ele>2866</ele>
        <time>2012-05-14T15:44:40Z</time>
      </trkpt>
      <trkpt lat="38.527542063966393" lon="-109.28284082561731">
        <ele>2866</ele>
        <time>2012-05-14T15:44:47Z</time>
      </trkpt>
      <trkpt lat="38.527584476396441" lon="-109.28296110592782">
        <ele>2866.60009765625</ele>
        <time>2012-05-14T15:44:56Z</time>
      </trkpt>
      <trkpt lat="38.527608029544353" lon="-109.28303620778024">
        <ele>2867.199951171875</ele>
        <time>2012-05-14T15:45:04Z</time>
      </trkpt>
      <trkpt lat="38.527622362598777" lon="-109.28312513977289">
        <ele>2867.60009765625</ele>
        <time>2012-05-14T15:45:13Z</time>
      </trkpt>
      <trkpt lat="38.527635522186756" lon="-109.28323963657022">
        <ele>2868.60009765625</ele>
        <time>2012-05-14T15:45:23Z</time>
      </trkpt>
      <trkpt lat="38.527638707309961" lon="-109.28333887830377">
        <ele>2869.800048828125</ele>
        <time>2012-05-14T15:45:31Z</time>
      </trkpt>
      <trkpt lat="38.527613645419478" lon="-109.28341171704233">
        <ele>2870</ele>
        <time>2012-05-14T15:45:36Z</time>
      </trkpt>
      <trkpt lat="38.527607023715973" lon="-109.28343451581895">
        <ele>2870.199951171875</ele>
        <time>2012-05-14T15:45:38Z</time>
      </trkpt>
      <trkpt lat="38.527558324858546" lon="-109.28351414389908">
        <ele>2870.39990234375</ele>
        <time>2012-05-14T15:45:46Z</time>
      </trkpt>
      <trkpt lat="38.527516918256879" lon="-109.2836167383939">
        <ele>2871.39990234375</ele>
        <time>2012-05-14T15:45:56Z</time>
      </trkpt>
      <trkpt lat="38.527453048154712" lon="-109.28368018940091">
        <ele>2871.39990234375</ele>
        <time>2012-05-14T15:46:04Z</time>
      </trkpt>
      <trkpt lat="38.527403511106968" lon="-109.28375503979623">
        <ele>2871.800048828125</ele>
        <time>2012-05-14T15:46:12Z</time>
      </trkpt>
      <trkpt lat="38.527380125597119" lon="-109.28376442752779">
        <ele>2871.60009765625</ele>
        <time>2012-05-14T15:46:18Z</time>
      </trkpt>
      <trkpt lat="38.527349531650543" lon="-109.28380248136818">
        <ele>2871.800048828125</ele>
        <time>2012-05-14T15:46:33Z</time>
      </trkpt>
      <trkpt lat="38.527281638234854" lon="-109.2838794272393">
        <ele>2871.800048828125</ele>
        <time>2012-05-14T15:46:43Z</time>
      </trkpt>
      <trkpt lat="38.527229838073254" lon="-109.28397196345031">
        <ele>2872</ele>
        <time>2012-05-14T15:46:52Z</time>
      </trkpt>
      <trkpt lat="38.527201088145375" lon="-109.28408486768603">
        <ele>2873</ele>
        <time>2012-05-14T15:47:02Z</time>
      </trkpt>
      <trkpt lat="38.527166303247213" lon="-109.2841918207705">
        <ele>2873.39990234375</ele>
        <time>2012-05-14T15:47:12Z</time>
      </trkpt>
      <trkpt lat="38.52714417502284" lon="-109.28430489264429">
        <ele>2874.39990234375</ele>
        <time>2012-05-14T15:47:21Z</time>
      </trkpt>
      <trkpt lat="38.52713436819613" lon="-109.28439315408468">
        <ele>2875</ele>
        <time>2012-05-14T15:47:28Z</time>
      </trkpt>
      <trkpt lat="38.527125734835863" lon="-109.28450681269169">
        <ele>2876</ele>
        <time>2012-05-14T15:47:37Z</time>
      </trkpt>
      <trkpt lat="38.527128081768751" lon="-109.28463882766664">
        <ele>2877.60009765625</ele>
        <time>2012-05-14T15:47:47Z</time>
      </trkpt>
      <trkpt lat="38.527139648795128" lon="-109.28468719124794">
        <ele>2878.60009765625</ele>
        <time>2012-05-14T15:47:51Z</time>
      </trkpt>
      <trkpt lat="38.52714903652668" lon="-109.28468476049602">
        <ele>2879</ele>
        <time>2012-05-14T15:47:55Z</time>
      </trkpt>
      <trkpt lat="38.527133110910654" lon="-109.28472071886063">
        <ele>2878.800048828125</ele>
        <time>2012-05-14T15:48:08Z</time>
      </trkpt>
      <trkpt lat="38.527139481157064" lon="-109.2847999278456">
        <ele>2880</ele>
        <time>2012-05-14T15:48:15Z</time>
      </trkpt>
      <trkpt lat="38.527134032920003" lon="-109.28480981849134">
        <ele>2879.800048828125</ele>
        <time>2012-05-14T15:48:21Z</time>
      </trkpt>
      <trkpt lat="38.527127159759402" lon="-109.28483068943024">
        <ele>2879.800048828125</ele>
        <time>2012-05-14T15:48:22Z</time>
      </trkpt>
      <trkpt lat="38.527083154767752" lon="-109.28493428975344">
        <ele>2879.39990234375</ele>
        <time>2012-05-14T15:48:25Z</time>
      </trkpt>
      <trkpt lat="38.527010902762413" lon="-109.28516185842454">
        <ele>2879.800048828125</ele>
        <time>2012-05-14T15:48:29Z</time>
      </trkpt>
      <trkpt lat="38.526995144784451" lon="-109.28535296581686">
        <ele>2882</ele>
        <time>2012-05-14T15:48:33Z</time>
      </trkpt>
      <trkpt lat="38.526998246088624" lon="-109.28537677042186">
        <ele>2882.60009765625</ele>
        <time>2012-05-14T15:48:36Z</time>
      </trkpt>
      <trkpt lat="38.526999838650227" lon="-109.2853885050863">
        <ele>2882.800048828125</ele>
        <time>2012-05-14T15:48:37Z</time>
      </trkpt>
      <trkpt lat="38.52700587362051" lon="-109.28549646399915">
        <ele>2884.39990234375</ele>
        <time>2012-05-14T15:48:46Z</time>
      </trkpt>
      <trkpt lat="38.527013501152396" lon="-109.28560073487461">
        <ele>2885.800048828125</ele>
        <time>2012-05-14T15:48:55Z</time>
      </trkpt>
      <trkpt lat="38.527015848085284" lon="-109.28572269156575">
        <ele>2887.199951171875</ele>
        <time>2012-05-14T15:49:05Z</time>
      </trkpt>
      <trkpt lat="38.527012914419174" lon="-109.28581137210131">
        <ele>2887.800048828125</ele>
        <time>2012-05-14T15:49:14Z</time>
      </trkpt>
      <trkpt lat="38.527010232210159" lon="-109.28592184558511">
        <ele>2888.800048828125</ele>
        <time>2012-05-14T15:49:25Z</time>
      </trkpt>
      <trkpt lat="38.526998078450561" lon="-109.28602678701282">
        <ele>2889.39990234375</ele>
        <time>2012-05-14T15:49:35Z</time>
      </trkpt>
      <trkpt lat="38.527006963267922" lon="-109.28613835014403">
        <ele>2890.60009765625</ele>
        <time>2012-05-14T15:49:45Z</time>
      </trkpt>
      <trkpt lat="38.527015093713999" lon="-109.28621688857675">
        <ele>2891.39990234375</ele>
        <time>2012-05-14T15:49:54Z</time>
      </trkpt>
      <trkpt lat="38.527015345171094" lon="-109.28632065653801">
        <ele>2892.39990234375</ele>
        <time>2012-05-14T15:50:03Z</time>
      </trkpt>
      <trkpt lat="38.527016350999475" lon="-109.28641528822482">
        <ele>2893.199951171875</ele>
        <time>2012-05-14T15:50:12Z</time>
      </trkpt>
      <trkpt lat="38.527043676003814" lon="-109.28649173118174">
        <ele>2894.199951171875</ele>
        <time>2012-05-14T15:50:20Z</time>
      </trkpt>
      <trkpt lat="38.527039736509323" lon="-109.28656758740544">
        <ele>2894.800048828125</ele>
        <time>2012-05-14T15:50:28Z</time>
      </trkpt>
      <trkpt lat="38.527022805064917" lon="-109.28664193488657">
        <ele>2895</ele>
        <time>2012-05-14T15:50:36Z</time>
      </trkpt>
      <trkpt lat="38.527015596628189" lon="-109.28673849441111">
        <ele>2895.800048828125</ele>
        <time>2012-05-14T15:50:44Z</time>
      </trkpt>
      <trkpt lat="38.526990870013833" lon="-109.28680035285652">
        <ele>2896</ele>
        <time>2012-05-14T15:50:49Z</time>
      </trkpt>
      <trkpt lat="38.526985924690962" lon="-109.28682189434767">
        <ele>2896</ele>
        <time>2012-05-14T15:50:51Z</time>
      </trkpt>
      <trkpt lat="38.526997826993465" lon="-109.28690571337938">
        <ele>2896.60009765625</ele>
        <time>2012-05-14T15:50:59Z</time>
      </trkpt>
      <trkpt lat="38.526992546394467" lon="-109.28694209083915">
        <ele>2896.60009765625</ele>
        <time>2012-05-14T15:51:06Z</time>
      </trkpt>
      <trkpt lat="38.527000844478607" lon="-109.28701836615801">
        <ele>2897.199951171875</ele>
        <time>2012-05-14T15:51:12Z</time>
      </trkpt>
      <trkpt lat="38.526998916640878" lon="-109.28706153295934">
        <ele>2897.199951171875</ele>
        <time>2012-05-14T15:51:15Z</time>
      </trkpt>
      <trkpt lat="38.526989445090294" lon="-109.28712020628154">
        <ele>2897.39990234375</ele>
        <time>2012-05-14T15:51:19Z</time>
      </trkpt>
      <trkpt lat="38.526991792023182" lon="-109.28723487071693">
        <ele>2897.60009765625</ele>
        <time>2012-05-14T15:51:26Z</time>
      </trkpt>
      <trkpt lat="38.526964550837874" lon="-109.28737627342343">
        <ele>2897.800048828125</ele>
        <time>2012-05-14T15:51:31Z</time>
      </trkpt>
      <trkpt lat="38.52693110704422" lon="-109.28752547129989">
        <ele>2897.800048828125</ele>
        <time>2012-05-14T15:51:37Z</time>
      </trkpt>
      <trkpt lat="38.526915432885289" lon="-109.28755547851324">
        <ele>2898</ele>
        <time>2012-05-14T15:51:39Z</time>
      </trkpt>
      <trkpt lat="38.526901267468929" lon="-109.28761029615998">
        <ele>2898</ele>
        <time>2012-05-14T15:51:41Z</time>
      </trkpt>
      <trkpt lat="38.526867823675275" lon="-109.28765488788486">
        <ele>2898.199951171875</ele>
        <time>2012-05-14T15:51:43Z</time>
      </trkpt>
      <trkpt lat="38.52682750672102" lon="-109.28773485124111">
        <ele>2898.199951171875</ele>
        <time>2012-05-14T15:51:46Z</time>
      </trkpt>
      <trkpt lat="38.526731450110674" lon="-109.28786552511156">
        <ele>2898</ele>
        <time>2012-05-14T15:51:52Z</time>
      </trkpt>
      <trkpt lat="38.526727007701993" lon="-109.28785932250321">
        <ele>2898.199951171875</ele>
        <time>2012-05-14T15:51:53Z</time>
      </trkpt>
      <trkpt lat="38.526716949418187" lon="-109.28785244934261">
        <ele>2898.199951171875</ele>
        <time>2012-05-14T15:51:56Z</time>
      </trkpt>
      <trkpt lat="38.526727594435215" lon="-109.28783325478435">
        <ele>2898.199951171875</ele>
        <time>2012-05-14T15:52:02Z</time>
      </trkpt>
      <trkpt lat="38.526734719052911" lon="-109.28778841160238">
        <ele>2898.39990234375</ele>
        <time>2012-05-14T15:52:08Z</time>
      </trkpt>
      <trkpt lat="38.526735724881291" lon="-109.28778313100338">
        <ele>2898.39990234375</ele>
        <time>2012-05-14T15:52:16Z</time>
      </trkpt>
      <trkpt lat="38.526736898347735" lon="-109.28778489120305">
        <ele>2898.39990234375</ele>
        <time>2012-05-14T15:52:35Z</time>
      </trkpt>
      <trkpt lat="38.526736563071609" lon="-109.28781154565513">
        <ele>2898.199951171875</ele>
        <time>2012-05-14T15:52:40Z</time>
      </trkpt>
      <trkpt lat="38.526719715446234" lon="-109.28781984373927">
        <ele>2898.199951171875</ele>
        <time>2012-05-14T15:54:06Z</time>
      </trkpt>
      <trkpt lat="38.526713848114014" lon="-109.28788471966982">
        <ele>2898</ele>
        <time>2012-05-14T15:55:10Z</time>
      </trkpt>
      <trkpt lat="38.526699347421527" lon="-109.28789653815329">
        <ele>2898</ele>
        <time>2012-05-14T15:55:17Z</time>
      </trkpt>
      <trkpt lat="38.526737904176116" lon="-109.28789896890521">
        <ele>2898</ele>
        <time>2012-05-14T15:55:23Z</time>
      </trkpt>
      <trkpt lat="38.526736730709672" lon="-109.28789167664945">
        <ele>2898</ele>
        <time>2012-05-14T15:55:28Z</time>
      </trkpt>
      <trkpt lat="38.526753075420856" lon="-109.28789067082107">
        <ele>2898</ele>
        <time>2012-05-14T15:55:48Z</time>
      </trkpt>
      <trkpt lat="38.526706052944064" lon="-109.28794959560037">
        <ele>2897.800048828125</ele>
        <time>2012-05-14T15:56:04Z</time>
      </trkpt>
      <trkpt lat="38.526634555310011" lon="-109.28813978098333">
        <ele>2897.199951171875</ele>
        <time>2012-05-14T15:56:08Z</time>
      </trkpt>
      <trkpt lat="38.526520477607846" lon="-109.28847472183406">
        <ele>2894.800048828125</ele>
        <time>2012-05-14T15:56:13Z</time>
      </trkpt>
      <trkpt lat="38.526507401838899" lon="-109.28854521363974">
        <ele>2894.199951171875</ele>
        <time>2012-05-14T15:56:14Z</time>
      </trkpt>
      <trkpt lat="38.526514610275626" lon="-109.28866557776928">
        <ele>2893.199951171875</ele>
        <time>2012-05-14T15:56:16Z</time>
      </trkpt>
      <trkpt lat="38.526513939723372" lon="-109.28880522027612">
        <ele>2892.39990234375</ele>
        <time>2012-05-14T15:56:18Z</time>
      </trkpt>
      <trkpt lat="38.526479490101337" lon="-109.28894142620265">
        <ele>2891.800048828125</ele>
        <time>2012-05-14T15:56:20Z</time>
      </trkpt>
      <trkpt lat="38.526386534795165" lon="-109.28897134959698">
        <ele>2891.39990234375</ele>
        <time>2012-05-14T15:56:22Z</time>
      </trkpt>
      <trkpt lat="38.526280336081982" lon="-109.2890306096524">
        <ele>2891</ele>
        <time>2012-05-14T15:56:24Z</time>
      </trkpt>
      <trkpt lat="38.526229877024889" lon="-109.28907679393888">
        <ele>2890.60009765625</ele>
        <time>2012-05-14T15:56:25Z</time>
      </trkpt>
      <trkpt lat="38.526046732440591" lon="-109.28921584971249">
        <ele>2889.199951171875</ele>
        <time>2012-05-14T15:56:28Z</time>
      </trkpt>
      <trkpt lat="38.526007421314716" lon="-109.28929581306875">
        <ele>2888.60009765625</ele>
        <time>2012-05-14T15:56:29Z</time>
      </trkpt>
      <trkpt lat="38.526002056896687" lon="-109.28946252912283">
        <ele>2887.60009765625</ele>
        <time>2012-05-14T15:56:31Z</time>
      </trkpt>
      <trkpt lat="38.526106746867299" lon="-109.28968565538526">
        <ele>2886.199951171875</ele>
        <time>2012-05-14T15:56:34Z</time>
      </trkpt>
      <trkpt lat="38.526132479310036" lon="-109.28976704366505">
        <ele>2885.60009765625</ele>
        <time>2012-05-14T15:56:35Z</time>
      </trkpt>
      <trkpt lat="38.526128539815545" lon="-109.28993627429008">
        <ele>2884.199951171875</ele>
        <time>2012-05-14T15:56:37Z</time>
      </trkpt>
      <trkpt lat="38.526039104908705" lon="-109.29017691873014">
        <ele>2882</ele>
        <time>2012-05-14T15:56:40Z</time>
      </trkpt>
      <trkpt lat="38.526042876765132" lon="-109.29051294922829">
        <ele>2879.199951171875</ele>
        <time>2012-05-14T15:56:43Z</time>
      </trkpt>
      <trkpt lat="38.526054611429572" lon="-109.29061772301793">
        <ele>2878.39990234375</ele>
        <time>2012-05-14T15:56:44Z</time>
      </trkpt>
      <trkpt lat="38.526097275316715" lon="-109.29071352817118">
        <ele>2877.800048828125</ele>
        <time>2012-05-14T15:56:45Z</time>
      </trkpt>
      <trkpt lat="38.526147147640586" lon="-109.29080774076283">
        <ele>2877.199951171875</ele>
        <time>2012-05-14T15:56:46Z</time>
      </trkpt>
      <trkpt lat="38.526268349960446" lon="-109.29108526557684">
        <ele>2875.39990234375</ele>
        <time>2012-05-14T15:56:49Z</time>
      </trkpt>
      <trkpt lat="38.526303637772799" lon="-109.29129305295646">
        <ele>2874</ele>
        <time>2012-05-14T15:56:51Z</time>
      </trkpt>
      <trkpt lat="38.526264075189829" lon="-109.29161592386663">
        <ele>2871.39990234375</ele>
        <time>2012-05-14T15:56:54Z</time>
      </trkpt>
      <trkpt lat="38.526232726871967" lon="-109.29183008149266">
        <ele>2869.60009765625</ele>
        <time>2012-05-14T15:56:56Z</time>
      </trkpt>
      <trkpt lat="38.526227362453938" lon="-109.29193778894842">
        <ele>2868.800048828125</ele>
        <time>2012-05-14T15:56:57Z</time>
      </trkpt>
      <trkpt lat="38.526245970278978" lon="-109.29203418083489">
        <ele>2868</ele>
        <time>2012-05-14T15:56:58Z</time>
      </trkpt>
      <trkpt lat="38.526295255869627" lon="-109.29241010919213">
        <ele>2865.39990234375</ele>
        <time>2012-05-14T15:57:02Z</time>
      </trkpt>
      <trkpt lat="38.5263916477561" lon="-109.29260071367025">
        <ele>2864.199951171875</ele>
        <time>2012-05-14T15:57:05Z</time>
      </trkpt>
      <trkpt lat="38.526427857577801" lon="-109.29265955463052">
        <ele>2863.800048828125</ele>
        <time>2012-05-14T15:57:06Z</time>
      </trkpt>
      <trkpt lat="38.526454595848918" lon="-109.29273767396808">
        <ele>2863.199951171875</ele>
        <time>2012-05-14T15:57:07Z</time>
      </trkpt>
      <trkpt lat="38.526476891711354" lon="-109.29289014078677">
        <ele>2862.39990234375</ele>
        <time>2012-05-14T15:57:09Z</time>
      </trkpt>
      <trkpt lat="38.526460798457265" lon="-109.2931317910552">
        <ele>2860.60009765625</ele>
        <time>2012-05-14T15:57:12Z</time>
      </trkpt>
      <trkpt lat="38.526433473452926" lon="-109.2932028695941">
        <ele>2860</ele>
        <time>2012-05-14T15:57:13Z</time>
      </trkpt>
      <trkpt lat="38.526327945291996" lon="-109.29335005581379">
        <ele>2859</ele>
        <time>2012-05-14T15:57:16Z</time>
      </trkpt>
      <trkpt lat="38.526201630011201" lon="-109.29347109049559">
        <ele>2858</ele>
        <time>2012-05-14T15:57:19Z</time>
      </trkpt>
      <trkpt lat="38.526226775720716" lon="-109.293596399948">
        <ele>2857.199951171875</ele>
        <time>2012-05-14T15:57:21Z</time>
      </trkpt>
      <trkpt lat="38.526261476799846" lon="-109.29375037550926">
        <ele>2856.39990234375</ele>
        <time>2012-05-14T15:57:23Z</time>
      </trkpt>
      <trkpt lat="38.526348397135735" lon="-109.29399680346251">
        <ele>2855.199951171875</ele>
        <time>2012-05-14T15:57:26Z</time>
      </trkpt>
      <trkpt lat="38.52645518258214" lon="-109.29422521032393">
        <ele>2853.800048828125</ele>
        <time>2012-05-14T15:57:29Z</time>
      </trkpt>
      <trkpt lat="38.526435736566782" lon="-109.29450784809887">
        <ele>2851.39990234375</ele>
        <time>2012-05-14T15:57:32Z</time>
      </trkpt>
      <trkpt lat="38.526430875062943" lon="-109.29484840482473">
        <ele>2847.39990234375</ele>
        <time>2012-05-14T15:57:36Z</time>
      </trkpt>
      <trkpt lat="38.526361808180809" lon="-109.29501034319401">
        <ele>2846.199951171875</ele>
        <time>2012-05-14T15:57:39Z</time>
      </trkpt>
      <trkpt lat="38.526322329416871" lon="-109.29524344392121">
        <ele>2844.39990234375</ele>
        <time>2012-05-14T15:57:43Z</time>
      </trkpt>
      <trkpt lat="38.526212526485324" lon="-109.29540060460567">
        <ele>2843.800048828125</ele>
        <time>2012-05-14T15:57:46Z</time>
      </trkpt>
      <trkpt lat="38.526070956140757" lon="-109.29559607058764">
        <ele>2843.199951171875</ele>
        <time>2012-05-14T15:57:50Z</time>
      </trkpt>
      <trkpt lat="38.526071039959788" lon="-109.29579564370215">
        <ele>2841.800048828125</ele>
        <time>2012-05-14T15:57:53Z</time>
      </trkpt>
      <trkpt lat="38.52616642601788" lon="-109.29596168920398">
        <ele>2839.800048828125</ele>
        <time>2012-05-14T15:57:56Z</time>
      </trkpt>
      <trkpt lat="38.526298189535737" lon="-109.29616796784103">
        <ele>2836.800048828125</ele>
        <time>2012-05-14T15:58:00Z</time>
      </trkpt>
      <trkpt lat="38.526194673031569" lon="-109.29635035805404">
        <ele>2835.800048828125</ele>
        <time>2012-05-14T15:58:03Z</time>
      </trkpt>
      <trkpt lat="38.526153098791838" lon="-109.29652579128742">
        <ele>2834.60009765625</ele>
        <time>2012-05-14T15:58:06Z</time>
      </trkpt>
      <trkpt lat="38.526161564514041" lon="-109.29659938439727">
        <ele>2834</ele>
        <time>2012-05-14T15:58:07Z</time>
      </trkpt>
      <trkpt lat="38.526162905618548" lon="-109.29668228141963">
        <ele>2833.39990234375</ele>
        <time>2012-05-14T15:58:08Z</time>
      </trkpt>
      <trkpt lat="38.526169024407864" lon="-109.29686777293682">
        <ele>2832.199951171875</ele>
        <time>2012-05-14T15:58:10Z</time>
      </trkpt>
      <trkpt lat="38.52618545293808" lon="-109.29696927778423">
        <ele>2831.39990234375</ele>
        <time>2012-05-14T15:58:11Z</time>
      </trkpt>
      <trkpt lat="38.526239264756441" lon="-109.29714068770409">
        <ele>2830</ele>
        <time>2012-05-14T15:58:13Z</time>
      </trkpt>
      <trkpt lat="38.526247814297676" lon="-109.29721704684198">
        <ele>2829.39990234375</ele>
        <time>2012-05-14T15:58:14Z</time>
      </trkpt>
      <trkpt lat="38.526207748800516" lon="-109.2973159532994">
        <ele>2828.39990234375</ele>
        <time>2012-05-14T15:58:16Z</time>
      </trkpt>
      <trkpt lat="38.52617472410202" lon="-109.29739415645599">
        <ele>2827.60009765625</ele>
        <time>2012-05-14T15:58:18Z</time>
      </trkpt>
      <trkpt lat="38.526151422411203" lon="-109.2974317073822">
        <ele>2827</ele>
        <time>2012-05-14T15:58:20Z</time>
      </trkpt>
      <trkpt lat="38.526137843728065" lon="-109.29743757471442">
        <ele>2826.800048828125</ele>
        <time>2012-05-14T15:58:24Z</time>
      </trkpt>
      <trkpt lat="38.526154439896345" lon="-109.2974113393575">
        <ele>2827.199951171875</ele>
        <time>2012-05-14T15:58:33Z</time>
      </trkpt>
      <trkpt lat="38.526177406311035" lon="-109.29740656167269">
        <ele>2827.39990234375</ele>
        <time>2012-05-14T15:58:39Z</time>
      </trkpt>
      <trkpt lat="38.526209006085992" lon="-109.29734646342695">
        <ele>2828.199951171875</ele>
        <time>2012-05-14T15:58:55Z</time>
      </trkpt>
      <trkpt lat="38.526225937530398" lon="-109.29728737100959">
        <ele>2828.60009765625</ele>
        <time>2012-05-14T15:59:03Z</time>
      </trkpt>
      <trkpt lat="38.52624261751771" lon="-109.29728904739022">
        <ele>2828.60009765625</ele>
        <time>2012-05-14T15:59:31Z</time>
      </trkpt>
      <trkpt lat="38.526206407696009" lon="-109.29733422584832">
        <ele>2828.199951171875</ele>
        <time>2012-05-14T16:01:09Z</time>
      </trkpt>
      <trkpt lat="38.526177993044257" lon="-109.29736356250942">
        <ele>2828</ele>
        <time>2012-05-14T16:01:16Z</time>
      </trkpt>
      <trkpt lat="38.526146728545427" lon="-109.29736188612878">
        <ele>2828</ele>
        <time>2012-05-14T16:05:24Z</time>
      </trkpt>
      <trkpt lat="38.526140442118049" lon="-109.29742307402194">
        <ele>2827</ele>
        <time>2012-05-14T16:09:16Z</time>
      </trkpt>
      <trkpt lat="38.526157038286328" lon="-109.2974317073822">
        <ele>2827</ele>
        <time>2012-05-14T16:09:23Z</time>
      </trkpt>
      <trkpt lat="38.526176400482655" lon="-109.29742575623095">
        <ele>2827</ele>
        <time>2012-05-14T16:09:30Z</time>
      </trkpt>
      <trkpt lat="38.526197355240583" lon="-109.2974161170423">
        <ele>2827.199951171875</ele>
        <time>2012-05-14T16:09:38Z</time>
      </trkpt>
      <trkpt lat="38.526194924488664" lon="-109.29739038459957">
        <ele>2827.60009765625</ele>
        <time>2012-05-14T16:09:43Z</time>
      </trkpt>
      <trkpt lat="38.526196181774139" lon="-109.29740547202528">
        <ele>2827.39990234375</ele>
        <time>2012-05-14T16:09:49Z</time>
      </trkpt>
      <trkpt lat="38.526189057156444" lon="-109.29743028245866">
        <ele>2827</ele>
        <time>2012-05-14T16:09:55Z</time>
      </trkpt>
      <trkpt lat="38.526198612526059" lon="-109.29749851115048">
        <ele>2825.800048828125</ele>
        <time>2012-05-14T16:09:57Z</time>
      </trkpt>
      <trkpt lat="38.526267008855939" lon="-109.29763781838119">
        <ele>2823.800048828125</ele>
        <time>2012-05-14T16:10:00Z</time>
      </trkpt>
      <trkpt lat="38.526399778202176" lon="-109.29763647727668">
        <ele>2823</ele>
        <time>2012-05-14T16:10:03Z</time>
      </trkpt>
      <trkpt lat="38.526454512029886" lon="-109.29778693243861">
        <ele>2821.39990234375</ele>
        <time>2012-05-14T16:10:06Z</time>
      </trkpt>
      <trkpt lat="38.526453087106347" lon="-109.29794107563794">
        <ele>2820.199951171875</ele>
        <time>2012-05-14T16:10:08Z</time>
      </trkpt>
      <trkpt lat="38.526466581970453" lon="-109.29800620302558">
        <ele>2819.800048828125</ele>
        <time>2012-05-14T16:10:09Z</time>
      </trkpt>
      <trkpt lat="38.526492398232222" lon="-109.29806252941489">
        <ele>2819.60009765625</ele>
        <time>2012-05-14T16:10:10Z</time>
      </trkpt>
      <trkpt lat="38.526659868657589" lon="-109.29812363348901">
        <ele>2818</ele>
        <time>2012-05-14T16:10:13Z</time>
      </trkpt>
      <trkpt lat="38.526795655488968" lon="-109.29806152358651">
        <ele>2817.199951171875</ele>
        <time>2012-05-14T16:10:15Z</time>
      </trkpt>
      <trkpt lat="38.52685927413404" lon="-109.29802699014544">
        <ele>2816.39990234375</ele>
        <time>2012-05-14T16:10:16Z</time>
      </trkpt>
      <trkpt lat="38.526906631886959" lon="-109.29801357910037">
        <ele>2815.39990234375</ele>
        <time>2012-05-14T16:10:17Z</time>
      </trkpt>
      <trkpt lat="38.526989445090294" lon="-109.2980675585568">
        <ele>2813.199951171875</ele>
        <time>2012-05-14T16:10:19Z</time>
      </trkpt>
      <trkpt lat="38.527100840583444" lon="-109.29813017137349">
        <ele>2810.199951171875</ele>
        <time>2012-05-14T16:10:21Z</time>
      </trkpt>
      <trkpt lat="38.527138726785779" lon="-109.29818197153509">
        <ele>2809</ele>
        <time>2012-05-14T16:10:22Z</time>
      </trkpt>
      <trkpt lat="38.527174098417163" lon="-109.29824818857014">
        <ele>2807.800048828125</ele>
        <time>2012-05-14T16:10:23Z</time>
      </trkpt>
      <trkpt lat="38.527226904407144" lon="-109.29851347580552">
        <ele>2804.800048828125</ele>
        <time>2012-05-14T16:10:26Z</time>
      </trkpt>
      <trkpt lat="38.527247859165072" lon="-109.29881614632905">
        <ele>2801.39990234375</ele>
        <time>2012-05-14T16:10:29Z</time>
      </trkpt>
      <trkpt lat="38.527235873043537" lon="-109.29902737028897">
        <ele>2798.39990234375</ele>
        <time>2012-05-14T16:10:32Z</time>
      </trkpt>
      <trkpt lat="38.527361350134015" lon="-109.29894120432436">
        <ele>2798</ele>
        <time>2012-05-14T16:10:34Z</time>
      </trkpt>
      <trkpt lat="38.527522115036845" lon="-109.29874540306628">
        <ele>2797.39990234375</ele>
        <time>2012-05-14T16:10:37Z</time>
      </trkpt>
      <trkpt lat="38.527617836371064" lon="-109.2986680381">
        <ele>2796</ele>
        <time>2012-05-14T16:10:39Z</time>
      </trkpt>
      <trkpt lat="38.527710204944015" lon="-109.29859042167664">
        <ele>2794.800048828125</ele>
        <time>2012-05-14T16:10:41Z</time>
      </trkpt>
      <trkpt lat="38.527845237404108" lon="-109.29865630343556">
        <ele>2792.39990234375</ele>
        <time>2012-05-14T16:10:44Z</time>
      </trkpt>
      <trkpt lat="38.527842555195093" lon="-109.29880977608263">
        <ele>2791.800048828125</ele>
        <time>2012-05-14T16:10:46Z</time>
      </trkpt>
      <trkpt lat="38.527866611257195" lon="-109.2989827785641">
        <ele>2790.60009765625</ele>
        <time>2012-05-14T16:10:49Z</time>
      </trkpt>
      <trkpt lat="38.527853284031153" lon="-109.29904916323721">
        <ele>2790.60009765625</ele>
        <time>2012-05-14T16:10:50Z</time>
      </trkpt>
      <trkpt lat="38.527860743924975" lon="-109.29911579936743">
        <ele>2790</ele>
        <time>2012-05-14T16:10:51Z</time>
      </trkpt>
      <trkpt lat="38.527890499681234" lon="-109.29926675744355">
        <ele>2788.60009765625</ele>
        <time>2012-05-14T16:10:53Z</time>
      </trkpt>
      <trkpt lat="38.527888655662537" lon="-109.29962240159512">
        <ele>2785.800048828125</ele>
        <time>2012-05-14T16:10:57Z</time>
      </trkpt>
      <trkpt lat="38.527869880199432" lon="-109.29968887008727">
        <ele>2785.199951171875</ele>
        <time>2012-05-14T16:10:58Z</time>
      </trkpt>
      <trkpt lat="38.527847416698933" lon="-109.29983706213534">
        <ele>2783.60009765625</ele>
        <time>2012-05-14T16:11:00Z</time>
      </trkpt>
      <trkpt lat="38.527949843555689" lon="-109.29987419396639">
        <ele>2782.39990234375</ele>
        <time>2012-05-14T16:11:03Z</time>
      </trkpt>
      <trkpt lat="38.528109351173043" lon="-109.29984695278108">
        <ele>2780.800048828125</ele>
        <time>2012-05-14T16:11:07Z</time>
      </trkpt>
      <trkpt lat="38.52826651185751" lon="-109.29987134411931">
        <ele>2778</ele>
        <time>2012-05-14T16:11:11Z</time>
      </trkpt>
      <trkpt lat="38.528515622019768" lon="-109.29989053867757">
        <ele>2773.199951171875</ele>
        <time>2012-05-14T16:11:16Z</time>
      </trkpt>
      <trkpt lat="38.528706645593047" lon="-109.29988944903016">
        <ele>2770.199951171875</ele>
        <time>2012-05-14T16:11:20Z</time>
      </trkpt>
      <trkpt lat="38.528839247301221" lon="-109.2998409178108">
        <ele>2768.60009765625</ele>
        <time>2012-05-14T16:11:23Z</time>
      </trkpt>
      <trkpt lat="38.528889454901218" lon="-109.29982482455671">
        <ele>2768</ele>
        <time>2012-05-14T16:11:24Z</time>
      </trkpt>
      <trkpt lat="38.528980230912566" lon="-109.29976715706289">
        <ele>2767.199951171875</ele>
        <time>2012-05-14T16:11:26Z</time>
      </trkpt>
      <trkpt lat="38.529017781838775" lon="-109.29973480291665">
        <ele>2767</ele>
        <time>2012-05-14T16:11:27Z</time>
      </trkpt>
      <trkpt lat="38.529052985832095" lon="-109.29972248151898">
        <ele>2766.60009765625</ele>
        <time>2012-05-14T16:11:28Z</time>
      </trkpt>
      <trkpt lat="38.529112497344613" lon="-109.29973287507892">
        <ele>2765.60009765625</ele>
        <time>2012-05-14T16:11:30Z</time>
      </trkpt>
      <trkpt lat="38.529134625568986" lon="-109.29974025115371">
        <ele>2765.199951171875</ele>
        <time>2012-05-14T16:11:31Z</time>
      </trkpt>
      <trkpt lat="38.529239064082503" lon="-109.29976204410195">
        <ele>2763.39990234375</ele>
        <time>2012-05-14T16:11:34Z</time>
      </trkpt>
      <trkpt lat="38.529286589473486" lon="-109.29976363666356">
        <ele>2762.800048828125</ele>
        <time>2012-05-14T16:11:35Z</time>
      </trkpt>
      <trkpt lat="38.529418017715216" lon="-109.29980638436973">
        <ele>2761.199951171875</ele>
        <time>2012-05-14T16:11:38Z</time>
      </trkpt>
      <trkpt lat="38.529537292197347" lon="-109.29979766719043">
        <ele>2760.199951171875</ele>
        <time>2012-05-14T16:11:41Z</time>
      </trkpt>
      <trkpt lat="38.529606526717544" lon="-109.29992591030896">
        <ele>2758.800048828125</ele>
        <time>2012-05-14T16:11:44Z</time>
      </trkpt>
      <trkpt lat="38.52952622808516" lon="-109.30007225833833">
        <ele>2758</ele>
        <time>2012-05-14T16:11:47Z</time>
      </trkpt>
      <trkpt lat="38.529418017715216" lon="-109.30031038820744">
        <ele>2755.800048828125</ele>
        <time>2012-05-14T16:11:51Z</time>
      </trkpt>
      <trkpt lat="38.52942262776196" lon="-109.30051054805517">
        <ele>2753.800048828125</ele>
        <time>2012-05-14T16:11:54Z</time>
      </trkpt>
      <trkpt lat="38.529440816491842" lon="-109.30057148449123">
        <ele>2753.199951171875</ele>
        <time>2012-05-14T16:11:55Z</time>
      </trkpt>
      <trkpt lat="38.529462022706866" lon="-109.30060693994164">
        <ele>2752.800048828125</ele>
        <time>2012-05-14T16:11:56Z</time>
      </trkpt>
      <trkpt lat="38.529511643573642" lon="-109.30065840482712">
        <ele>2752</ele>
        <time>2012-05-14T16:11:58Z</time>
      </trkpt>
      <trkpt lat="38.529669977724552" lon="-109.30069117806852">
        <ele>2750.60009765625</ele>
        <time>2012-05-14T16:12:03Z</time>
      </trkpt>
      <trkpt lat="38.529707193374634" lon="-109.30068925023079">
        <ele>2750.39990234375</ele>
        <time>2012-05-14T16:12:04Z</time>
      </trkpt>
      <trkpt lat="38.529733093455434" lon="-109.30070819333196">
        <ele>2750</ele>
        <time>2012-05-14T16:12:05Z</time>
      </trkpt>
      <trkpt lat="38.529729237779975" lon="-109.30079653859138">
        <ele>2749.199951171875</ele>
        <time>2012-05-14T16:12:07Z</time>
      </trkpt>
      <trkpt lat="38.529694369062781" lon="-109.3009046651423">
        <ele>2748.199951171875</ele>
        <time>2012-05-14T16:12:09Z</time>
      </trkpt>
      <trkpt lat="38.529654638841748" lon="-109.30098203010857">
        <ele>2747.800048828125</ele>
        <time>2012-05-14T16:12:11Z</time>
      </trkpt>
      <trkpt lat="38.529574340209365" lon="-109.30121295154095">
        <ele>2746</ele>
        <time>2012-05-14T16:12:16Z</time>
      </trkpt>
      <trkpt lat="38.529623374342918" lon="-109.30132216773927">
        <ele>2743.800048828125</ele>
        <time>2012-05-14T16:12:19Z</time>
      </trkpt>
      <trkpt lat="38.529664529487491" lon="-109.30134010501206">
        <ele>2743</ele>
        <time>2012-05-14T16:12:20Z</time>
      </trkpt>
      <trkpt lat="38.52980425581336" lon="-109.30132702924311">
        <ele>2742</ele>
        <time>2012-05-14T16:12:23Z</time>
      </trkpt>
      <trkpt lat="38.529982622712851" lon="-109.30124966427684">
        <ele>2741</ele>
        <time>2012-05-14T16:12:27Z</time>
      </trkpt>
      <trkpt lat="38.530062502250075" lon="-109.30119400843978">
        <ele>2740.60009765625</ele>
        <time>2012-05-14T16:12:29Z</time>
      </trkpt>
      <trkpt lat="38.530146488919854" lon="-109.30114723742008">
        <ele>2740.199951171875</ele>
        <time>2012-05-14T16:12:31Z</time>
      </trkpt>
      <trkpt lat="38.530224524438381" lon="-109.30112544447184">
        <ele>2739.39990234375</ele>
        <time>2012-05-14T16:12:33Z</time>
      </trkpt>
      <trkpt lat="38.530409932136536" lon="-109.3011116143316">
        <ele>2736.800048828125</ele>
        <time>2012-05-14T16:12:37Z</time>
      </trkpt>
      <trkpt lat="38.530607577413321" lon="-109.30116852745414">
        <ele>2734.800048828125</ele>
        <time>2012-05-14T16:12:41Z</time>
      </trkpt>
      <trkpt lat="38.53065887466073" lon="-109.30133390240371">
        <ele>2732.60009765625</ele>
        <time>2012-05-14T16:12:44Z</time>
      </trkpt>
      <trkpt lat="38.530716123059392" lon="-109.30141956545413">
        <ele>2732</ele>
        <time>2012-05-14T16:12:47Z</time>
      </trkpt>
      <trkpt lat="38.53073799982667" lon="-109.30149030871689">
        <ele>2731.60009765625</ele>
        <time>2012-05-14T16:12:49Z</time>
      </trkpt>
      <trkpt lat="38.530758870765567" lon="-109.30152651853859">
        <ele>2731.39990234375</ele>
        <time>2012-05-14T16:12:50Z</time>
      </trkpt>
      <trkpt lat="38.530810754746199" lon="-109.30158955045044">
        <ele>2731</ele>
        <time>2012-05-14T16:12:52Z</time>
      </trkpt>
      <trkpt lat="38.530865991488099" lon="-109.30178199894726">
        <ele>2729.60009765625</ele>
        <time>2012-05-14T16:12:56Z</time>
      </trkpt>
      <trkpt lat="38.530866578221321" lon="-109.30185332894325">
        <ele>2729</ele>
        <time>2012-05-14T16:12:57Z</time>
      </trkpt>
      <trkpt lat="38.530926508828998" lon="-109.30201543495059">
        <ele>2727.39990234375</ele>
        <time>2012-05-14T16:13:00Z</time>
      </trkpt>
      <trkpt lat="38.531066235154867" lon="-109.30216195061803">
        <ele>2726.199951171875</ele>
        <time>2012-05-14T16:13:04Z</time>
      </trkpt>
      <trkpt lat="38.531156675890088" lon="-109.30230628699064">
        <ele>2725</ele>
        <time>2012-05-14T16:13:07Z</time>
      </trkpt>
      <trkpt lat="38.531193472445011" lon="-109.30243310518563">
        <ele>2723.800048828125</ele>
        <time>2012-05-14T16:13:10Z</time>
      </trkpt>
      <trkpt lat="38.531190454959869" lon="-109.30261834524572">
        <ele>2722.39990234375</ele>
        <time>2012-05-14T16:13:13Z</time>
      </trkpt>
      <trkpt lat="38.531276118010283" lon="-109.3027594126761">
        <ele>2721.199951171875</ele>
        <time>2012-05-14T16:13:16Z</time>
      </trkpt>
      <trkpt lat="38.531251810491085" lon="-109.30292478762567">
        <ele>2720</ele>
        <time>2012-05-14T16:13:19Z</time>
      </trkpt>
      <trkpt lat="38.531206715852022" lon="-109.30310742929578">
        <ele>2718.60009765625</ele>
        <time>2012-05-14T16:13:23Z</time>
      </trkpt>
      <trkpt lat="38.531175535172224" lon="-109.30327691137791">
        <ele>2717.199951171875</ele>
        <time>2012-05-14T16:13:27Z</time>
      </trkpt>
      <trkpt lat="38.531179307028651" lon="-109.30332435294986">
        <ele>2716.800048828125</ele>
        <time>2012-05-14T16:13:28Z</time>
      </trkpt>
      <trkpt lat="38.53118609637022" lon="-109.30349207483232">
        <ele>2715.39990234375</ele>
        <time>2012-05-14T16:13:32Z</time>
      </trkpt>
      <trkpt lat="38.53127259761095" lon="-109.303626017645">
        <ele>2714</ele>
        <time>2012-05-14T16:13:36Z</time>
      </trkpt>
      <trkpt lat="38.531424980610609" lon="-109.30376859381795">
        <ele>2712.199951171875</ele>
        <time>2012-05-14T16:13:41Z</time>
      </trkpt>
      <trkpt lat="38.531441073864698" lon="-109.30383288301528">
        <ele>2711.800048828125</ele>
        <time>2012-05-14T16:13:43Z</time>
      </trkpt>
      <trkpt lat="38.531456328928471" lon="-109.30387822911143">
        <ele>2711.60009765625</ele>
        <time>2012-05-14T16:13:44Z</time>
      </trkpt>
      <trkpt lat="38.531556408852339" lon="-109.30397688411176">
        <ele>2710.60009765625</ele>
        <time>2012-05-14T16:13:47Z</time>
      </trkpt>
      <trkpt lat="38.531675515696406" lon="-109.30400303564966">
        <ele>2709.800048828125</ele>
        <time>2012-05-14T16:13:50Z</time>
      </trkpt>
      <trkpt lat="38.531708875671029" lon="-109.30411635898054">
        <ele>2709</ele>
        <time>2012-05-14T16:13:53Z</time>
      </trkpt>
      <trkpt lat="38.531716670840979" lon="-109.30421954020858">
        <ele>2708.39990234375</ele>
        <time>2012-05-14T16:13:56Z</time>
      </trkpt>
      <trkpt lat="38.531761011108756" lon="-109.30432364344597">
        <ele>2707.39990234375</ele>
        <time>2012-05-14T16:13:59Z</time>
      </trkpt>
      <trkpt lat="38.531822618097067" lon="-109.30432657711208">
        <ele>2706.800048828125</ele>
        <time>2012-05-14T16:14:01Z</time>
      </trkpt>
      <trkpt lat="38.531849104911089" lon="-109.30436907336116">
        <ele>2706.199951171875</ele>
        <time>2012-05-14T16:14:02Z</time>
      </trkpt>
      <trkpt lat="38.531911130994558" lon="-109.30457719601691">
        <ele>2703.199951171875</ele>
        <time>2012-05-14T16:14:05Z</time>
      </trkpt>
      <trkpt lat="38.532011965289712" lon="-109.3047399725765">
        <ele>2700.39990234375</ele>
        <time>2012-05-14T16:14:08Z</time>
      </trkpt>
      <trkpt lat="38.532103830948472" lon="-109.30491850711405">
        <ele>2698.199951171875</ele>
        <time>2012-05-14T16:14:11Z</time>
      </trkpt>
      <trkpt lat="38.532179016619921" lon="-109.30509737692773">
        <ele>2695.800048828125</ele>
        <time>2012-05-14T16:14:14Z</time>
      </trkpt>
      <trkpt lat="38.532222770154476" lon="-109.30512570776045">
        <ele>2695.199951171875</ele>
        <time>2012-05-14T16:14:15Z</time>
      </trkpt>
      <trkpt lat="38.532344726845622" lon="-109.30508899502456">
        <ele>2694.39990234375</ele>
        <time>2012-05-14T16:14:17Z</time>
      </trkpt>
      <trkpt lat="38.532465761527419" lon="-109.30503727868199">
        <ele>2693.800048828125</ele>
        <time>2012-05-14T16:14:19Z</time>
      </trkpt>
      <trkpt lat="38.532525608316064" lon="-109.30503945797682">
        <ele>2693.199951171875</ele>
        <time>2012-05-14T16:14:20Z</time>
      </trkpt>
      <trkpt lat="38.532580928876996" lon="-109.30503719486296">
        <ele>2692.60009765625</ele>
        <time>2012-05-14T16:14:21Z</time>
      </trkpt>
      <trkpt lat="38.532621832564473" lon="-109.30505538359284">
        <ele>2692.199951171875</ele>
        <time>2012-05-14T16:14:22Z</time>
      </trkpt>
      <trkpt lat="38.532648654654622" lon="-109.30514272302389">
        <ele>2691</ele>
        <time>2012-05-14T16:14:24Z</time>
      </trkpt>
      <trkpt lat="38.532683020457625" lon="-109.30540457367897">
        <ele>2688</ele>
        <time>2012-05-14T16:14:28Z</time>
      </trkpt>
      <trkpt lat="38.532740939408541" lon="-109.30555645376444">
        <ele>2686</ele>
        <time>2012-05-14T16:14:31Z</time>
      </trkpt>
      <trkpt lat="38.532743202522397" lon="-109.30571872740984">
        <ele>2684.39990234375</ele>
        <time>2012-05-14T16:14:34Z</time>
      </trkpt>
      <trkpt lat="38.532869182527065" lon="-109.30582584813237">
        <ele>2682.199951171875</ele>
        <time>2012-05-14T16:14:37Z</time>
      </trkpt>
      <trkpt lat="38.533035228028893" lon="-109.30581822060049">
        <ele>2680.800048828125</ele>
        <time>2012-05-14T16:14:40Z</time>
      </trkpt>
      <trkpt lat="38.533131536096334" lon="-109.30582685396075">
        <ele>2680</ele>
        <time>2012-05-14T16:14:43Z</time>
      </trkpt>
      <trkpt lat="38.533111000433564" lon="-109.30595115758479">
        <ele>2678.60009765625</ele>
        <time>2012-05-14T16:14:45Z</time>
      </trkpt>
      <trkpt lat="38.533097337931395" lon="-109.30599885061383">
        <ele>2678</ele>
        <time>2012-05-14T16:14:46Z</time>
      </trkpt>
      <trkpt lat="38.533085603266954" lon="-109.30610010400414">
        <ele>2677</ele>
        <time>2012-05-14T16:14:48Z</time>
      </trkpt>
      <trkpt lat="38.533106977120042" lon="-109.30624276399612">
        <ele>2675.199951171875</ele>
        <time>2012-05-14T16:14:51Z</time>
      </trkpt>
      <trkpt lat="38.533197250217199" lon="-109.30633680894971">
        <ele>2673.800048828125</ele>
        <time>2012-05-14T16:14:54Z</time>
      </trkpt>
      <trkpt lat="38.533255169168115" lon="-109.30644443258643">
        <ele>2672.199951171875</ele>
        <time>2012-05-14T16:14:56Z</time>
      </trkpt>
      <trkpt lat="38.533274866640568" lon="-109.3064943049103">
        <ele>2671.39990234375</ele>
        <time>2012-05-14T16:14:57Z</time>
      </trkpt>
      <trkpt lat="38.533319877460599" lon="-109.30659002624452">
        <ele>2670</ele>
        <time>2012-05-14T16:14:59Z</time>
      </trkpt>
      <trkpt lat="38.533426327630877" lon="-109.30663101375103">
        <ele>2668.800048828125</ele>
        <time>2012-05-14T16:15:02Z</time>
      </trkpt>
      <trkpt lat="38.533466979861259" lon="-109.30675774812698">
        <ele>2666.800048828125</ele>
        <time>2012-05-14T16:15:05Z</time>
      </trkpt>
      <trkpt lat="38.533491035923362" lon="-109.30691507644951">
        <ele>2664.800048828125</ele>
        <time>2012-05-14T16:15:08Z</time>
      </trkpt>
      <trkpt lat="38.533516684547067" lon="-109.30695421993732">
        <ele>2664</ele>
        <time>2012-05-14T16:15:09Z</time>
      </trkpt>
      <trkpt lat="38.533641491085291" lon="-109.30704340338707">
        <ele>2662.199951171875</ele>
        <time>2012-05-14T16:15:12Z</time>
      </trkpt>
      <trkpt lat="38.533657332882285" lon="-109.30719084106386">
        <ele>2660.60009765625</ele>
        <time>2012-05-14T16:15:15Z</time>
      </trkpt>
      <trkpt lat="38.533689267933369" lon="-109.30723300203681">
        <ele>2660</ele>
        <time>2012-05-14T16:15:16Z</time>
      </trkpt>
      <trkpt lat="38.533733608201146" lon="-109.30720978416502">
        <ele>2660</ele>
        <time>2012-05-14T16:15:17Z</time>
      </trkpt>
      <trkpt lat="38.533745259046555" lon="-109.30729519575834">
        <ele>2659.199951171875</ele>
        <time>2012-05-14T16:15:20Z</time>
      </trkpt>
      <trkpt lat="38.533711731433868" lon="-109.30737817659974">
        <ele>2658.60009765625</ele>
        <time>2012-05-14T16:15:23Z</time>
      </trkpt>
      <trkpt lat="38.533707624301314" lon="-109.30741807445884">
        <ele>2658.199951171875</ele>
        <time>2012-05-14T16:15:25Z</time>
      </trkpt>
      <trkpt lat="38.533723885193467" lon="-109.30745160207152">
        <ele>2657.800048828125</ele>
        <time>2012-05-14T16:15:27Z</time>
      </trkpt>
      <trkpt lat="38.533758586272597" lon="-109.30745696648955">
        <ele>2657.39990234375</ele>
        <time>2012-05-14T16:15:29Z</time>
      </trkpt>
      <trkpt lat="38.533812733367085" lon="-109.3074716348201">
        <ele>2656.800048828125</ele>
        <time>2012-05-14T16:15:32Z</time>
      </trkpt>
      <trkpt lat="38.533810805529356" lon="-109.30747280828655">
        <ele>2656.800048828125</ele>
        <time>2012-05-14T16:15:34Z</time>
      </trkpt>
      <trkpt lat="38.533806866034865" lon="-109.30747213773429">
        <ele>2657</ele>
        <time>2012-05-14T16:15:41Z</time>
      </trkpt>
      <trkpt lat="38.53380904532969" lon="-109.30745151825249">
        <ele>2657.199951171875</ele>
        <time>2012-05-14T16:16:28Z</time>
      </trkpt>
      <trkpt lat="38.533813403919339" lon="-109.30745663121343">
        <ele>2657</ele>
        <time>2012-05-14T16:17:15Z</time>
      </trkpt>
      <trkpt lat="38.533818181604147" lon="-109.30745302699506">
        <ele>2657</ele>
        <time>2012-05-14T16:17:37Z</time>
      </trkpt>
      <trkpt lat="38.533831927925348" lon="-109.3074285518378">
        <ele>2657.199951171875</ele>
        <time>2012-05-14T16:18:43Z</time>
      </trkpt>
      <trkpt lat="38.533858247101307" lon="-109.30741874501109">
        <ele>2657</ele>
        <time>2012-05-14T16:18:49Z</time>
      </trkpt>
      <trkpt lat="38.533867886289954" lon="-109.30741832591593">
        <ele>2657</ele>
        <time>2012-05-14T16:18:54Z</time>
      </trkpt>
      <trkpt lat="38.533910969272256" lon="-109.30744246579707">
        <ele>2656.39990234375</ele>
        <time>2012-05-14T16:19:29Z</time>
      </trkpt>
      <trkpt lat="38.533916417509317" lon="-109.30747775360942">
        <ele>2656</ele>
        <time>2012-05-14T16:19:30Z</time>
      </trkpt>
      <trkpt lat="38.534005936235189" lon="-109.30762762203813">
        <ele>2654</ele>
        <time>2012-05-14T16:19:34Z</time>
      </trkpt>
      <trkpt lat="38.534116996452212" lon="-109.30783574469388">
        <ele>2651.60009765625</ele>
        <time>2012-05-14T16:19:38Z</time>
      </trkpt>
      <trkpt lat="38.534107357263565" lon="-109.30801905691624">
        <ele>2650.39990234375</ele>
        <time>2012-05-14T16:19:41Z</time>
      </trkpt>
      <trkpt lat="38.534087995067239" lon="-109.30808091536164">
        <ele>2650</ele>
        <time>2012-05-14T16:19:42Z</time>
      </trkpt>
      <trkpt lat="38.534093610942364" lon="-109.30813807994127">
        <ele>2649.800048828125</ele>
        <time>2012-05-14T16:19:43Z</time>
      </trkpt>
      <trkpt lat="38.534144656732678" lon="-109.30821661837399">
        <ele>2649.199951171875</ele>
        <time>2012-05-14T16:19:45Z</time>
      </trkpt>
      <trkpt lat="38.53415253572166" lon="-109.3084114138037">
        <ele>2647.800048828125</ele>
        <time>2012-05-14T16:19:48Z</time>
      </trkpt>
      <trkpt lat="38.534180782735348" lon="-109.30852306075394">
        <ele>2646.800048828125</ele>
        <time>2012-05-14T16:19:50Z</time>
      </trkpt>
      <trkpt lat="38.534204419702291" lon="-109.30856580846012">
        <ele>2646.39990234375</ele>
        <time>2012-05-14T16:19:51Z</time>
      </trkpt>
      <trkpt lat="38.534196456894279" lon="-109.30861609987915">
        <ele>2645.800048828125</ele>
        <time>2012-05-14T16:19:52Z</time>
      </trkpt>
      <trkpt lat="38.534212214872241" lon="-109.30881089530885">
        <ele>2643.39990234375</ele>
        <time>2012-05-14T16:19:55Z</time>
      </trkpt>
      <trkpt lat="38.534256303682923" lon="-109.3089933693409">
        <ele>2640.60009765625</ele>
        <time>2012-05-14T16:19:58Z</time>
      </trkpt>
      <trkpt lat="38.53425663895905" lon="-109.30906034074724">
        <ele>2639.800048828125</ele>
        <time>2012-05-14T16:19:59Z</time>
      </trkpt>
      <trkpt lat="38.534270469099283" lon="-109.30911557748914">
        <ele>2639.39990234375</ele>
        <time>2012-05-14T16:20:00Z</time>
      </trkpt>
      <trkpt lat="38.534338194876909" lon="-109.30908808484674">
        <ele>2639.39990234375</ele>
        <time>2012-05-14T16:20:01Z</time>
      </trkpt>
      <trkpt lat="38.534413129091263" lon="-109.30923284031451">
        <ele>2637.800048828125</ele>
        <time>2012-05-14T16:20:04Z</time>
      </trkpt>
      <trkpt lat="38.534412793815136" lon="-109.30933183059096">
        <ele>2637.199951171875</ele>
        <time>2012-05-14T16:20:06Z</time>
      </trkpt>
      <trkpt lat="38.534436346963048" lon="-109.30937139317393">
        <ele>2636.800048828125</ele>
        <time>2012-05-14T16:20:07Z</time>
      </trkpt>
      <trkpt lat="38.534438693895936" lon="-109.3094283901155">
        <ele>2636.60009765625</ele>
        <time>2012-05-14T16:20:08Z</time>
      </trkpt>
      <trkpt lat="38.534435760229826" lon="-109.30959611199796">
        <ele>2635.60009765625</ele>
        <time>2012-05-14T16:20:11Z</time>
      </trkpt>
      <trkpt lat="38.534539779648185" lon="-109.3095872271806">
        <ele>2635</ele>
        <time>2012-05-14T16:20:13Z</time>
      </trkpt>
      <trkpt lat="38.534680008888245" lon="-109.30963316000998">
        <ele>2633.800048828125</ele>
        <time>2012-05-14T16:20:16Z</time>
      </trkpt>
      <trkpt lat="38.53479165583849" lon="-109.3097391910851">
        <ele>2632.39990234375</ele>
        <time>2012-05-14T16:20:19Z</time>
      </trkpt>
      <trkpt lat="38.534895675256848" lon="-109.30991252884269">
        <ele>2630.60009765625</ele>
        <time>2012-05-14T16:20:22Z</time>
      </trkpt>
      <trkpt lat="38.534992570057511" lon="-109.31003549136221">
        <ele>2629</ele>
        <time>2012-05-14T16:20:25Z</time>
      </trkpt>
      <trkpt lat="38.535003634169698" lon="-109.31018502451479">
        <ele>2627.800048828125</ele>
        <time>2012-05-14T16:20:27Z</time>
      </trkpt>
      <trkpt lat="38.53499005548656" lon="-109.31024864315987">
        <ele>2627.199951171875</ele>
        <time>2012-05-14T16:20:28Z</time>
      </trkpt>
      <trkpt lat="38.535025762394071" lon="-109.3103763833642">
        <ele>2625.800048828125</ele>
        <time>2012-05-14T16:20:31Z</time>
      </trkpt>
      <trkpt lat="38.53509709239006" lon="-109.31034126318991">
        <ele>2625.800048828125</ele>
        <time>2012-05-14T16:20:32Z</time>
      </trkpt>
      <trkpt lat="38.535264143720269" lon="-109.31028418242931">
        <ele>2626</ele>
        <time>2012-05-14T16:20:35Z</time>
      </trkpt>
      <trkpt lat="38.535301862284541" lon="-109.31041368283331">
        <ele>2624.800048828125</ele>
        <time>2012-05-14T16:20:37Z</time>
      </trkpt>
      <trkpt lat="38.535402864217758" lon="-109.31060914881527">
        <ele>2622.800048828125</ele>
        <time>2012-05-14T16:20:40Z</time>
      </trkpt>
      <trkpt lat="38.535554241389036" lon="-109.31067804805934">
        <ele>2621.60009765625</ele>
        <time>2012-05-14T16:20:43Z</time>
      </trkpt>
      <trkpt lat="38.535649878904223" lon="-109.31072129867971">
        <ele>2620.60009765625</ele>
        <time>2012-05-14T16:20:46Z</time>
      </trkpt>
      <trkpt lat="38.535661781206727" lon="-109.31087711825967">
        <ele>2618.800048828125</ele>
        <time>2012-05-14T16:20:49Z</time>
      </trkpt>
      <trkpt lat="38.535628840327263" lon="-109.31098055094481">
        <ele>2617.60009765625</ele>
        <time>2012-05-14T16:20:52Z</time>
      </trkpt>
      <trkpt lat="38.535693380981684" lon="-109.31105808354914">
        <ele>2616.60009765625</ele>
        <time>2012-05-14T16:20:56Z</time>
      </trkpt>
      <trkpt lat="38.535755490884185" lon="-109.31097300723195">
        <ele>2617</ele>
        <time>2012-05-14T16:20:59Z</time>
      </trkpt>
      <trkpt lat="38.535768818110228" lon="-109.31093629449606">
        <ele>2617.39990234375</ele>
        <time>2012-05-14T16:21:00Z</time>
      </trkpt>
      <trkpt lat="38.535869149491191" lon="-109.31082573719323">
        <ele>2617.60009765625</ele>
        <time>2012-05-14T16:21:03Z</time>
      </trkpt>
      <trkpt lat="38.535992112010717" lon="-109.31085783988237">
        <ele>2616.199951171875</ele>
        <time>2012-05-14T16:21:06Z</time>
      </trkpt>
      <trkpt lat="38.536106357350945" lon="-109.31090360507369">
        <ele>2614.39990234375</ele>
        <time>2012-05-14T16:21:10Z</time>
      </trkpt>
      <trkpt lat="38.536198055371642" lon="-109.31082691065967">
        <ele>2614.199951171875</ele>
        <time>2012-05-14T16:21:13Z</time>
      </trkpt>
      <trkpt lat="38.536259746178985" lon="-109.31080520153046">
        <ele>2613.800048828125</ele>
        <time>2012-05-14T16:21:15Z</time>
      </trkpt>
      <trkpt lat="38.536353120580316" lon="-109.31077930144966">
        <ele>2612.60009765625</ele>
        <time>2012-05-14T16:21:17Z</time>
      </trkpt>
      <trkpt lat="38.536513298749924" lon="-109.3107098992914">
        <ele>2612</ele>
        <time>2012-05-14T16:21:21Z</time>
      </trkpt>
      <trkpt lat="38.536637686192989" lon="-109.31067276746035">
        <ele>2610</ele>
        <time>2012-05-14T16:21:23Z</time>
      </trkpt>
      <trkpt lat="38.536692755296826" lon="-109.31065415963531">
        <ele>2609.199951171875</ele>
        <time>2012-05-14T16:21:24Z</time>
      </trkpt>
      <trkpt lat="38.536732317879796" lon="-109.3106213863939">
        <ele>2609.39990234375</ele>
        <time>2012-05-14T16:21:25Z</time>
      </trkpt>
      <trkpt lat="38.536799792200327" lon="-109.31054309941828">
        <ele>2610.800048828125</ele>
        <time>2012-05-14T16:21:27Z</time>
      </trkpt>
      <trkpt lat="38.536819657310843" lon="-109.31050261482596">
        <ele>2611.60009765625</ele>
        <time>2012-05-14T16:21:28Z</time>
      </trkpt>
      <trkpt lat="38.536866344511509" lon="-109.31048082187772">
        <ele>2610.60009765625</ele>
        <time>2012-05-14T16:21:30Z</time>
      </trkpt>
      <trkpt lat="38.536960640922189" lon="-109.31044310331345">
        <ele>2608</ele>
        <time>2012-05-14T16:21:32Z</time>
      </trkpt>
      <trkpt lat="38.537004729732871" lon="-109.31043304502964">
        <ele>2606.39990234375</ele>
        <time>2012-05-14T16:21:33Z</time>
      </trkpt>
      <trkpt lat="38.53709114715457" lon="-109.31034754961729">
        <ele>2605.800048828125</ele>
        <time>2012-05-14T16:21:36Z</time>
      </trkpt>
      <trkpt lat="38.537242021411657" lon="-109.31029994040728">
        <ele>2602</ele>
        <time>2012-05-14T16:21:39Z</time>
      </trkpt>
      <trkpt lat="38.537293653935194" lon="-109.31027043610811">
        <ele>2601</ele>
        <time>2012-05-14T16:21:40Z</time>
      </trkpt>
      <trkpt lat="38.537336820736527" lon="-109.31023648940027">
        <ele>2600.199951171875</ele>
        <time>2012-05-14T16:21:43Z</time>
      </trkpt>
      <trkpt lat="38.537414018064737" lon="-109.31023925542831">
        <ele>2597.800048828125</ele>
        <time>2012-05-14T16:21:46Z</time>
      </trkpt>
      <trkpt lat="38.537447629496455" lon="-109.31024772115052">
        <ele>2596.800048828125</ele>
        <time>2012-05-14T16:21:47Z</time>
      </trkpt>
      <trkpt lat="38.537489958107471" lon="-109.31022902950644">
        <ele>2596</ele>
        <time>2012-05-14T16:21:48Z</time>
      </trkpt>
      <trkpt lat="38.537555253133178" lon="-109.31015761569142">
        <ele>2596</ele>
        <time>2012-05-14T16:21:50Z</time>
      </trkpt>
      <trkpt lat="38.537661787122488" lon="-109.31011822074652">
        <ele>2594</ele>
        <time>2012-05-14T16:21:53Z</time>
      </trkpt>
      <trkpt lat="38.537704786285758" lon="-109.3101173825562">
        <ele>2593</ele>
        <time>2012-05-14T16:21:54Z</time>
      </trkpt>
      <trkpt lat="38.537810314446688" lon="-109.31005703285336">
        <ele>2592</ele>
        <time>2012-05-14T16:21:57Z</time>
      </trkpt>
      <trkpt lat="38.537832107394934" lon="-109.31002803146839">
        <ele>2592</ele>
        <time>2012-05-14T16:21:58Z</time>
      </trkpt>
      <trkpt lat="38.537887176498771" lon="-109.3099910672754">
        <ele>2591.60009765625</ele>
        <time>2012-05-14T16:22:00Z</time>
      </trkpt>
      <trkpt lat="38.538082474842668" lon="-109.30997095070779">
        <ele>2588.800048828125</ele>
        <time>2012-05-14T16:22:04Z</time>
      </trkpt>
      <trkpt lat="38.53822379373014" lon="-109.30996709503233">
        <ele>2586.60009765625</ele>
        <time>2012-05-14T16:22:07Z</time>
      </trkpt>
      <trkpt lat="38.538268972188234" lon="-109.30994622409344">
        <ele>2586.199951171875</ele>
        <time>2012-05-14T16:22:08Z</time>
      </trkpt>
      <trkpt lat="38.538363184779882" lon="-109.30993197485805">
        <ele>2585</ele>
        <time>2012-05-14T16:22:11Z</time>
      </trkpt>
      <trkpt lat="38.538518417626619" lon="-109.30994102731347">
        <ele>2582.800048828125</ele>
        <time>2012-05-14T16:22:14Z</time>
      </trkpt>
      <trkpt lat="38.538570301607251" lon="-109.30996483191848">
        <ele>2582</ele>
        <time>2012-05-14T16:22:15Z</time>
      </trkpt>
      <trkpt lat="38.538675159215927" lon="-109.31011880747974">
        <ele>2578.39990234375</ele>
        <time>2012-05-14T16:22:19Z</time>
      </trkpt>
      <trkpt lat="38.538769455626607" lon="-109.31021536700428">
        <ele>2576.60009765625</ele>
        <time>2012-05-14T16:22:23Z</time>
      </trkpt>
      <trkpt lat="38.53887272067368" lon="-109.31032181717455">
        <ele>2575.800048828125</ele>
        <time>2012-05-14T16:22:27Z</time>
      </trkpt>
      <trkpt lat="38.538901889696717" lon="-109.31035484187305">
        <ele>2575.39990234375</ele>
        <time>2012-05-14T16:22:28Z</time>
      </trkpt>
      <trkpt lat="38.53896458633244" lon="-109.31051854044199">
        <ele>2573.199951171875</ele>
        <time>2012-05-14T16:22:32Z</time>
      </trkpt>
      <trkpt lat="38.539055110886693" lon="-109.31059213355184">
        <ele>2572.39990234375</ele>
        <time>2012-05-14T16:22:35Z</time>
      </trkpt>
      <trkpt lat="38.539169607684016" lon="-109.31055382825434">
        <ele>2573.199951171875</ele>
        <time>2012-05-14T16:22:38Z</time>
      </trkpt>
      <trkpt lat="38.539306819438934" lon="-109.31066513992846">
        <ele>2571.39990234375</ele>
        <time>2012-05-14T16:22:42Z</time>
      </trkpt>
      <trkpt lat="38.539407150819898" lon="-109.3106631282717">
        <ele>2571</ele>
        <time>2012-05-14T16:22:45Z</time>
      </trkpt>
      <trkpt lat="38.539548637345433" lon="-109.31064711883664">
        <ele>2570.60009765625</ele>
        <time>2012-05-14T16:22:49Z</time>
      </trkpt>
      <trkpt lat="38.539670510217547" lon="-109.31071216240525">
        <ele>2568.60009765625</ele>
        <time>2012-05-14T16:22:52Z</time>
      </trkpt>
      <trkpt lat="38.539820127189159" lon="-109.31065960787237">
        <ele>2568</ele>
        <time>2012-05-14T16:22:55Z</time>
      </trkpt>
      <trkpt lat="38.539881650358438" lon="-109.3106438498944">
        <ele>2567.60009765625</ele>
        <time>2012-05-14T16:22:56Z</time>
      </trkpt>
      <trkpt lat="38.539938060566783" lon="-109.31060747243464">
        <ele>2567.800048828125</ele>
        <time>2012-05-14T16:22:57Z</time>
      </trkpt>
      <trkpt lat="38.540043421089649" lon="-109.31058425456285">
        <ele>2567</ele>
        <time>2012-05-14T16:22:59Z</time>
      </trkpt>
      <trkpt lat="38.540082480758429" lon="-109.31053765118122">
        <ele>2567.39990234375</ele>
        <time>2012-05-14T16:23:00Z</time>
      </trkpt>
      <trkpt lat="38.540161019191146" lon="-109.3104953225702">
        <ele>2567.199951171875</ele>
        <time>2012-05-14T16:23:02Z</time>
      </trkpt>
      <trkpt lat="38.540258668363094" lon="-109.31043966673315">
        <ele>2567.199951171875</ele>
        <time>2012-05-14T16:23:04Z</time>
      </trkpt>
      <trkpt lat="38.540361346676946" lon="-109.31042667478323">
        <ele>2566.39990234375</ele>
        <time>2012-05-14T16:23:06Z</time>
      </trkpt>
      <trkpt lat="38.540470395237207" lon="-109.31043673306704">
        <ele>2565.39990234375</ele>
        <time>2012-05-14T16:23:08Z</time>
      </trkpt>
      <trkpt lat="38.540541222319007" lon="-109.31050471030176">
        <ele>2564.199951171875</ele>
        <time>2012-05-14T16:23:10Z</time>
      </trkpt>
      <trkpt lat="38.540687151253223" lon="-109.31055827066302">
        <ele>2563.199951171875</ele>
        <time>2012-05-14T16:23:13Z</time>
      </trkpt>
      <trkpt lat="38.540741298347712" lon="-109.31074292398989">
        <ele>2561.39990234375</ele>
        <time>2012-05-14T16:23:16Z</time>
      </trkpt>
      <trkpt lat="38.540858225896955" lon="-109.31076312437654">
        <ele>2561</ele>
        <time>2012-05-14T16:23:19Z</time>
      </trkpt>
      <trkpt lat="38.540920922532678" lon="-109.31080235168338">
        <ele>2560.39990234375</ele>
        <time>2012-05-14T16:23:22Z</time>
      </trkpt>
      <trkpt lat="38.540923101827502" lon="-109.31080570444465">
        <ele>2560.39990234375</ele>
        <time>2012-05-14T16:23:24Z</time>
      </trkpt>
      <trkpt lat="38.540922179818153" lon="-109.31080461479723">
        <ele>2560.39990234375</ele>
        <time>2012-05-14T16:23:26Z</time>
      </trkpt>
      <trkpt lat="38.540928298607469" lon="-109.31085884571075">
        <ele>2559.800048828125</ele>
        <time>2012-05-14T16:24:06Z</time>
      </trkpt>
      <trkpt lat="38.541035670787096" lon="-109.31092640385032">
        <ele>2558.800048828125</ele>
        <time>2012-05-14T16:24:10Z</time>
      </trkpt>
      <trkpt lat="38.541054781526327" lon="-109.31095959618688">
        <ele>2558.39990234375</ele>
        <time>2012-05-14T16:24:11Z</time>
      </trkpt>
      <trkpt lat="38.541114293038845" lon="-109.31101927533746">
        <ele>2557.60009765625</ele>
        <time>2012-05-14T16:24:13Z</time>
      </trkpt>
      <trkpt lat="38.541231974959373" lon="-109.31096311658621">
        <ele>2557.39990234375</ele>
        <time>2012-05-14T16:24:16Z</time>
      </trkpt>
      <trkpt lat="38.54136667214334" lon="-109.31094727478921">
        <ele>2556.39990234375</ele>
        <time>2012-05-14T16:24:19Z</time>
      </trkpt>
      <trkpt lat="38.541394835337996" lon="-109.31107090786099">
        <ele>2555</ele>
        <time>2012-05-14T16:24:22Z</time>
      </trkpt>
      <trkpt lat="38.541455268859863" lon="-109.31123217567801">
        <ele>2553</ele>
        <time>2012-05-14T16:24:25Z</time>
      </trkpt>
      <trkpt lat="38.541519474238157" lon="-109.31140794418752">
        <ele>2551.39990234375</ele>
        <time>2012-05-14T16:24:28Z</time>
      </trkpt>
      <trkpt lat="38.541606897488236" lon="-109.31155202910304">
        <ele>2550</ele>
        <time>2012-05-14T16:24:31Z</time>
      </trkpt>
      <trkpt lat="38.541720137000084" lon="-109.31148698553443">
        <ele>2549.800048828125</ele>
        <time>2012-05-14T16:24:34Z</time>
      </trkpt>
      <trkpt lat="38.541753077879548" lon="-109.31144004687667">
        <ele>2550</ele>
        <time>2012-05-14T16:24:35Z</time>
      </trkpt>
      <trkpt lat="38.541796244680882" lon="-109.31140643544495">
        <ele>2550</ele>
        <time>2012-05-14T16:24:36Z</time>
      </trkpt>
      <trkpt lat="38.54189439676702" lon="-109.31140316650271">
        <ele>2549.199951171875</ele>
        <time>2012-05-14T16:24:38Z</time>
      </trkpt>
      <trkpt lat="38.541933791711926" lon="-109.31156896054745">
        <ele>2547.60009765625</ele>
        <time>2012-05-14T16:24:40Z</time>
      </trkpt>
      <trkpt lat="38.54194225743413" lon="-109.31164858862758">
        <ele>2547</ele>
        <time>2012-05-14T16:24:41Z</time>
      </trkpt>
      <trkpt lat="38.541999589651823" lon="-109.31185654364526">
        <ele>2545</ele>
        <time>2012-05-14T16:24:44Z</time>
      </trkpt>
      <trkpt lat="38.542046779766679" lon="-109.31192183867097">
        <ele>2544</ele>
        <time>2012-05-14T16:24:45Z</time>
      </trkpt>
      <trkpt lat="38.542254064232111" lon="-109.31207019835711">
        <ele>2540</ele>
        <time>2012-05-14T16:24:48Z</time>
      </trkpt>
      <trkpt lat="38.542468557134271" lon="-109.31222291663289">
        <ele>2537.39990234375</ele>
        <time>2012-05-14T16:24:51Z</time>
      </trkpt>
      <trkpt lat="38.542519435286522" lon="-109.31227957829833">
        <ele>2536.800048828125</ele>
        <time>2012-05-14T16:24:52Z</time>
      </trkpt>
      <trkpt lat="38.542600655928254" lon="-109.31241972371936">
        <ele>2536.199951171875</ele>
        <time>2012-05-14T16:24:55Z</time>
      </trkpt>
      <trkpt lat="38.542590346187353" lon="-109.31243573315442">
        <ele>2536.199951171875</ele>
        <time>2012-05-14T16:24:58Z</time>
      </trkpt>
      <trkpt lat="38.542554639279842" lon="-109.31236985139549">
        <ele>2536.199951171875</ele>
        <time>2012-05-14T16:25:02Z</time>
      </trkpt>
      <trkpt lat="38.542520441114902" lon="-109.31229424662888">
        <ele>2536.800048828125</ele>
        <time>2012-05-14T16:25:09Z</time>
      </trkpt>
      <trkpt lat="38.542488170787692" lon="-109.31219031102955">
        <ele>2537.199951171875</ele>
        <time>2012-05-14T16:25:17Z</time>
      </trkpt>
      <trkpt lat="38.542479872703552" lon="-109.31216114200652">
        <ele>2537.39990234375</ele>
        <time>2012-05-14T16:25:20Z</time>
      </trkpt>
      <trkpt lat="38.54246512055397" lon="-109.31212560273707">
        <ele>2537.60009765625</ele>
        <time>2012-05-14T16:25:24Z</time>
      </trkpt>
      <trkpt lat="38.542462103068829" lon="-109.31211562827229">
        <ele>2537.800048828125</ele>
        <time>2012-05-14T16:25:26Z</time>
      </trkpt>
      <trkpt lat="38.542443076148629" lon="-109.31212283670902">
        <ele>2537.800048828125</ele>
        <time>2012-05-14T16:25:29Z</time>
      </trkpt>
      <trkpt lat="38.54238348081708" lon="-109.31208738125861">
        <ele>2538.39990234375</ele>
        <time>2012-05-14T16:25:37Z</time>
      </trkpt>
      <trkpt lat="38.542372165247798" lon="-109.31207983754575">
        <ele>2538.39990234375</ele>
        <time>2012-05-14T16:25:38Z</time>
      </trkpt>
      <trkpt lat="38.542342493310571" lon="-109.31207137182355">
        <ele>2538.800048828125</ele>
        <time>2012-05-14T16:25:42Z</time>
      </trkpt>
      <trkpt lat="38.542286334559321" lon="-109.31204186752439">
        <ele>2539.800048828125</ele>
        <time>2012-05-14T16:25:47Z</time>
      </trkpt>
      <trkpt lat="38.542225649580359" lon="-109.31201202794909">
        <ele>2541</ele>
        <time>2012-05-14T16:25:52Z</time>
      </trkpt>
      <trkpt lat="38.54212355799973" lon="-109.31193768046796">
        <ele>2543</ele>
        <time>2012-05-14T16:26:01Z</time>
      </trkpt>
      <trkpt lat="38.542079888284206" lon="-109.31189551949501">
        <ele>2543.800048828125</ele>
        <time>2012-05-14T16:26:05Z</time>
      </trkpt>
      <trkpt lat="38.542065052315593" lon="-109.31187246926129">
        <ele>2544.199951171875</ele>
        <time>2012-05-14T16:26:07Z</time>
      </trkpt>
      <trkpt lat="38.542035967111588" lon="-109.31183483451605">
        <ele>2544.800048828125</ele>
        <time>2012-05-14T16:26:10Z</time>
      </trkpt>
      <trkpt lat="38.541994644328952" lon="-109.31177632883191">
        <ele>2545.60009765625</ele>
        <time>2012-05-14T16:26:15Z</time>
      </trkpt>
      <trkpt lat="38.541944185271859" lon="-109.31167490780354">
        <ele>2546.800048828125</ele>
        <time>2012-05-14T16:26:24Z</time>
      </trkpt>
      <trkpt lat="38.541932282969356" lon="-109.31166459806263">
        <ele>2547</ele>
        <time>2012-05-14T16:26:33Z</time>
      </trkpt>
      <trkpt lat="38.541955668479204" lon="-109.31171958334744">
        <ele>2546.39990234375</ele>
        <time>2012-05-14T16:27:46Z</time>
      </trkpt>
      <trkpt lat="38.541986513882875" lon="-109.31180750951171">
        <ele>2545.39990234375</ele>
        <time>2012-05-14T16:27:54Z</time>
      </trkpt>
      <trkpt lat="38.542036134749651" lon="-109.31188344955444">
        <ele>2544.39990234375</ele>
        <time>2012-05-14T16:28:01Z</time>
      </trkpt>
      <trkpt lat="38.542102603241801" lon="-109.3119406979531">
        <ele>2543.199951171875</ele>
        <time>2012-05-14T16:28:08Z</time>
      </trkpt>
      <trkpt lat="38.54216412641108" lon="-109.31198528967798">
        <ele>2542</ele>
        <time>2012-05-14T16:28:15Z</time>
      </trkpt>
      <trkpt lat="38.542251046746969" lon="-109.31203641928732">
        <ele>2540.39990234375</ele>
        <time>2012-05-14T16:28:24Z</time>
      </trkpt>
      <trkpt lat="38.542330926284194" lon="-109.31208847090602">
        <ele>2538.800048828125</ele>
        <time>2012-05-14T16:28:32Z</time>
      </trkpt>
      <trkpt lat="38.542385911568999" lon="-109.31213163770735">
        <ele>2538.199951171875</ele>
        <time>2012-05-14T16:28:38Z</time>
      </trkpt>
      <trkpt lat="38.542402675375342" lon="-109.31215108372271">
        <ele>2538</ele>
        <time>2012-05-14T16:28:40Z</time>
      </trkpt>
      <trkpt lat="38.542440813034773" lon="-109.3122070748359">
        <ele>2537.60009765625</ele>
        <time>2012-05-14T16:28:45Z</time>
      </trkpt>
      <trkpt lat="38.542452547699213" lon="-109.3122533429414">
        <ele>2537.199951171875</ele>
        <time>2012-05-14T16:28:48Z</time>
      </trkpt>
      <trkpt lat="38.542472748085856" lon="-109.31230958551168">
        <ele>2537</ele>
        <time>2012-05-14T16:28:56Z</time>
      </trkpt>
      <trkpt lat="38.542510885745287" lon="-109.31235442869365">
        <ele>2536.60009765625</ele>
        <time>2012-05-14T16:29:15Z</time>
      </trkpt>
      <trkpt lat="38.542544497177005" lon="-109.31240673176944">
        <ele>2536.39990234375</ele>
        <time>2012-05-14T16:29:22Z</time>
      </trkpt>
      <trkpt lat="38.542554304003716" lon="-109.31242533959448">
        <ele>2536.39990234375</ele>
        <time>2012-05-14T16:29:28Z</time>
      </trkpt>
      <trkpt lat="38.542557489126921" lon="-109.31242709979415">
        <ele>2536.39990234375</ele>
        <time>2012-05-14T16:29:45Z</time>
      </trkpt>
      <trkpt lat="38.542556902393699" lon="-109.31241394020617">
        <ele>2536.39990234375</ele>
        <time>2012-05-14T16:29:55Z</time>
      </trkpt>
      <trkpt lat="38.542648013681173" lon="-109.3124314583838">
        <ele>2535.800048828125</ele>
        <time>2012-05-14T16:30:09Z</time>
      </trkpt>
      <trkpt lat="38.542803330346942" lon="-109.31255006231368">
        <ele>2535</ele>
        <time>2012-05-14T16:30:12Z</time>
      </trkpt>
      <trkpt lat="38.542844401672482" lon="-109.3126193806529">
        <ele>2534.800048828125</ele>
        <time>2012-05-14T16:30:13Z</time>
      </trkpt>
      <trkpt lat="38.542863596230745" lon="-109.31268802843988">
        <ele>2534.60009765625</ele>
        <time>2012-05-14T16:30:15Z</time>
      </trkpt>
      <trkpt lat="38.542867535725236" lon="-109.3126714322716">
        <ele>2534.60009765625</ele>
        <time>2012-05-14T16:30:18Z</time>
      </trkpt>
      <trkpt lat="38.542862087488174" lon="-109.3126402515918">
        <ele>2534.60009765625</ele>
        <time>2012-05-14T16:30:39Z</time>
      </trkpt>
      <trkpt lat="38.542856639251113" lon="-109.31263404898345">
        <ele>2534.60009765625</ele>
        <time>2012-05-14T16:30:43Z</time>
      </trkpt>
      <trkpt lat="38.54286334477365" lon="-109.3126384075731">
        <ele>2534.60009765625</ele>
        <time>2012-05-14T16:30:52Z</time>
      </trkpt>
      <trkpt lat="38.542878683656454" lon="-109.31264284998178">
        <ele>2534.39990234375</ele>
        <time>2012-05-14T16:30:58Z</time>
      </trkpt>
      <trkpt lat="38.542946325615048" lon="-109.31276941671968">
        <ele>2533.800048828125</ele>
        <time>2012-05-14T16:31:03Z</time>
      </trkpt>
      <trkpt lat="38.543075490742922" lon="-109.31287276558578">
        <ele>2532.199951171875</ele>
        <time>2012-05-14T16:31:06Z</time>
      </trkpt>
      <trkpt lat="38.543195519596338" lon="-109.31296697817743">
        <ele>2530.800048828125</ele>
        <time>2012-05-14T16:31:10Z</time>
      </trkpt>
      <trkpt lat="38.543191831558943" lon="-109.31297418661416">
        <ele>2530.800048828125</ele>
        <time>2012-05-14T16:31:13Z</time>
      </trkpt>
      <trkpt lat="38.543191496282816" lon="-109.31294971145689">
        <ele>2530.800048828125</ele>
        <time>2012-05-14T16:31:20Z</time>
      </trkpt>
      <trkpt lat="38.543193843215704" lon="-109.31296639144421">
        <ele>2530.800048828125</ele>
        <time>2012-05-14T16:32:21Z</time>
      </trkpt>
      <trkpt lat="38.543289229273796" lon="-109.31302732788026">
        <ele>2529.60009765625</ele>
        <time>2012-05-14T16:32:24Z</time>
      </trkpt>
      <trkpt lat="38.543568681925535" lon="-109.31319379247725">
        <ele>2526.199951171875</ele>
        <time>2012-05-14T16:32:29Z</time>
      </trkpt>
      <trkpt lat="38.543789628893137" lon="-109.3132742587477">
        <ele>2523.60009765625</ele>
        <time>2012-05-14T16:32:32Z</time>
      </trkpt>
      <trkpt lat="38.543879818171263" lon="-109.31328381411731">
        <ele>2522.39990234375</ele>
        <time>2012-05-14T16:32:33Z</time>
      </trkpt>
      <trkpt lat="38.544246358796954" lon="-109.31337023153901">
        <ele>2517.800048828125</ele>
        <time>2012-05-14T16:32:37Z</time>
      </trkpt>
      <trkpt lat="38.544403770938516" lon="-109.31343519128859">
        <ele>2516.199951171875</ele>
        <time>2012-05-14T16:32:39Z</time>
      </trkpt>
      <trkpt lat="38.544559255242348" lon="-109.31353493593633">
        <ele>2515</ele>
        <time>2012-05-14T16:32:41Z</time>
      </trkpt>
      <trkpt lat="38.544901069253683" lon="-109.3138007260859">
        <ele>2511.39990234375</ele>
        <time>2012-05-14T16:32:45Z</time>
      </trkpt>
      <trkpt lat="38.545253276824951" lon="-109.31406936608255">
        <ele>2507.39990234375</ele>
        <time>2012-05-14T16:32:49Z</time>
      </trkpt>
      <trkpt lat="38.545338856056333" lon="-109.31410498917103">
        <ele>2506.39990234375</ele>
        <time>2012-05-14T16:32:50Z</time>
      </trkpt>
      <trkpt lat="38.545625600963831" lon="-109.31427447125316">
        <ele>2503</ele>
        <time>2012-05-14T16:32:53Z</time>
      </trkpt>
      <trkpt lat="38.545970432460308" lon="-109.31459801271558">
        <ele>2498.60009765625</ele>
        <time>2012-05-14T16:32:57Z</time>
      </trkpt>
      <trkpt lat="38.546148715540767" lon="-109.31476405821741">
        <ele>2496</ele>
        <time>2012-05-14T16:32:59Z</time>
      </trkpt>
      <trkpt lat="38.546219794079661" lon="-109.31486011482775">
        <ele>2494.800048828125</ele>
        <time>2012-05-14T16:33:00Z</time>
      </trkpt>
      <trkpt lat="38.546336553990841" lon="-109.31519505567849">
        <ele>2491.800048828125</ele>
        <time>2012-05-14T16:33:03Z</time>
      </trkpt>
      <trkpt lat="38.546349378302693" lon="-109.3153253942728">
        <ele>2490.60009765625</ele>
        <time>2012-05-14T16:33:04Z</time>
      </trkpt>
      <trkpt lat="38.546401849016547" lon="-109.31572956964374">
        <ele>2487.60009765625</ele>
        <time>2012-05-14T16:33:07Z</time>
      </trkpt>
      <trkpt lat="38.546578623354435" lon="-109.31639433838427">
        <ele>2484.60009765625</ele>
        <time>2012-05-14T16:33:12Z</time>
      </trkpt>
      <trkpt lat="38.546650875359774" lon="-109.31665970943868">
        <ele>2483.60009765625</ele>
        <time>2012-05-14T16:33:14Z</time>
      </trkpt>
      <trkpt lat="38.546709297224879" lon="-109.31677085347474">
        <ele>2483</ele>
        <time>2012-05-14T16:33:15Z</time>
      </trkpt>
      <trkpt lat="38.546906774863601" lon="-109.3170767929405">
        <ele>2481</ele>
        <time>2012-05-14T16:33:18Z</time>
      </trkpt>
      <trkpt lat="38.547168457880616" lon="-109.3176103848964">
        <ele>2479.60009765625</ele>
        <time>2012-05-14T16:33:23Z</time>
      </trkpt>
      <trkpt lat="38.547282787039876" lon="-109.31780191138387">
        <ele>2478.199951171875</ele>
        <time>2012-05-14T16:33:25Z</time>
      </trkpt>
      <trkpt lat="38.547427710145712" lon="-109.31795194745064">
        <ele>2476</ele>
        <time>2012-05-14T16:33:27Z</time>
      </trkpt>
      <trkpt lat="38.547695092856884" lon="-109.31804833933711">
        <ele>2472.199951171875</ele>
        <time>2012-05-14T16:33:30Z</time>
      </trkpt>
      <trkpt lat="38.547790562734008" lon="-109.31804951280355">
        <ele>2471</ele>
        <time>2012-05-14T16:33:31Z</time>
      </trkpt>
      <trkpt lat="38.548109326511621" lon="-109.31802679784596">
        <ele>2467.60009765625</ele>
        <time>2012-05-14T16:33:34Z</time>
      </trkpt>
      <trkpt lat="38.548543257638812" lon="-109.31783644482493">
        <ele>2461.800048828125</ele>
        <time>2012-05-14T16:33:38Z</time>
      </trkpt>
      <trkpt lat="38.549123452976346" lon="-109.31762346066535">
        <ele>2454.60009765625</ele>
        <time>2012-05-14T16:33:43Z</time>
      </trkpt>
      <trkpt lat="38.549223951995373" lon="-109.3175963871181">
        <ele>2453.199951171875</ele>
        <time>2012-05-14T16:33:44Z</time>
      </trkpt>
      <trkpt lat="38.549400139600039" lon="-109.3176378775388">
        <ele>2452.39990234375</ele>
        <time>2012-05-14T16:33:46Z</time>
      </trkpt>
      <trkpt lat="38.549615470692515" lon="-109.31785647757351">
        <ele>2450.800048828125</ele>
        <time>2012-05-14T16:33:49Z</time>
      </trkpt>
      <trkpt lat="38.549950495362282" lon="-109.31823089718819">
        <ele>2444.60009765625</ele>
        <time>2012-05-14T16:33:53Z</time>
      </trkpt>
      <trkpt lat="38.55014830827713" lon="-109.31839182972908">
        <ele>2441.60009765625</ele>
        <time>2012-05-14T16:33:55Z</time>
      </trkpt>
      <trkpt lat="38.550342014059424" lon="-109.31847078725696">
        <ele>2439.39990234375</ele>
        <time>2012-05-14T16:33:57Z</time>
      </trkpt>
      <trkpt lat="38.550495402887464" lon="-109.31849023327231">
        <ele>2438.199951171875</ele>
        <time>2012-05-14T16:34:00Z</time>
      </trkpt>
      <trkpt lat="38.550488278269768" lon="-109.31848092935979">
        <ele>2438.199951171875</ele>
        <time>2012-05-14T16:34:01Z</time>
      </trkpt>
      <trkpt lat="38.550481488928199" lon="-109.31847346946597">
        <ele>2438.199951171875</ele>
        <time>2012-05-14T16:34:03Z</time>
      </trkpt>
      <trkpt lat="38.550466652959585" lon="-109.31851169094443">
        <ele>2438.199951171875</ele>
        <time>2012-05-14T16:34:11Z</time>
      </trkpt>
      <trkpt lat="38.55044829659164" lon="-109.31851806119084">
        <ele>2438.39990234375</ele>
        <time>2012-05-14T16:34:16Z</time>
      </trkpt>
      <trkpt lat="38.550396244972944" lon="-109.31845829822123">
        <ele>2439</ele>
        <time>2012-05-14T16:37:41Z</time>
      </trkpt>
      <trkpt lat="38.55046640150249" lon="-109.3184545263648">
        <ele>2438.39990234375</ele>
        <time>2012-05-14T16:38:46Z</time>
      </trkpt>
      <trkpt lat="38.550521554425359" lon="-109.31840926408768">
        <ele>2437.800048828125</ele>
        <time>2012-05-14T16:39:47Z</time>
      </trkpt>
      <trkpt lat="38.550552651286125" lon="-109.31834472343326">
        <ele>2437.60009765625</ele>
        <time>2012-05-14T16:39:53Z</time>
      </trkpt>
      <trkpt lat="38.5506506357342" lon="-109.31815328076482">
        <ele>2436</ele>
        <time>2012-05-14T16:39:58Z</time>
      </trkpt>
      <trkpt lat="38.550854651257396" lon="-109.31791883893311">
        <ele>2432.199951171875</ele>
        <time>2012-05-14T16:40:02Z</time>
      </trkpt>
      <trkpt lat="38.550917850807309" lon="-109.31785832159221">
        <ele>2431</ele>
        <time>2012-05-14T16:40:03Z</time>
      </trkpt>
      <trkpt lat="38.55114022269845" lon="-109.31770266965032">
        <ele>2428.60009765625</ele>
        <time>2012-05-14T16:40:06Z</time>
      </trkpt>
      <trkpt lat="38.551379777491093" lon="-109.31756755337119">
        <ele>2424.800048828125</ele>
        <time>2012-05-14T16:40:09Z</time>
      </trkpt>
      <trkpt lat="38.551563173532486" lon="-109.31751927360892">
        <ele>2422.199951171875</ele>
        <time>2012-05-14T16:40:11Z</time>
      </trkpt>
      <trkpt lat="38.551824185997248" lon="-109.31740351952612">
        <ele>2416.60009765625</ele>
        <time>2012-05-14T16:40:14Z</time>
      </trkpt>
      <trkpt lat="38.551903730258346" lon="-109.31734560057521">
        <ele>2414.800048828125</ele>
        <time>2012-05-14T16:40:15Z</time>
      </trkpt>
      <trkpt lat="38.552258787676692" lon="-109.31716212071478">
        <ele>2410.39990234375</ele>
        <time>2012-05-14T16:40:19Z</time>
      </trkpt>
      <trkpt lat="38.552708392962813" lon="-109.31692952290177">
        <ele>2404.800048828125</ele>
        <time>2012-05-14T16:40:24Z</time>
      </trkpt>
      <trkpt lat="38.552789529785514" lon="-109.31689197197556">
        <ele>2403.800048828125</ele>
        <time>2012-05-14T16:40:25Z</time>
      </trkpt>
      <trkpt lat="38.552956664934754" lon="-109.31686037220061">
        <ele>2402.39990234375</ele>
        <time>2012-05-14T16:40:27Z</time>
      </trkpt>
      <trkpt lat="38.553129835054278" lon="-109.3168830871582">
        <ele>2402</ele>
        <time>2012-05-14T16:40:29Z</time>
      </trkpt>
      <trkpt lat="38.553314739838243" lon="-109.31692105717957">
        <ele>2401.39990234375</ele>
        <time>2012-05-14T16:40:31Z</time>
      </trkpt>
      <trkpt lat="38.55379837565124" lon="-109.31699448265135">
        <ele>2397.199951171875</ele>
        <time>2012-05-14T16:40:36Z</time>
      </trkpt>
      <trkpt lat="38.554175142198801" lon="-109.31720780208707">
        <ele>2395.800048828125</ele>
        <time>2012-05-14T16:40:40Z</time>
      </trkpt>
      <trkpt lat="38.554642768576741" lon="-109.31746277958155">
        <ele>2394</ele>
        <time>2012-05-14T16:40:45Z</time>
      </trkpt>
      <trkpt lat="38.555041830986738" lon="-109.31773502379656">
        <ele>2393</ele>
        <time>2012-05-14T16:40:50Z</time>
      </trkpt>
      <trkpt lat="38.555273003876209" lon="-109.31800324469805">
        <ele>2391.60009765625</ele>
        <time>2012-05-14T16:40:54Z</time>
      </trkpt>
      <trkpt lat="38.555313907563686" lon="-109.31807264685631">
        <ele>2392</ele>
        <time>2012-05-14T16:40:55Z</time>
      </trkpt>
      <trkpt lat="38.5554030071944" lon="-109.31829635985196">
        <ele>2394.199951171875</ele>
        <time>2012-05-14T16:40:58Z</time>
      </trkpt>
      <trkpt lat="38.555452795699239" lon="-109.31844354607165">
        <ele>2393.39990234375</ele>
        <time>2012-05-14T16:41:00Z</time>
      </trkpt>
      <trkpt lat="38.555459752678871" lon="-109.31857933290303">
        <ele>2394</ele>
        <time>2012-05-14T16:41:02Z</time>
      </trkpt>
      <trkpt lat="38.555433349683881" lon="-109.31884420104325">
        <ele>2397</ele>
        <time>2012-05-14T16:41:06Z</time>
      </trkpt>
      <trkpt lat="38.555497471243143" lon="-109.3190729431808">
        <ele>2397.800048828125</ele>
        <time>2012-05-14T16:41:10Z</time>
      </trkpt>
      <trkpt lat="38.55552127584815" lon="-109.31911904364824">
        <ele>2397.800048828125</ele>
        <time>2012-05-14T16:41:11Z</time>
      </trkpt>
      <trkpt lat="38.55565220117569" lon="-109.31930679827929">
        <ele>2397.800048828125</ele>
        <time>2012-05-14T16:41:15Z</time>
      </trkpt>
      <trkpt lat="38.555737612769008" lon="-109.31940218433738">
        <ele>2397.60009765625</ele>
        <time>2012-05-14T16:41:17Z</time>
      </trkpt>
      <trkpt lat="38.555880440399051" lon="-109.31949891149998">
        <ele>2396.60009765625</ele>
        <time>2012-05-14T16:41:20Z</time>
      </trkpt>
      <trkpt lat="38.555970964953303" lon="-109.31956035085022">
        <ele>2396.199951171875</ele>
        <time>2012-05-14T16:41:22Z</time>
      </trkpt>
      <trkpt lat="38.556092754006386" lon="-109.31970627978444">
        <ele>2395.60009765625</ele>
        <time>2012-05-14T16:41:25Z</time>
      </trkpt>
      <trkpt lat="38.556351587176323" lon="-109.320077765733">
        <ele>2393.800048828125</ele>
        <time>2012-05-14T16:41:31Z</time>
      </trkpt>
      <trkpt lat="38.556468011811376" lon="-109.32019729167223">
        <ele>2392.39990234375</ele>
        <time>2012-05-14T16:41:33Z</time>
      </trkpt>
      <trkpt lat="38.556618131697178" lon="-109.32030072435737">
        <ele>2390.60009765625</ele>
        <time>2012-05-14T16:41:35Z</time>
      </trkpt>
      <trkpt lat="38.556767581030726" lon="-109.32037708349526">
        <ele>2388.39990234375</ele>
        <time>2012-05-14T16:41:37Z</time>
      </trkpt>
      <trkpt lat="38.55695684440434" lon="-109.32043022476137">
        <ele>2385.39990234375</ele>
        <time>2012-05-14T16:41:39Z</time>
      </trkpt>
      <trkpt lat="38.557153148576617" lon="-109.32062317617238">
        <ele>2385</ele>
        <time>2012-05-14T16:41:42Z</time>
      </trkpt>
      <trkpt lat="38.557160021737218" lon="-109.3207979388535">
        <ele>2387.199951171875</ele>
        <time>2012-05-14T16:41:44Z</time>
      </trkpt>
      <trkpt lat="38.557142503559589" lon="-109.32108158245683">
        <ele>2390.800048828125</ele>
        <time>2012-05-14T16:41:48Z</time>
      </trkpt>
      <trkpt lat="38.557268735021353" lon="-109.32128861546516">
        <ele>2389.800048828125</ele>
        <time>2012-05-14T16:41:53Z</time>
      </trkpt>
      <trkpt lat="38.557295138016343" lon="-109.32132599875331">
        <ele>2389.800048828125</ele>
        <time>2012-05-14T16:41:54Z</time>
      </trkpt>
      <trkpt lat="38.557470235973597" lon="-109.32153219357133">
        <ele>2391</ele>
        <time>2012-05-14T16:42:01Z</time>
      </trkpt>
      <trkpt lat="38.557608621194959" lon="-109.32160897180438">
        <ele>2391.800048828125</ele>
        <time>2012-05-14T16:42:06Z</time>
      </trkpt>
      <trkpt lat="38.557762680575252" lon="-109.32169019244611">
        <ele>2392.800048828125</ele>
        <time>2012-05-14T16:42:13Z</time>
      </trkpt>
      <trkpt lat="38.55787793174386" lon="-109.32179463095963">
        <ele>2394.60009765625</ele>
        <time>2012-05-14T16:42:20Z</time>
      </trkpt>
      <trkpt lat="38.557974575087428" lon="-109.32193452492356">
        <ele>2396</ele>
        <time>2012-05-14T16:42:27Z</time>
      </trkpt>
      <trkpt lat="38.558071386069059" lon="-109.32207592763007">
        <ele>2397</ele>
        <time>2012-05-14T16:42:35Z</time>
      </trkpt>
      <trkpt lat="38.55813785456121" lon="-109.32222864590585">
        <ele>2399.39990234375</ele>
        <time>2012-05-14T16:42:42Z</time>
      </trkpt>
      <trkpt lat="38.558194013312459" lon="-109.32239318266511">
        <ele>2402</ele>
        <time>2012-05-14T16:42:50Z</time>
      </trkpt>
      <trkpt lat="38.558246484026313" lon="-109.32256777770817">
        <ele>2403</ele>
        <time>2012-05-14T16:42:58Z</time>
      </trkpt>
      <trkpt lat="38.558313203975558" lon="-109.32275008410215">
        <ele>2403.60009765625</ele>
        <time>2012-05-14T16:43:06Z</time>
      </trkpt>
      <trkpt lat="38.558371039107442" lon="-109.32289358228445">
        <ele>2404.39990234375</ele>
        <time>2012-05-14T16:43:13Z</time>
      </trkpt>
      <trkpt lat="38.558450415730476" lon="-109.32302492670715">
        <ele>2404.199951171875</ele>
        <time>2012-05-14T16:43:19Z</time>
      </trkpt>
      <trkpt lat="38.55843985453248" lon="-109.32301838882267">
        <ele>2404.199951171875</ele>
        <time>2012-05-14T16:45:02Z</time>
      </trkpt>
      <trkpt lat="38.558481009677052" lon="-109.32304068468511">
        <ele>2403.39990234375</ele>
        <time>2012-05-14T16:45:29Z</time>
      </trkpt>
      <trkpt lat="38.558480590581894" lon="-109.32304294779897">
        <ele>2403.60009765625</ele>
        <time>2012-05-14T16:45:37Z</time>
      </trkpt>
      <trkpt lat="38.558524260297418" lon="-109.32306717149913">
        <ele>2402</ele>
        <time>2012-05-14T16:45:56Z</time>
      </trkpt>
      <trkpt lat="38.558537503704429" lon="-109.32308737188578">
        <ele>2401.60009765625</ele>
        <time>2012-05-14T16:45:57Z</time>
      </trkpt>
      <trkpt lat="38.558553261682391" lon="-109.3231014534831">
        <ele>2401.199951171875</ele>
        <time>2012-05-14T16:46:01Z</time>
      </trkpt>
      <trkpt lat="38.558566588908434" lon="-109.32309240102768">
        <ele>2400.60009765625</ele>
        <time>2012-05-14T16:46:09Z</time>
      </trkpt>
      <trkpt lat="38.558566756546497" lon="-109.32311142794788">
        <ele>2400.800048828125</ele>
        <time>2012-05-14T16:46:23Z</time>
      </trkpt>
      <trkpt lat="38.558540772646666" lon="-109.32309307157993">
        <ele>2401.60009765625</ele>
        <time>2012-05-14T16:46:28Z</time>
      </trkpt>
      <trkpt lat="38.558535240590572" lon="-109.3230929877609">
        <ele>2401.800048828125</ele>
        <time>2012-05-14T16:46:36Z</time>
      </trkpt>
      <trkpt lat="38.55858888477087" lon="-109.32313799858093">
        <ele>2400.39990234375</ele>
        <time>2012-05-14T16:46:55Z</time>
      </trkpt>
      <trkpt lat="38.558708829805255" lon="-109.32326490059495">
        <ele>2399</ele>
        <time>2012-05-14T16:46:58Z</time>
      </trkpt>
      <trkpt lat="38.558956095948815" lon="-109.32348769158125">
        <ele>2396.39990234375</ele>
        <time>2012-05-14T16:47:02Z</time>
      </trkpt>
      <trkpt lat="38.559353230521083" lon="-109.32375918142498">
        <ele>2391.800048828125</ele>
        <time>2012-05-14T16:47:07Z</time>
      </trkpt>
      <trkpt lat="38.55975179001689" lon="-109.32408423162997">
        <ele>2389.800048828125</ele>
        <time>2012-05-14T16:47:12Z</time>
      </trkpt>
      <trkpt lat="38.559903837740421" lon="-109.32434524409473">
        <ele>2389.60009765625</ele>
        <time>2012-05-14T16:47:15Z</time>
      </trkpt>
      <trkpt lat="38.559938287362456" lon="-109.32443182915449">
        <ele>2389.199951171875</ele>
        <time>2012-05-14T16:47:16Z</time>
      </trkpt>
      <trkpt lat="38.560007102787495" lon="-109.32468906976283">
        <ele>2389.60009765625</ele>
        <time>2012-05-14T16:47:19Z</time>
      </trkpt>
      <trkpt lat="38.560064854100347" lon="-109.32512459345162">
        <ele>2388.199951171875</ele>
        <time>2012-05-14T16:47:24Z</time>
      </trkpt>
      <trkpt lat="38.560139201581478" lon="-109.32556112296879">
        <ele>2383</ele>
        <time>2012-05-14T16:47:28Z</time>
      </trkpt>
      <trkpt lat="38.560135597363114" lon="-109.32569129392505">
        <ele>2382</ele>
        <time>2012-05-14T16:47:29Z</time>
      </trkpt>
      <trkpt lat="38.560137022286654" lon="-109.32590059004724">
        <ele>2380.39990234375</ele>
        <time>2012-05-14T16:47:31Z</time>
      </trkpt>
      <trkpt lat="38.560158479958773" lon="-109.32598943822086">
        <ele>2379.60009765625</ele>
        <time>2012-05-14T16:47:32Z</time>
      </trkpt>
      <trkpt lat="38.56030935421586" lon="-109.32635790668428">
        <ele>2377.39990234375</ele>
        <time>2012-05-14T16:47:36Z</time>
      </trkpt>
      <trkpt lat="38.56036115437746" lon="-109.32644390501082">
        <ele>2376.800048828125</ele>
        <time>2012-05-14T16:47:37Z</time>
      </trkpt>
      <trkpt lat="38.560523511841893" lon="-109.32652990333736">
        <ele>2375.800048828125</ele>
        <time>2012-05-14T16:47:39Z</time>
      </trkpt>
      <trkpt lat="38.560681091621518" lon="-109.32651003822684">
        <ele>2375.199951171875</ele>
        <time>2012-05-14T16:47:41Z</time>
      </trkpt>
      <trkpt lat="38.560725934803486" lon="-109.32652118615806">
        <ele>2374.800048828125</ele>
        <time>2012-05-14T16:47:42Z</time>
      </trkpt>
      <trkpt lat="38.560780920088291" lon="-109.32657407596707">
        <ele>2374.199951171875</ele>
        <time>2012-05-14T16:47:44Z</time>
      </trkpt>
      <trkpt lat="38.560857279226184" lon="-109.32661715894938">
        <ele>2373.60009765625</ele>
        <time>2012-05-14T16:47:46Z</time>
      </trkpt>
      <trkpt lat="38.560944786295295" lon="-109.32665186002851">
        <ele>2372.800048828125</ele>
        <time>2012-05-14T16:47:48Z</time>
      </trkpt>
      <trkpt lat="38.561226334422827" lon="-109.32675529271364">
        <ele>2371.39990234375</ele>
        <time>2012-05-14T16:47:54Z</time>
      </trkpt>
      <trkpt lat="38.56134426780045" lon="-109.32684908621013">
        <ele>2371.39990234375</ele>
        <time>2012-05-14T16:47:57Z</time>
      </trkpt>
      <trkpt lat="38.561376705765724" lon="-109.32688420638442">
        <ele>2371.39990234375</ele>
        <time>2012-05-14T16:47:58Z</time>
      </trkpt>
      <trkpt lat="38.561405455693603" lon="-109.3269216734916">
        <ele>2371.39990234375</ele>
        <time>2012-05-14T16:47:59Z</time>
      </trkpt>
      <trkpt lat="38.56150352396071" lon="-109.32706953026354">
        <ele>2370.800048828125</ele>
        <time>2012-05-14T16:48:03Z</time>
      </trkpt>
      <trkpt lat="38.561679711565375" lon="-109.32735661044717">
        <ele>2370.60009765625</ele>
        <time>2012-05-14T16:48:12Z</time>
      </trkpt>
      <trkpt lat="38.561709048226476" lon="-109.3273947481066">
        <ele>2370.60009765625</ele>
        <time>2012-05-14T16:48:16Z</time>
      </trkpt>
      <trkpt lat="38.561715334653854" lon="-109.32739843614399">
        <ele>2370.39990234375</ele>
        <time>2012-05-14T16:48:41Z</time>
      </trkpt>
      <trkpt lat="38.561767553910613" lon="-109.32741494849324">
        <ele>2370.199951171875</ele>
        <time>2012-05-14T16:50:05Z</time>
      </trkpt>
      <trkpt lat="38.56187048368156" lon="-109.32742953300476">
        <ele>2370.199951171875</ele>
        <time>2012-05-14T16:50:14Z</time>
      </trkpt>
      <trkpt lat="38.561975341290236" lon="-109.32744009420276">
        <ele>2370.39990234375</ele>
        <time>2012-05-14T16:50:22Z</time>
      </trkpt>
      <trkpt lat="38.562126383185387" lon="-109.32743900455534">
        <ele>2370.39990234375</ele>
        <time>2012-05-14T16:50:29Z</time>
      </trkpt>
      <trkpt lat="38.562297876924276" lon="-109.3275533337146">
        <ele>2371.199951171875</ele>
        <time>2012-05-14T16:50:33Z</time>
      </trkpt>
      <trkpt lat="38.562446068972349" lon="-109.32772407308221">
        <ele>2373.800048828125</ele>
        <time>2012-05-14T16:50:37Z</time>
      </trkpt>
      <trkpt lat="38.56247347779572" lon="-109.3277676589787">
        <ele>2374.800048828125</ele>
        <time>2012-05-14T16:50:38Z</time>
      </trkpt>
      <trkpt lat="38.562534917145967" lon="-109.32787897065282">
        <ele>2378</ele>
        <time>2012-05-14T16:50:41Z</time>
      </trkpt>
      <trkpt lat="38.562555368989706" lon="-109.32794719934464">
        <ele>2379.39990234375</ele>
        <time>2012-05-14T16:50:43Z</time>
      </trkpt>
      <trkpt lat="38.562608174979687" lon="-109.32810788042843">
        <ele>2379.60009765625</ele>
        <time>2012-05-14T16:50:48Z</time>
      </trkpt>
      <trkpt lat="38.562645809724927" lon="-109.32815062813461">
        <ele>2379.800048828125</ele>
        <time>2012-05-14T16:50:50Z</time>
      </trkpt>
      <trkpt lat="38.562662489712238" lon="-109.32824249379337">
        <ele>2379.800048828125</ele>
        <time>2012-05-14T16:50:53Z</time>
      </trkpt>
      <trkpt lat="38.562672045081854" lon="-109.32827593758702">
        <ele>2379.60009765625</ele>
        <time>2012-05-14T16:50:54Z</time>
      </trkpt>
      <trkpt lat="38.562690233811736" lon="-109.32842899113894">
        <ele>2379.199951171875</ele>
        <time>2012-05-14T16:50:58Z</time>
      </trkpt>
      <trkpt lat="38.562791906297207" lon="-109.32860425673425">
        <ele>2379</ele>
        <time>2012-05-14T16:51:03Z</time>
      </trkpt>
      <trkpt lat="38.562883855774999" lon="-109.32879243046045">
        <ele>2378.800048828125</ele>
        <time>2012-05-14T16:51:08Z</time>
      </trkpt>
      <trkpt lat="38.562997682020068" lon="-109.3289590626955">
        <ele>2378.800048828125</ele>
        <time>2012-05-14T16:51:13Z</time>
      </trkpt>
      <trkpt lat="38.563050990924239" lon="-109.329081941396">
        <ele>2378.800048828125</ele>
        <time>2012-05-14T16:51:16Z</time>
      </trkpt>
      <trkpt lat="38.563083931803703" lon="-109.32909853756428">
        <ele>2378.800048828125</ele>
        <time>2012-05-14T16:51:17Z</time>
      </trkpt>
      <trkpt lat="38.56317319907248" lon="-109.32916224002838">
        <ele>2379</ele>
        <time>2012-05-14T16:51:20Z</time>
      </trkpt>
      <trkpt lat="38.563266238197684" lon="-109.32917539961636">
        <ele>2379.39990234375</ele>
        <time>2012-05-14T16:51:23Z</time>
      </trkpt>
      <trkpt lat="38.563323486596346" lon="-109.32923859916627">
        <ele>2379.39990234375</ele>
        <time>2012-05-14T16:51:26Z</time>
      </trkpt>
      <trkpt lat="38.563343351706862" lon="-109.32926156558096">
        <ele>2379.39990234375</ele>
        <time>2012-05-14T16:51:27Z</time>
      </trkpt>
      <trkpt lat="38.563367910683155" lon="-109.32927346788347">
        <ele>2379.39990234375</ele>
        <time>2012-05-14T16:51:28Z</time>
      </trkpt>
      <trkpt lat="38.563446030020714" lon="-109.32928654365242">
        <ele>2379.60009765625</ele>
        <time>2012-05-14T16:51:31Z</time>
      </trkpt>
      <trkpt lat="38.563545271754265" lon="-109.329306576401">
        <ele>2379.800048828125</ele>
        <time>2012-05-14T16:51:36Z</time>
      </trkpt>
      <trkpt lat="38.563663624227047" lon="-109.32931470684707">
        <ele>2380.199951171875</ele>
        <time>2012-05-14T16:51:42Z</time>
      </trkpt>
      <trkpt lat="38.563771164044738" lon="-109.3293856177479">
        <ele>2379.39990234375</ele>
        <time>2012-05-14T16:51:48Z</time>
      </trkpt>
      <trkpt lat="38.563803099095821" lon="-109.32939031161368">
        <ele>2378</ele>
        <time>2012-05-14T16:51:50Z</time>
      </trkpt>
      <trkpt lat="38.563835034146905" lon="-109.32941922917962">
        <ele>2377.199951171875</ele>
        <time>2012-05-14T16:51:52Z</time>
      </trkpt>
      <trkpt lat="38.563895467668772" lon="-109.32946893386543">
        <ele>2376.800048828125</ele>
        <time>2012-05-14T16:51:58Z</time>
      </trkpt>
      <trkpt lat="38.563900580629706" lon="-109.32946843095124">
        <ele>2376.60009765625</ele>
        <time>2012-05-14T16:52:09Z</time>
      </trkpt>
      <trkpt lat="38.56394911184907" lon="-109.3294841889292">
        <ele>2376.39990234375</ele>
        <time>2012-05-14T16:52:35Z</time>
      </trkpt>
      <trkpt lat="38.563982136547565" lon="-109.32946407236159">
        <ele>2374.60009765625</ele>
        <time>2012-05-14T16:52:41Z</time>
      </trkpt>
      <trkpt lat="38.563984483480453" lon="-109.32948175817728">
        <ele>2375.39990234375</ele>
        <time>2012-05-14T16:52:50Z</time>
      </trkpt>
      <trkpt lat="38.563961517065763" lon="-109.3294773157686">
        <ele>2375.800048828125</ele>
        <time>2012-05-14T16:52:55Z</time>
      </trkpt>
      <trkpt lat="38.5639388859272" lon="-109.3294688500464">
        <ele>2375.800048828125</ele>
        <time>2012-05-14T16:53:02Z</time>
      </trkpt>
      <trkpt lat="38.563926313072443" lon="-109.32950522750616">
        <ele>2377.60009765625</ele>
        <time>2012-05-14T16:53:09Z</time>
      </trkpt>
      <trkpt lat="38.563914410769939" lon="-109.32955794967711">
        <ele>2379.800048828125</ele>
        <time>2012-05-14T16:53:14Z</time>
      </trkpt>
      <trkpt lat="38.563870992511511" lon="-109.32963196188211">
        <ele>2380.39990234375</ele>
        <time>2012-05-14T16:53:17Z</time>
      </trkpt>
      <trkpt lat="38.56387778185308" lon="-109.32966431602836">
        <ele>2380.39990234375</ele>
        <time>2012-05-14T16:53:18Z</time>
      </trkpt>
      <trkpt lat="38.563940981402993" lon="-109.32972433045506">
        <ele>2380.60009765625</ele>
        <time>2012-05-14T16:53:21Z</time>
      </trkpt>
      <trkpt lat="38.563956487923861" lon="-109.32974310591817">
        <ele>2380.60009765625</ele>
        <time>2012-05-14T16:53:22Z</time>
      </trkpt>
      <trkpt lat="38.564012730494142" lon="-109.3298814073205">
        <ele>2380.199951171875</ele>
        <time>2012-05-14T16:53:27Z</time>
      </trkpt>
      <trkpt lat="38.564011892303824" lon="-109.329914432019">
        <ele>2380.199951171875</ele>
        <time>2012-05-14T16:53:28Z</time>
      </trkpt>
      <trkpt lat="38.563999906182289" lon="-109.33001660741866">
        <ele>2379.800048828125</ele>
        <time>2012-05-14T16:53:30Z</time>
      </trkpt>
      <trkpt lat="38.564023626968265" lon="-109.33011727407575">
        <ele>2379.60009765625</ele>
        <time>2012-05-14T16:53:32Z</time>
      </trkpt>
      <trkpt lat="38.564035277813673" lon="-109.33016479946673">
        <ele>2379.39990234375</ele>
        <time>2012-05-14T16:53:33Z</time>
      </trkpt>
      <trkpt lat="38.564105685800314" lon="-109.33026630431414">
        <ele>2379.199951171875</ele>
        <time>2012-05-14T16:53:36Z</time>
      </trkpt>
      <trkpt lat="38.564157066866755" lon="-109.33032271452248">
        <ele>2379.199951171875</ele>
        <time>2012-05-14T16:53:38Z</time>
      </trkpt>
      <trkpt lat="38.564194953069091" lon="-109.33036956936121">
        <ele>2379</ele>
        <time>2012-05-14T16:53:40Z</time>
      </trkpt>
      <trkpt lat="38.564299056306481" lon="-109.33052111417055">
        <ele>2378.800048828125</ele>
        <time>2012-05-14T16:53:44Z</time>
      </trkpt>
      <trkpt lat="38.564425790682435" lon="-109.3306636903435">
        <ele>2378.60009765625</ele>
        <time>2012-05-14T16:53:48Z</time>
      </trkpt>
      <trkpt lat="38.564472729340196" lon="-109.33067953214049">
        <ele>2378.800048828125</ele>
        <time>2012-05-14T16:53:50Z</time>
      </trkpt>
      <trkpt lat="38.564490918070078" lon="-109.33067944832146">
        <ele>2378.800048828125</ele>
        <time>2012-05-14T16:53:51Z</time>
      </trkpt>
      <trkpt lat="38.564554788172245" lon="-109.33075287379324">
        <ele>2378.60009765625</ele>
        <time>2012-05-14T16:53:55Z</time>
      </trkpt>
      <trkpt lat="38.564585046842694" lon="-109.33077089488506">
        <ele>2378.60009765625</ele>
        <time>2012-05-14T16:53:56Z</time>
      </trkpt>
      <trkpt lat="38.564638523384929" lon="-109.33078296482563">
        <ele>2378.60009765625</ele>
        <time>2012-05-14T16:53:58Z</time>
      </trkpt>
      <trkpt lat="38.564717816188931" lon="-109.33078413829207">
        <ele>2378.800048828125</ele>
        <time>2012-05-14T16:54:03Z</time>
      </trkpt>
      <trkpt lat="38.564741788432002" lon="-109.33080274611712">
        <ele>2378.800048828125</ele>
        <time>2012-05-14T16:54:05Z</time>
      </trkpt>
      <trkpt lat="38.564769364893436" lon="-109.33084800839424">
        <ele>2378.60009765625</ele>
        <time>2012-05-14T16:54:07Z</time>
      </trkpt>
      <trkpt lat="38.564849076792598" lon="-109.33099896647036">
        <ele>2377.60009765625</ele>
        <time>2012-05-14T16:54:10Z</time>
      </trkpt>
      <trkpt lat="38.564926274120808" lon="-109.33106292039156">
        <ele>2376.199951171875</ele>
        <time>2012-05-14T16:54:12Z</time>
      </trkpt>
      <trkpt lat="38.564959717914462" lon="-109.33107314631343">
        <ele>2375.60009765625</ele>
        <time>2012-05-14T16:54:13Z</time>
      </trkpt>
      <trkpt lat="38.565067676827312" lon="-109.33115252293646">
        <ele>2374.199951171875</ele>
        <time>2012-05-14T16:54:17Z</time>
      </trkpt>
      <trkpt lat="38.565139509737492" lon="-109.33128495700657">
        <ele>2373.39990234375</ele>
        <time>2012-05-14T16:54:20Z</time>
      </trkpt>
      <trkpt lat="38.56514286249876" lon="-109.33134589344263">
        <ele>2373</ele>
        <time>2012-05-14T16:54:21Z</time>
      </trkpt>
      <trkpt lat="38.565191309899092" lon="-109.33153104968369">
        <ele>2371.800048828125</ele>
        <time>2012-05-14T16:54:24Z</time>
      </trkpt>
      <trkpt lat="38.565221736207604" lon="-109.33158033527434">
        <ele>2371.199951171875</ele>
        <time>2012-05-14T16:54:25Z</time>
      </trkpt>
      <trkpt lat="38.565295161679387" lon="-109.3316740449518">
        <ele>2370</ele>
        <time>2012-05-14T16:54:27Z</time>
      </trkpt>
      <trkpt lat="38.565404294058681" lon="-109.33180890977383">
        <ele>2368.60009765625</ele>
        <time>2012-05-14T16:54:31Z</time>
      </trkpt>
      <trkpt lat="38.565480066463351" lon="-109.33193916454911">
        <ele>2368.39990234375</ele>
        <time>2012-05-14T16:54:35Z</time>
      </trkpt>
      <trkpt lat="38.56552692130208" lon="-109.33193933218718">
        <ele>2368.39990234375</ele>
        <time>2012-05-14T16:54:37Z</time>
      </trkpt>
      <trkpt lat="38.565548127517104" lon="-109.33194478042424">
        <ele>2368.39990234375</ele>
        <time>2012-05-14T16:54:38Z</time>
      </trkpt>
      <trkpt lat="38.565664133056998" lon="-109.3320295214653">
        <ele>2368.199951171875</ele>
        <time>2012-05-14T16:54:43Z</time>
      </trkpt>
      <trkpt lat="38.565760692581534" lon="-109.33210479095578">
        <ele>2366.60009765625</ele>
        <time>2012-05-14T16:54:46Z</time>
      </trkpt>
      <trkpt lat="38.565778378397226" lon="-109.33213798329234">
        <ele>2366.39990234375</ele>
        <time>2012-05-14T16:54:47Z</time>
      </trkpt>
      <trkpt lat="38.565854486078024" lon="-109.33225985616446">
        <ele>2366.60009765625</ele>
        <time>2012-05-14T16:54:52Z</time>
      </trkpt>
      <trkpt lat="38.565863287076354" lon="-109.33230930939317">
        <ele>2367.199951171875</ele>
        <time>2012-05-14T16:54:54Z</time>
      </trkpt>
      <trkpt lat="38.565850965678692" lon="-109.33234250172973">
        <ele>2367.60009765625</ele>
        <time>2012-05-14T16:54:56Z</time>
      </trkpt>
      <trkpt lat="38.565851720049977" lon="-109.33240679092705">
        <ele>2367.800048828125</ele>
        <time>2012-05-14T16:54:59Z</time>
      </trkpt>
      <trkpt lat="38.565870076417923" lon="-109.33242430910468">
        <ele>2367.800048828125</ele>
        <time>2012-05-14T16:55:00Z</time>
      </trkpt>
      <trkpt lat="38.56597987934947" lon="-109.33245733380318">
        <ele>2367.199951171875</ele>
        <time>2012-05-14T16:55:05Z</time>
      </trkpt>
      <trkpt lat="38.566000750288367" lon="-109.33246470987797">
        <ele>2365.800048828125</ele>
        <time>2012-05-14T16:55:06Z</time>
      </trkpt>
      <trkpt lat="38.566047437489033" lon="-109.33253453113139">
        <ele>2364.199951171875</ele>
        <time>2012-05-14T16:55:09Z</time>
      </trkpt>
      <trkpt lat="38.566121365875006" lon="-109.33262094855309">
        <ele>2364.199951171875</ele>
        <time>2012-05-14T16:55:12Z</time>
      </trkpt>
      <trkpt lat="38.56613771058619" lon="-109.33270543813705">
        <ele>2365</ele>
        <time>2012-05-14T16:55:15Z</time>
      </trkpt>
      <trkpt lat="38.566136620938778" lon="-109.33276763185859">
        <ele>2365.39990234375</ele>
        <time>2012-05-14T16:55:18Z</time>
      </trkpt>
      <trkpt lat="38.566126059740782" lon="-109.33284047059715">
        <ele>2365.800048828125</ele>
        <time>2012-05-14T16:55:20Z</time>
      </trkpt>
      <trkpt lat="38.566160090267658" lon="-109.33300509117544">
        <ele>2364.800048828125</ele>
        <time>2012-05-14T16:55:23Z</time>
      </trkpt>
      <trkpt lat="38.566248686984181" lon="-109.33309997431934">
        <ele>2363</ele>
        <time>2012-05-14T16:55:27Z</time>
      </trkpt>
      <trkpt lat="38.566301241517067" lon="-109.33317415416241">
        <ele>2359</ele>
        <time>2012-05-14T16:55:30Z</time>
      </trkpt>
      <trkpt lat="38.566273162141442" lon="-109.33330692350864">
        <ele>2360.199951171875</ele>
        <time>2012-05-14T16:55:33Z</time>
      </trkpt>
      <trkpt lat="38.56631750240922" lon="-109.33345318771899">
        <ele>2359.60009765625</ele>
        <time>2012-05-14T16:55:36Z</time>
      </trkpt>
      <trkpt lat="38.566338289529085" lon="-109.33348830789328">
        <ele>2359.39990234375</ele>
        <time>2012-05-14T16:55:37Z</time>
      </trkpt>
      <trkpt lat="38.566403836011887" lon="-109.33365125209093">
        <ele>2358.199951171875</ele>
        <time>2012-05-14T16:55:41Z</time>
      </trkpt>
      <trkpt lat="38.566397214308381" lon="-109.33382961899042">
        <ele>2358.199951171875</ele>
        <time>2012-05-14T16:55:44Z</time>
      </trkpt>
      <trkpt lat="38.566389670595527" lon="-109.33389374054968">
        <ele>2358.199951171875</ele>
        <time>2012-05-14T16:55:45Z</time>
      </trkpt>
      <trkpt lat="38.566402997821569" lon="-109.33414134196937">
        <ele>2358.800048828125</ele>
        <time>2012-05-14T16:55:49Z</time>
      </trkpt>
      <trkpt lat="38.566373074427247" lon="-109.33426019735634">
        <ele>2359.39990234375</ele>
        <time>2012-05-14T16:55:52Z</time>
      </trkpt>
      <trkpt lat="38.566332086920738" lon="-109.3343779630959">
        <ele>2360</ele>
        <time>2012-05-14T16:55:54Z</time>
      </trkpt>
      <trkpt lat="38.566322196274996" lon="-109.33447049930692">
        <ele>2360.199951171875</ele>
        <time>2012-05-14T16:55:56Z</time>
      </trkpt>
      <trkpt lat="38.566315490752459" lon="-109.33445842936635">
        <ele>2360.199951171875</ele>
        <time>2012-05-14T16:55:59Z</time>
      </trkpt>
      <trkpt lat="38.566336277872324" lon="-109.33438626118004">
        <ele>2360</ele>
        <time>2012-05-14T16:56:05Z</time>
      </trkpt>
      <trkpt lat="38.566354298964143" lon="-109.33432918041945">
        <ele>2359.800048828125</ele>
        <time>2012-05-14T16:56:12Z</time>
      </trkpt>
      <trkpt lat="38.566360585391521" lon="-109.33428592979908">
        <ele>2359.60009765625</ele>
        <time>2012-05-14T16:56:24Z</time>
      </trkpt>
      <trkpt lat="38.566352119669318" lon="-109.33428416959941">
        <ele>2359.60009765625</ele>
        <time>2012-05-14T16:56:32Z</time>
      </trkpt>
      <trkpt lat="38.566346587613225" lon="-109.33431350626051">
        <ele>2359.800048828125</ele>
        <time>2012-05-14T16:58:06Z</time>
      </trkpt>
      <trkpt lat="38.566322950646281" lon="-109.33437544852495">
        <ele>2360</ele>
        <time>2012-05-14T16:58:12Z</time>
      </trkpt>
      <trkpt lat="38.566328482702374" lon="-109.33446706272662">
        <ele>2360.199951171875</ele>
        <time>2012-05-14T16:58:19Z</time>
      </trkpt>
      <trkpt lat="38.5663150716573" lon="-109.33447804301977">
        <ele>2360.199951171875</ele>
        <time>2012-05-14T16:58:24Z</time>
      </trkpt>
      <trkpt lat="38.566330661997199" lon="-109.33441299945116">
        <ele>2360.199951171875</ele>
        <time>2012-05-14T16:58:29Z</time>
      </trkpt>
      <trkpt lat="38.566363016143441" lon="-109.33432716876268">
        <ele>2359.800048828125</ele>
        <time>2012-05-14T16:58:36Z</time>
      </trkpt>
      <trkpt lat="38.56638397090137" lon="-109.33420546352863">
        <ele>2359.199951171875</ele>
        <time>2012-05-14T16:58:44Z</time>
      </trkpt>
      <trkpt lat="38.566360333934426" lon="-109.33413312770426">
        <ele>2359</ele>
        <time>2012-05-14T16:58:50Z</time>
      </trkpt>
      <trkpt lat="38.566366285085678" lon="-109.33411669917405">
        <ele>2358.800048828125</ele>
        <time>2012-05-14T16:58:51Z</time>
      </trkpt>
      <trkpt lat="38.566408529877663" lon="-109.33401133865118">
        <ele>2358.199951171875</ele>
        <time>2012-05-14T16:58:58Z</time>
      </trkpt>
      <trkpt lat="38.566417582333088" lon="-109.33387421071529">
        <ele>2358</ele>
        <time>2012-05-14T16:59:07Z</time>
      </trkpt>
      <trkpt lat="38.566442644223571" lon="-109.33373817242682">
        <ele>2357.800048828125</ele>
        <time>2012-05-14T16:59:16Z</time>
      </trkpt>
      <trkpt lat="38.566428311169147" lon="-109.33363566175103">
        <ele>2358</ele>
        <time>2012-05-14T16:59:23Z</time>
      </trkpt>
      <trkpt lat="38.566382713615894" lon="-109.33353868313134">
        <ele>2358.800048828125</ele>
        <time>2012-05-14T16:59:31Z</time>
      </trkpt>
      <trkpt lat="38.566355807706714" lon="-109.33349090628326">
        <ele>2359.199951171875</ele>
        <time>2012-05-14T16:59:36Z</time>
      </trkpt>
      <trkpt lat="38.566356478258967" lon="-109.3334888946265">
        <ele>2359.199951171875</ele>
        <time>2012-05-14T16:59:39Z</time>
      </trkpt>
      <trkpt lat="38.566359914839268" lon="-109.33347363956273">
        <ele>2359.199951171875</ele>
        <time>2012-05-14T16:59:44Z</time>
      </trkpt>
      <trkpt lat="38.56636930257082" lon="-109.33343038894236">
        <ele>2358.39990234375</ele>
        <time>2012-05-14T16:59:47Z</time>
      </trkpt>
      <trkpt lat="38.566421857103705" lon="-109.33338043279946">
        <ele>2356.60009765625</ele>
        <time>2012-05-14T16:59:53Z</time>
      </trkpt>
      <trkpt lat="38.566407188773155" lon="-109.3333868868649">
        <ele>2357</ele>
        <time>2012-05-14T16:59:59Z</time>
      </trkpt>
      <trkpt lat="38.566356059163809" lon="-109.33343198150396">
        <ele>2358.800048828125</ele>
        <time>2012-05-14T17:00:04Z</time>
      </trkpt>
      <trkpt lat="38.566350946202874" lon="-109.33346374891698">
        <ele>2359.199951171875</ele>
        <time>2012-05-14T17:00:05Z</time>
      </trkpt>
      <trkpt lat="38.566380199044943" lon="-109.33352921158075">
        <ele>2358.800048828125</ele>
        <time>2012-05-14T17:00:07Z</time>
      </trkpt>
      <trkpt lat="38.566430490463972" lon="-109.33375116437674">
        <ele>2357.800048828125</ele>
        <time>2012-05-14T17:00:11Z</time>
      </trkpt>
      <trkpt lat="38.566405596211553" lon="-109.33396297506988">
        <ele>2358.199951171875</ele>
        <time>2012-05-14T17:00:14Z</time>
      </trkpt>
      <trkpt lat="38.56640350073576" lon="-109.33404570445418">
        <ele>2358.39990234375</ele>
        <time>2012-05-14T17:00:15Z</time>
      </trkpt>
      <trkpt lat="38.566406518220901" lon="-109.33411628007889">
        <ele>2358.60009765625</ele>
        <time>2012-05-14T17:00:16Z</time>
      </trkpt>
      <trkpt lat="38.56639813631773" lon="-109.33423396199942">
        <ele>2359.199951171875</ele>
        <time>2012-05-14T17:00:18Z</time>
      </trkpt>
      <trkpt lat="38.566349018365145" lon="-109.33434426784515">
        <ele>2359.800048828125</ele>
        <time>2012-05-14T17:00:21Z</time>
      </trkpt>
      <trkpt lat="38.566338960081339" lon="-109.33439556509256">
        <ele>2360</ele>
        <time>2012-05-14T17:00:24Z</time>
      </trkpt>
      <trkpt lat="38.566330913454294" lon="-109.33438684791327">
        <ele>2360</ele>
        <time>2012-05-14T17:00:33Z</time>
      </trkpt>
      <trkpt lat="38.566340133547783" lon="-109.33433680795133">
        <ele>2359.800048828125</ele>
        <time>2012-05-14T17:01:07Z</time>
      </trkpt>
      <trkpt lat="38.566345581784844" lon="-109.33432951569557">
        <ele>2359.800048828125</ele>
        <time>2012-05-14T17:01:08Z</time>
      </trkpt>
      <trkpt lat="38.566379947587848" lon="-109.33427293784916">
        <ele>2359.39990234375</ele>
        <time>2012-05-14T17:01:13Z</time>
      </trkpt>
      <trkpt lat="38.566378774121404" lon="-109.33418056927621">
        <ele>2359</ele>
        <time>2012-05-14T17:01:19Z</time>
      </trkpt>
      <trkpt lat="38.566375002264977" lon="-109.33416933752596">
        <ele>2359</ele>
        <time>2012-05-14T17:01:20Z</time>
      </trkpt>
      <trkpt lat="38.566369637846947" lon="-109.33416003361344">
        <ele>2359</ele>
        <time>2012-05-14T17:01:21Z</time>
      </trkpt>
      <trkpt lat="38.566369889304042" lon="-109.33410831727087">
        <ele>2358.800048828125</ele>
        <time>2012-05-14T17:01:25Z</time>
      </trkpt>
      <trkpt lat="38.566379277035594" lon="-109.33409566059709">
        <ele>2358.60009765625</ele>
        <time>2012-05-14T17:01:26Z</time>
      </trkpt>
      <trkpt lat="38.566413391381502" lon="-109.33399767614901">
        <ele>2358.199951171875</ele>
        <time>2012-05-14T17:01:32Z</time>
      </trkpt>
      <trkpt lat="38.566416660323739" lon="-109.33388074859977">
        <ele>2358</ele>
        <time>2012-05-14T17:01:39Z</time>
      </trkpt>
      <trkpt lat="38.56644943356514" lon="-109.33373272418976">
        <ele>2357.800048828125</ele>
        <time>2012-05-14T17:01:48Z</time>
      </trkpt>
      <trkpt lat="38.566437615081668" lon="-109.33362593874335">
        <ele>2358</ele>
        <time>2012-05-14T17:01:55Z</time>
      </trkpt>
      <trkpt lat="38.56639034114778" lon="-109.33353968895972">
        <ele>2358.60009765625</ele>
        <time>2012-05-14T17:02:02Z</time>
      </trkpt>
      <trkpt lat="38.566377935931087" lon="-109.33351160958409">
        <ele>2358.800048828125</ele>
        <time>2012-05-14T17:02:05Z</time>
      </trkpt>
      <trkpt lat="38.566374080255628" lon="-109.33350834064186">
        <ele>2358.800048828125</ele>
        <time>2012-05-14T17:02:08Z</time>
      </trkpt>
      <trkpt lat="38.566380366683006" lon="-109.33352460153401">
        <ele>2358.800048828125</ele>
        <time>2012-05-14T17:02:12Z</time>
      </trkpt>
      <trkpt lat="38.566402997821569" lon="-109.33357866480947">
        <ele>2358.39990234375</ele>
        <time>2012-05-14T17:02:14Z</time>
      </trkpt>
      <trkpt lat="38.566434178501368" lon="-109.33376105502248">
        <ele>2357.800048828125</ele>
        <time>2012-05-14T17:02:18Z</time>
      </trkpt>
      <trkpt lat="38.566421940922737" lon="-109.3338184710592">
        <ele>2358</ele>
        <time>2012-05-14T17:02:19Z</time>
      </trkpt>
      <trkpt lat="38.566403165459633" lon="-109.33395124040544">
        <ele>2358.199951171875</ele>
        <time>2012-05-14T17:02:21Z</time>
      </trkpt>
      <trkpt lat="38.566411044448614" lon="-109.33410563506186">
        <ele>2358.60009765625</ele>
        <time>2012-05-14T17:02:23Z</time>
      </trkpt>
      <trkpt lat="38.566408362239599" lon="-109.3342140968889">
        <ele>2359</ele>
        <time>2012-05-14T17:02:25Z</time>
      </trkpt>
      <trkpt lat="38.566337618976831" lon="-109.33436363004148">
        <ele>2360</ele>
        <time>2012-05-14T17:02:28Z</time>
      </trkpt>
      <trkpt lat="38.566319681704044" lon="-109.3343956489116">
        <ele>2360</ele>
        <time>2012-05-14T17:02:29Z</time>
      </trkpt>
      <trkpt lat="38.566314987838268" lon="-109.33439749293029">
        <ele>2360.199951171875</ele>
        <time>2012-05-14T17:02:31Z</time>
      </trkpt>
      <trkpt lat="38.566344743594527" lon="-109.33435633778572">
        <ele>2360</ele>
        <time>2012-05-14T17:02:37Z</time>
      </trkpt>
      <trkpt lat="38.566377433016896" lon="-109.33427981100976">
        <ele>2359.60009765625</ele>
        <time>2012-05-14T17:02:43Z</time>
      </trkpt>
      <trkpt lat="38.566382126882672" lon="-109.33427427895367">
        <ele>2359.39990234375</ele>
        <time>2012-05-14T17:02:49Z</time>
      </trkpt>
      <trkpt lat="38.566399896517396" lon="-109.33428425341845">
        <ele>2359.39990234375</ele>
        <time>2012-05-14T17:03:26Z</time>
      </trkpt>
      <trkpt lat="38.566445242613554" lon="-109.33429699391127">
        <ele>2359.39990234375</ele>
        <time>2012-05-14T17:03:33Z</time>
      </trkpt>
      <trkpt lat="38.566518919542432" lon="-109.33433203026652">
        <ele>2359.199951171875</ele>
        <time>2012-05-14T17:03:40Z</time>
      </trkpt>
      <trkpt lat="38.566586477681994" lon="-109.33434594422579">
        <ele>2357.800048828125</ele>
        <time>2012-05-14T17:03:49Z</time>
      </trkpt>
      <trkpt lat="38.566614305600524" lon="-109.3343192897737">
        <ele>2356.800048828125</ele>
        <time>2012-05-14T17:03:54Z</time>
      </trkpt>
      <trkpt lat="38.5666414629668" lon="-109.33430436998606">
        <ele>2356</ele>
        <time>2012-05-14T17:03:59Z</time>
      </trkpt>
      <trkpt lat="38.566623525694013" lon="-109.33429640717804">
        <ele>2356.199951171875</ele>
        <time>2012-05-14T17:04:16Z</time>
      </trkpt>
      <trkpt lat="38.566617825999856" lon="-109.33429799973965">
        <ele>2356.39990234375</ele>
        <time>2012-05-14T17:04:36Z</time>
      </trkpt>
      <trkpt lat="38.566640540957451" lon="-109.33431099168956">
        <ele>2356</ele>
        <time>2012-05-14T17:04:41Z</time>
      </trkpt>
      <trkpt lat="38.56663609854877" lon="-109.33429942466319">
        <ele>2356</ele>
        <time>2012-05-14T17:04:50Z</time>
      </trkpt>
      <trkpt lat="38.566635847091675" lon="-109.33430168777704">
        <ele>2356</ele>
        <time>2012-05-14T17:04:57Z</time>
      </trkpt>
      <trkpt lat="38.566617155447602" lon="-109.33432968333364">
        <ele>2356.800048828125</ele>
        <time>2012-05-14T17:05:30Z</time>
      </trkpt>
      <trkpt lat="38.566620843484998" lon="-109.33429582044482">
        <ele>2356.39990234375</ele>
        <time>2012-05-14T17:05:35Z</time>
      </trkpt>
      <trkpt lat="38.566612377762794" lon="-109.33429674245417">
        <ele>2356.60009765625</ele>
        <time>2012-05-14T17:05:43Z</time>
      </trkpt>
      <trkpt lat="38.566616736352444" lon="-109.33429632335901">
        <ele>2356.39990234375</ele>
        <time>2012-05-14T17:05:52Z</time>
      </trkpt>
      <trkpt lat="38.566620592027903" lon="-109.33431275188923">
        <ele>2356.60009765625</ele>
        <time>2012-05-14T17:06:29Z</time>
      </trkpt>
      <trkpt lat="38.566620340570807" lon="-109.33430328033864">
        <ele>2356.39990234375</ele>
        <time>2012-05-14T17:06:35Z</time>
      </trkpt>
      <trkpt lat="38.566620927304029" lon="-109.33431518264115">
        <ele>2356.60009765625</ele>
        <time>2012-05-14T17:06:54Z</time>
      </trkpt>
      <trkpt lat="38.566621178761125" lon="-109.33433840051293">
        <ele>2356.800048828125</ele>
        <time>2012-05-14T17:07:05Z</time>
      </trkpt>
      <trkpt lat="38.566600559279323" lon="-109.33435197919607">
        <ele>2357.60009765625</ele>
        <time>2012-05-14T17:07:11Z</time>
      </trkpt>
      <trkpt lat="38.566595613956451" lon="-109.33435139246285">
        <ele>2357.60009765625</ele>
        <time>2012-05-14T17:07:17Z</time>
      </trkpt>
      <trkpt lat="38.566575329750776" lon="-109.33431878685951">
        <ele>2357.800048828125</ele>
        <time>2012-05-14T17:07:30Z</time>
      </trkpt>
      <trkpt lat="38.566525373607874" lon="-109.33427914045751">
        <ele>2358.800048828125</ele>
        <time>2012-05-14T17:07:34Z</time>
      </trkpt>
      <trkpt lat="38.566484469920397" lon="-109.33428618125618">
        <ele>2359</ele>
        <time>2012-05-14T17:07:36Z</time>
      </trkpt>
      <trkpt lat="38.566411966457963" lon="-109.33428768999875">
        <ele>2359.39990234375</ele>
        <time>2012-05-14T17:07:39Z</time>
      </trkpt>
      <trkpt lat="38.566393693909049" lon="-109.334298921749">
        <ele>2359.60009765625</ele>
        <time>2012-05-14T17:07:40Z</time>
      </trkpt>
      <trkpt lat="38.566365363076329" lon="-109.33436958119273">
        <ele>2359.800048828125</ele>
        <time>2012-05-14T17:07:43Z</time>
      </trkpt>
      <trkpt lat="38.566391598433256" lon="-109.3345230538398">
        <ele>2360.39990234375</ele>
        <time>2012-05-14T17:07:48Z</time>
      </trkpt>
      <trkpt lat="38.566475249826908" lon="-109.33461265638471">
        <ele>2360.60009765625</ele>
        <time>2012-05-14T17:07:52Z</time>
      </trkpt>
      <trkpt lat="38.566510621458292" lon="-109.33474374935031">
        <ele>2361.199951171875</ele>
        <time>2012-05-14T17:07:56Z</time>
      </trkpt>
      <trkpt lat="38.56657843105495" lon="-109.33481927029788">
        <ele>2361.800048828125</ele>
        <time>2012-05-14T17:08:00Z</time>
      </trkpt>
      <trkpt lat="38.566626626998186" lon="-109.33493695221841">
        <ele>2362</ele>
        <time>2012-05-14T17:08:04Z</time>
      </trkpt>
      <trkpt lat="38.566654874011874" lon="-109.33503552339971">
        <ele>2361.60009765625</ele>
        <time>2012-05-14T17:08:07Z</time>
      </trkpt>
      <trkpt lat="38.566642804071307" lon="-109.3351068533957">
        <ele>2361.199951171875</ele>
        <time>2012-05-14T17:08:09Z</time>
      </trkpt>
      <trkpt lat="38.566654957830906" lon="-109.3351739924401">
        <ele>2360.800048828125</ele>
        <time>2012-05-14T17:08:12Z</time>
      </trkpt>
      <trkpt lat="38.56665856204927" lon="-109.33518220670521">
        <ele>2360.800048828125</ele>
        <time>2012-05-14T17:08:13Z</time>
      </trkpt>
      <trkpt lat="38.566726958379149" lon="-109.33526879176497">
        <ele>2360.199951171875</ele>
        <time>2012-05-14T17:08:17Z</time>
      </trkpt>
      <trkpt lat="38.566814046353102" lon="-109.33527214452624">
        <ele>2360.60009765625</ele>
        <time>2012-05-14T17:08:20Z</time>
      </trkpt>
      <trkpt lat="38.566848831251264" lon="-109.33527591638267">
        <ele>2360.39990234375</ele>
        <time>2012-05-14T17:08:21Z</time>
      </trkpt>
      <trkpt lat="38.566940613090992" lon="-109.33529821224511">
        <ele>2360</ele>
        <time>2012-05-14T17:08:25Z</time>
      </trkpt>
      <trkpt lat="38.566982774063945" lon="-109.33529678732157">
        <ele>2359.800048828125</ele>
        <time>2012-05-14T17:08:29Z</time>
      </trkpt>
      <trkpt lat="38.567024264484644" lon="-109.33530483394861">
        <ele>2359.60009765625</ele>
        <time>2012-05-14T17:08:34Z</time>
      </trkpt>
      <trkpt lat="38.567065000534058" lon="-109.33531623333693">
        <ele>2359.39990234375</ele>
        <time>2012-05-14T17:08:38Z</time>
      </trkpt>
      <trkpt lat="38.567081764340401" lon="-109.3353415466845">
        <ele>2359.199951171875</ele>
        <time>2012-05-14T17:08:39Z</time>
      </trkpt>
      <trkpt lat="38.567124176770449" lon="-109.33546450920403">
        <ele>2358</ele>
        <time>2012-05-14T17:08:43Z</time>
      </trkpt>
      <trkpt lat="38.567153261974454" lon="-109.33553927578032">
        <ele>2357.39990234375</ele>
        <time>2012-05-14T17:08:45Z</time>
      </trkpt>
      <trkpt lat="38.56718092225492" lon="-109.33566886000335">
        <ele>2356.199951171875</ele>
        <time>2012-05-14T17:08:48Z</time>
      </trkpt>
      <trkpt lat="38.56723858974874" lon="-109.33583281002939">
        <ele>2355.39990234375</ele>
        <time>2012-05-14T17:08:52Z</time>
      </trkpt>
      <trkpt lat="38.567321067675948" lon="-109.33604126796126">
        <ele>2355</ele>
        <time>2012-05-14T17:08:56Z</time>
      </trkpt>
      <trkpt lat="38.567477390170097" lon="-109.33634167537093">
        <ele>2353.800048828125</ele>
        <time>2012-05-14T17:09:00Z</time>
      </trkpt>
      <trkpt lat="38.567530363798141" lon="-109.33647930622101">
        <ele>2353</ele>
        <time>2012-05-14T17:09:02Z</time>
      </trkpt>
      <trkpt lat="38.567568752914667" lon="-109.33663604781032">
        <ele>2352.199951171875</ele>
        <time>2012-05-14T17:09:04Z</time>
      </trkpt>
      <trkpt lat="38.567606722936034" lon="-109.33678943663836">
        <ele>2351.39990234375</ele>
        <time>2012-05-14T17:09:06Z</time>
      </trkpt>
      <trkpt lat="38.567650895565748" lon="-109.33682304807007">
        <ele>2351.60009765625</ele>
        <time>2012-05-14T17:09:07Z</time>
      </trkpt>
      <trkpt lat="38.567763715982437" lon="-109.33686453849077">
        <ele>2352.39990234375</ele>
        <time>2012-05-14T17:09:10Z</time>
      </trkpt>
      <trkpt lat="38.56779221445322" lon="-109.33687266893685">
        <ele>2352.60009765625</ele>
        <time>2012-05-14T17:09:11Z</time>
      </trkpt>
      <trkpt lat="38.567814594134688" lon="-109.33689303696156">
        <ele>2352.800048828125</ele>
        <time>2012-05-14T17:09:12Z</time>
      </trkpt>
      <trkpt lat="38.567858850583434" lon="-109.3369423225522">
        <ele>2353</ele>
        <time>2012-05-14T17:09:14Z</time>
      </trkpt>
      <trkpt lat="38.56789480894804" lon="-109.3370617646724">
        <ele>2352.800048828125</ele>
        <time>2012-05-14T17:09:17Z</time>
      </trkpt>
      <trkpt lat="38.567969659343362" lon="-109.33712303638458">
        <ele>2353.199951171875</ele>
        <time>2012-05-14T17:09:20Z</time>
      </trkpt>
      <trkpt lat="38.56801844201982" lon="-109.33723443187773">
        <ele>2352.199951171875</ele>
        <time>2012-05-14T17:09:24Z</time>
      </trkpt>
      <trkpt lat="38.568032523617148" lon="-109.3372930213809">
        <ele>2351.39990234375</ele>
        <time>2012-05-14T17:09:26Z</time>
      </trkpt>
      <trkpt lat="38.568119192495942" lon="-109.33748622424901">
        <ele>2349.39990234375</ele>
        <time>2012-05-14T17:09:32Z</time>
      </trkpt>
      <trkpt lat="38.568142494186759" lon="-109.33753131888807">
        <ele>2349</ele>
        <time>2012-05-14T17:09:36Z</time>
      </trkpt>
      <trkpt lat="38.568174429237843" lon="-109.33756023645401">
        <ele>2348.800048828125</ele>
        <time>2012-05-14T17:09:41Z</time>
      </trkpt>
      <trkpt lat="38.568224301561713" lon="-109.33762075379491">
        <ele>2347</ele>
        <time>2012-05-14T17:09:49Z</time>
      </trkpt>
      <trkpt lat="38.568272246047854" lon="-109.33766685426235">
        <ele>2345.39990234375</ele>
        <time>2012-05-14T17:09:57Z</time>
      </trkpt>
      <trkpt lat="38.568325219675899" lon="-109.3377092666924">
        <ele>2343.60009765625</ele>
        <time>2012-05-14T17:10:04Z</time>
      </trkpt>
      <trkpt lat="38.568379618227482" lon="-109.33774447068572">
        <ele>2342.39990234375</ele>
        <time>2012-05-14T17:10:11Z</time>
      </trkpt>
      <trkpt lat="38.568388922140002" lon="-109.33774329721928">
        <ele>2342</ele>
        <time>2012-05-14T17:10:23Z</time>
      </trkpt>
      <trkpt lat="38.568374756723642" lon="-109.33770800940692">
        <ele>2341.800048828125</ele>
        <time>2012-05-14T17:10:35Z</time>
      </trkpt>
      <trkpt lat="38.56837366707623" lon="-109.33769627474248">
        <ele>2341.60009765625</ele>
        <time>2012-05-14T17:10:42Z</time>
      </trkpt>
      <trkpt lat="38.568346593528986" lon="-109.33769862167537">
        <ele>2342.800048828125</ele>
        <time>2012-05-14T17:13:47Z</time>
      </trkpt>
      <trkpt lat="38.568378277122974" lon="-109.3377388548106">
        <ele>2342.39990234375</ele>
        <time>2012-05-14T17:14:08Z</time>
      </trkpt>
      <trkpt lat="38.568389425054193" lon="-109.33774983510375">
        <ele>2342.199951171875</ele>
        <time>2012-05-14T17:14:09Z</time>
      </trkpt>
      <trkpt lat="38.568392191082239" lon="-109.3377541936934">
        <ele>2342.199951171875</ele>
        <time>2012-05-14T17:14:12Z</time>
      </trkpt>
      <trkpt lat="38.568400824442506" lon="-109.33775478042662">
        <ele>2342</ele>
        <time>2012-05-14T17:14:18Z</time>
      </trkpt>
      <trkpt lat="38.568404680117965" lon="-109.33775536715984">
        <ele>2341.800048828125</ele>
        <time>2012-05-14T17:14:32Z</time>
      </trkpt>
      <trkpt lat="38.568443320691586" lon="-109.33775243349373">
        <ele>2340.60009765625</ele>
        <time>2012-05-14T17:15:01Z</time>
      </trkpt>
      <trkpt lat="38.568472992628813" lon="-109.33776048012078">
        <ele>2339.800048828125</ele>
        <time>2012-05-14T17:15:04Z</time>
      </trkpt>
      <trkpt lat="38.568470561876893" lon="-109.33775863610208">
        <ele>2340</ele>
        <time>2012-05-14T17:15:06Z</time>
      </trkpt>
      <trkpt lat="38.568437704816461" lon="-109.33775369077921">
        <ele>2340.800048828125</ele>
        <time>2012-05-14T17:15:33Z</time>
      </trkpt>
      <trkpt lat="38.568377522751689" lon="-109.33773717842996">
        <ele>2342.39990234375</ele>
        <time>2012-05-14T17:15:40Z</time>
      </trkpt>
      <trkpt lat="38.568379785865545" lon="-109.33772871270776">
        <ele>2342</ele>
        <time>2012-05-14T17:15:41Z</time>
      </trkpt>
      <trkpt lat="38.568367715924978" lon="-109.33770331554115">
        <ele>2342</ele>
        <time>2012-05-14T17:15:45Z</time>
      </trkpt>
      <trkpt lat="38.568369057029486" lon="-109.33770348317921">
        <ele>2342</ele>
        <time>2012-05-14T17:15:46Z</time>
      </trkpt>
      <trkpt lat="38.56834726408124" lon="-109.33771479874849">
        <ele>2343</ele>
        <time>2012-05-14T17:16:30Z</time>
      </trkpt>
      <trkpt lat="38.568331338465214" lon="-109.33774296194315">
        <ele>2344</ele>
        <time>2012-05-14T17:16:39Z</time>
      </trkpt>
      <trkpt lat="38.5683199390769" lon="-109.33778344653547">
        <ele>2344.800048828125</ele>
        <time>2012-05-14T17:16:41Z</time>
      </trkpt>
      <trkpt lat="38.568339301273227" lon="-109.33784698136151">
        <ele>2345.199951171875</ele>
        <time>2012-05-14T17:16:43Z</time>
      </trkpt>
      <trkpt lat="38.568389844149351" lon="-109.33793230913579">
        <ele>2345.800048828125</ele>
        <time>2012-05-14T17:16:47Z</time>
      </trkpt>
      <trkpt lat="38.56841909699142" lon="-109.33793473988771">
        <ele>2345.39990234375</ele>
        <time>2012-05-14T17:16:53Z</time>
      </trkpt>
      <trkpt lat="38.568451786413789" lon="-109.33796332217753">
        <ele>2345.199951171875</ele>
        <time>2012-05-14T17:16:59Z</time>
      </trkpt>
      <trkpt lat="38.568509453907609" lon="-109.33798503130674">
        <ele>2342.800048828125</ele>
        <time>2012-05-14T17:17:04Z</time>
      </trkpt>
      <trkpt lat="38.568594111129642" lon="-109.33806943707168">
        <ele>2341.199951171875</ele>
        <time>2012-05-14T17:17:09Z</time>
      </trkpt>
      <trkpt lat="38.568665022030473" lon="-109.33815233409405">
        <ele>2344</ele>
        <time>2012-05-14T17:17:13Z</time>
      </trkpt>
      <trkpt lat="38.568668542429805" lon="-109.33818703517318">
        <ele>2346.199951171875</ele>
        <time>2012-05-14T17:17:14Z</time>
      </trkpt>
      <trkpt lat="38.568677259609103" lon="-109.33827269822359">
        <ele>2347.60009765625</ele>
        <time>2012-05-14T17:17:17Z</time>
      </trkpt>
      <trkpt lat="38.568642977625132" lon="-109.33832634240389">
        <ele>2348</ele>
        <time>2012-05-14T17:17:19Z</time>
      </trkpt>
      <trkpt lat="38.568548429757357" lon="-109.33836808428168">
        <ele>2348.199951171875</ele>
        <time>2012-05-14T17:17:22Z</time>
      </trkpt>
      <trkpt lat="38.568534096702933" lon="-109.33846707455814">
        <ele>2348.800048828125</ele>
        <time>2012-05-14T17:17:24Z</time>
      </trkpt>
      <trkpt lat="38.568532923236489" lon="-109.33861174620688">
        <ele>2349.199951171875</ele>
        <time>2012-05-14T17:17:27Z</time>
      </trkpt>
      <trkpt lat="38.568483805283904" lon="-109.33867662213743">
        <ele>2349</ele>
        <time>2012-05-14T17:17:30Z</time>
      </trkpt>
      <trkpt lat="38.56845136731863" lon="-109.33880788274109">
        <ele>2348.800048828125</ele>
        <time>2012-05-14T17:17:33Z</time>
      </trkpt>
      <trkpt lat="38.568391939625144" lon="-109.33900024741888">
        <ele>2347.60009765625</ele>
        <time>2012-05-14T17:17:38Z</time>
      </trkpt>
      <trkpt lat="38.568389173597097" lon="-109.33923494070768">
        <ele>2347</ele>
        <time>2012-05-14T17:17:42Z</time>
      </trkpt>
      <trkpt lat="38.568445667624474" lon="-109.33942722156644">
        <ele>2346.39990234375</ele>
        <time>2012-05-14T17:17:45Z</time>
      </trkpt>
      <trkpt lat="38.568476345390081" lon="-109.33948229067028">
        <ele>2346.199951171875</ele>
        <time>2012-05-14T17:17:46Z</time>
      </trkpt>
      <trkpt lat="38.568503586575389" lon="-109.33960659429431">
        <ele>2345.39990234375</ele>
        <time>2012-05-14T17:17:48Z</time>
      </trkpt>
      <trkpt lat="38.56855052523315" lon="-109.33972176164389">
        <ele>2344.60009765625</ele>
        <time>2012-05-14T17:17:50Z</time>
      </trkpt>
      <trkpt lat="38.568615736439824" lon="-109.33987288735807">
        <ele>2343.39990234375</ele>
        <time>2012-05-14T17:17:53Z</time>
      </trkpt>
      <trkpt lat="38.56874892488122" lon="-109.33993499726057">
        <ele>2343.39990234375</ele>
        <time>2012-05-14T17:17:56Z</time>
      </trkpt>
      <trkpt lat="38.568866774439812" lon="-109.34010623954237">
        <ele>2343</ele>
        <time>2012-05-14T17:17:59Z</time>
      </trkpt>
      <trkpt lat="38.56895562261343" lon="-109.34016625396907">
        <ele>2343.199951171875</ele>
        <time>2012-05-14T17:18:01Z</time>
      </trkpt>
      <trkpt lat="38.568983785808086" lon="-109.34020573273301">
        <ele>2343</ele>
        <time>2012-05-14T17:18:02Z</time>
      </trkpt>
      <trkpt lat="38.569127032533288" lon="-109.34036029502749">
        <ele>2342.199951171875</ele>
        <time>2012-05-14T17:18:06Z</time>
      </trkpt>
      <trkpt lat="38.569240858778358" lon="-109.34050203301013">
        <ele>2341.39990234375</ele>
        <time>2012-05-14T17:18:10Z</time>
      </trkpt>
      <trkpt lat="38.569198362529278" lon="-109.34064880013466">
        <ele>2340.39990234375</ele>
        <time>2012-05-14T17:18:13Z</time>
      </trkpt>
      <trkpt lat="38.569148909300566" lon="-109.34079028666019">
        <ele>2339.199951171875</ele>
        <time>2012-05-14T17:18:16Z</time>
      </trkpt>
      <trkpt lat="38.569146143272519" lon="-109.3408571742475">
        <ele>2338.800048828125</ele>
        <time>2012-05-14T17:18:19Z</time>
      </trkpt>
      <trkpt lat="38.569203224033117" lon="-109.34091710485518">
        <ele>2338.60009765625</ele>
        <time>2012-05-14T17:18:22Z</time>
      </trkpt>
      <trkpt lat="38.569268267601728" lon="-109.34110393747687">
        <ele>2337.199951171875</ele>
        <time>2012-05-14T17:18:26Z</time>
      </trkpt>
      <trkpt lat="38.569190902635455" lon="-109.34126704931259">
        <ele>2335.60009765625</ele>
        <time>2012-05-14T17:18:29Z</time>
      </trkpt>
      <trkpt lat="38.569150837138295" lon="-109.34139378368855">
        <ele>2334.60009765625</ele>
        <time>2012-05-14T17:18:31Z</time>
      </trkpt>
      <trkpt lat="38.569111526012421" lon="-109.34152688831091">
        <ele>2333.199951171875</ele>
        <time>2012-05-14T17:18:33Z</time>
      </trkpt>
      <trkpt lat="38.569072214886546" lon="-109.34162638150156">
        <ele>2332.199951171875</ele>
        <time>2012-05-14T17:18:35Z</time>
      </trkpt>
      <trkpt lat="38.569089565426111" lon="-109.34172520413995">
        <ele>2331.60009765625</ele>
        <time>2012-05-14T17:18:37Z</time>
      </trkpt>
      <trkpt lat="38.569224262610078" lon="-109.34184858575463">
        <ele>2331.199951171875</ele>
        <time>2012-05-14T17:18:40Z</time>
      </trkpt>
      <trkpt lat="38.569251419976354" lon="-109.34188705869019">
        <ele>2331</ele>
        <time>2012-05-14T17:18:41Z</time>
      </trkpt>
      <trkpt lat="38.569281175732613" lon="-109.34197515249252">
        <ele>2330.60009765625</ele>
        <time>2012-05-14T17:18:43Z</time>
      </trkpt>
      <trkpt lat="38.569224765524268" lon="-109.34202343225479">
        <ele>2330</ele>
        <time>2012-05-14T17:18:45Z</time>
      </trkpt>
      <trkpt lat="38.569087637588382" lon="-109.34218377806246">
        <ele>2328.60009765625</ele>
        <time>2012-05-14T17:18:49Z</time>
      </trkpt>
      <trkpt lat="38.569023348391056" lon="-109.34229148551822">
        <ele>2327.800048828125</ele>
        <time>2012-05-14T17:18:51Z</time>
      </trkpt>
      <trkpt lat="38.569025862962008" lon="-109.34235049411654">
        <ele>2327.60009765625</ele>
        <time>2012-05-14T17:18:52Z</time>
      </trkpt>
      <trkpt lat="38.569056037813425" lon="-109.34252659790218">
        <ele>2327.60009765625</ele>
        <time>2012-05-14T17:18:55Z</time>
      </trkpt>
      <trkpt lat="38.569016391411424" lon="-109.34274419210851">
        <ele>2327.39990234375</ele>
        <time>2012-05-14T17:18:59Z</time>
      </trkpt>
      <trkpt lat="38.569021672010422" lon="-109.34296480379999">
        <ele>2327.800048828125</ele>
        <time>2012-05-14T17:19:03Z</time>
      </trkpt>
      <trkpt lat="38.569148993119597" lon="-109.34302565641701">
        <ele>2329</ele>
        <time>2012-05-14T17:19:06Z</time>
      </trkpt>
      <trkpt lat="38.569180425256491" lon="-109.34314233250916">
        <ele>2329.60009765625</ele>
        <time>2012-05-14T17:19:09Z</time>
      </trkpt>
      <trkpt lat="38.56921998783946" lon="-109.3432285822928">
        <ele>2329.800048828125</ele>
        <time>2012-05-14T17:19:12Z</time>
      </trkpt>
      <trkpt lat="38.569226693361998" lon="-109.34333209879696">
        <ele>2329.60009765625</ele>
        <time>2012-05-14T17:19:15Z</time>
      </trkpt>
      <trkpt lat="38.569223005324602" lon="-109.34335062280297">
        <ele>2329.60009765625</ele>
        <time>2012-05-14T17:19:16Z</time>
      </trkpt>
      <trkpt lat="38.569210432469845" lon="-109.34350409545004">
        <ele>2329</ele>
        <time>2012-05-14T17:19:20Z</time>
      </trkpt>
      <trkpt lat="38.569239182397723" lon="-109.34359210543334">
        <ele>2328.60009765625</ele>
        <time>2012-05-14T17:19:22Z</time>
      </trkpt>
      <trkpt lat="38.569274805486202" lon="-109.34361943043768">
        <ele>2328.800048828125</ele>
        <time>2012-05-14T17:19:23Z</time>
      </trkpt>
      <trkpt lat="38.569354685023427" lon="-109.34373334050179">
        <ele>2328</ele>
        <time>2012-05-14T17:19:26Z</time>
      </trkpt>
      <trkpt lat="38.569462727755308" lon="-109.34389620088041">
        <ele>2326.60009765625</ele>
        <time>2012-05-14T17:19:29Z</time>
      </trkpt>
      <trkpt lat="38.56954688206315" lon="-109.3440071772784">
        <ele>2325.800048828125</ele>
        <time>2012-05-14T17:19:31Z</time>
      </trkpt>
      <trkpt lat="38.569599185138941" lon="-109.34405319392681">
        <ele>2325.60009765625</ele>
        <time>2012-05-14T17:19:32Z</time>
      </trkpt>
      <trkpt lat="38.569661462679505" lon="-109.34407934546471">
        <ele>2325.39990234375</ele>
        <time>2012-05-14T17:19:33Z</time>
      </trkpt>
      <trkpt lat="38.56984393671155" lon="-109.34408797882497">
        <ele>2325.800048828125</ele>
        <time>2012-05-14T17:19:36Z</time>
      </trkpt>
      <trkpt lat="38.569934209808707" lon="-109.34415738098323">
        <ele>2325.800048828125</ele>
        <time>2012-05-14T17:19:39Z</time>
      </trkpt>
      <trkpt lat="38.569979975000024" lon="-109.34431361965835">
        <ele>2325.39990234375</ele>
        <time>2012-05-14T17:19:42Z</time>
      </trkpt>
      <trkpt lat="38.570015765726566" lon="-109.34448603540659">
        <ele>2324.39990234375</ele>
        <time>2012-05-14T17:19:45Z</time>
      </trkpt>
      <trkpt lat="38.57003353536129" lon="-109.34453506954014">
        <ele>2324.199951171875</ele>
        <time>2012-05-14T17:19:46Z</time>
      </trkpt>
      <trkpt lat="38.570061111822724" lon="-109.34457731433213">
        <ele>2324</ele>
        <time>2012-05-14T17:19:47Z</time>
      </trkpt>
      <trkpt lat="38.570104362443089" lon="-109.34465191327035">
        <ele>2323.39990234375</ele>
        <time>2012-05-14T17:19:49Z</time>
      </trkpt>
      <trkpt lat="38.570129005238414" lon="-109.34476272203028">
        <ele>2322</ele>
        <time>2012-05-14T17:19:52Z</time>
      </trkpt>
      <trkpt lat="38.570165717974305" lon="-109.34485265985131">
        <ele>2321</ele>
        <time>2012-05-14T17:19:54Z</time>
      </trkpt>
      <trkpt lat="38.570210058242083" lon="-109.34488853439689">
        <ele>2320.60009765625</ele>
        <time>2012-05-14T17:19:56Z</time>
      </trkpt>
      <trkpt lat="38.57032966800034" lon="-109.34493647888303">
        <ele>2320</ele>
        <time>2012-05-14T17:19:59Z</time>
      </trkpt>
      <trkpt lat="38.570490935817361" lon="-109.34487788937986">
        <ele>2320.39990234375</ele>
        <time>2012-05-14T17:20:02Z</time>
      </trkpt>
      <trkpt lat="38.570529576390982" lon="-109.34486766345799">
        <ele>2320.39990234375</ele>
        <time>2012-05-14T17:20:03Z</time>
      </trkpt>
      <trkpt lat="38.570573497563601" lon="-109.34485282748938">
        <ele>2320.39990234375</ele>
        <time>2012-05-14T17:20:05Z</time>
      </trkpt>
      <trkpt lat="38.570733172819018" lon="-109.34484846889973">
        <ele>2319.800048828125</ele>
        <time>2012-05-14T17:20:10Z</time>
      </trkpt>
      <trkpt lat="38.570862673223019" lon="-109.34478728100657">
        <ele>2319.800048828125</ele>
        <time>2012-05-14T17:20:14Z</time>
      </trkpt>
      <trkpt lat="38.571041123941541" lon="-109.34467907063663">
        <ele>2318.60009765625</ele>
        <time>2012-05-14T17:20:19Z</time>
      </trkpt>
      <trkpt lat="38.571073981001973" lon="-109.34462207369506">
        <ele>2318.39990234375</ele>
        <time>2012-05-14T17:20:22Z</time>
      </trkpt>
      <trkpt lat="38.571195350959897" lon="-109.34453582391143">
        <ele>2315.60009765625</ele>
        <time>2012-05-14T17:20:28Z</time>
      </trkpt>
      <trkpt lat="38.571314373984933" lon="-109.34454755857587">
        <ele>2312.39990234375</ele>
        <time>2012-05-14T17:20:31Z</time>
      </trkpt>
      <trkpt lat="38.571318564936519" lon="-109.34454881586134">
        <ele>2312.39990234375</ele>
        <time>2012-05-14T17:20:34Z</time>
      </trkpt>
      <trkpt lat="38.571353768929839" lon="-109.34452584944665">
        <ele>2311.39990234375</ele>
        <time>2012-05-14T17:20:39Z</time>
      </trkpt>
      <trkpt lat="38.57136013917625" lon="-109.34452685527503">
        <ele>2311.199951171875</ele>
        <time>2012-05-14T17:20:40Z</time>
      </trkpt>
      <trkpt lat="38.571386290714145" lon="-109.3445735424757">
        <ele>2310.60009765625</ele>
        <time>2012-05-14T17:20:43Z</time>
      </trkpt>
      <trkpt lat="38.571479665115476" lon="-109.34463020414114">
        <ele>2308.199951171875</ele>
        <time>2012-05-14T17:20:48Z</time>
      </trkpt>
      <trkpt lat="38.571554515510798" lon="-109.34461042284966">
        <ele>2306.199951171875</ele>
        <time>2012-05-14T17:20:50Z</time>
      </trkpt>
      <trkpt lat="38.571602292358875" lon="-109.34461444616318">
        <ele>2304.800048828125</ele>
        <time>2012-05-14T17:20:52Z</time>
      </trkpt>
      <trkpt lat="38.571609752252698" lon="-109.34461922384799">
        <ele>2304.60009765625</ele>
        <time>2012-05-14T17:20:55Z</time>
      </trkpt>
      <trkpt lat="38.571650739759207" lon="-109.34465518221259">
        <ele>2303.60009765625</ele>
        <time>2012-05-14T17:21:45Z</time>
      </trkpt>
      <trkpt lat="38.57172173447907" lon="-109.34471754357219">
        <ele>2302</ele>
        <time>2012-05-14T17:21:48Z</time>
      </trkpt>
      <trkpt lat="38.571743359789252" lon="-109.34471804648638">
        <ele>2301.39990234375</ele>
        <time>2012-05-14T17:21:49Z</time>
      </trkpt>
      <trkpt lat="38.571919966489077" lon="-109.34473061934114">
        <ele>2296.800048828125</ele>
        <time>2012-05-14T17:21:55Z</time>
      </trkpt>
      <trkpt lat="38.57194846495986" lon="-109.3447633087635">
        <ele>2296.39990234375</ele>
        <time>2012-05-14T17:21:58Z</time>
      </trkpt>
      <trkpt lat="38.571960786357522" lon="-109.34477646835148">
        <ele>2296.199951171875</ele>
        <time>2012-05-14T17:22:14Z</time>
      </trkpt>
      <trkpt lat="38.571953494101763" lon="-109.34474855661392">
        <ele>2296.199951171875</ele>
        <time>2012-05-14T17:22:17Z</time>
      </trkpt>
      <trkpt lat="38.571954164654016" lon="-109.34474905952811">
        <ele>2296.199951171875</ele>
        <time>2012-05-14T17:22:19Z</time>
      </trkpt>
      <trkpt lat="38.571897000074387" lon="-109.34476641006768">
        <ele>2297.800048828125</ele>
        <time>2012-05-14T17:22:29Z</time>
      </trkpt>
      <trkpt lat="38.571832627058029" lon="-109.34477873146534">
        <ele>2299.39990234375</ele>
        <time>2012-05-14T17:22:37Z</time>
      </trkpt>
      <trkpt lat="38.571814186871052" lon="-109.34474989771843">
        <ele>2299.800048828125</ele>
        <time>2012-05-14T17:22:42Z</time>
      </trkpt>
      <trkpt lat="38.571793399751186" lon="-109.34472332708538">
        <ele>2300.199951171875</ele>
        <time>2012-05-14T17:22:47Z</time>
      </trkpt>
      <trkpt lat="38.57179750688374" lon="-109.34472911059856">
        <ele>2300</ele>
        <time>2012-05-14T17:22:56Z</time>
      </trkpt>
      <trkpt lat="38.571809409186244" lon="-109.34470036067069">
        <ele>2299.60009765625</ele>
        <time>2012-05-14T17:23:49Z</time>
      </trkpt>
      <trkpt lat="38.571864394471049" lon="-109.34471888467669">
        <ele>2298.199951171875</ele>
        <time>2012-05-14T17:25:06Z</time>
      </trkpt>
      <trkpt lat="38.571889204904437" lon="-109.34471980668604">
        <ele>2297.60009765625</ele>
        <time>2012-05-14T17:25:12Z</time>
      </trkpt>
      <trkpt lat="38.571932874619961" lon="-109.34475115500391">
        <ele>2296.800048828125</ele>
        <time>2012-05-14T17:25:19Z</time>
      </trkpt>
      <trkpt lat="38.571968330070376" lon="-109.34476867318153">
        <ele>2296</ele>
        <time>2012-05-14T17:25:26Z</time>
      </trkpt>
      <trkpt lat="38.572059022262692" lon="-109.34479356743395">
        <ele>2294</ele>
        <time>2012-05-14T17:25:32Z</time>
      </trkpt>
      <trkpt lat="38.572204615920782" lon="-109.34484561905265">
        <ele>2292.39990234375</ele>
        <time>2012-05-14T17:25:36Z</time>
      </trkpt>
      <trkpt lat="38.572210734710097" lon="-109.34485215693712">
        <ele>2292.39990234375</ele>
        <time>2012-05-14T17:25:39Z</time>
      </trkpt>
      <trkpt lat="38.572262367233634" lon="-109.3448483850807">
        <ele>2291.800048828125</ele>
        <time>2012-05-14T17:25:45Z</time>
      </trkpt>
      <trkpt lat="38.57227535918355" lon="-109.34484737925231">
        <ele>2291.60009765625</ele>
        <time>2012-05-14T17:25:56Z</time>
      </trkpt>
      <trkpt lat="38.572354819625616" lon="-109.3448362313211">
        <ele>2290.39990234375</ele>
        <time>2012-05-14T17:26:07Z</time>
      </trkpt>
      <trkpt lat="38.572471244260669" lon="-109.34477806091309">
        <ele>2290</ele>
        <time>2012-05-14T17:26:10Z</time>
      </trkpt>
      <trkpt lat="38.572556152939796" lon="-109.34475014917552">
        <ele>2290</ele>
        <time>2012-05-14T17:26:13Z</time>
      </trkpt>
      <trkpt lat="38.572581466287374" lon="-109.34476783499122">
        <ele>2290.39990234375</ele>
        <time>2012-05-14T17:26:17Z</time>
      </trkpt>
      <trkpt lat="38.572595212608576" lon="-109.34476984664798">
        <ele>2290.60009765625</ele>
        <time>2012-05-14T17:26:19Z</time>
      </trkpt>
      <trkpt lat="38.572638630867004" lon="-109.34477579779923">
        <ele>2290.800048828125</ele>
        <time>2012-05-14T17:26:24Z</time>
      </trkpt>
      <trkpt lat="38.572704596444964" lon="-109.34479507617652">
        <ele>2289.60009765625</ele>
        <time>2012-05-14T17:26:33Z</time>
      </trkpt>
      <trkpt lat="38.572704344987869" lon="-109.34479909949005">
        <ele>2289.800048828125</ele>
        <time>2012-05-14T17:26:38Z</time>
      </trkpt>
      <trkpt lat="38.572713900357485" lon="-109.34483120217919">
        <ele>2290</ele>
        <time>2012-05-14T17:26:53Z</time>
      </trkpt>
      <trkpt lat="38.572711469605565" lon="-109.34484905563295">
        <ele>2290.39990234375</ele>
        <time>2012-05-14T17:27:01Z</time>
      </trkpt>
      <trkpt lat="38.572715157642961" lon="-109.34484888799489">
        <ele>2290.199951171875</ele>
        <time>2012-05-14T17:27:18Z</time>
      </trkpt>
      <trkpt lat="38.572717756032944" lon="-109.34485299512744">
        <ele>2290.199951171875</ele>
        <time>2012-05-14T17:27:42Z</time>
      </trkpt>
      <trkpt lat="38.572729490697384" lon="-109.34486481361091">
        <ele>2290</ele>
        <time>2012-05-14T17:28:05Z</time>
      </trkpt>
      <trkpt lat="38.572772908955812" lon="-109.34492449276149">
        <ele>2289.199951171875</ele>
        <time>2012-05-14T17:28:10Z</time>
      </trkpt>
      <trkpt lat="38.572869468480349" lon="-109.34492759406567">
        <ele>2286.39990234375</ele>
        <time>2012-05-14T17:28:14Z</time>
      </trkpt>
      <trkpt lat="38.572890507057309" lon="-109.34492524713278">
        <ele>2285.800048828125</ele>
        <time>2012-05-14T17:28:15Z</time>
      </trkpt>
      <trkpt lat="38.573003327473998" lon="-109.34492977336049">
        <ele>2283.199951171875</ele>
        <time>2012-05-14T17:28:19Z</time>
      </trkpt>
      <trkpt lat="38.573071137070656" lon="-109.34498006477952">
        <ele>2281.800048828125</ele>
        <time>2012-05-14T17:28:24Z</time>
      </trkpt>
      <trkpt lat="38.573103155940771" lon="-109.34506095014513">
        <ele>2281</ele>
        <time>2012-05-14T17:28:28Z</time>
      </trkpt>
      <trkpt lat="38.573127212002873" lon="-109.34515499509871">
        <ele>2280.39990234375</ele>
        <time>2012-05-14T17:28:30Z</time>
      </trkpt>
      <trkpt lat="38.573202230036259" lon="-109.34530444443226">
        <ele>2277.39990234375</ele>
        <time>2012-05-14T17:28:33Z</time>
      </trkpt>
      <trkpt lat="38.573347991332412" lon="-109.34545582160354">
        <ele>2273.800048828125</ele>
        <time>2012-05-14T17:28:37Z</time>
      </trkpt>
      <trkpt lat="38.573373891413212" lon="-109.34551583603024">
        <ele>2272.800048828125</ele>
        <time>2012-05-14T17:28:38Z</time>
      </trkpt>
      <trkpt lat="38.573396103456616" lon="-109.34560091234744">
        <ele>2271.60009765625</ele>
        <time>2012-05-14T17:28:39Z</time>
      </trkpt>
      <trkpt lat="38.573452262207866" lon="-109.34576452709734">
        <ele>2269.39990234375</ele>
        <time>2012-05-14T17:28:41Z</time>
      </trkpt>
      <trkpt lat="38.573541194200516" lon="-109.34589385986328">
        <ele>2268.199951171875</ele>
        <time>2012-05-14T17:28:43Z</time>
      </trkpt>
      <trkpt lat="38.573706988245249" lon="-109.34615403413773">
        <ele>2266.39990234375</ele>
        <time>2012-05-14T17:28:47Z</time>
      </trkpt>
      <trkpt lat="38.573842691257596" lon="-109.34614724479616">
        <ele>2266</ele>
        <time>2012-05-14T17:28:49Z</time>
      </trkpt>
      <trkpt lat="38.574043940752745" lon="-109.3460810277611">
        <ele>2265.60009765625</ele>
        <time>2012-05-14T17:28:52Z</time>
      </trkpt>
      <trkpt lat="38.574100434780121" lon="-109.34608329087496">
        <ele>2265.39990234375</ele>
        <time>2012-05-14T17:28:53Z</time>
      </trkpt>
      <trkpt lat="38.5741844214499" lon="-109.34619300998747">
        <ele>2264.800048828125</ele>
        <time>2012-05-14T17:28:55Z</time>
      </trkpt>
      <trkpt lat="38.574353819712996" lon="-109.34626283124089">
        <ele>2264.199951171875</ele>
        <time>2012-05-14T17:28:58Z</time>
      </trkpt>
      <trkpt lat="38.574477452784777" lon="-109.34647883288562">
        <ele>2262.800048828125</ele>
        <time>2012-05-14T17:29:01Z</time>
      </trkpt>
      <trkpt lat="38.57468725182116" lon="-109.346659546718">
        <ele>2261.199951171875</ele>
        <time>2012-05-14T17:29:05Z</time>
      </trkpt>
      <trkpt lat="38.574706530198455" lon="-109.3466680124402">
        <ele>2261.199951171875</ele>
        <time>2012-05-14T17:29:06Z</time>
      </trkpt>
      <trkpt lat="38.574705859646201" lon="-109.3466632347554">
        <ele>2261.199951171875</ele>
        <time>2012-05-14T17:29:07Z</time>
      </trkpt>
      <trkpt lat="38.574698148295283" lon="-109.34665527194738">
        <ele>2261.199951171875</ele>
        <time>2012-05-14T17:29:08Z</time>
      </trkpt>
      <trkpt lat="38.574779704213142" lon="-109.34665183536708">
        <ele>2261.199951171875</ele>
        <time>2012-05-14T17:29:49Z</time>
      </trkpt>
      <trkpt lat="38.57488414272666" lon="-109.34667681343853">
        <ele>2260.800048828125</ele>
        <time>2012-05-14T17:29:54Z</time>
      </trkpt>
      <trkpt lat="38.574906270951033" lon="-109.34667052701116">
        <ele>2260.800048828125</ele>
        <time>2012-05-14T17:29:55Z</time>
      </trkpt>
      <trkpt lat="38.5749701410532" lon="-109.34668871574104">
        <ele>2260.39990234375</ele>
        <time>2012-05-14T17:29:58Z</time>
      </trkpt>
      <trkpt lat="38.575025461614132" lon="-109.34666608460248">
        <ele>2260.199951171875</ele>
        <time>2012-05-14T17:30:02Z</time>
      </trkpt>
      <trkpt lat="38.575056893751025" lon="-109.34668636880815">
        <ele>2260</ele>
        <time>2012-05-14T17:30:05Z</time>
      </trkpt>
      <trkpt lat="38.575092181563377" lon="-109.34672517701983">
        <ele>2259.60009765625</ele>
        <time>2012-05-14T17:30:08Z</time>
      </trkpt>
      <trkpt lat="38.575083380565047" lon="-109.34671453200281">
        <ele>2259.60009765625</ele>
        <time>2012-05-14T17:30:12Z</time>
      </trkpt>
      <trkpt lat="38.575122775509953" lon="-109.34675476513803">
        <ele>2259.39990234375</ele>
        <time>2012-05-14T17:30:57Z</time>
      </trkpt>
      <trkpt lat="38.575138701125979" lon="-109.34677882120013">
        <ele>2259.199951171875</ele>
        <time>2012-05-14T17:30:58Z</time>
      </trkpt>
      <trkpt lat="38.575248001143336" lon="-109.34696171432734">
        <ele>2255</ele>
        <time>2012-05-14T17:31:03Z</time>
      </trkpt>
      <trkpt lat="38.575419075787067" lon="-109.34717360883951">
        <ele>2255.60009765625</ele>
        <time>2012-05-14T17:31:09Z</time>
      </trkpt>
      <trkpt lat="38.575563076883554" lon="-109.34738332405686">
        <ele>2250.199951171875</ele>
        <time>2012-05-14T17:31:15Z</time>
      </trkpt>
      <trkpt lat="38.575707077980042" lon="-109.34759773313999">
        <ele>2254.800048828125</ele>
        <time>2012-05-14T17:31:21Z</time>
      </trkpt>
      <trkpt lat="38.575742114335299" lon="-109.34765112586319">
        <ele>2255.39990234375</ele>
        <time>2012-05-14T17:31:23Z</time>
      </trkpt>
      <trkpt lat="38.575748987495899" lon="-109.34769370593131">
        <ele>2255.39990234375</ele>
        <time>2012-05-14T17:31:24Z</time>
      </trkpt>
      <trkpt lat="38.575830208137631" lon="-109.34789763763547">
        <ele>2255.39990234375</ele>
        <time>2012-05-14T17:31:29Z</time>
      </trkpt>
      <trkpt lat="38.575852084904909" lon="-109.34801724739373">
        <ele>2254</ele>
        <time>2012-05-14T17:31:32Z</time>
      </trkpt>
      <trkpt lat="38.575851414352655" lon="-109.34806284494698">
        <ele>2253.39990234375</ele>
        <time>2012-05-14T17:31:33Z</time>
      </trkpt>
      <trkpt lat="38.575929785147309" lon="-109.34817197732627">
        <ele>2250.800048828125</ele>
        <time>2012-05-14T17:31:36Z</time>
      </trkpt>
      <trkpt lat="38.575964653864503" lon="-109.34820433147252">
        <ele>2249.800048828125</ele>
        <time>2012-05-14T17:31:37Z</time>
      </trkpt>
      <trkpt lat="38.576005306094885" lon="-109.34820231981575">
        <ele>2248</ele>
        <time>2012-05-14T17:31:38Z</time>
      </trkpt>
      <trkpt lat="38.576037995517254" lon="-109.34817960485816">
        <ele>2246.199951171875</ele>
        <time>2012-05-14T17:31:39Z</time>
      </trkpt>
      <trkpt lat="38.576138494536281" lon="-109.34820843860507">
        <ele>2241.199951171875</ele>
        <time>2012-05-14T17:31:43Z</time>
      </trkpt>
      <trkpt lat="38.576155174523592" lon="-109.34826543554664">
        <ele>2241.800048828125</ele>
        <time>2012-05-14T17:31:45Z</time>
      </trkpt>
      <trkpt lat="38.576208399608731" lon="-109.3483797647059">
        <ele>2243.39990234375</ele>
        <time>2012-05-14T17:31:48Z</time>
      </trkpt>
      <trkpt lat="38.576339576393366" lon="-109.34850708581507">
        <ele>2235.60009765625</ele>
        <time>2012-05-14T17:31:52Z</time>
      </trkpt>
      <trkpt lat="38.57636128552258" lon="-109.3486593849957">
        <ele>2242</ele>
        <time>2012-05-14T17:31:55Z</time>
      </trkpt>
      <trkpt lat="38.576442589983344" lon="-109.34877455234528">
        <ele>2247.199951171875</ele>
        <time>2012-05-14T17:31:58Z</time>
      </trkpt>
      <trkpt lat="38.576482739299536" lon="-109.34879399836063">
        <ele>2247.199951171875</ele>
        <time>2012-05-14T17:32:00Z</time>
      </trkpt>
      <trkpt lat="38.576485589146614" lon="-109.34879701584578">
        <ele>2247.199951171875</ele>
        <time>2012-05-14T17:32:01Z</time>
      </trkpt>
      <trkpt lat="38.576521798968315" lon="-109.34883850626647">
        <ele>2247.199951171875</ele>
        <time>2012-05-14T17:32:06Z</time>
      </trkpt>
      <trkpt lat="38.576608970761299" lon="-109.3488438706845">
        <ele>2238.199951171875</ele>
        <time>2012-05-14T17:32:11Z</time>
      </trkpt>
      <trkpt lat="38.576654652133584" lon="-109.34883741661906">
        <ele>2232.800048828125</ele>
        <time>2012-05-14T17:32:13Z</time>
      </trkpt>
      <trkpt lat="38.576677450910211" lon="-109.34888200834394">
        <ele>2232.199951171875</ele>
        <time>2012-05-14T17:32:15Z</time>
      </trkpt>
      <trkpt lat="38.576684575527906" lon="-109.34902408160269">
        <ele>2238</ele>
        <time>2012-05-14T17:32:19Z</time>
      </trkpt>
      <trkpt lat="38.57668231241405" lon="-109.34912248514593">
        <ele>2241.199951171875</ele>
        <time>2012-05-14T17:32:22Z</time>
      </trkpt>
      <trkpt lat="38.576742075383663" lon="-109.34922398999333">
        <ele>2243.199951171875</ele>
        <time>2012-05-14T17:32:25Z</time>
      </trkpt>
      <trkpt lat="38.57685481198132" lon="-109.34926598332822">
        <ele>2236</ele>
        <time>2012-05-14T17:32:29Z</time>
      </trkpt>
      <trkpt lat="38.576924130320549" lon="-109.34943772852421">
        <ele>2236.39990234375</ele>
        <time>2012-05-14T17:32:34Z</time>
      </trkpt>
      <trkpt lat="38.5769456718117" lon="-109.3495590146631">
        <ele>2244</ele>
        <time>2012-05-14T17:32:37Z</time>
      </trkpt>
      <trkpt lat="38.577013984322548" lon="-109.34965297579765">
        <ele>2245.60009765625</ele>
        <time>2012-05-14T17:32:40Z</time>
      </trkpt>
      <trkpt lat="38.577044829726219" lon="-109.3496110662818">
        <ele>2245.39990234375</ele>
        <time>2012-05-14T17:32:43Z</time>
      </trkpt>
      <trkpt lat="38.57708296738565" lon="-109.34966848231852">
        <ele>2245.39990234375</ele>
        <time>2012-05-14T17:32:46Z</time>
      </trkpt>
      <trkpt lat="38.577134516090155" lon="-109.34978079982102">
        <ele>2239.800048828125</ele>
        <time>2012-05-14T17:32:49Z</time>
      </trkpt>
      <trkpt lat="38.577148765325546" lon="-109.34980041347444">
        <ele>2238.60009765625</ele>
        <time>2012-05-14T17:32:50Z</time>
      </trkpt>
      <trkpt lat="38.577148849144578" lon="-109.34979873709381">
        <ele>2238.60009765625</ele>
        <time>2012-05-14T17:32:53Z</time>
      </trkpt>
      <trkpt lat="38.577149519696832" lon="-109.34977778233588">
        <ele>2238.199951171875</ele>
        <time>2012-05-14T17:33:40Z</time>
      </trkpt>
      <trkpt lat="38.577136779204011" lon="-109.34976889751852">
        <ele>2239.39990234375</ele>
        <time>2012-05-14T17:34:59Z</time>
      </trkpt>
      <trkpt lat="38.577151615172625" lon="-109.34976722113788">
        <ele>2237.800048828125</ele>
        <time>2012-05-14T17:35:09Z</time>
      </trkpt>
      <trkpt lat="38.577149268239737" lon="-109.34980527497828">
        <ele>2238.60009765625</ele>
        <time>2012-05-14T17:35:53Z</time>
      </trkpt>
      <trkpt lat="38.577147340402007" lon="-109.34990376234055">
        <ele>2239</ele>
        <time>2012-05-14T17:35:59Z</time>
      </trkpt>
      <trkpt lat="38.577144742012024" lon="-109.3500339332968">
        <ele>2237.800048828125</ele>
        <time>2012-05-14T17:36:02Z</time>
      </trkpt>
      <trkpt lat="38.577114986255765" lon="-109.3500651139766">
        <ele>2240.800048828125</ele>
        <time>2012-05-14T17:36:03Z</time>
      </trkpt>
      <trkpt lat="38.577046170830727" lon="-109.3501338455826">
        <ele>2244</ele>
        <time>2012-05-14T17:36:06Z</time>
      </trkpt>
      <trkpt lat="38.577049439772964" lon="-109.35018866322935">
        <ele>2243.199951171875</ele>
        <time>2012-05-14T17:36:09Z</time>
      </trkpt>
      <trkpt lat="38.577063605189323" lon="-109.35033693909645">
        <ele>2241</ele>
        <time>2012-05-14T17:36:12Z</time>
      </trkpt>
      <trkpt lat="38.577124122530222" lon="-109.3504485860467">
        <ele>2235</ele>
        <time>2012-05-14T17:36:15Z</time>
      </trkpt>
      <trkpt lat="38.577198889106512" lon="-109.35063156299293">
        <ele>2229.39990234375</ele>
        <time>2012-05-14T17:36:19Z</time>
      </trkpt>
      <trkpt lat="38.577298801392317" lon="-109.35076349414885">
        <ele>2227</ele>
        <time>2012-05-14T17:36:23Z</time>
      </trkpt>
      <trkpt lat="38.577386224642396" lon="-109.35095594264567">
        <ele>2230.60009765625</ele>
        <time>2012-05-14T17:36:27Z</time>
      </trkpt>
      <trkpt lat="38.577461242675781" lon="-109.35105057433248">
        <ele>2228.60009765625</ele>
        <time>2012-05-14T17:36:29Z</time>
      </trkpt>
      <trkpt lat="38.577514719218016" lon="-109.35115811415017">
        <ele>2230.199951171875</ele>
        <time>2012-05-14T17:36:31Z</time>
      </trkpt>
      <trkpt lat="38.577634748071432" lon="-109.35122986324131">
        <ele>2232</ele>
        <time>2012-05-14T17:36:34Z</time>
      </trkpt>
      <trkpt lat="38.577670287340879" lon="-109.35126573778689">
        <ele>2231.39990234375</ele>
        <time>2012-05-14T17:36:37Z</time>
      </trkpt>
      <trkpt lat="38.577750585973263" lon="-109.35135492123663">
        <ele>2229</ele>
        <time>2012-05-14T17:36:40Z</time>
      </trkpt>
      <trkpt lat="38.577777994796634" lon="-109.35144603252411">
        <ele>2231.39990234375</ele>
        <time>2012-05-14T17:36:42Z</time>
      </trkpt>
      <trkpt lat="38.577814539894462" lon="-109.35146849602461">
        <ele>2231.800048828125</ele>
        <time>2012-05-14T17:36:43Z</time>
      </trkpt>
      <trkpt lat="38.577922750264406" lon="-109.35159699060023">
        <ele>2234.39990234375</ele>
        <time>2012-05-14T17:36:47Z</time>
      </trkpt>
      <trkpt lat="38.577980753034353" lon="-109.35166714712977">
        <ele>2232.60009765625</ele>
        <time>2012-05-14T17:36:49Z</time>
      </trkpt>
      <trkpt lat="38.578005479648709" lon="-109.35164812020957">
        <ele>2231.199951171875</ele>
        <time>2012-05-14T17:36:50Z</time>
      </trkpt>
      <trkpt lat="38.57802601531148" lon="-109.35166044160724">
        <ele>2230.800048828125</ele>
        <time>2012-05-14T17:36:51Z</time>
      </trkpt>
      <trkpt lat="38.578144200146198" lon="-109.35174384154379">
        <ele>2231.39990234375</ele>
        <time>2012-05-14T17:36:56Z</time>
      </trkpt>
      <trkpt lat="38.578218212351203" lon="-109.35175800696015">
        <ele>2230</ele>
        <time>2012-05-14T17:36:59Z</time>
      </trkpt>
      <trkpt lat="38.578233299776912" lon="-109.35178449377418">
        <ele>2230.39990234375</ele>
        <time>2012-05-14T17:37:00Z</time>
      </trkpt>
      <trkpt lat="38.57827621512115" lon="-109.35184869915247">
        <ele>2228</ele>
        <time>2012-05-14T17:37:02Z</time>
      </trkpt>
      <trkpt lat="38.578275544568896" lon="-109.35192271135747">
        <ele>2227.60009765625</ele>
        <time>2012-05-14T17:37:04Z</time>
      </trkpt>
      <trkpt lat="38.578251572325826" lon="-109.35194115154445">
        <ele>2229.39990234375</ele>
        <time>2012-05-14T17:37:05Z</time>
      </trkpt>
      <trkpt lat="38.57821804471314" lon="-109.35202840715647">
        <ele>2231.800048828125</ele>
        <time>2012-05-14T17:37:08Z</time>
      </trkpt>
      <trkpt lat="38.578220224007964" lon="-109.35207492671907">
        <ele>2231.39990234375</ele>
        <time>2012-05-14T17:37:09Z</time>
      </trkpt>
      <trkpt lat="38.578205807134509" lon="-109.35221733525395">
        <ele>2232.60009765625</ele>
        <time>2012-05-14T17:37:12Z</time>
      </trkpt>
      <trkpt lat="38.578193569555879" lon="-109.3523392919451">
        <ele>2233.60009765625</ele>
        <time>2012-05-14T17:37:15Z</time>
      </trkpt>
      <trkpt lat="38.578297924250364" lon="-109.35249343514442">
        <ele>2227.60009765625</ele>
        <time>2012-05-14T17:37:19Z</time>
      </trkpt>
      <trkpt lat="38.578440332785249" lon="-109.35269066132605">
        <ele>2226</ele>
        <time>2012-05-14T17:37:23Z</time>
      </trkpt>
      <trkpt lat="38.57838274911046" lon="-109.35279124416411">
        <ele>2229.39990234375</ele>
        <time>2012-05-14T17:37:25Z</time>
      </trkpt>
      <trkpt lat="38.578263306990266" lon="-109.3528641667217">
        <ele>2232.60009765625</ele>
        <time>2012-05-14T17:37:28Z</time>
      </trkpt>
      <trkpt lat="38.578246543183923" lon="-109.35300230048597">
        <ele>2232.800048828125</ele>
        <time>2012-05-14T17:37:31Z</time>
      </trkpt>
      <trkpt lat="38.578197173774242" lon="-109.35324470512569">
        <ele>2233</ele>
        <time>2012-05-14T17:37:35Z</time>
      </trkpt>
      <trkpt lat="38.578147636726499" lon="-109.35336909256876">
        <ele>2232.39990234375</ele>
        <time>2012-05-14T17:37:37Z</time>
      </trkpt>
      <trkpt lat="38.578096171841025" lon="-109.35349892824888">
        <ele>2231.60009765625</ele>
        <time>2012-05-14T17:37:39Z</time>
      </trkpt>
      <trkpt lat="38.578077480196953" lon="-109.35362515971065">
        <ele>2230.39990234375</ele>
        <time>2012-05-14T17:37:41Z</time>
      </trkpt>
      <trkpt lat="38.578158784657717" lon="-109.35378039255738">
        <ele>2228.39990234375</ele>
        <time>2012-05-14T17:37:44Z</time>
      </trkpt>
      <trkpt lat="38.578203376382589" lon="-109.35389606282115">
        <ele>2227.60009765625</ele>
        <time>2012-05-14T17:37:46Z</time>
      </trkpt>
      <trkpt lat="38.57823321595788" lon="-109.35393487103283">
        <ele>2226.800048828125</ele>
        <time>2012-05-14T17:37:47Z</time>
      </trkpt>
      <trkpt lat="38.578291805461049" lon="-109.35391274280846">
        <ele>2225.800048828125</ele>
        <time>2012-05-14T17:37:48Z</time>
      </trkpt>
      <trkpt lat="38.578408565372229" lon="-109.35400578193367">
        <ele>2223.800048828125</ele>
        <time>2012-05-14T17:37:51Z</time>
      </trkpt>
      <trkpt lat="38.578482158482075" lon="-109.35409647412598">
        <ele>2223</ele>
        <time>2012-05-14T17:37:53Z</time>
      </trkpt>
      <trkpt lat="38.578606210649014" lon="-109.35411541722715">
        <ele>2221.39990234375</ele>
        <time>2012-05-14T17:37:56Z</time>
      </trkpt>
      <trkpt lat="38.57872037217021" lon="-109.3541647028178">
        <ele>2220.39990234375</ele>
        <time>2012-05-14T17:37:59Z</time>
      </trkpt>
      <trkpt lat="38.578714421018958" lon="-109.35432555153966">
        <ele>2222</ele>
        <time>2012-05-14T17:38:02Z</time>
      </trkpt>
      <trkpt lat="38.578827995806932" lon="-109.35443988069892">
        <ele>2222.39990234375</ele>
        <time>2012-05-14T17:38:05Z</time>
      </trkpt>
      <trkpt lat="38.578962022438645" lon="-109.35442772693932">
        <ele>2222</ele>
        <time>2012-05-14T17:38:08Z</time>
      </trkpt>
      <trkpt lat="38.579021785408258" lon="-109.35448111966252">
        <ele>2222</ele>
        <time>2012-05-14T17:38:11Z</time>
      </trkpt>
      <trkpt lat="38.579056486487389" lon="-109.35448547825217">
        <ele>2221.199951171875</ele>
        <time>2012-05-14T17:38:14Z</time>
      </trkpt>
      <trkpt lat="38.579111387953162" lon="-109.35455521568656">
        <ele>2221.39990234375</ele>
        <time>2012-05-14T17:38:17Z</time>
      </trkpt>
      <trkpt lat="38.579193530604243" lon="-109.3546031601727">
        <ele>2222</ele>
        <time>2012-05-14T17:38:20Z</time>
      </trkpt>
      <trkpt lat="38.579249270260334" lon="-109.35468371026218">
        <ele>2222</ele>
        <time>2012-05-14T17:38:23Z</time>
      </trkpt>
      <trkpt lat="38.57919093221426" lon="-109.35480197891593">
        <ele>2222.60009765625</ele>
        <time>2012-05-14T17:38:26Z</time>
      </trkpt>
      <trkpt lat="38.579188166186213" lon="-109.35499409213662">
        <ele>2223</ele>
        <time>2012-05-14T17:38:29Z</time>
      </trkpt>
      <trkpt lat="38.579307273030281" lon="-109.35506869107485">
        <ele>2222.60009765625</ele>
        <time>2012-05-14T17:38:33Z</time>
      </trkpt>
      <trkpt lat="38.579398300498724" lon="-109.35505871661007">
        <ele>2221.800048828125</ele>
        <time>2012-05-14T17:38:37Z</time>
      </trkpt>
      <trkpt lat="38.579483712092042" lon="-109.35510339215398">
        <ele>2221.60009765625</ele>
        <time>2012-05-14T17:38:40Z</time>
      </trkpt>
      <trkpt lat="38.579518664628267" lon="-109.35514613986015">
        <ele>2222</ele>
        <time>2012-05-14T17:38:41Z</time>
      </trkpt>
      <trkpt lat="38.579605920240283" lon="-109.35521554201841">
        <ele>2219.39990234375</ele>
        <time>2012-05-14T17:38:44Z</time>
      </trkpt>
      <trkpt lat="38.579763416200876" lon="-109.35536901466548">
        <ele>2209</ele>
        <time>2012-05-14T17:38:49Z</time>
      </trkpt>
      <trkpt lat="38.579783700406551" lon="-109.35548233799636">
        <ele>2212.60009765625</ele>
        <time>2012-05-14T17:38:52Z</time>
      </trkpt>
      <trkpt lat="38.579838601872325" lon="-109.35565173625946">
        <ele>2220</ele>
        <time>2012-05-14T17:38:56Z</time>
      </trkpt>
      <trkpt lat="38.579852012917399" lon="-109.35570085421205">
        <ele>2222.39990234375</ele>
        <time>2012-05-14T17:38:57Z</time>
      </trkpt>
      <trkpt lat="38.579908674582839" lon="-109.355912161991">
        <ele>2221.199951171875</ele>
        <time>2012-05-14T17:39:01Z</time>
      </trkpt>
      <trkpt lat="38.58005141839385" lon="-109.35602364130318">
        <ele>2222</ele>
        <time>2012-05-14T17:39:05Z</time>
      </trkpt>
      <trkpt lat="38.580084443092346" lon="-109.35606387443841">
        <ele>2222</ele>
        <time>2012-05-14T17:39:06Z</time>
      </trkpt>
      <trkpt lat="38.580166669562459" lon="-109.35617937706411">
        <ele>2221.60009765625</ele>
        <time>2012-05-14T17:39:09Z</time>
      </trkpt>
      <trkpt lat="38.58018821105361" lon="-109.35621483251452">
        <ele>2221.60009765625</ele>
        <time>2012-05-14T17:39:10Z</time>
      </trkpt>
      <trkpt lat="38.580280663445592" lon="-109.35624819248915">
        <ele>2221</ele>
        <time>2012-05-14T17:39:13Z</time>
      </trkpt>
      <trkpt lat="38.58037537895143" lon="-109.35625632293522">
        <ele>2220.199951171875</ele>
        <time>2012-05-14T17:39:16Z</time>
      </trkpt>
      <trkpt lat="38.580451235175133" lon="-109.3564182613045">
        <ele>2220.199951171875</ele>
        <time>2012-05-14T17:39:20Z</time>
      </trkpt>
      <trkpt lat="38.580444948747754" lon="-109.3565546348691">
        <ele>2222.39990234375</ele>
        <time>2012-05-14T17:39:22Z</time>
      </trkpt>
      <trkpt lat="38.580494234338403" lon="-109.35666468925774">
        <ele>2222.60009765625</ele>
        <time>2012-05-14T17:39:24Z</time>
      </trkpt>
      <trkpt lat="38.580528516322374" lon="-109.35670760460198">
        <ele>2222.800048828125</ele>
        <time>2012-05-14T17:39:25Z</time>
      </trkpt>
      <trkpt lat="38.580546705052257" lon="-109.35679737478495">
        <ele>2223.800048828125</ele>
        <time>2012-05-14T17:39:27Z</time>
      </trkpt>
      <trkpt lat="38.580600349232554" lon="-109.35683006420732">
        <ele>2223.800048828125</ele>
        <time>2012-05-14T17:39:30Z</time>
      </trkpt>
      <trkpt lat="38.580632619559765" lon="-109.35680466704071">
        <ele>2224</ele>
        <time>2012-05-14T17:39:35Z</time>
      </trkpt>
      <trkpt lat="38.580705625936389" lon="-109.35674842447042">
        <ele>2222.199951171875</ele>
        <time>2012-05-14T17:39:43Z</time>
      </trkpt>
      <trkpt lat="38.580720294266939" lon="-109.35675965622067">
        <ele>2221.800048828125</ele>
        <time>2012-05-14T17:39:44Z</time>
      </trkpt>
      <trkpt lat="38.580753738060594" lon="-109.35685018077493">
        <ele>2222.199951171875</ele>
        <time>2012-05-14T17:39:49Z</time>
      </trkpt>
      <trkpt lat="38.580823894590139" lon="-109.35695327818394">
        <ele>2221.800048828125</ele>
        <time>2012-05-14T17:39:52Z</time>
      </trkpt>
      <trkpt lat="38.580934200435877" lon="-109.35700356960297">
        <ele>2221.60009765625</ele>
        <time>2012-05-14T17:39:55Z</time>
      </trkpt>
      <trkpt lat="38.58095733448863" lon="-109.35701312497258">
        <ele>2221.800048828125</ele>
        <time>2012-05-14T17:39:56Z</time>
      </trkpt>
      <trkpt lat="38.580996142700315" lon="-109.35704438947141">
        <ele>2220.199951171875</ele>
        <time>2012-05-14T17:39:59Z</time>
      </trkpt>
      <trkpt lat="38.581011984497309" lon="-109.35712879523635">
        <ele>2218.39990234375</ele>
        <time>2012-05-14T17:40:03Z</time>
      </trkpt>
      <trkpt lat="38.581007961183786" lon="-109.35717145912349">
        <ele>2217.60009765625</ele>
        <time>2012-05-14T17:40:04Z</time>
      </trkpt>
      <trkpt lat="38.580969655886292" lon="-109.35727346688509">
        <ele>2218.800048828125</ele>
        <time>2012-05-14T17:40:07Z</time>
      </trkpt>
      <trkpt lat="38.58093629591167" lon="-109.35728620737791">
        <ele>2218.800048828125</ele>
        <time>2012-05-14T17:40:08Z</time>
      </trkpt>
      <trkpt lat="38.580852141603827" lon="-109.35738318599761">
        <ele>2217.60009765625</ele>
        <time>2012-05-14T17:40:12Z</time>
      </trkpt>
      <trkpt lat="38.580754576250911" lon="-109.35751385986805">
        <ele>2217.60009765625</ele>
        <time>2012-05-14T17:40:16Z</time>
      </trkpt>
      <trkpt lat="38.580702356994152" lon="-109.35764964669943">
        <ele>2220.39990234375</ele>
        <time>2012-05-14T17:40:20Z</time>
      </trkpt>
      <trkpt lat="38.5807154327631" lon="-109.3576857727021">
        <ele>2219.199951171875</ele>
        <time>2012-05-14T17:40:21Z</time>
      </trkpt>
      <trkpt lat="38.580741249024868" lon="-109.35782684013247">
        <ele>2217</ele>
        <time>2012-05-14T17:40:24Z</time>
      </trkpt>
      <trkpt lat="38.580811740830541" lon="-109.35794234275818">
        <ele>2210.800048828125</ele>
        <time>2012-05-14T17:40:27Z</time>
      </trkpt>
      <trkpt lat="38.580862199887633" lon="-109.35804007574916">
        <ele>2211.800048828125</ele>
        <time>2012-05-14T17:40:30Z</time>
      </trkpt>
      <trkpt lat="38.580962447449565" lon="-109.35816245153546">
        <ele>2217.39990234375</ele>
        <time>2012-05-14T17:40:34Z</time>
      </trkpt>
      <trkpt lat="38.581072334200144" lon="-109.35836990363896">
        <ele>2209.60009765625</ele>
        <time>2012-05-14T17:40:40Z</time>
      </trkpt>
      <trkpt lat="38.581059090793133" lon="-109.35850191861391">
        <ele>2214.39990234375</ele>
        <time>2012-05-14T17:40:44Z</time>
      </trkpt>
      <trkpt lat="38.581011397764087" lon="-109.35855539515615">
        <ele>2218.39990234375</ele>
        <time>2012-05-14T17:40:47Z</time>
      </trkpt>
      <trkpt lat="38.580986084416509" lon="-109.35856008902192">
        <ele>2220.39990234375</ele>
        <time>2012-05-14T17:40:48Z</time>
      </trkpt>
      <trkpt lat="38.581009050831199" lon="-109.35864793136716">
        <ele>2218.800048828125</ele>
        <time>2012-05-14T17:40:51Z</time>
      </trkpt>
      <trkpt lat="38.581029754132032" lon="-109.35868288390338">
        <ele>2217.800048828125</ele>
        <time>2012-05-14T17:40:52Z</time>
      </trkpt>
      <trkpt lat="38.581094965338707" lon="-109.35875019058585">
        <ele>2215.39990234375</ele>
        <time>2012-05-14T17:40:55Z</time>
      </trkpt>
      <trkpt lat="38.581111393868923" lon="-109.3587511125952">
        <ele>2214.60009765625</ele>
        <time>2012-05-14T17:40:56Z</time>
      </trkpt>
      <trkpt lat="38.581149028614163" lon="-109.35885345563293">
        <ele>2207.60009765625</ele>
        <time>2012-05-14T17:40:59Z</time>
      </trkpt>
      <trkpt lat="38.581098150461912" lon="-109.35889771208167">
        <ele>2208.60009765625</ele>
        <time>2012-05-14T17:41:02Z</time>
      </trkpt>
      <trkpt lat="38.581086834892631" lon="-109.3589810281992">
        <ele>2205.800048828125</ele>
        <time>2012-05-14T17:41:05Z</time>
      </trkpt>
      <trkpt lat="38.581084655597806" lon="-109.35897499322891">
        <ele>2206.199951171875</ele>
        <time>2012-05-14T17:41:06Z</time>
      </trkpt>
      <trkpt lat="38.58108926564455" lon="-109.35900156386197">
        <ele>2204.800048828125</ele>
        <time>2012-05-14T17:41:08Z</time>
      </trkpt>
      <trkpt lat="38.581081805750728" lon="-109.35901966877282">
        <ele>2204.60009765625</ele>
        <time>2012-05-14T17:41:09Z</time>
      </trkpt>
      <trkpt lat="38.581019695848227" lon="-109.35914573259652">
        <ele>2208.800048828125</ele>
        <time>2012-05-14T17:41:12Z</time>
      </trkpt>
      <trkpt lat="38.581025563180447" lon="-109.35924648307264">
        <ele>2207.800048828125</ele>
        <time>2012-05-14T17:41:15Z</time>
      </trkpt>
      <trkpt lat="38.580994717776775" lon="-109.35931110754609">
        <ele>2209.60009765625</ele>
        <time>2012-05-14T17:41:19Z</time>
      </trkpt>
      <trkpt lat="38.58096806332469" lon="-109.35932569205761">
        <ele>2211.199951171875</ele>
        <time>2012-05-14T17:41:20Z</time>
      </trkpt>
      <trkpt lat="38.580926153808832" lon="-109.35941780917346">
        <ele>2211.800048828125</ele>
        <time>2012-05-14T17:41:22Z</time>
      </trkpt>
      <trkpt lat="38.580940905958414" lon="-109.35947991907597">
        <ele>2211.800048828125</ele>
        <time>2012-05-14T17:41:23Z</time>
      </trkpt>
      <trkpt lat="38.58104920014739" lon="-109.35960246250033">
        <ele>2209.199951171875</ele>
        <time>2012-05-14T17:41:26Z</time>
      </trkpt>
      <trkpt lat="38.581169983372092" lon="-109.35971117578447">
        <ele>2208</ele>
        <time>2012-05-14T17:41:30Z</time>
      </trkpt>
      <trkpt lat="38.581232344731688" lon="-109.3597736209631">
        <ele>2209</ele>
        <time>2012-05-14T17:41:32Z</time>
      </trkpt>
      <trkpt lat="38.581299148499966" lon="-109.35990530066192">
        <ele>2209.800048828125</ele>
        <time>2012-05-14T17:41:35Z</time>
      </trkpt>
      <trkpt lat="38.581328317523003" lon="-109.35995064675808">
        <ele>2209.199951171875</ele>
        <time>2012-05-14T17:41:36Z</time>
      </trkpt>
      <trkpt lat="38.581403754651546" lon="-109.36000856570899">
        <ele>2208.39990234375</ele>
        <time>2012-05-14T17:41:38Z</time>
      </trkpt>
      <trkpt lat="38.581477263942361" lon="-109.36007536947727">
        <ele>2209.800048828125</ele>
        <time>2012-05-14T17:41:41Z</time>
      </trkpt>
      <trkpt lat="38.581502074375749" lon="-109.36012641526759">
        <ele>2212.199951171875</ele>
        <time>2012-05-14T17:41:44Z</time>
      </trkpt>
      <trkpt lat="38.581528980284929" lon="-109.36016497202218">
        <ele>2212.800048828125</ele>
        <time>2012-05-14T17:41:45Z</time>
      </trkpt>
      <trkpt lat="38.581631826236844" lon="-109.36026966199279">
        <ele>2210.199951171875</ele>
        <time>2012-05-14T17:41:48Z</time>
      </trkpt>
      <trkpt lat="38.581645656377077" lon="-109.36028433032334">
        <ele>2210.199951171875</ele>
        <time>2012-05-14T17:41:51Z</time>
      </trkpt>
      <trkpt lat="38.581650014966726" lon="-109.36029011383653">
        <ele>2210.199951171875</ele>
        <time>2012-05-14T17:41:55Z</time>
      </trkpt>
      <trkpt lat="38.581685302779078" lon="-109.36028558760881">
        <ele>2209.39990234375</ele>
        <time>2012-05-14T17:41:59Z</time>
      </trkpt>
      <trkpt lat="38.581763925030828" lon="-109.36026404611766">
        <ele>2207.199951171875</ele>
        <time>2012-05-14T17:42:05Z</time>
      </trkpt>
      <trkpt lat="38.581810696050525" lon="-109.36024778522551">
        <ele>2205.39990234375</ele>
        <time>2012-05-14T17:42:07Z</time>
      </trkpt>
      <trkpt lat="38.581858305260539" lon="-109.36027938500047">
        <ele>2205.60009765625</ele>
        <time>2012-05-14T17:42:09Z</time>
      </trkpt>
      <trkpt lat="38.581900969147682" lon="-109.36030159704387">
        <ele>2206</ele>
        <time>2012-05-14T17:42:11Z</time>
      </trkpt>
      <trkpt lat="38.581967689096928" lon="-109.36036446131766">
        <ele>2209.199951171875</ele>
        <time>2012-05-14T17:42:15Z</time>
      </trkpt>
      <trkpt lat="38.582011610269547" lon="-109.36038239859045">
        <ele>2210.199951171875</ele>
        <time>2012-05-14T17:42:17Z</time>
      </trkpt>
      <trkpt lat="38.582065002992749" lon="-109.36038784682751">
        <ele>2210.39990234375</ele>
        <time>2012-05-14T17:42:19Z</time>
      </trkpt>
      <trkpt lat="38.582149911671877" lon="-109.36035021208227">
        <ele>2206.60009765625</ele>
        <time>2012-05-14T17:42:22Z</time>
      </trkpt>
      <trkpt lat="38.582169525325298" lon="-109.36035549268126">
        <ele>2207</ele>
        <time>2012-05-14T17:42:23Z</time>
      </trkpt>
      <trkpt lat="38.582268264144659" lon="-109.3604520522058">
        <ele>2211.800048828125</ele>
        <time>2012-05-14T17:42:27Z</time>
      </trkpt>
      <trkpt lat="38.582410169765353" lon="-109.36056721955538">
        <ele>2209.800048828125</ele>
        <time>2012-05-14T17:42:31Z</time>
      </trkpt>
      <trkpt lat="38.582552745938301" lon="-109.36071163974702">
        <ele>2207.39990234375</ele>
        <time>2012-05-14T17:42:35Z</time>
      </trkpt>
      <trkpt lat="38.582597924396396" lon="-109.36077282764018">
        <ele>2207.39990234375</ele>
        <time>2012-05-14T17:42:37Z</time>
      </trkpt>
      <trkpt lat="38.58263916336" lon="-109.3608302436769">
        <ele>2207.800048828125</ele>
        <time>2012-05-14T17:42:39Z</time>
      </trkpt>
      <trkpt lat="38.582720384001732" lon="-109.36094365082681">
        <ele>2206.60009765625</ele>
        <time>2012-05-14T17:42:45Z</time>
      </trkpt>
      <trkpt lat="38.582724491134286" lon="-109.36093602329493">
        <ele>2206.199951171875</ele>
        <time>2012-05-14T17:44:04Z</time>
      </trkpt>
      <trkpt lat="38.582720467820764" lon="-109.36092403717339">
        <ele>2206.199951171875</ele>
        <time>2012-05-14T17:46:05Z</time>
      </trkpt>
      <trkpt lat="38.582706302404404" lon="-109.36091624200344">
        <ele>2206.800048828125</ele>
        <time>2012-05-14T17:46:10Z</time>
      </trkpt>
      <trkpt lat="38.58270806260407" lon="-109.36090484261513">
        <ele>2206.39990234375</ele>
        <time>2012-05-14T17:46:55Z</time>
      </trkpt>
      <trkpt lat="38.582687946036458" lon="-109.36091188341379">
        <ele>2207.39990234375</ele>
        <time>2012-05-14T17:53:11Z</time>
      </trkpt>
      <trkpt lat="38.582720551639795" lon="-109.36093828640878">
        <ele>2206.39990234375</ele>
        <time>2012-05-14T17:53:53Z</time>
      </trkpt>
      <trkpt lat="38.582720132544637" lon="-109.36094549484551">
        <ele>2206.60009765625</ele>
        <time>2012-05-14T17:54:01Z</time>
      </trkpt>
      <trkpt lat="38.582713259384036" lon="-109.36091263778508">
        <ele>2206.39990234375</ele>
        <time>2012-05-14T18:01:01Z</time>
      </trkpt>
      <trkpt lat="38.582707224413753" lon="-109.3609166610986">
        <ele>2206.60009765625</ele>
        <time>2012-05-14T18:01:13Z</time>
      </trkpt>
      <trkpt lat="38.58269976451993" lon="-109.36092319898307">
        <ele>2207.199951171875</ele>
        <time>2012-05-14T18:01:26Z</time>
      </trkpt>
      <trkpt lat="38.582691131159663" lon="-109.36092688702047">
        <ele>2207.60009765625</ele>
        <time>2012-05-14T18:01:37Z</time>
      </trkpt>
      <trkpt lat="38.582702949643135" lon="-109.36092219315469">
        <ele>2207</ele>
        <time>2012-05-14T18:01:50Z</time>
      </trkpt>
      <trkpt lat="38.582696244120598" lon="-109.36095044016838">
        <ele>2207.800048828125</ele>
        <time>2012-05-14T18:02:14Z</time>
      </trkpt>
      <trkpt lat="38.582697417587042" lon="-109.36094314791262">
        <ele>2207.60009765625</ele>
        <time>2012-05-14T18:02:18Z</time>
      </trkpt>
      <trkpt lat="38.582690376788378" lon="-109.36096468940377">
        <ele>2208.199951171875</ele>
        <time>2012-05-14T18:04:19Z</time>
      </trkpt>
      <trkpt lat="38.582711415365338" lon="-109.36093686148524">
        <ele>2206.800048828125</ele>
        <time>2012-05-14T18:12:39Z</time>
      </trkpt>
      <trkpt lat="38.582719378173351" lon="-109.36093116179109">
        <ele>2206.39990234375</ele>
        <time>2012-05-14T18:17:08Z</time>
      </trkpt>
      <trkpt lat="38.582718120887876" lon="-109.36093275435269">
        <ele>2206.39990234375</ele>
        <time>2012-05-14T18:17:24Z</time>
      </trkpt>
      <trkpt lat="38.582710660994053" lon="-109.36093275435269">
        <ele>2206.800048828125</ele>
        <time>2012-05-14T18:17:42Z</time>
      </trkpt>
      <trkpt lat="38.582697501406074" lon="-109.36092386953533">
        <ele>2207.199951171875</ele>
        <time>2012-05-14T18:18:17Z</time>
      </trkpt>
      <trkpt lat="38.582697417587042" lon="-109.36092772521079">
        <ele>2207.199951171875</ele>
        <time>2012-05-14T18:18:43Z</time>
      </trkpt>
      <trkpt lat="38.582692388445139" lon="-109.36093501746655">
        <ele>2207.60009765625</ele>
        <time>2012-05-14T18:18:50Z</time>
      </trkpt>
      <trkpt lat="38.58267730101943" lon="-109.36093258671463">
        <ele>2208.199951171875</ele>
        <time>2012-05-14T18:18:57Z</time>
      </trkpt>
      <trkpt lat="38.58266900293529" lon="-109.3609354365617">
        <ele>2208.60009765625</ele>
        <time>2012-05-14T18:19:02Z</time>
      </trkpt>
      <trkpt lat="38.582670511677861" lon="-109.36093602329493">
        <ele>2208.60009765625</ele>
        <time>2012-05-14T18:19:16Z</time>
      </trkpt>
      <trkpt lat="38.582680318504572" lon="-109.36093627475202">
        <ele>2208.199951171875</ele>
        <time>2012-05-14T18:25:15Z</time>
      </trkpt>
      <trkpt lat="38.582683671265841" lon="-109.3609372805804">
        <ele>2208</ele>
        <time>2012-05-14T18:37:56Z</time>
      </trkpt>
      <trkpt lat="38.582748211920261" lon="-109.36094381846488">
        <ele>2205.39990234375</ele>
        <time>2012-05-14T18:39:42Z</time>
      </trkpt>
      <trkpt lat="38.582763550803065" lon="-109.36090056784451">
        <ele>2204</ele>
        <time>2012-05-14T18:39:50Z</time>
      </trkpt>
      <trkpt lat="38.582731448113918" lon="-109.36080174520612">
        <ele>2203.800048828125</ele>
        <time>2012-05-14T18:39:56Z</time>
      </trkpt>
      <trkpt lat="38.58268316835165" lon="-109.36071742326021">
        <ele>2204.199951171875</ele>
        <time>2012-05-14T18:40:00Z</time>
      </trkpt>
      <trkpt lat="38.5826719366014" lon="-109.36065749265254">
        <ele>2203.199951171875</ele>
        <time>2012-05-14T18:40:03Z</time>
      </trkpt>
      <trkpt lat="38.582675037905574" lon="-109.36067014932632">
        <ele>2203.39990234375</ele>
        <time>2012-05-14T18:40:05Z</time>
      </trkpt>
      <trkpt lat="38.582678893581033" lon="-109.36068624258041">
        <ele>2203.60009765625</ele>
        <time>2012-05-14T18:40:13Z</time>
      </trkpt>
      <trkpt lat="38.582681743428111" lon="-109.36069780960679">
        <ele>2203.800048828125</ele>
        <time>2012-05-14T18:40:21Z</time>
      </trkpt>
      <trkpt lat="38.582740500569344" lon="-109.36075011268258">
        <ele>2202.60009765625</ele>
        <time>2012-05-14T18:40:39Z</time>
      </trkpt>
      <trkpt lat="38.582785092294216" lon="-109.36079856008291">
        <ele>2201.800048828125</ele>
        <time>2012-05-14T18:40:44Z</time>
      </trkpt>
      <trkpt lat="38.582906797528267" lon="-109.36092814430594">
        <ele>2198.199951171875</ele>
        <time>2012-05-14T18:40:48Z</time>
      </trkpt>
      <trkpt lat="38.582937642931938" lon="-109.36093501746655">
        <ele>2197.39990234375</ele>
        <time>2012-05-14T18:40:50Z</time>
      </trkpt>
      <trkpt lat="38.582939654588699" lon="-109.36090987175703">
        <ele>2197.199951171875</ele>
        <time>2012-05-14T18:40:51Z</time>
      </trkpt>
      <trkpt lat="38.582892464473844" lon="-109.36084491200745">
        <ele>2198</ele>
        <time>2012-05-14T18:40:54Z</time>
      </trkpt>
      <trkpt lat="38.582879388704896" lon="-109.36083083041012">
        <ele>2198.39990234375</ele>
        <time>2012-05-14T18:40:55Z</time>
      </trkpt>
      <trkpt lat="38.5828757006675" lon="-109.36077266000211">
        <ele>2198</ele>
        <time>2012-05-14T18:40:57Z</time>
      </trkpt>
      <trkpt lat="38.582887686789036" lon="-109.36073980294168">
        <ele>2197.199951171875</ele>
        <time>2012-05-14T18:40:58Z</time>
      </trkpt>
      <trkpt lat="38.582866312935948" lon="-109.36063234694302">
        <ele>2196.199951171875</ele>
        <time>2012-05-14T18:41:01Z</time>
      </trkpt>
      <trkpt lat="38.582924148067832" lon="-109.36058825813234">
        <ele>2193.60009765625</ele>
        <time>2012-05-14T18:41:03Z</time>
      </trkpt>
      <trkpt lat="38.582919202744961" lon="-109.36054634861648">
        <ele>2192.800048828125</ele>
        <time>2012-05-14T18:41:04Z</time>
      </trkpt>
      <trkpt lat="38.582891458645463" lon="-109.36044367030263">
        <ele>2191.39990234375</ele>
        <time>2012-05-14T18:41:07Z</time>
      </trkpt>
      <trkpt lat="38.583025485277176" lon="-109.36050343327224">
        <ele>2190.199951171875</ele>
        <time>2012-05-14T18:41:10Z</time>
      </trkpt>
      <trkpt lat="38.583177113905549" lon="-109.36048465780914">
        <ele>2187.60009765625</ele>
        <time>2012-05-14T18:41:13Z</time>
      </trkpt>
      <trkpt lat="38.583241570740938" lon="-109.3604071252048">
        <ele>2185.199951171875</ele>
        <time>2012-05-14T18:41:15Z</time>
      </trkpt>
      <trkpt lat="38.583268309012055" lon="-109.36039857566357">
        <ele>2184.39990234375</ele>
        <time>2012-05-14T18:41:16Z</time>
      </trkpt>
      <trkpt lat="38.583338381722569" lon="-109.36039899475873">
        <ele>2183.199951171875</ele>
        <time>2012-05-14T18:41:18Z</time>
      </trkpt>
      <trkpt lat="38.583402587100863" lon="-109.36046990565956">
        <ele>2183.60009765625</ele>
        <time>2012-05-14T18:41:20Z</time>
      </trkpt>
      <trkpt lat="38.583398479968309" lon="-109.36058641411364">
        <ele>2185.39990234375</ele>
        <time>2012-05-14T18:41:23Z</time>
      </trkpt>
      <trkpt lat="38.583343327045441" lon="-109.36062748543918">
        <ele>2187</ele>
        <time>2012-05-14T18:41:25Z</time>
      </trkpt>
      <trkpt lat="38.583354558795691" lon="-109.36070711351931">
        <ele>2187.800048828125</ele>
        <time>2012-05-14T18:41:26Z</time>
      </trkpt>
      <trkpt lat="38.583357660099864" lon="-109.36075463891029">
        <ele>2187.60009765625</ele>
        <time>2012-05-14T18:41:27Z</time>
      </trkpt>
      <trkpt lat="38.583419099450111" lon="-109.36077903024852">
        <ele>2186.39990234375</ele>
        <time>2012-05-14T18:41:28Z</time>
      </trkpt>
      <trkpt lat="38.583451118320227" lon="-109.36080358922482">
        <ele>2185.60009765625</ele>
        <time>2012-05-14T18:41:29Z</time>
      </trkpt>
      <trkpt lat="38.583603166043758" lon="-109.36087156645954">
        <ele>2182.800048828125</ele>
        <time>2012-05-14T18:41:33Z</time>
      </trkpt>
      <trkpt lat="38.583619091659784" lon="-109.3608458340168">
        <ele>2182.60009765625</ele>
        <time>2012-05-14T18:41:34Z</time>
      </trkpt>
      <trkpt lat="38.583639124408364" lon="-109.36081524007022">
        <ele>2182.199951171875</ele>
        <time>2012-05-14T18:41:35Z</time>
      </trkpt>
      <trkpt lat="38.583665527403355" lon="-109.36074784956872">
        <ele>2181.60009765625</ele>
        <time>2012-05-14T18:41:39Z</time>
      </trkpt>
      <trkpt lat="38.583672819659114" lon="-109.3607351090759">
        <ele>2181.39990234375</ele>
        <time>2012-05-14T18:41:40Z</time>
      </trkpt>
      <trkpt lat="38.58373124152422" lon="-109.36064600944519">
        <ele>2179</ele>
        <time>2012-05-14T18:41:43Z</time>
      </trkpt>
      <trkpt lat="38.583777425810695" lon="-109.36059856787324">
        <ele>2177</ele>
        <time>2012-05-14T18:41:44Z</time>
      </trkpt>
      <trkpt lat="38.583880187943578" lon="-109.36056185513735">
        <ele>2173</ele>
        <time>2012-05-14T18:41:46Z</time>
      </trkpt>
      <trkpt lat="38.583934167400002" lon="-109.36058968305588">
        <ele>2172.199951171875</ele>
        <time>2012-05-14T18:41:47Z</time>
      </trkpt>
      <trkpt lat="38.583973478525877" lon="-109.36061860062182">
        <ele>2172</ele>
        <time>2012-05-14T18:41:48Z</time>
      </trkpt>
      <trkpt lat="38.584156120195985" lon="-109.36080870218575">
        <ele>2170.39990234375</ele>
        <time>2012-05-14T18:41:53Z</time>
      </trkpt>
      <trkpt lat="38.584195263683796" lon="-109.36085874214768">
        <ele>2170.60009765625</ele>
        <time>2012-05-14T18:41:54Z</time>
      </trkpt>
      <trkpt lat="38.584338594228029" lon="-109.36108019202948">
        <ele>2172</ele>
        <time>2012-05-14T18:41:58Z</time>
      </trkpt>
      <trkpt lat="38.584490474313498" lon="-109.36121815815568">
        <ele>2170.800048828125</ele>
        <time>2012-05-14T18:42:02Z</time>
      </trkpt>
      <trkpt lat="38.584529366344213" lon="-109.36130717396736">
        <ele>2171.39990234375</ele>
        <time>2012-05-14T18:42:04Z</time>
      </trkpt>
      <trkpt lat="38.584562139585614" lon="-109.36136450618505">
        <ele>2171.39990234375</ele>
        <time>2012-05-14T18:42:06Z</time>
      </trkpt>
      <trkpt lat="38.584569431841373" lon="-109.36140180565417">
        <ele>2171.60009765625</ele>
        <time>2012-05-14T18:42:07Z</time>
      </trkpt>
      <trkpt lat="38.584612431004643" lon="-109.36144765466452">
        <ele>2171</ele>
        <time>2012-05-14T18:42:09Z</time>
      </trkpt>
      <trkpt lat="38.584669344127178" lon="-109.36148813925683">
        <ele>2170</ele>
        <time>2012-05-14T18:42:11Z</time>
      </trkpt>
      <trkpt lat="38.584712343290448" lon="-109.36154446564615">
        <ele>2169.60009765625</ele>
        <time>2012-05-14T18:42:13Z</time>
      </trkpt>
      <trkpt lat="38.584716869518161" lon="-109.36159743927419">
        <ele>2169.60009765625</ele>
        <time>2012-05-14T18:42:14Z</time>
      </trkpt>
      <trkpt lat="38.584737321361899" lon="-109.36165938153863">
        <ele>2169.39990234375</ele>
        <time>2012-05-14T18:42:15Z</time>
      </trkpt>
      <trkpt lat="38.584805969148874" lon="-109.3617142830044">
        <ele>2168.60009765625</ele>
        <time>2012-05-14T18:42:18Z</time>
      </trkpt>
      <trkpt lat="38.584893140941858" lon="-109.36183012090623">
        <ele>2167.800048828125</ele>
        <time>2012-05-14T18:42:21Z</time>
      </trkpt>
      <trkpt lat="38.58500755392015" lon="-109.36196439899504">
        <ele>2167.39990234375</ele>
        <time>2012-05-14T18:42:24Z</time>
      </trkpt>
      <trkpt lat="38.585049547255039" lon="-109.36201670207083">
        <ele>2168</ele>
        <time>2012-05-14T18:42:25Z</time>
      </trkpt>
      <trkpt lat="38.585134372115135" lon="-109.36211074702442">
        <ele>2169.800048828125</ele>
        <time>2012-05-14T18:42:28Z</time>
      </trkpt>
      <trkpt lat="38.585200421512127" lon="-109.36213153414428">
        <ele>2169.800048828125</ele>
        <time>2012-05-14T18:42:30Z</time>
      </trkpt>
      <trkpt lat="38.585268734022975" lon="-109.36219238676131">
        <ele>2170</ele>
        <time>2012-05-14T18:42:33Z</time>
      </trkpt>
      <trkpt lat="38.585333190858364" lon="-109.362254999578">
        <ele>2171</ele>
        <time>2012-05-14T18:42:36Z</time>
      </trkpt>
      <trkpt lat="38.585356744006276" lon="-109.36226271092892">
        <ele>2171.199951171875</ele>
        <time>2012-05-14T18:42:37Z</time>
      </trkpt>
      <trkpt lat="38.585472078993917" lon="-109.36228651553392">
        <ele>2170.60009765625</ele>
        <time>2012-05-14T18:42:41Z</time>
      </trkpt>
      <trkpt lat="38.58558657579124" lon="-109.36234870925546">
        <ele>2170.199951171875</ele>
        <time>2012-05-14T18:42:46Z</time>
      </trkpt>
      <trkpt lat="38.585661510005593" lon="-109.36245633289218">
        <ele>2170.60009765625</ele>
        <time>2012-05-14T18:42:51Z</time>
      </trkpt>
      <trkpt lat="38.585657570511103" lon="-109.36248717829585">
        <ele>2171</ele>
        <time>2012-05-14T18:42:52Z</time>
      </trkpt>
      <trkpt lat="38.585680034011602" lon="-109.36255314387381">
        <ele>2172</ele>
        <time>2012-05-14T18:42:54Z</time>
      </trkpt>
      <trkpt lat="38.585740886628628" lon="-109.36264391988516">
        <ele>2170.39990234375</ele>
        <time>2012-05-14T18:42:57Z</time>
      </trkpt>
      <trkpt lat="38.585777012631297" lon="-109.36266797594726">
        <ele>2168.39990234375</ele>
        <time>2012-05-14T18:42:58Z</time>
      </trkpt>
      <trkpt lat="38.585880612954497" lon="-109.36281398870051">
        <ele>2168.199951171875</ele>
        <time>2012-05-14T18:43:02Z</time>
      </trkpt>
      <trkpt lat="38.585916068404913" lon="-109.3629096262157">
        <ele>2172.199951171875</ele>
        <time>2012-05-14T18:43:05Z</time>
      </trkpt>
      <trkpt lat="38.585949428379536" lon="-109.36293242499232">
        <ele>2172.60009765625</ele>
        <time>2012-05-14T18:43:06Z</time>
      </trkpt>
      <trkpt lat="38.586016902700067" lon="-109.36297005973756">
        <ele>2167.60009765625</ele>
        <time>2012-05-14T18:43:09Z</time>
      </trkpt>
      <trkpt lat="38.58600776642561" lon="-109.36294818297029">
        <ele>2168.39990234375</ele>
        <time>2012-05-14T18:43:14Z</time>
      </trkpt>
      <trkpt lat="38.585996869951487" lon="-109.36293250881135">
        <ele>2169.60009765625</ele>
        <time>2012-05-14T18:43:16Z</time>
      </trkpt>
      <trkpt lat="38.585994355380535" lon="-109.36292546801269">
        <ele>2170</ele>
        <time>2012-05-14T18:43:20Z</time>
      </trkpt>
      <trkpt lat="38.58597164042294" lon="-109.36292781494558">
        <ele>2172.800048828125</ele>
        <time>2012-05-14T18:45:24Z</time>
      </trkpt>
      <trkpt lat="38.585966108366847" lon="-109.3629164993763">
        <ele>2172.800048828125</ele>
        <time>2012-05-14T18:45:30Z</time>
      </trkpt>
      <trkpt lat="38.585959486663342" lon="-109.3629162479192">
        <ele>2172.800048828125</ele>
        <time>2012-05-14T18:45:36Z</time>
      </trkpt>
      <trkpt lat="38.585920594632626" lon="-109.36287534423172">
        <ele>2170.39990234375</ele>
        <time>2012-05-14T18:46:31Z</time>
      </trkpt>
      <trkpt lat="38.585890671238303" lon="-109.36290551908314">
        <ele>2172</ele>
        <time>2012-05-14T18:47:19Z</time>
      </trkpt>
      <trkpt lat="38.58594330959022" lon="-109.36291012912989">
        <ele>2172.39990234375</ele>
        <time>2012-05-14T18:48:47Z</time>
      </trkpt>
      <trkpt lat="38.585962504148483" lon="-109.3629405554384">
        <ele>2172.800048828125</ele>
        <time>2012-05-14T18:49:14Z</time>
      </trkpt>
      <trkpt lat="38.585982033982873" lon="-109.36290736310184">
        <ele>2171</ele>
        <time>2012-05-14T18:50:02Z</time>
      </trkpt>
      <trkpt lat="38.58598337508738" lon="-109.3629217799753">
        <ele>2171.39990234375</ele>
        <time>2012-05-14T18:50:21Z</time>
      </trkpt>
      <trkpt lat="38.585991337895393" lon="-109.36292664147913">
        <ele>2170.39990234375</ele>
        <time>2012-05-14T18:50:45Z</time>
      </trkpt>
      <trkpt lat="38.586024194955826" lon="-109.36296704225242">
        <ele>2166.800048828125</ele>
        <time>2012-05-14T18:51:05Z</time>
      </trkpt>
      <trkpt lat="38.586070463061333" lon="-109.36300543136895">
        <ele>2163</ele>
        <time>2012-05-14T18:51:13Z</time>
      </trkpt>
      <trkpt lat="38.586112791672349" lon="-109.36305890791118">
        <ele>2162</ele>
        <time>2012-05-14T18:51:20Z</time>
      </trkpt>
      <trkpt lat="38.586136931553483" lon="-109.36309210024774">
        <ele>2162.39990234375</ele>
        <time>2012-05-14T18:51:27Z</time>
      </trkpt>
      <trkpt lat="38.586144978180528" lon="-109.36315571889281">
        <ele>2166.39990234375</ele>
        <time>2012-05-14T18:51:29Z</time>
      </trkpt>
      <trkpt lat="38.586166854947805" lon="-109.36318170279264">
        <ele>2167.800048828125</ele>
        <time>2012-05-14T18:51:30Z</time>
      </trkpt>
      <trkpt lat="38.586274059489369" lon="-109.36327650211751">
        <ele>2164.39990234375</ele>
        <time>2012-05-14T18:51:34Z</time>
      </trkpt>
      <trkpt lat="38.586354861035943" lon="-109.36344615183771">
        <ele>2165</ele>
        <time>2012-05-14T18:51:39Z</time>
      </trkpt>
      <trkpt lat="38.586408086121082" lon="-109.36353600583971">
        <ele>2166.199951171875</ele>
        <time>2012-05-14T18:51:43Z</time>
      </trkpt>
      <trkpt lat="38.586459131911397" lon="-109.36372510157526">
        <ele>2170.199951171875</ele>
        <time>2012-05-14T18:51:47Z</time>
      </trkpt>
      <trkpt lat="38.586547896265984" lon="-109.36378846876323">
        <ele>2165.39990234375</ele>
        <time>2012-05-14T18:51:50Z</time>
      </trkpt>
      <trkpt lat="38.58659852296114" lon="-109.3638938292861">
        <ele>2158</ele>
        <time>2012-05-14T18:51:54Z</time>
      </trkpt>
      <trkpt lat="38.586607659235597" lon="-109.36396817676723">
        <ele>2162</ele>
        <time>2012-05-14T18:51:57Z</time>
      </trkpt>
      <trkpt lat="38.586594918742776" lon="-109.36398871243">
        <ele>2165.199951171875</ele>
        <time>2012-05-14T18:51:58Z</time>
      </trkpt>
      <trkpt lat="38.586604138836265" lon="-109.36408979818225">
        <ele>2168.39990234375</ele>
        <time>2012-05-14T18:52:02Z</time>
      </trkpt>
      <trkpt lat="38.58669139444828" lon="-109.36410387977958">
        <ele>2163</ele>
        <time>2012-05-14T18:52:06Z</time>
      </trkpt>
      <trkpt lat="38.586739087477326" lon="-109.36419683508575">
        <ele>2165</ele>
        <time>2012-05-14T18:52:10Z</time>
      </trkpt>
      <trkpt lat="38.586741434410214" lon="-109.36422843486071">
        <ele>2166.60009765625</ele>
        <time>2012-05-14T18:52:11Z</time>
      </trkpt>
      <trkpt lat="38.586758617311716" lon="-109.3643357232213">
        <ele>2172</ele>
        <time>2012-05-14T18:52:14Z</time>
      </trkpt>
      <trkpt lat="38.586681839078665" lon="-109.36441862024367">
        <ele>2175.39990234375</ele>
        <time>2012-05-14T18:52:17Z</time>
      </trkpt>
      <trkpt lat="38.586557283997536" lon="-109.36458516865969">
        <ele>2176.39990234375</ele>
        <time>2012-05-14T18:52:21Z</time>
      </trkpt>
      <trkpt lat="38.586500287055969" lon="-109.36472414061427">
        <ele>2174.199951171875</ele>
        <time>2012-05-14T18:52:24Z</time>
      </trkpt>
      <trkpt lat="38.586496934294701" lon="-109.36475574038923">
        <ele>2174</ele>
        <time>2012-05-14T18:52:25Z</time>
      </trkpt>
      <trkpt lat="38.586502047255635" lon="-109.36478482559323">
        <ele>2174.199951171875</ele>
        <time>2012-05-14T18:52:26Z</time>
      </trkpt>
      <trkpt lat="38.586525348946452" lon="-109.36486579477787">
        <ele>2174.800048828125</ele>
        <time>2012-05-14T18:52:29Z</time>
      </trkpt>
      <trkpt lat="38.586570359766483" lon="-109.3650989793241">
        <ele>2174</ele>
        <time>2012-05-14T18:52:35Z</time>
      </trkpt>
      <trkpt lat="38.586574885994196" lon="-109.36522755771875">
        <ele>2172.39990234375</ele>
        <time>2012-05-14T18:52:38Z</time>
      </trkpt>
      <trkpt lat="38.586575053632259" lon="-109.36522613279521">
        <ele>2172.39990234375</ele>
        <time>2012-05-14T18:52:39Z</time>
      </trkpt>
      <trkpt lat="38.586575053632259" lon="-109.36522202566266">
        <ele>2172.39990234375</ele>
        <time>2012-05-14T18:52:42Z</time>
      </trkpt>
      <trkpt lat="38.586605731397867" lon="-109.36533593572676">
        <ele>2171.39990234375</ele>
        <time>2012-05-14T18:53:10Z</time>
      </trkpt>
      <trkpt lat="38.58669139444828" lon="-109.36547306366265">
        <ele>2171</ele>
        <time>2012-05-14T18:53:13Z</time>
      </trkpt>
      <trkpt lat="38.586837826296687" lon="-109.36564179137349">
        <ele>2170.60009765625</ele>
        <time>2012-05-14T18:53:17Z</time>
      </trkpt>
      <trkpt lat="38.586976043879986" lon="-109.36573759652674">
        <ele>2170</ele>
        <time>2012-05-14T18:53:20Z</time>
      </trkpt>
      <trkpt lat="38.587009571492672" lon="-109.36576257459819">
        <ele>2169.800048828125</ele>
        <time>2012-05-14T18:53:21Z</time>
      </trkpt>
      <trkpt lat="38.587220795452595" lon="-109.36580833978951">
        <ele>2163</ele>
        <time>2012-05-14T18:53:25Z</time>
      </trkpt>
      <trkpt lat="38.587262202054262" lon="-109.36582208611071">
        <ele>2161.199951171875</ele>
        <time>2012-05-14T18:53:26Z</time>
      </trkpt>
      <trkpt lat="38.587336968630552" lon="-109.36589919961989">
        <ele>2161.199951171875</ele>
        <time>2012-05-14T18:53:28Z</time>
      </trkpt>
      <trkpt lat="38.587462864816189" lon="-109.36604982241988">
        <ele>2152</ele>
        <time>2012-05-14T18:53:31Z</time>
      </trkpt>
      <trkpt lat="38.587494548410177" lon="-109.3661127705127">
        <ele>2150.800048828125</ele>
        <time>2012-05-14T18:53:32Z</time>
      </trkpt>
      <trkpt lat="38.587528662756085" lon="-109.36624478548765">
        <ele>2154.39990234375</ele>
        <time>2012-05-14T18:53:34Z</time>
      </trkpt>
      <trkpt lat="38.587525142356753" lon="-109.3663025368005">
        <ele>2155.800048828125</ele>
        <time>2012-05-14T18:53:35Z</time>
      </trkpt>
      <trkpt lat="38.587451130151749" lon="-109.36631008051336">
        <ele>2160.39990234375</ele>
        <time>2012-05-14T18:53:37Z</time>
      </trkpt>
      <trkpt lat="38.58745951205492" lon="-109.3664497230202">
        <ele>2161</ele>
        <time>2012-05-14T18:53:40Z</time>
      </trkpt>
      <trkpt lat="38.58759337104857" lon="-109.36659154482186">
        <ele>2158.39990234375</ele>
        <time>2012-05-14T18:53:43Z</time>
      </trkpt>
      <trkpt lat="38.587625306099653" lon="-109.366639489308">
        <ele>2158.39990234375</ele>
        <time>2012-05-14T18:53:44Z</time>
      </trkpt>
      <trkpt lat="38.587651373818517" lon="-109.36667234636843">
        <ele>2156.60009765625</ele>
        <time>2012-05-14T18:53:45Z</time>
      </trkpt>
      <trkpt lat="38.587660929188132" lon="-109.36677183955908">
        <ele>2158</ele>
        <time>2012-05-14T18:53:47Z</time>
      </trkpt>
      <trkpt lat="38.587722033262253" lon="-109.36692103743553">
        <ele>2155</ele>
        <time>2012-05-14T18:53:50Z</time>
      </trkpt>
      <trkpt lat="38.587721697986126" lon="-109.36696009710431">
        <ele>2155.199951171875</ele>
        <time>2012-05-14T18:53:51Z</time>
      </trkpt>
      <trkpt lat="38.587742568925023" lon="-109.367062356323">
        <ele>2155.199951171875</ele>
        <time>2012-05-14T18:53:53Z</time>
      </trkpt>
      <trkpt lat="38.587811132892966" lon="-109.36712337657809">
        <ele>2153.199951171875</ele>
        <time>2012-05-14T18:53:56Z</time>
      </trkpt>
      <trkpt lat="38.587922696024179" lon="-109.36726276762784">
        <ele>2150.39990234375</ele>
        <time>2012-05-14T18:54:00Z</time>
      </trkpt>
      <trkpt lat="38.587968293577433" lon="-109.3673940282315">
        <ele>2149.199951171875</ele>
        <time>2012-05-14T18:54:02Z</time>
      </trkpt>
      <trkpt lat="38.587985979393125" lon="-109.36749905347824">
        <ele>2149.199951171875</ele>
        <time>2012-05-14T18:54:04Z</time>
      </trkpt>
      <trkpt lat="38.588045155629516" lon="-109.36756066046655">
        <ele>2148.60009765625</ele>
        <time>2012-05-14T18:54:06Z</time>
      </trkpt>
      <trkpt lat="38.588084215298295" lon="-109.36756853945553">
        <ele>2148</ele>
        <time>2012-05-14T18:54:07Z</time>
      </trkpt>
      <trkpt lat="38.588244058191776" lon="-109.36758580617607">
        <ele>2141.800048828125</ele>
        <time>2012-05-14T18:54:11Z</time>
      </trkpt>
      <trkpt lat="38.588271550834179" lon="-109.36768932268023">
        <ele>2143.800048828125</ele>
        <time>2012-05-14T18:54:14Z</time>
      </trkpt>
      <trkpt lat="38.588319411501288" lon="-109.36780876480043">
        <ele>2142.199951171875</ele>
        <time>2012-05-14T18:54:17Z</time>
      </trkpt>
      <trkpt lat="38.588414629921317" lon="-109.36789752915502">
        <ele>2139.60009765625</ele>
        <time>2012-05-14T18:54:20Z</time>
      </trkpt>
      <trkpt lat="38.588380683213472" lon="-109.36811394989491">
        <ele>2140</ele>
        <time>2012-05-14T18:54:23Z</time>
      </trkpt>
      <trkpt lat="38.588375486433506" lon="-109.3681712821126">
        <ele>2139.60009765625</ele>
        <time>2012-05-14T18:54:24Z</time>
      </trkpt>
      <trkpt lat="38.588384790346026" lon="-109.36822224408388">
        <ele>2139.39990234375</ele>
        <time>2012-05-14T18:54:25Z</time>
      </trkpt>
      <trkpt lat="38.588363667950034" lon="-109.36833028681576">
        <ele>2140.199951171875</ele>
        <time>2012-05-14T18:54:27Z</time>
      </trkpt>
      <trkpt lat="38.588410522788763" lon="-109.36843698844314">
        <ele>2139.60009765625</ele>
        <time>2012-05-14T18:54:30Z</time>
      </trkpt>
      <trkpt lat="38.588416473940015" lon="-109.36857705004513">
        <ele>2139.800048828125</ele>
        <time>2012-05-14T18:54:33Z</time>
      </trkpt>
      <trkpt lat="38.588491324335337" lon="-109.36867905780673">
        <ele>2137.60009765625</ele>
        <time>2012-05-14T18:54:36Z</time>
      </trkpt>
      <trkpt lat="38.588553098961711" lon="-109.36882657930255">
        <ele>2135</ele>
        <time>2012-05-14T18:54:39Z</time>
      </trkpt>
      <trkpt lat="38.58857799321413" lon="-109.36885775998235">
        <ele>2134.39990234375</ele>
        <time>2012-05-14T18:54:40Z</time>
      </trkpt>
      <trkpt lat="38.588690226897597" lon="-109.36898902058601">
        <ele>2134.800048828125</ele>
        <time>2012-05-14T18:54:44Z</time>
      </trkpt>
      <trkpt lat="38.58879592269659" lon="-109.3690931238234">
        <ele>2132.199951171875</ele>
        <time>2012-05-14T18:54:47Z</time>
      </trkpt>
      <trkpt lat="38.588886698707938" lon="-109.36913603916764">
        <ele>2127</ele>
        <time>2012-05-14T18:54:49Z</time>
      </trkpt>
      <trkpt lat="38.588950233533978" lon="-109.36918155290186">
        <ele>2124.39990234375</ele>
        <time>2012-05-14T18:54:51Z</time>
      </trkpt>
      <trkpt lat="38.589028352871537" lon="-109.36934852041304">
        <ele>2125.60009765625</ele>
        <time>2012-05-14T18:54:54Z</time>
      </trkpt>
      <trkpt lat="38.589094653725624" lon="-109.36944591812789">
        <ele>2118</ele>
        <time>2012-05-14T18:54:56Z</time>
      </trkpt>
      <trkpt lat="38.589202109724283" lon="-109.36958187259734">
        <ele>2118.800048828125</ele>
        <time>2012-05-14T18:54:59Z</time>
      </trkpt>
      <trkpt lat="38.589209988713264" lon="-109.36971925199032">
        <ele>2122.199951171875</ele>
        <time>2012-05-14T18:55:02Z</time>
      </trkpt>
      <trkpt lat="38.589219292625785" lon="-109.36977759003639">
        <ele>2123.60009765625</ele>
        <time>2012-05-14T18:55:03Z</time>
      </trkpt>
      <trkpt lat="38.589207222685218" lon="-109.36982109211385">
        <ele>2125</ele>
        <time>2012-05-14T18:55:04Z</time>
      </trkpt>
      <trkpt lat="38.589223986491561" lon="-109.36990533024073">
        <ele>2125.800048828125</ele>
        <time>2012-05-14T18:55:06Z</time>
      </trkpt>
      <trkpt lat="38.589330520480871" lon="-109.36994514428079">
        <ele>2122.60009765625</ele>
        <time>2012-05-14T18:55:09Z</time>
      </trkpt>
      <trkpt lat="38.589414339512587" lon="-109.37004606239498">
        <ele>2118.60009765625</ele>
        <time>2012-05-14T18:55:12Z</time>
      </trkpt>
      <trkpt lat="38.589452728629112" lon="-109.37011940404773">
        <ele>2120.800048828125</ele>
        <time>2012-05-14T18:55:16Z</time>
      </trkpt>
      <trkpt lat="38.589453566819429" lon="-109.37014027498662">
        <ele>2122</ele>
        <time>2012-05-14T18:55:17Z</time>
      </trkpt>
      <trkpt lat="38.589482400566339" lon="-109.37024102546275">
        <ele>2122.800048828125</ele>
        <time>2012-05-14T18:55:20Z</time>
      </trkpt>
      <trkpt lat="38.589572757482529" lon="-109.37039667740464">
        <ele>2124.800048828125</ele>
        <time>2012-05-14T18:55:24Z</time>
      </trkpt>
      <trkpt lat="38.589677782729268" lon="-109.37055191025138">
        <ele>2113.800048828125</ele>
        <time>2012-05-14T18:55:28Z</time>
      </trkpt>
      <trkpt lat="38.589763948693871" lon="-109.37069842591882">
        <ele>2113.60009765625</ele>
        <time>2012-05-14T18:55:31Z</time>
      </trkpt>
      <trkpt lat="38.589755231514573" lon="-109.37074083834887">
        <ele>2114.60009765625</ele>
        <time>2012-05-14T18:55:32Z</time>
      </trkpt>
      <trkpt lat="38.589703347533941" lon="-109.37090017832816">
        <ele>2118.60009765625</ele>
        <time>2012-05-14T18:55:35Z</time>
      </trkpt>
      <trkpt lat="38.589764619246125" lon="-109.37099615111947">
        <ele>2117.199951171875</ele>
        <time>2012-05-14T18:55:37Z</time>
      </trkpt>
      <trkpt lat="38.589809881523252" lon="-109.37103806063533">
        <ele>2116.199951171875</ele>
        <time>2012-05-14T18:55:38Z</time>
      </trkpt>
      <trkpt lat="38.589828824624419" lon="-109.37120159156621">
        <ele>2116.60009765625</ele>
        <time>2012-05-14T18:55:41Z</time>
      </trkpt>
      <trkpt lat="38.5898850671947" lon="-109.37130787409842">
        <ele>2114.800048828125</ele>
        <time>2012-05-14T18:55:44Z</time>
      </trkpt>
      <trkpt lat="38.589898897334933" lon="-109.37149445526302">
        <ele>2116.199951171875</ele>
        <time>2012-05-14T18:55:47Z</time>
      </trkpt>
      <trkpt lat="38.589889425784349" lon="-109.37161322683096">
        <ele>2116.800048828125</ele>
        <time>2012-05-14T18:55:50Z</time>
      </trkpt>
      <trkpt lat="38.589914822950959" lon="-109.37175806611776">
        <ele>2116.39990234375</ele>
        <time>2012-05-14T18:55:54Z</time>
      </trkpt>
      <trkpt lat="38.589934185147285" lon="-109.37175739556551">
        <ele>2116.199951171875</ele>
        <time>2012-05-14T18:55:56Z</time>
      </trkpt>
      <trkpt lat="38.589939381927252" lon="-109.37176125124097">
        <ele>2116.199951171875</ele>
        <time>2012-05-14T18:55:57Z</time>
      </trkpt>
      <trkpt lat="38.590060081332922" lon="-109.37176016159356">
        <ele>2115.800048828125</ele>
        <time>2012-05-14T18:56:01Z</time>
      </trkpt>
      <trkpt lat="38.590082712471485" lon="-109.37178555876017">
        <ele>2116.39990234375</ele>
        <time>2012-05-14T18:56:02Z</time>
      </trkpt>
      <trkpt lat="38.590130405500531" lon="-109.37185009941459">
        <ele>2116.39990234375</ele>
        <time>2012-05-14T18:56:04Z</time>
      </trkpt>
      <trkpt lat="38.590244986116886" lon="-109.37194162979722">
        <ele>2109.60009765625</ele>
        <time>2012-05-14T18:56:07Z</time>
      </trkpt>
      <trkpt lat="38.590426370501518" lon="-109.37204036861658">
        <ele>2105.199951171875</ele>
        <time>2012-05-14T18:56:11Z</time>
      </trkpt>
      <trkpt lat="38.590532569214702" lon="-109.37217447906733">
        <ele>2102</ele>
        <time>2012-05-14T18:56:14Z</time>
      </trkpt>
      <trkpt lat="38.590685119852424" lon="-109.37242476269603">
        <ele>2104.199951171875</ele>
        <time>2012-05-14T18:56:18Z</time>
      </trkpt>
      <trkpt lat="38.590772710740566" lon="-109.3724915664643">
        <ele>2103</ele>
        <time>2012-05-14T18:56:20Z</time>
      </trkpt>
      <trkpt lat="38.590810764580965" lon="-109.37251864001155">
        <ele>2102.800048828125</ele>
        <time>2012-05-14T18:56:21Z</time>
      </trkpt>
      <trkpt lat="38.59085300937295" lon="-109.3725576158613">
        <ele>2103</ele>
        <time>2012-05-14T18:56:22Z</time>
      </trkpt>
      <trkpt lat="38.590959124267101" lon="-109.37259902246296">
        <ele>2103.39990234375</ele>
        <time>2012-05-14T18:56:24Z</time>
      </trkpt>
      <trkpt lat="38.590998016297817" lon="-109.37264428474009">
        <ele>2103.800048828125</ele>
        <time>2012-05-14T18:56:25Z</time>
      </trkpt>
      <trkpt lat="38.591065490618348" lon="-109.37272215262055">
        <ele>2101.800048828125</ele>
        <time>2012-05-14T18:56:27Z</time>
      </trkpt>
      <trkpt lat="38.591150147840381" lon="-109.37281862832606">
        <ele>2101.199951171875</ele>
        <time>2012-05-14T18:56:30Z</time>
      </trkpt>
      <trkpt lat="38.591172276064754" lon="-109.3728390801698">
        <ele>2101.39990234375</ele>
        <time>2012-05-14T18:56:31Z</time>
      </trkpt>
      <trkpt lat="38.59128350391984" lon="-109.37298542819917">
        <ele>2099.800048828125</ele>
        <time>2012-05-14T18:56:35Z</time>
      </trkpt>
      <trkpt lat="38.591412249952555" lon="-109.3731340393424">
        <ele>2096.39990234375</ele>
        <time>2012-05-14T18:56:39Z</time>
      </trkpt>
      <trkpt lat="38.591443179175258" lon="-109.37319698743522">
        <ele>2099</ele>
        <time>2012-05-14T18:56:41Z</time>
      </trkpt>
      <trkpt lat="38.591451561078429" lon="-109.37324945814908">
        <ele>2098.800048828125</ele>
        <time>2012-05-14T18:56:43Z</time>
      </trkpt>
      <trkpt lat="38.591493722051382" lon="-109.37335783615708">
        <ele>2098</ele>
        <time>2012-05-14T18:56:46Z</time>
      </trkpt>
      <trkpt lat="38.591572260484099" lon="-109.37344039790332">
        <ele>2096.39990234375</ele>
        <time>2012-05-14T18:56:49Z</time>
      </trkpt>
      <trkpt lat="38.591650212183595" lon="-109.37356729991734">
        <ele>2097.60009765625</ele>
        <time>2012-05-14T18:56:53Z</time>
      </trkpt>
      <trkpt lat="38.591726068407297" lon="-109.37379168346524">
        <ele>2098</ele>
        <time>2012-05-14T18:56:57Z</time>
      </trkpt>
      <trkpt lat="38.591792453080416" lon="-109.37385203316808">
        <ele>2097.800048828125</ele>
        <time>2012-05-14T18:57:00Z</time>
      </trkpt>
      <trkpt lat="38.591891024261713" lon="-109.37393836677074">
        <ele>2096.199951171875</ele>
        <time>2012-05-14T18:57:04Z</time>
      </trkpt>
      <trkpt lat="38.591961180791259" lon="-109.3739821203053">
        <ele>2096.39990234375</ele>
        <time>2012-05-14T18:57:07Z</time>
      </trkpt>
      <trkpt lat="38.592029828578234" lon="-109.37405009754002">
        <ele>2097.199951171875</ele>
        <time>2012-05-14T18:57:10Z</time>
      </trkpt>
      <trkpt lat="38.592081125825644" lon="-109.37413659878075">
        <ele>2097.199951171875</ele>
        <time>2012-05-14T18:57:15Z</time>
      </trkpt>
      <trkpt lat="38.592085735872388" lon="-109.37413852661848">
        <ele>2097.199951171875</ele>
        <time>2012-05-14T18:57:16Z</time>
      </trkpt>
      <trkpt lat="38.592150863260031" lon="-109.3741340842098">
        <ele>2097.199951171875</ele>
        <time>2012-05-14T18:57:20Z</time>
      </trkpt>
      <trkpt lat="38.592286063358188" lon="-109.37412771396339">
        <ele>2097.39990234375</ele>
        <time>2012-05-14T18:57:26Z</time>
      </trkpt>
      <trkpt lat="38.592313891276717" lon="-109.37414514832199">
        <ele>2097.39990234375</ele>
        <time>2012-05-14T18:57:28Z</time>
      </trkpt>
      <trkpt lat="38.592329565435648" lon="-109.37419510446489">
        <ele>2097.39990234375</ele>
        <time>2012-05-14T18:57:30Z</time>
      </trkpt>
      <trkpt lat="38.592356890439987" lon="-109.37423617579043">
        <ele>2097.60009765625</ele>
        <time>2012-05-14T18:57:32Z</time>
      </trkpt>
      <trkpt lat="38.59240785241127" lon="-109.37427967786789">
        <ele>2090.800048828125</ele>
        <time>2012-05-14T18:57:35Z</time>
      </trkpt>
      <trkpt lat="38.592457724735141" lon="-109.37439342029393">
        <ele>2087.60009765625</ele>
        <time>2012-05-14T18:57:39Z</time>
      </trkpt>
      <trkpt lat="38.592521259561181" lon="-109.37457011081278">
        <ele>2090.39990234375</ele>
        <time>2012-05-14T18:57:43Z</time>
      </trkpt>
      <trkpt lat="38.592619244009256" lon="-109.37461964786053">
        <ele>2088.39990234375</ele>
        <time>2012-05-14T18:57:46Z</time>
      </trkpt>
      <trkpt lat="38.592650424689054" lon="-109.37475459650159">
        <ele>2086.39990234375</ele>
        <time>2012-05-14T18:57:49Z</time>
      </trkpt>
      <trkpt lat="38.592694262042642" lon="-109.37484662979841">
        <ele>2083.60009765625</ele>
        <time>2012-05-14T18:57:51Z</time>
      </trkpt>
      <trkpt lat="38.592774728313088" lon="-109.37494528479874">
        <ele>2078.800048828125</ele>
        <time>2012-05-14T18:57:54Z</time>
      </trkpt>
      <trkpt lat="38.592896014451981" lon="-109.37510864809155">
        <ele>2085.60009765625</ele>
        <time>2012-05-14T18:57:58Z</time>
      </trkpt>
      <trkpt lat="38.59292870387435" lon="-109.37515114434063">
        <ele>2084.39990234375</ele>
        <time>2012-05-14T18:57:59Z</time>
      </trkpt>
      <trkpt lat="38.59299223870039" lon="-109.37525901943445">
        <ele>2081.60009765625</ele>
        <time>2012-05-14T18:58:02Z</time>
      </trkpt>
      <trkpt lat="38.593000788241625" lon="-109.37527083791792">
        <ele>2081.39990234375</ele>
        <time>2012-05-14T18:58:03Z</time>
      </trkpt>
      <trkpt lat="38.593003554269671" lon="-109.37528324313462">
        <ele>2081.39990234375</ele>
        <time>2012-05-14T18:58:05Z</time>
      </trkpt>
      <trkpt lat="38.593017384409904" lon="-109.37531224451959">
        <ele>2081.39990234375</ele>
        <time>2012-05-14T18:58:08Z</time>
      </trkpt>
      <trkpt lat="38.593072118237615" lon="-109.37533739022911">
        <ele>2079.800048828125</ele>
        <time>2012-05-14T18:58:13Z</time>
      </trkpt>
      <trkpt lat="38.593173706904054" lon="-109.37540804967284">
        <ele>2079.39990234375</ele>
        <time>2012-05-14T18:58:17Z</time>
      </trkpt>
      <trkpt lat="38.59324143268168" lon="-109.37548943795264">
        <ele>2074.199951171875</ele>
        <time>2012-05-14T18:58:20Z</time>
      </trkpt>
      <trkpt lat="38.593249563127756" lon="-109.37553788535297">
        <ele>2075.39990234375</ele>
        <time>2012-05-14T18:58:21Z</time>
      </trkpt>
      <trkpt lat="38.593326341360807" lon="-109.37572656199336">
        <ele>2076.199951171875</ele>
        <time>2012-05-14T18:58:25Z</time>
      </trkpt>
      <trkpt lat="38.593325335532427" lon="-109.37578146345913">
        <ele>2078.199951171875</ele>
        <time>2012-05-14T18:58:26Z</time>
      </trkpt>
      <trkpt lat="38.593338076025248" lon="-109.37585304491222">
        <ele>2080.199951171875</ele>
        <time>2012-05-14T18:58:28Z</time>
      </trkpt>
      <trkpt lat="38.593422146514058" lon="-109.37591339461505">
        <ele>2079.800048828125</ele>
        <time>2012-05-14T18:58:32Z</time>
      </trkpt>
      <trkpt lat="38.593528931960464" lon="-109.37603141181171">
        <ele>2072.60009765625</ele>
        <time>2012-05-14T18:58:37Z</time>
      </trkpt>
      <trkpt lat="38.593600681051612" lon="-109.37614842317998">
        <ele>2068.60009765625</ele>
        <time>2012-05-14T18:58:41Z</time>
      </trkpt>
      <trkpt lat="38.593633621931076" lon="-109.3762597348541">
        <ele>2075.199951171875</ele>
        <time>2012-05-14T18:58:45Z</time>
      </trkpt>
      <trkpt lat="38.593643261119723" lon="-109.37628194689751">
        <ele>2075.199951171875</ele>
        <time>2012-05-14T18:58:46Z</time>
      </trkpt>
      <trkpt lat="38.593711825087667" lon="-109.37640373595059">
        <ele>2075</ele>
        <time>2012-05-14T18:58:51Z</time>
      </trkpt>
      <trkpt lat="38.593776365742087" lon="-109.37651420943439">
        <ele>2072</ele>
        <time>2012-05-14T18:58:55Z</time>
      </trkpt>
      <trkpt lat="38.593801259994507" lon="-109.37652435153723">
        <ele>2067.39990234375</ele>
        <time>2012-05-14T18:58:56Z</time>
      </trkpt>
      <trkpt lat="38.593881223350763" lon="-109.37655092217028">
        <ele>2053.800048828125</ele>
        <time>2012-05-14T18:58:59Z</time>
      </trkpt>
      <trkpt lat="38.593941992148757" lon="-109.37663557939231">
        <ele>2053.39990234375</ele>
        <time>2012-05-14T18:59:03Z</time>
      </trkpt>
      <trkpt lat="38.593950709328055" lon="-109.37666156329215">
        <ele>2055.800048828125</ele>
        <time>2012-05-14T18:59:04Z</time>
      </trkpt>
      <trkpt lat="38.593996558338404" lon="-109.37676616944373">
        <ele>2068.199951171875</ele>
        <time>2012-05-14T18:59:07Z</time>
      </trkpt>
      <trkpt lat="38.594023631885648" lon="-109.37679567374289">
        <ele>2072.800048828125</ele>
        <time>2012-05-14T18:59:08Z</time>
      </trkpt>
      <trkpt lat="38.594137541949749" lon="-109.37681838870049">
        <ele>2050.60009765625</ele>
        <time>2012-05-14T18:59:11Z</time>
      </trkpt>
      <trkpt lat="38.594187246635556" lon="-109.37693062238395">
        <ele>2053</ele>
        <time>2012-05-14T18:59:14Z</time>
      </trkpt>
      <trkpt lat="38.594300989061594" lon="-109.3771321233362">
        <ele>2070.60009765625</ele>
        <time>2012-05-14T18:59:18Z</time>
      </trkpt>
      <trkpt lat="38.594334432855248" lon="-109.37715718522668">
        <ele>2063.800048828125</ele>
        <time>2012-05-14T18:59:19Z</time>
      </trkpt>
      <trkpt lat="38.594416659325361" lon="-109.37723631039262">
        <ele>2048.199951171875</ele>
        <time>2012-05-14T18:59:22Z</time>
      </trkpt>
      <trkpt lat="38.594395536929369" lon="-109.37729406170547">
        <ele>2055.199951171875</ele>
        <time>2012-05-14T18:59:25Z</time>
      </trkpt>
      <trkpt lat="38.594382712617517" lon="-109.37730411998928">
        <ele>2058</ele>
        <time>2012-05-14T18:59:26Z</time>
      </trkpt>
      <trkpt lat="38.594309957697988" lon="-109.37739229761064">
        <ele>2072.199951171875</ele>
        <time>2012-05-14T18:59:30Z</time>
      </trkpt>
      <trkpt lat="38.594321524724364" lon="-109.37748349271715">
        <ele>2070.800048828125</ele>
        <time>2012-05-14T18:59:34Z</time>
      </trkpt>
      <trkpt lat="38.594319680705667" lon="-109.37752548605204">
        <ele>2071</ele>
        <time>2012-05-14T18:59:38Z</time>
      </trkpt>
      <trkpt lat="38.594324374571443" lon="-109.37747234478593">
        <ele>2070.39990234375</ele>
        <time>2012-05-14T19:01:37Z</time>
      </trkpt>
      <trkpt lat="38.594325045123696" lon="-109.37746874056756">
        <ele>2070.39990234375</ele>
        <time>2012-05-14T19:01:48Z</time>
      </trkpt>
      <trkpt lat="38.59428757801652" lon="-109.37749162316322">
        <ele>2072</ele>
        <time>2012-05-14T19:05:24Z</time>
      </trkpt>
      <trkpt lat="38.594254301860929" lon="-109.37752833589911">
        <ele>2071.39990234375</ele>
        <time>2012-05-14T19:05:30Z</time>
      </trkpt>
      <trkpt lat="38.594238460063934" lon="-109.37758214771748">
        <ele>2070.800048828125</ele>
        <time>2012-05-14T19:05:35Z</time>
      </trkpt>
      <trkpt lat="38.594242315739393" lon="-109.37760033644736">
        <ele>2070.60009765625</ele>
        <time>2012-05-14T19:05:37Z</time>
      </trkpt>
      <trkpt lat="38.594243070110679" lon="-109.37760042026639">
        <ele>2070.800048828125</ele>
        <time>2012-05-14T19:05:40Z</time>
      </trkpt>
      <trkpt lat="38.594265282154083" lon="-109.3776863347739">
        <ele>2070</ele>
        <time>2012-05-14T19:06:14Z</time>
      </trkpt>
      <trkpt lat="38.59437801875174" lon="-109.37782756984234">
        <ele>2069.199951171875</ele>
        <time>2012-05-14T19:06:18Z</time>
      </trkpt>
      <trkpt lat="38.594524534419179" lon="-109.37800970859826">
        <ele>2068.39990234375</ele>
        <time>2012-05-14T19:06:23Z</time>
      </trkpt>
      <trkpt lat="38.594675660133362" lon="-109.37811423093081">
        <ele>2068.199951171875</ele>
        <time>2012-05-14T19:06:28Z</time>
      </trkpt>
      <trkpt lat="38.594812452793121" lon="-109.37820903025568">
        <ele>2070.199951171875</ele>
        <time>2012-05-14T19:06:34Z</time>
      </trkpt>
      <trkpt lat="38.594908425584435" lon="-109.37833408825099">
        <ele>2067.199951171875</ele>
        <time>2012-05-14T19:06:39Z</time>
      </trkpt>
      <trkpt lat="38.594925608485937" lon="-109.37847381457686">
        <ele>2069.800048828125</ele>
        <time>2012-05-14T19:06:44Z</time>
      </trkpt>
      <trkpt lat="38.594919992610812" lon="-109.3787035625428">
        <ele>2068.39990234375</ele>
        <time>2012-05-14T19:06:48Z</time>
      </trkpt>
      <trkpt lat="38.594969697296619" lon="-109.37889383174479">
        <ele>2068.60009765625</ele>
        <time>2012-05-14T19:06:51Z</time>
      </trkpt>
      <trkpt lat="38.594999201595783" lon="-109.37905166298151">
        <ele>2068.39990234375</ele>
        <time>2012-05-14T19:06:54Z</time>
      </trkpt>
      <trkpt lat="38.595002386718988" lon="-109.37918317504227">
        <ele>2068</ele>
        <time>2012-05-14T19:06:56Z</time>
      </trkpt>
      <trkpt lat="38.595009595155716" lon="-109.3792384956032">
        <ele>2068</ele>
        <time>2012-05-14T19:06:57Z</time>
      </trkpt>
      <trkpt lat="38.595060808584094" lon="-109.37947260215878">
        <ele>2068.39990234375</ele>
        <time>2012-05-14T19:07:01Z</time>
      </trkpt>
      <trkpt lat="38.595118224620819" lon="-109.37965381890535">
        <ele>2068.800048828125</ele>
        <time>2012-05-14T19:07:04Z</time>
      </trkpt>
      <trkpt lat="38.595160972326994" lon="-109.37980460934341">
        <ele>2068.800048828125</ele>
        <time>2012-05-14T19:07:07Z</time>
      </trkpt>
      <trkpt lat="38.595185782760382" lon="-109.3798846565187">
        <ele>2068.800048828125</ele>
        <time>2012-05-14T19:07:09Z</time>
      </trkpt>
      <trkpt lat="38.595203887671232" lon="-109.37996529042721">
        <ele>2068.800048828125</ele>
        <time>2012-05-14T19:07:11Z</time>
      </trkpt>
      <trkpt lat="38.595217885449529" lon="-109.38000208698213">
        <ele>2069</ele>
        <time>2012-05-14T19:07:12Z</time>
      </trkpt>
      <trkpt lat="38.595289550721645" lon="-109.38009462319314">
        <ele>2069.800048828125</ele>
        <time>2012-05-14T19:07:16Z</time>
      </trkpt>
      <trkpt lat="38.595393905416131" lon="-109.3801087886095">
        <ele>2071.199951171875</ele>
        <time>2012-05-14T19:07:21Z</time>
      </trkpt>
      <trkpt lat="38.595493901520967" lon="-109.38020132482052">
        <ele>2072.39990234375</ele>
        <time>2012-05-14T19:07:28Z</time>
      </trkpt>
      <trkpt lat="38.595516197383404" lon="-109.38032202422619">
        <ele>2072.39990234375</ele>
        <time>2012-05-14T19:07:32Z</time>
      </trkpt>
      <trkpt lat="38.595535308122635" lon="-109.38032872974873">
        <ele>2072.800048828125</ele>
        <time>2012-05-14T19:07:33Z</time>
      </trkpt>
      <trkpt lat="38.5956010222435" lon="-109.38042880967259">
        <ele>2073.39990234375</ele>
        <time>2012-05-14T19:07:38Z</time>
      </trkpt>
      <trkpt lat="38.595726415514946" lon="-109.38055696897209">
        <ele>2074.39990234375</ele>
        <time>2012-05-14T19:07:45Z</time>
      </trkpt>
      <trkpt lat="38.595871841534972" lon="-109.38067322596908">
        <ele>2075.60009765625</ele>
        <time>2012-05-14T19:07:52Z</time>
      </trkpt>
      <trkpt lat="38.595907716080546" lon="-109.38079367391765">
        <ele>2075.800048828125</ele>
        <time>2012-05-14T19:07:57Z</time>
      </trkpt>
      <trkpt lat="38.595958342775702" lon="-109.38088268972933">
        <ele>2076.199951171875</ele>
        <time>2012-05-14T19:08:02Z</time>
      </trkpt>
      <trkpt lat="38.596025984734297" lon="-109.38105460256338">
        <ele>2077</ele>
        <time>2012-05-14T19:08:09Z</time>
      </trkpt>
      <trkpt lat="38.596050627529621" lon="-109.38124252483249">
        <ele>2077</ele>
        <time>2012-05-14T19:08:14Z</time>
      </trkpt>
      <trkpt lat="38.5960896871984" lon="-109.38143296167254">
        <ele>2076.800048828125</ele>
        <time>2012-05-14T19:08:19Z</time>
      </trkpt>
      <trkpt lat="38.596195550635457" lon="-109.38165449537337">
        <ele>2076.800048828125</ele>
        <time>2012-05-14T19:08:25Z</time>
      </trkpt>
      <trkpt lat="38.596245422959328" lon="-109.38183286227286">
        <ele>2076.199951171875</ele>
        <time>2012-05-14T19:08:29Z</time>
      </trkpt>
      <trkpt lat="38.596323542296886" lon="-109.38206437043846">
        <ele>2074.800048828125</ele>
        <time>2012-05-14T19:08:33Z</time>
      </trkpt>
      <trkpt lat="38.596321949735284" lon="-109.38212052918971">
        <ele>2074.199951171875</ele>
        <time>2012-05-14T19:08:34Z</time>
      </trkpt>
      <trkpt lat="38.596344413235784" lon="-109.382258746773">
        <ele>2073</ele>
        <time>2012-05-14T19:08:36Z</time>
      </trkpt>
      <trkpt lat="38.596424460411072" lon="-109.38253141008317">
        <ele>2071.199951171875</ele>
        <time>2012-05-14T19:08:40Z</time>
      </trkpt>
      <trkpt lat="38.596449857577682" lon="-109.38264490105212">
        <ele>2070.199951171875</ele>
        <time>2012-05-14T19:08:42Z</time>
      </trkpt>
      <trkpt lat="38.59649570658803" lon="-109.38273173756897">
        <ele>2070</ele>
        <time>2012-05-14T19:08:44Z</time>
      </trkpt>
      <trkpt lat="38.596577430143952" lon="-109.38280809670687">
        <ele>2070.199951171875</ele>
        <time>2012-05-14T19:08:46Z</time>
      </trkpt>
      <trkpt lat="38.596617663279176" lon="-109.38285319134593">
        <ele>2070.39990234375</ele>
        <time>2012-05-14T19:08:47Z</time>
      </trkpt>
      <trkpt lat="38.596652699634433" lon="-109.38289518468082">
        <ele>2070.39990234375</ele>
        <time>2012-05-14T19:08:48Z</time>
      </trkpt>
      <trkpt lat="38.596720844507217" lon="-109.38295410946012">
        <ele>2070.800048828125</ele>
        <time>2012-05-14T19:08:51Z</time>
      </trkpt>
      <trkpt lat="38.596753953024745" lon="-109.3830479029566">
        <ele>2070.60009765625</ele>
        <time>2012-05-14T19:08:55Z</time>
      </trkpt>
      <trkpt lat="38.596760742366314" lon="-109.38307581469417">
        <ele>2070.39990234375</ele>
        <time>2012-05-14T19:08:56Z</time>
      </trkpt>
      <trkpt lat="38.596843387931585" lon="-109.3832088354975">
        <ele>2070.800048828125</ele>
        <time>2012-05-14T19:09:01Z</time>
      </trkpt>
      <trkpt lat="38.596922094002366" lon="-109.38339667394757">
        <ele>2070.800048828125</ele>
        <time>2012-05-14T19:09:07Z</time>
      </trkpt>
      <trkpt lat="38.596905078738928" lon="-109.38357428647578">
        <ele>2069.800048828125</ele>
        <time>2012-05-14T19:09:10Z</time>
      </trkpt>
      <trkpt lat="38.596854200586677" lon="-109.38375491648912">
        <ele>2068.39990234375</ele>
        <time>2012-05-14T19:09:14Z</time>
      </trkpt>
      <trkpt lat="38.596914298832417" lon="-109.38392959535122">
        <ele>2068.39990234375</ele>
        <time>2012-05-14T19:09:18Z</time>
      </trkpt>
      <trkpt lat="38.597027286887169" lon="-109.38413470052183">
        <ele>2069.199951171875</ele>
        <time>2012-05-14T19:09:23Z</time>
      </trkpt>
      <trkpt lat="38.597060479223728" lon="-109.38432790338993">
        <ele>2069</ele>
        <time>2012-05-14T19:09:27Z</time>
      </trkpt>
      <trkpt lat="38.597115464508533" lon="-109.3846507743001">
        <ele>2068.800048828125</ele>
        <time>2012-05-14T19:09:34Z</time>
      </trkpt>
      <trkpt lat="38.59720473177731" lon="-109.38483224250376">
        <ele>2069.39990234375</ele>
        <time>2012-05-14T19:09:40Z</time>
      </trkpt>
      <trkpt lat="38.597339428961277" lon="-109.38490038737655">
        <ele>2070.800048828125</ele>
        <time>2012-05-14T19:09:47Z</time>
      </trkpt>
      <trkpt lat="38.597374716773629" lon="-109.38492528162897">
        <ele>2071</ele>
        <time>2012-05-14T19:09:49Z</time>
      </trkpt>
      <trkpt lat="38.597431294620037" lon="-109.38496995717287">
        <ele>2071.60009765625</ele>
        <time>2012-05-14T19:09:52Z</time>
      </trkpt>
      <trkpt lat="38.597526345402002" lon="-109.38503525219858">
        <ele>2072.39990234375</ele>
        <time>2012-05-14T19:09:57Z</time>
      </trkpt>
      <trkpt lat="38.597547048702836" lon="-109.38503726385534">
        <ele>2072.60009765625</ele>
        <time>2012-05-14T19:09:58Z</time>
      </trkpt>
      <trkpt lat="38.597670933231711" lon="-109.38509384170175">
        <ele>2073.60009765625</ele>
        <time>2012-05-14T19:10:04Z</time>
      </trkpt>
      <trkpt lat="38.597753830254078" lon="-109.38516148366034">
        <ele>2074</ele>
        <time>2012-05-14T19:10:09Z</time>
      </trkpt>
      <trkpt lat="38.597888359799981" lon="-109.38528017140925">
        <ele>2074.60009765625</ele>
        <time>2012-05-14T19:10:16Z</time>
      </trkpt>
      <trkpt lat="38.598094051703811" lon="-109.38542417250574">
        <ele>2074.199951171875</ele>
        <time>2012-05-14T19:10:24Z</time>
      </trkpt>
      <trkpt lat="38.598293205723166" lon="-109.3854967597872">
        <ele>2073.39990234375</ele>
        <time>2012-05-14T19:10:30Z</time>
      </trkpt>
      <trkpt lat="38.598468555137515" lon="-109.38560111448169">
        <ele>2071.800048828125</ele>
        <time>2012-05-14T19:10:35Z</time>
      </trkpt>
      <trkpt lat="38.598619597032666" lon="-109.38562558963895">
        <ele>2070.800048828125</ele>
        <time>2012-05-14T19:10:38Z</time>
      </trkpt>
      <trkpt lat="38.598679108545184" lon="-109.38562324270606">
        <ele>2070.60009765625</ele>
        <time>2012-05-14T19:10:39Z</time>
      </trkpt>
      <trkpt lat="38.598775416612625" lon="-109.38563514500856">
        <ele>2069.800048828125</ele>
        <time>2012-05-14T19:10:41Z</time>
      </trkpt>
      <trkpt lat="38.598821517080069" lon="-109.3856296967715">
        <ele>2069.199951171875</ele>
        <time>2012-05-14T19:10:42Z</time>
      </trkpt>
      <trkpt lat="38.598945066332817" lon="-109.38556716777384">
        <ele>2068.199951171875</ele>
        <time>2012-05-14T19:10:45Z</time>
      </trkpt>
      <trkpt lat="38.599086217582226" lon="-109.38559357076883">
        <ele>2065</ele>
        <time>2012-05-14T19:10:49Z</time>
      </trkpt>
      <trkpt lat="38.599136006087065" lon="-109.38572902232409">
        <ele>2065.800048828125</ele>
        <time>2012-05-14T19:10:52Z</time>
      </trkpt>
      <trkpt lat="38.599136173725128" lon="-109.38596790656447">
        <ele>2062</ele>
        <time>2012-05-14T19:10:55Z</time>
      </trkpt>
      <trkpt lat="38.599153943359852" lon="-109.38605323433876">
        <ele>2060.800048828125</ele>
        <time>2012-05-14T19:10:56Z</time>
      </trkpt>
      <trkpt lat="38.599206916987896" lon="-109.38620880246162">
        <ele>2058.39990234375</ele>
        <time>2012-05-14T19:10:58Z</time>
      </trkpt>
      <trkpt lat="38.599383356049657" lon="-109.38632807694376">
        <ele>2054.800048828125</ele>
        <time>2012-05-14T19:11:01Z</time>
      </trkpt>
      <trkpt lat="38.599613355472684" lon="-109.38640200532973">
        <ele>2051.39990234375</ele>
        <time>2012-05-14T19:11:05Z</time>
      </trkpt>
      <trkpt lat="38.59977344982326" lon="-109.38654290512204">
        <ele>2051.39990234375</ele>
        <time>2012-05-14T19:11:09Z</time>
      </trkpt>
      <trkpt lat="38.59980714507401" lon="-109.38665505498648">
        <ele>2050</ele>
        <time>2012-05-14T19:11:12Z</time>
      </trkpt>
      <trkpt lat="38.599880067631602" lon="-109.38665983267128">
        <ele>2049</ele>
        <time>2012-05-14T19:11:15Z</time>
      </trkpt>
      <trkpt lat="38.599889874458313" lon="-109.38665145076811">
        <ele>2048.60009765625</ele>
        <time>2012-05-14T19:11:18Z</time>
      </trkpt>
      <trkpt lat="38.599979896098375" lon="-109.38663242384791">
        <ele>2045.4000244140625</ele>
        <time>2012-05-14T19:11:22Z</time>
      </trkpt>
      <trkpt lat="38.600006969645619" lon="-109.38664038665593">
        <ele>2044.4000244140625</ele>
        <time>2012-05-14T19:11:23Z</time>
      </trkpt>
      <trkpt lat="38.600045358762145" lon="-109.38662881962955">
        <ele>2043</ele>
        <time>2012-05-14T19:11:25Z</time>
      </trkpt>
      <trkpt lat="38.600080981850624" lon="-109.38662848435342">
        <ele>2041.5999755859375</ele>
        <time>2012-05-14T19:11:27Z</time>
      </trkpt>
      <trkpt lat="38.600165136158466" lon="-109.38664281740785">
        <ele>2034</ele>
        <time>2012-05-14T19:11:29Z</time>
      </trkpt>
      <trkpt lat="38.600307125598192" lon="-109.3866622634232">
        <ele>2004.800048828125</ele>
        <time>2012-05-14T19:11:33Z</time>
      </trkpt>
      <trkpt lat="38.600317183881998" lon="-109.38667215406895">
        <ele>2004.199951171875</ele>
        <time>2012-05-14T19:11:34Z</time>
      </trkpt>
      <trkpt lat="38.600316178053617" lon="-109.38668422400951">
        <ele>2006</ele>
        <time>2012-05-14T19:11:36Z</time>
      </trkpt>
      <trkpt lat="38.60030410811305" lon="-109.38673099502921">
        <ele>2014.800048828125</ele>
        <time>2012-05-14T19:14:24Z</time>
      </trkpt>
      <trkpt lat="38.60031969845295" lon="-109.38681573607028">
        <ele>2023.800048828125</ele>
        <time>2012-05-14T19:14:34Z</time>
      </trkpt>
      <trkpt lat="38.600311148911715" lon="-109.38682151958346">
        <ele>2025.199951171875</ele>
        <time>2012-05-14T19:14:39Z</time>
      </trkpt>
      <trkpt lat="38.600327242165804" lon="-109.38683384098113">
        <ele>2024.5999755859375</ele>
        <time>2012-05-14T19:20:04Z</time>
      </trkpt>
      <trkpt lat="38.600302767008543" lon="-109.38684121705592">
        <ele>2027.5999755859375</ele>
        <time>2012-05-14T19:20:12Z</time>
      </trkpt>
      <trkpt lat="38.600288601592183" lon="-109.38682353124022">
        <ele>2027.800048828125</ele>
        <time>2012-05-14T19:20:21Z</time>
      </trkpt>
      <trkpt lat="38.600265718996525" lon="-109.38689108937979">
        <ele>2034.5999755859375</ele>
        <time>2012-05-14T19:20:26Z</time>
      </trkpt>
      <trkpt lat="38.600266557186842" lon="-109.38704288564622">
        <ele>2044.199951171875</ele>
        <time>2012-05-14T19:20:32Z</time>
      </trkpt>
      <trkpt lat="38.600311065092683" lon="-109.38722393475473">
        <ele>2047.199951171875</ele>
        <time>2012-05-14T19:20:36Z</time>
      </trkpt>
      <trkpt lat="38.600308131426573" lon="-109.3874326441437">
        <ele>2047.199951171875</ele>
        <time>2012-05-14T19:20:40Z</time>
      </trkpt>
      <trkpt lat="38.600295977666974" lon="-109.38771368935704">
        <ele>2045.5999755859375</ele>
        <time>2012-05-14T19:20:44Z</time>
      </trkpt>
      <trkpt lat="38.600306874141097" lon="-109.38787219114602">
        <ele>2044.4000244140625</ele>
        <time>2012-05-14T19:20:46Z</time>
      </trkpt>
      <trkpt lat="38.600341994315386" lon="-109.38803094439209">
        <ele>2043</ele>
        <time>2012-05-14T19:20:48Z</time>
      </trkpt>
      <trkpt lat="38.600384574383497" lon="-109.38818005844951">
        <ele>2041.4000244140625</ele>
        <time>2012-05-14T19:20:50Z</time>
      </trkpt>
      <trkpt lat="38.600454144179821" lon="-109.38829480670393">
        <ele>2040.800048828125</ele>
        <time>2012-05-14T19:20:52Z</time>
      </trkpt>
      <trkpt lat="38.600494544953108" lon="-109.38834819942713">
        <ele>2040.800048828125</ele>
        <time>2012-05-14T19:20:53Z</time>
      </trkpt>
      <trkpt lat="38.600620105862617" lon="-109.38843780197203">
        <ele>2041.800048828125</ele>
        <time>2012-05-14T19:20:56Z</time>
      </trkpt>
      <trkpt lat="38.600698225200176" lon="-109.38851332291961">
        <ele>2042.4000244140625</ele>
        <time>2012-05-14T19:20:59Z</time>
      </trkpt>
      <trkpt lat="38.600723287090659" lon="-109.38855246640742">
        <ele>2042.4000244140625</ele>
        <time>2012-05-14T19:21:00Z</time>
      </trkpt>
      <trkpt lat="38.600798640400171" lon="-109.38868917524815">
        <ele>2042.4000244140625</ele>
        <time>2012-05-14T19:21:03Z</time>
      </trkpt>
      <trkpt lat="38.600860079750419" lon="-109.38875220716">
        <ele>2043</ele>
        <time>2012-05-14T19:21:05Z</time>
      </trkpt>
      <trkpt lat="38.600916992872953" lon="-109.38883326016366">
        <ele>2043.199951171875</ele>
        <time>2012-05-14T19:21:07Z</time>
      </trkpt>
      <trkpt lat="38.600941551849246" lon="-109.38888137228787">
        <ele>2043.199951171875</ele>
        <time>2012-05-14T19:21:09Z</time>
      </trkpt>
      <trkpt lat="38.601001817733049" lon="-109.38907750882208">
        <ele>2042.199951171875</ele>
        <time>2012-05-14T19:21:13Z</time>
      </trkpt>
      <trkpt lat="38.601112458854914" lon="-109.3892337474972">
        <ele>2042.4000244140625</ele>
        <time>2012-05-14T19:21:17Z</time>
      </trkpt>
      <trkpt lat="38.60123835504055" lon="-109.38932158984244">
        <ele>2043</ele>
        <time>2012-05-14T19:21:22Z</time>
      </trkpt>
      <trkpt lat="38.60137615352869" lon="-109.38944036141038">
        <ele>2043.4000244140625</ele>
        <time>2012-05-14T19:21:28Z</time>
      </trkpt>
      <trkpt lat="38.601528201252222" lon="-109.38951068557799">
        <ele>2044.5999755859375</ele>
        <time>2012-05-14T19:21:33Z</time>
      </trkpt>
      <trkpt lat="38.601630628108978" lon="-109.38962870277464">
        <ele>2044.5999755859375</ele>
        <time>2012-05-14T19:21:38Z</time>
      </trkpt>
      <trkpt lat="38.601651079952717" lon="-109.38965242356062">
        <ele>2044.5999755859375</ele>
        <time>2012-05-14T19:21:39Z</time>
      </trkpt>
      <trkpt lat="38.601789297536016" lon="-109.38972844742239">
        <ele>2045.4000244140625</ele>
        <time>2012-05-14T19:21:44Z</time>
      </trkpt>
      <trkpt lat="38.601924246177077" lon="-109.38981285318732">
        <ele>2046.5999755859375</ele>
        <time>2012-05-14T19:21:50Z</time>
      </trkpt>
      <trkpt lat="38.602047460153699" lon="-109.38988275825977">
        <ele>2047.5999755859375</ele>
        <time>2012-05-14T19:21:56Z</time>
      </trkpt>
      <trkpt lat="38.602130524814129" lon="-109.3899140227586">
        <ele>2047.5999755859375</ele>
        <time>2012-05-14T19:22:01Z</time>
      </trkpt>
      <trkpt lat="38.602254241704941" lon="-109.39001150429249">
        <ele>2045.800048828125</ele>
        <time>2012-05-14T19:22:07Z</time>
      </trkpt>
      <trkpt lat="38.60234996303916" lon="-109.39002667553723">
        <ele>2046</ele>
        <time>2012-05-14T19:22:11Z</time>
      </trkpt>
      <trkpt lat="38.602432776242495" lon="-109.38996490091085">
        <ele>2048</ele>
        <time>2012-05-14T19:22:15Z</time>
      </trkpt>
      <trkpt lat="38.602520870044827" lon="-109.38991142436862">
        <ele>2049.39990234375</ele>
        <time>2012-05-14T19:22:20Z</time>
      </trkpt>
      <trkpt lat="38.602624638006091" lon="-109.38982089981437">
        <ele>2049.60009765625</ele>
        <time>2012-05-14T19:22:26Z</time>
      </trkpt>
      <trkpt lat="38.602703344076872" lon="-109.38976474106312">
        <ele>2042.4000244140625</ele>
        <time>2012-05-14T19:22:31Z</time>
      </trkpt>
      <trkpt lat="38.602741481736302" lon="-109.38976742327213">
        <ele>2039.4000244140625</ele>
        <time>2012-05-14T19:22:33Z</time>
      </trkpt>
      <trkpt lat="38.602795880287886" lon="-109.38979097642004">
        <ele>2039</ele>
        <time>2012-05-14T19:22:36Z</time>
      </trkpt>
      <trkpt lat="38.602916831150651" lon="-109.38982089981437">
        <ele>2040.800048828125</ele>
        <time>2012-05-14T19:22:42Z</time>
      </trkpt>
      <trkpt lat="38.603014480322599" lon="-109.38988879323006">
        <ele>2025.5999755859375</ele>
        <time>2012-05-14T19:22:47Z</time>
      </trkpt>
      <trkpt lat="38.603074578568339" lon="-109.38992240466177">
        <ele>2014.800048828125</ele>
        <time>2012-05-14T19:22:51Z</time>
      </trkpt>
      <trkpt lat="38.603185554966331" lon="-109.38995056785643">
        <ele>1996.800048828125</ele>
        <time>2012-05-14T19:22:57Z</time>
      </trkpt>
      <trkpt lat="38.603291586041451" lon="-109.39009280875325">
        <ele>2011.800048828125</ele>
        <time>2012-05-14T19:23:02Z</time>
      </trkpt>
      <trkpt lat="38.603273564949632" lon="-109.39028249122202">
        <ele>2041</ele>
        <time>2012-05-14T19:23:05Z</time>
      </trkpt>
      <trkpt lat="38.603263003751636" lon="-109.39035465940833">
        <ele>2047.5999755859375</ele>
        <time>2012-05-14T19:23:06Z</time>
      </trkpt>
      <trkpt lat="38.603299465030432" lon="-109.3905668053776">
        <ele>2051.199951171875</ele>
        <time>2012-05-14T19:23:09Z</time>
      </trkpt>
      <trkpt lat="38.603392755612731" lon="-109.39068985171616">
        <ele>2050.800048828125</ele>
        <time>2012-05-14T19:23:12Z</time>
      </trkpt>
      <trkpt lat="38.603446232154965" lon="-109.390774006024">
        <ele>2050.60009765625</ele>
        <time>2012-05-14T19:23:14Z</time>
      </trkpt>
      <trkpt lat="38.603480933234096" lon="-109.39080845564604">
        <ele>2050.39990234375</ele>
        <time>2012-05-14T19:23:15Z</time>
      </trkpt>
      <trkpt lat="38.603547485545278" lon="-109.39087333157659">
        <ele>2049.800048828125</ele>
        <time>2012-05-14T19:23:17Z</time>
      </trkpt>
      <trkpt lat="38.603627448901534" lon="-109.39100744202733">
        <ele>2049.39990234375</ele>
        <time>2012-05-14T19:23:20Z</time>
      </trkpt>
      <trkpt lat="38.603655947372317" lon="-109.39104281365871">
        <ele>2049.199951171875</ele>
        <time>2012-05-14T19:23:21Z</time>
      </trkpt>
      <trkpt lat="38.603798355907202" lon="-109.39115739427507">
        <ele>2049.199951171875</ele>
        <time>2012-05-14T19:23:25Z</time>
      </trkpt>
      <trkpt lat="38.603930370882154" lon="-109.39135713502765">
        <ele>2048.800048828125</ele>
        <time>2012-05-14T19:23:30Z</time>
      </trkpt>
      <trkpt lat="38.603992648422718" lon="-109.39141069538891">
        <ele>2049</ele>
        <time>2012-05-14T19:23:33Z</time>
      </trkpt>
      <trkpt lat="38.604003461077809" lon="-109.3914355058223">
        <ele>2048.800048828125</ele>
        <time>2012-05-14T19:23:34Z</time>
      </trkpt>
      <trkpt lat="38.604117371141911" lon="-109.39155352301896">
        <ele>2049.199951171875</ele>
        <time>2012-05-14T19:23:39Z</time>
      </trkpt>
      <trkpt lat="38.604186773300171" lon="-109.39163004979491">
        <ele>2049.39990234375</ele>
        <time>2012-05-14T19:23:44Z</time>
      </trkpt>
      <trkpt lat="38.604295486584306" lon="-109.39173465594649">
        <ele>2050</ele>
        <time>2012-05-14T19:23:49Z</time>
      </trkpt>
      <trkpt lat="38.604461615905166" lon="-109.39187857322395">
        <ele>2050.199951171875</ele>
        <time>2012-05-14T19:23:56Z</time>
      </trkpt>
      <trkpt lat="38.604593630880117" lon="-109.39201033674181">
        <ele>2050.39990234375</ele>
        <time>2012-05-14T19:24:02Z</time>
      </trkpt>
      <trkpt lat="38.604738134890795" lon="-109.39207538031042">
        <ele>2042.5999755859375</ele>
        <time>2012-05-14T19:24:07Z</time>
      </trkpt>
      <trkpt lat="38.6048380471766" lon="-109.39220043830574">
        <ele>2044.800048828125</ele>
        <time>2012-05-14T19:24:13Z</time>
      </trkpt>
      <trkpt lat="38.604857996106148" lon="-109.39233773387969">
        <ele>2053</ele>
        <time>2012-05-14T19:24:18Z</time>
      </trkpt>
      <trkpt lat="38.604934774339199" lon="-109.39247637055814">
        <ele>2049.39990234375</ele>
        <time>2012-05-14T19:24:24Z</time>
      </trkpt>
      <trkpt lat="38.605062514543533" lon="-109.39257502555847">
        <ele>2045.5999755859375</ele>
        <time>2012-05-14T19:24:31Z</time>
      </trkpt>
      <trkpt lat="38.605129234492779" lon="-109.39272321760654">
        <ele>2049.199951171875</ele>
        <time>2012-05-14T19:24:38Z</time>
      </trkpt>
      <trkpt lat="38.605144992470741" lon="-109.39285783097148">
        <ele>2052.39990234375</ele>
        <time>2012-05-14T19:24:43Z</time>
      </trkpt>
      <trkpt lat="38.605223866179585" lon="-109.39295631833375">
        <ele>2051.199951171875</ele>
        <time>2012-05-14T19:24:48Z</time>
      </trkpt>
      <trkpt lat="38.605344817042351" lon="-109.39303091727197">
        <ele>2049.199951171875</ele>
        <time>2012-05-14T19:24:55Z</time>
      </trkpt>
      <trkpt lat="38.605449507012963" lon="-109.39312999136746">
        <ele>2051</ele>
        <time>2012-05-14T19:25:01Z</time>
      </trkpt>
      <trkpt lat="38.605613457038999" lon="-109.3932315800339">
        <ele>2051</ele>
        <time>2012-05-14T19:25:06Z</time>
      </trkpt>
      <trkpt lat="38.60570783726871" lon="-109.39336644485593">
        <ele>2052.60009765625</ele>
        <time>2012-05-14T19:25:11Z</time>
      </trkpt>
      <trkpt lat="38.605783944949508" lon="-109.39350097440183">
        <ele>2052.199951171875</ele>
        <time>2012-05-14T19:25:17Z</time>
      </trkpt>
      <trkpt lat="38.60587690025568" lon="-109.39362561330199">
        <ele>2053</ele>
        <time>2012-05-14T19:25:23Z</time>
      </trkpt>
      <trkpt lat="38.605945548042655" lon="-109.39370901323855">
        <ele>2056.800048828125</ele>
        <time>2012-05-14T19:25:28Z</time>
      </trkpt>
      <trkpt lat="38.606018973514438" lon="-109.39381546340883">
        <ele>2057.800048828125</ele>
        <time>2012-05-14T19:25:35Z</time>
      </trkpt>
      <trkpt lat="38.606105726212263" lon="-109.39395778812468">
        <ele>2059.60009765625</ele>
        <time>2012-05-14T19:25:44Z</time>
      </trkpt>
      <trkpt lat="38.606186527758837" lon="-109.39410170540214">
        <ele>2063.199951171875</ele>
        <time>2012-05-14T19:25:53Z</time>
      </trkpt>
      <trkpt lat="38.606247883290052" lon="-109.39423221163452">
        <ele>2063.800048828125</ele>
        <time>2012-05-14T19:26:00Z</time>
      </trkpt>
      <trkpt lat="38.60633622854948" lon="-109.39433556050062">
        <ele>2064.39990234375</ele>
        <time>2012-05-14T19:26:06Z</time>
      </trkpt>
      <trkpt lat="38.606351902708411" lon="-109.39443555660546">
        <ele>2064.199951171875</ele>
        <time>2012-05-14T19:26:11Z</time>
      </trkpt>
      <trkpt lat="38.606367325410247" lon="-109.39451392740011">
        <ele>2064.199951171875</ele>
        <time>2012-05-14T19:26:15Z</time>
      </trkpt>
      <trkpt lat="38.606377216055989" lon="-109.39452926628292">
        <ele>2064.199951171875</ele>
        <time>2012-05-14T19:26:16Z</time>
      </trkpt>
      <trkpt lat="38.606470255181193" lon="-109.39470612443984">
        <ele>2064</ele>
        <time>2012-05-14T19:26:23Z</time>
      </trkpt>
      <trkpt lat="38.606626912951469" lon="-109.39497451297939">
        <ele>2063.39990234375</ele>
        <time>2012-05-14T19:26:31Z</time>
      </trkpt>
      <trkpt lat="38.606734620407224" lon="-109.39513452351093">
        <ele>2063</ele>
        <time>2012-05-14T19:26:36Z</time>
      </trkpt>
      <trkpt lat="38.60689178109169" lon="-109.39538715407252">
        <ele>2062.60009765625</ele>
        <time>2012-05-14T19:26:42Z</time>
      </trkpt>
      <trkpt lat="38.606981802731752" lon="-109.39550056122243">
        <ele>2062.800048828125</ele>
        <time>2012-05-14T19:26:47Z</time>
      </trkpt>
      <trkpt lat="38.607093449681997" lon="-109.39568781293929">
        <ele>2062.60009765625</ele>
        <time>2012-05-14T19:26:54Z</time>
      </trkpt>
      <trkpt lat="38.607193697243929" lon="-109.3958942592144">
        <ele>2062.199951171875</ele>
        <time>2012-05-14T19:26:59Z</time>
      </trkpt>
      <trkpt lat="38.607302494347095" lon="-109.39619307406247">
        <ele>2061.39990234375</ele>
        <time>2012-05-14T19:27:05Z</time>
      </trkpt>
      <trkpt lat="38.607323952019215" lon="-109.39633120782673">
        <ele>2060.60009765625</ele>
        <time>2012-05-14T19:27:07Z</time>
      </trkpt>
      <trkpt lat="38.607364436611533" lon="-109.39645970240235">
        <ele>2059.800048828125</ele>
        <time>2012-05-14T19:27:09Z</time>
      </trkpt>
      <trkpt lat="38.607390085235238" lon="-109.39675725996494">
        <ele>2057.800048828125</ele>
        <time>2012-05-14T19:27:13Z</time>
      </trkpt>
      <trkpt lat="38.607419924810529" lon="-109.39689053222537">
        <ele>2056.800048828125</ele>
        <time>2012-05-14T19:27:15Z</time>
      </trkpt>
      <trkpt lat="38.607431408017874" lon="-109.39703981392086">
        <ele>2055.60009765625</ele>
        <time>2012-05-14T19:27:17Z</time>
      </trkpt>
      <trkpt lat="38.607478011399508" lon="-109.39746712334454">
        <ele>2051.60009765625</ele>
        <time>2012-05-14T19:27:22Z</time>
      </trkpt>
      <trkpt lat="38.607510700821877" lon="-109.3976953625679">
        <ele>2049.60009765625</ele>
        <time>2012-05-14T19:27:25Z</time>
      </trkpt>
      <trkpt lat="38.607525872066617" lon="-109.3977577239275">
        <ele>2049.199951171875</ele>
        <time>2012-05-14T19:27:26Z</time>
      </trkpt>
      <trkpt lat="38.607535175979137" lon="-109.39783148467541">
        <ele>2048.60009765625</ele>
        <time>2012-05-14T19:27:27Z</time>
      </trkpt>
      <trkpt lat="38.607560573145747" lon="-109.39803030341864">
        <ele>2047.199951171875</ele>
        <time>2012-05-14T19:27:30Z</time>
      </trkpt>
      <trkpt lat="38.607608349993825" lon="-109.39825074747205">
        <ele>2045.5999755859375</ele>
        <time>2012-05-14T19:27:33Z</time>
      </trkpt>
      <trkpt lat="38.607620419934392" lon="-109.39840472303331">
        <ele>2044.4000244140625</ele>
        <time>2012-05-14T19:27:35Z</time>
      </trkpt>
      <trkpt lat="38.607616815716028" lon="-109.3985812459141">
        <ele>2042.199951171875</ele>
        <time>2012-05-14T19:27:37Z</time>
      </trkpt>
      <trkpt lat="38.607632741332054" lon="-109.39867688342929">
        <ele>2040.800048828125</ele>
        <time>2012-05-14T19:27:38Z</time>
      </trkpt>
      <trkpt lat="38.607660317793489" lon="-109.39877193421125">
        <ele>2039.5999755859375</ele>
        <time>2012-05-14T19:27:39Z</time>
      </trkpt>
      <trkpt lat="38.607690995559096" lon="-109.39909153617918">
        <ele>2037.199951171875</ele>
        <time>2012-05-14T19:27:42Z</time>
      </trkpt>
      <trkpt lat="38.607705663889647" lon="-109.39919555559754">
        <ele>2037</ele>
        <time>2012-05-14T19:27:43Z</time>
      </trkpt>
      <trkpt lat="38.607758469879627" lon="-109.39963845536113">
        <ele>2036.5999755859375</ele>
        <time>2012-05-14T19:27:48Z</time>
      </trkpt>
      <trkpt lat="38.607807839289308" lon="-109.40014229156077">
        <ele>2035</ele>
        <time>2012-05-14T19:27:55Z</time>
      </trkpt>
      <trkpt lat="38.607845390215516" lon="-109.4005533400923">
        <ele>2032.199951171875</ele>
        <time>2012-05-14T19:27:59Z</time>
      </trkpt>
      <trkpt lat="38.607872212305665" lon="-109.40067554824054">
        <ele>2031.4000244140625</ele>
        <time>2012-05-14T19:28:00Z</time>
      </trkpt>
      <trkpt lat="38.60792619176209" lon="-109.40087746828794">
        <ele>2030.4000244140625</ele>
        <time>2012-05-14T19:28:02Z</time>
      </trkpt>
      <trkpt lat="38.607922336086631" lon="-109.40113479271531">
        <ele>2030.199951171875</ele>
        <time>2012-05-14T19:28:05Z</time>
      </trkpt>
      <trkpt lat="38.607999365776777" lon="-109.40133428201079">
        <ele>2032.4000244140625</ele>
        <time>2012-05-14T19:28:08Z</time>
      </trkpt>
      <trkpt lat="38.60798042267561" lon="-109.40138624981046">
        <ele>2033</ele>
        <time>2012-05-14T19:28:11Z</time>
      </trkpt>
      <trkpt lat="38.607973465695977" lon="-109.40141893923283">
        <ele>2033.4000244140625</ele>
        <time>2012-05-14T19:28:12Z</time>
      </trkpt>
      <trkpt lat="38.607998695224524" lon="-109.40151298418641">
        <ele>2035</ele>
        <time>2012-05-14T19:28:15Z</time>
      </trkpt>
      <trkpt lat="38.608016632497311" lon="-109.40152295865119">
        <ele>2035.199951171875</ele>
        <time>2012-05-14T19:28:16Z</time>
      </trkpt>
      <trkpt lat="38.608054686337709" lon="-109.40151281654835">
        <ele>2035.4000244140625</ele>
        <time>2012-05-14T19:28:18Z</time>
      </trkpt>
      <trkpt lat="38.608177397400141" lon="-109.40154676325619">
        <ele>2036.4000244140625</ele>
        <time>2012-05-14T19:28:24Z</time>
      </trkpt>
      <trkpt lat="38.608193239197135" lon="-109.40155221149325">
        <ele>2036.4000244140625</ele>
        <time>2012-05-14T19:28:25Z</time>
      </trkpt>
      <trkpt lat="38.608211930841208" lon="-109.40155137330294">
        <ele>2036.4000244140625</ele>
        <time>2012-05-14T19:28:30Z</time>
      </trkpt>
      <trkpt lat="38.608240596950054" lon="-109.40155598334968">
        <ele>2036.4000244140625</ele>
        <time>2012-05-14T19:28:46Z</time>
      </trkpt>
      <trkpt lat="38.608260210603476" lon="-109.40155791118741">
        <ele>2036.4000244140625</ele>
        <time>2012-05-14T19:28:48Z</time>
      </trkpt>
      <trkpt lat="38.608351908624172" lon="-109.40160166472197">
        <ele>2036.4000244140625</ele>
        <time>2012-05-14T19:28:58Z</time>
      </trkpt>
      <trkpt lat="38.608354171738029" lon="-109.40161029808223">
        <ele>2036.4000244140625</ele>
        <time>2012-05-14T19:28:59Z</time>
      </trkpt>
      <trkpt lat="38.608373617753386" lon="-109.40166612155735">
        <ele>2036.5999755859375</ele>
        <time>2012-05-14T19:29:04Z</time>
      </trkpt>
      <trkpt lat="38.608382670208812" lon="-109.40171456895769">
        <ele>2037</ele>
        <time>2012-05-14T19:29:09Z</time>
      </trkpt>
      <trkpt lat="38.608387866988778" lon="-109.40173862501979">
        <ele>2037</ele>
        <time>2012-05-14T19:29:11Z</time>
      </trkpt>
      <trkpt lat="38.608415024355054" lon="-109.40183895640075">
        <ele>2037.4000244140625</ele>
        <time>2012-05-14T19:29:20Z</time>
      </trkpt>
      <trkpt lat="38.608426339924335" lon="-109.40190953202546">
        <ele>2037.800048828125</ele>
        <time>2012-05-14T19:29:27Z</time>
      </trkpt>
      <trkpt lat="38.608383340761065" lon="-109.40205638296902">
        <ele>2038.4000244140625</ele>
        <time>2012-05-14T19:29:38Z</time>
      </trkpt>
      <trkpt lat="38.60831368714571" lon="-109.40212461166084">
        <ele>2038.800048828125</ele>
        <time>2012-05-14T19:29:47Z</time>
      </trkpt>
      <trkpt lat="38.608219223096967" lon="-109.40219946205616">
        <ele>2039</ele>
        <time>2012-05-14T19:29:53Z</time>
      </trkpt>
      <trkpt lat="38.608109587803483" lon="-109.40223818644881">
        <ele>2039</ele>
        <time>2012-05-14T19:29:58Z</time>
      </trkpt>
      <trkpt lat="38.608106654137373" lon="-109.40224170684814">
        <ele>2039</ele>
        <time>2012-05-14T19:30:02Z</time>
      </trkpt>
      <trkpt lat="38.608071031048894" lon="-109.40225285477936">
        <ele>2039</ele>
        <time>2012-05-14T19:30:10Z</time>
      </trkpt>
      <trkpt lat="38.608055440708995" lon="-109.40228998661041">
        <ele>2038.800048828125</ele>
        <time>2012-05-14T19:30:16Z</time>
      </trkpt>
      <trkpt lat="38.6080586258322" lon="-109.40229593776166">
        <ele>2038.800048828125</ele>
        <time>2012-05-14T19:30:28Z</time>
      </trkpt>
      <trkpt lat="38.608026187866926" lon="-109.40229744650424">
        <ele>2038.800048828125</ele>
        <time>2012-05-14T19:31:15Z</time>
      </trkpt>
      <trkpt lat="38.608007244765759" lon="-109.40230197273195">
        <ele>2038.800048828125</ele>
        <time>2012-05-14T19:31:21Z</time>
      </trkpt>
      <trkpt lat="38.608005065470934" lon="-109.40230490639806">
        <ele>2038.800048828125</ele>
        <time>2012-05-14T19:32:07Z</time>
      </trkpt>
      <trkpt lat="38.608056278899312" lon="-109.40230809152126">
        <ele>2038.800048828125</ele>
        <time>2012-05-14T19:32:31Z</time>
      </trkpt>
      <trkpt lat="38.608077820390463" lon="-109.40222376957536">
        <ele>2039</ele>
        <time>2012-05-14T19:39:06Z</time>
      </trkpt>
      <trkpt lat="38.608061643317342" lon="-109.4022320676595">
        <ele>2039</ele>
        <time>2012-05-14T19:39:10Z</time>
      </trkpt>
      <trkpt lat="38.608090309426188" lon="-109.40222779288888">
        <ele>2039</ele>
        <time>2012-05-14T19:41:33Z</time>
      </trkpt>
      <trkpt lat="38.608111180365086" lon="-109.40225453116">
        <ele>2038.800048828125</ele>
        <time>2012-05-14T19:41:40Z</time>
      </trkpt>
      <trkpt lat="38.608112437650561" lon="-109.40226383507252">
        <ele>2038.800048828125</ele>
        <time>2012-05-14T19:41:49Z</time>
      </trkpt>
      <trkpt lat="38.608086034655571" lon="-109.40234874375165">
        <ele>2038.5999755859375</ele>
        <time>2012-05-14T19:42:14Z</time>
      </trkpt>
      <trkpt lat="38.608106318861246" lon="-109.40255410037935">
        <ele>2037.4000244140625</ele>
        <time>2012-05-14T19:42:18Z</time>
      </trkpt>
      <trkpt lat="38.608159879222512" lon="-109.4029673282057">
        <ele>2035.199951171875</ele>
        <time>2012-05-14T19:42:23Z</time>
      </trkpt>
      <trkpt lat="38.608216540887952" lon="-109.40352128818631">
        <ele>2030.199951171875</ele>
        <time>2012-05-14T19:42:28Z</time>
      </trkpt>
      <trkpt lat="38.608251577243209" lon="-109.40393761731684">
        <ele>2026.199951171875</ele>
        <time>2012-05-14T19:42:32Z</time>
      </trkpt>
      <trkpt lat="38.608348304405808" lon="-109.40449685789645">
        <ele>2020.800048828125</ele>
        <time>2012-05-14T19:42:38Z</time>
      </trkpt>
      <trkpt lat="38.608338246122003" lon="-109.40486096777022">
        <ele>2015.5999755859375</ele>
        <time>2012-05-14T19:42:42Z</time>
      </trkpt>
      <trkpt lat="38.608363559469581" lon="-109.40503405407071">
        <ele>2012</ele>
        <time>2012-05-14T19:42:45Z</time>
      </trkpt>
      <trkpt lat="38.608335731551051" lon="-109.40521501936018">
        <ele>2009.4000244140625</ele>
        <time>2012-05-14T19:42:48Z</time>
      </trkpt>
      <trkpt lat="38.608336234465241" lon="-109.40526899881661">
        <ele>2008.199951171875</ele>
        <time>2012-05-14T19:42:49Z</time>
      </trkpt>
      <trkpt lat="38.608343442901969" lon="-109.40543923527002">
        <ele>2005.199951171875</ele>
        <time>2012-05-14T19:42:52Z</time>
      </trkpt>
      <trkpt lat="38.608326511457562" lon="-109.40553202293813">
        <ele>2005.199951171875</ele>
        <time>2012-05-14T19:42:54Z</time>
      </trkpt>
      <trkpt lat="38.608341850340366" lon="-109.40572941675782">
        <ele>2003.5999755859375</ele>
        <time>2012-05-14T19:42:58Z</time>
      </trkpt>
      <trkpt lat="38.608360793441534" lon="-109.40583494491875">
        <ele>2002.5999755859375</ele>
        <time>2012-05-14T19:43:00Z</time>
      </trkpt>
      <trkpt lat="38.608376299962401" lon="-109.40587752498686">
        <ele>2002</ele>
        <time>2012-05-14T19:43:01Z</time>
      </trkpt>
      <trkpt lat="38.608384346589446" lon="-109.40592337399721">
        <ele>2001.5999755859375</ele>
        <time>2012-05-14T19:43:02Z</time>
      </trkpt>
      <trkpt lat="38.608420556411147" lon="-109.40613149665296">
        <ele>2000.800048828125</ele>
        <time>2012-05-14T19:43:07Z</time>
      </trkpt>
      <trkpt lat="38.608489623293281" lon="-109.40639762207866">
        <ele>2000.199951171875</ele>
        <time>2012-05-14T19:43:12Z</time>
      </trkpt>
      <trkpt lat="38.608546033501625" lon="-109.40654237754643">
        <ele>1999.199951171875</ele>
        <time>2012-05-14T19:43:16Z</time>
      </trkpt>
      <trkpt lat="38.608567742630839" lon="-109.4067479018122">
        <ele>1998.199951171875</ele>
        <time>2012-05-14T19:43:21Z</time>
      </trkpt>
      <trkpt lat="38.608626499772072" lon="-109.40688737668097">
        <ele>1996.5999755859375</ele>
        <time>2012-05-14T19:43:25Z</time>
      </trkpt>
      <trkpt lat="38.608601856976748" lon="-109.40700765699148">
        <ele>1996.800048828125</ele>
        <time>2012-05-14T19:43:29Z</time>
      </trkpt>
      <trkpt lat="38.608600432053208" lon="-109.407056607306">
        <ele>1996.5999755859375</ele>
        <time>2012-05-14T19:43:31Z</time>
      </trkpt>
      <trkpt lat="38.608638821169734" lon="-109.40709793008864">
        <ele>1996</ele>
        <time>2012-05-14T19:43:33Z</time>
      </trkpt>
      <trkpt lat="38.608657848089933" lon="-109.40717227756977">
        <ele>1995.4000244140625</ele>
        <time>2012-05-14T19:43:35Z</time>
      </trkpt>
      <trkpt lat="38.608665894716978" lon="-109.40726129338145">
        <ele>1995</ele>
        <time>2012-05-14T19:43:37Z</time>
      </trkpt>
      <trkpt lat="38.608705792576075" lon="-109.40753923729062">
        <ele>1994</ele>
        <time>2012-05-14T19:43:43Z</time>
      </trkpt>
      <trkpt lat="38.608747785910964" lon="-109.40767913125455">
        <ele>1993.5999755859375</ele>
        <time>2012-05-14T19:43:46Z</time>
      </trkpt>
      <trkpt lat="38.608783576637506" lon="-109.4077025167644">
        <ele>1993.199951171875</ele>
        <time>2012-05-14T19:43:47Z</time>
      </trkpt>
      <trkpt lat="38.608962278813124" lon="-109.40781625919044">
        <ele>1991.5999755859375</ele>
        <time>2012-05-14T19:43:52Z</time>
      </trkpt>
      <trkpt lat="38.609055737033486" lon="-109.40791625529528">
        <ele>1990.5999755859375</ele>
        <time>2012-05-14T19:43:55Z</time>
      </trkpt>
      <trkpt lat="38.6090740095824" lon="-109.40797191113234">
        <ele>1990.199951171875</ele>
        <time>2012-05-14T19:43:56Z</time>
      </trkpt>
      <trkpt lat="38.609140058979392" lon="-109.40819906070828">
        <ele>1989</ele>
        <time>2012-05-14T19:43:59Z</time>
      </trkpt>
      <trkpt lat="38.609292441979051" lon="-109.40840885974467">
        <ele>1988.5999755859375</ele>
        <time>2012-05-14T19:44:02Z</time>
      </trkpt>
      <trkpt lat="38.609336698427796" lon="-109.40848438069224">
        <ele>1988.199951171875</ele>
        <time>2012-05-14T19:44:03Z</time>
      </trkpt>
      <trkpt lat="38.60944390296936" lon="-109.40861421637237">
        <ele>1985.800048828125</ele>
        <time>2012-05-14T19:44:05Z</time>
      </trkpt>
      <trkpt lat="38.609582958742976" lon="-109.40879333764315">
        <ele>1987</ele>
        <time>2012-05-14T19:44:08Z</time>
      </trkpt>
      <trkpt lat="38.609639368951321" lon="-109.40900389105082">
        <ele>1986.5999755859375</ele>
        <time>2012-05-14T19:44:11Z</time>
      </trkpt>
      <trkpt lat="38.609712207689881" lon="-109.40929222851992">
        <ele>1983</ele>
        <time>2012-05-14T19:44:15Z</time>
      </trkpt>
      <trkpt lat="38.609735928475857" lon="-109.40936238504946">
        <ele>1982.199951171875</ele>
        <time>2012-05-14T19:44:16Z</time>
      </trkpt>
      <trkpt lat="38.609869452193379" lon="-109.40962825901806">
        <ele>1979.800048828125</ele>
        <time>2012-05-14T19:44:20Z</time>
      </trkpt>
      <trkpt lat="38.609885042533278" lon="-109.40982288680971">
        <ele>1978.199951171875</ele>
        <time>2012-05-14T19:44:23Z</time>
      </trkpt>
      <trkpt lat="38.609900632873178" lon="-109.41009437665343">
        <ele>1976.199951171875</ele>
        <time>2012-05-14T19:44:27Z</time>
      </trkpt>
      <trkpt lat="38.609895603731275" lon="-109.41020702943206">
        <ele>1974.199951171875</ele>
        <time>2012-05-14T19:44:29Z</time>
      </trkpt>
      <trkpt lat="38.609884288161993" lon="-109.41025162115693">
        <ele>1973.4000244140625</ele>
        <time>2012-05-14T19:44:30Z</time>
      </trkpt>
      <trkpt lat="38.609790159389377" lon="-109.41029177047312">
        <ele>1974</ele>
        <time>2012-05-14T19:44:33Z</time>
      </trkpt>
      <trkpt lat="38.609700724482536" lon="-109.41026662476361">
        <ele>1975.199951171875</ele>
        <time>2012-05-14T19:44:35Z</time>
      </trkpt>
      <trkpt lat="38.6096559651196" lon="-109.41024793311954">
        <ele>1975.800048828125</ele>
        <time>2012-05-14T19:44:36Z</time>
      </trkpt>
      <trkpt lat="38.609618078917265" lon="-109.41021742299199">
        <ele>1976.4000244140625</ele>
        <time>2012-05-14T19:44:37Z</time>
      </trkpt>
      <trkpt lat="38.609505007043481" lon="-109.4101497810334">
        <ele>1977</ele>
        <time>2012-05-14T19:44:40Z</time>
      </trkpt>
      <trkpt lat="38.609427977353334" lon="-109.41012714989483">
        <ele>1976.5999755859375</ele>
        <time>2012-05-14T19:44:42Z</time>
      </trkpt>
      <trkpt lat="38.60939403064549" lon="-109.41009881906211">
        <ele>1976.800048828125</ele>
        <time>2012-05-14T19:44:43Z</time>
      </trkpt>
      <trkpt lat="38.609318761155009" lon="-109.4100424926728">
        <ele>1976.800048828125</ele>
        <time>2012-05-14T19:44:45Z</time>
      </trkpt>
      <trkpt lat="38.609278025105596" lon="-109.41018456593156">
        <ele>1975.199951171875</ele>
        <time>2012-05-14T19:44:47Z</time>
      </trkpt>
      <trkpt lat="38.609362430870533" lon="-109.41031456924975">
        <ele>1974.199951171875</ele>
        <time>2012-05-14T19:44:49Z</time>
      </trkpt>
      <trkpt lat="38.609469970688224" lon="-109.41042604856193">
        <ele>1973.4000244140625</ele>
        <time>2012-05-14T19:44:51Z</time>
      </trkpt>
      <trkpt lat="38.609508611261845" lon="-109.41049830056727">
        <ele>1972.199951171875</ele>
        <time>2012-05-14T19:44:52Z</time>
      </trkpt>
      <trkpt lat="38.609537864103913" lon="-109.41058748401701">
        <ele>1970.800048828125</ele>
        <time>2012-05-14T19:44:53Z</time>
      </trkpt>
      <trkpt lat="38.609551694244146" lon="-109.41085981205106">
        <ele>1967.5999755859375</ele>
        <time>2012-05-14T19:44:56Z</time>
      </trkpt>
      <trkpt lat="38.609540881589055" lon="-109.41095821559429">
        <ele>1967</ele>
        <time>2012-05-14T19:44:57Z</time>
      </trkpt>
      <trkpt lat="38.609534092247486" lon="-109.41112107597291">
        <ele>1966.199951171875</ele>
        <time>2012-05-14T19:44:59Z</time>
      </trkpt>
      <trkpt lat="38.609556052833796" lon="-109.41120070405304">
        <ele>1965.800048828125</ele>
        <time>2012-05-14T19:45:00Z</time>
      </trkpt>
      <trkpt lat="38.609595699235797" lon="-109.41146280616522">
        <ele>1961.800048828125</ele>
        <time>2012-05-14T19:45:03Z</time>
      </trkpt>
      <trkpt lat="38.609583042562008" lon="-109.41155844368041">
        <ele>1961</ele>
        <time>2012-05-14T19:45:04Z</time>
      </trkpt>
      <trkpt lat="38.609567871317267" lon="-109.41185742616653">
        <ele>1956.800048828125</ele>
        <time>2012-05-14T19:45:07Z</time>
      </trkpt>
      <trkpt lat="38.609583377838135" lon="-109.41195717081428">
        <ele>1956.199951171875</ele>
        <time>2012-05-14T19:45:08Z</time>
      </trkpt>
      <trkpt lat="38.609638027846813" lon="-109.41234089434147">
        <ele>1954.199951171875</ele>
        <time>2012-05-14T19:45:12Z</time>
      </trkpt>
      <trkpt lat="38.609675411134958" lon="-109.41243418492377">
        <ele>1953</ele>
        <time>2012-05-14T19:45:13Z</time>
      </trkpt>
      <trkpt lat="38.60973265953362" lon="-109.41261590458453">
        <ele>1952.4000244140625</ele>
        <time>2012-05-14T19:45:15Z</time>
      </trkpt>
      <trkpt lat="38.609755458310246" lon="-109.41281732171774">
        <ele>1952.5999755859375</ele>
        <time>2012-05-14T19:45:17Z</time>
      </trkpt>
      <trkpt lat="38.609801977872849" lon="-109.41299602389336">
        <ele>1952.4000244140625</ele>
        <time>2012-05-14T19:45:19Z</time>
      </trkpt>
      <trkpt lat="38.60986802726984" lon="-109.41312929615378">
        <ele>1951.5999755859375</ele>
        <time>2012-05-14T19:45:21Z</time>
      </trkpt>
      <trkpt lat="38.610023092478514" lon="-109.41327991895378">
        <ele>1946.4000244140625</ele>
        <time>2012-05-14T19:45:24Z</time>
      </trkpt>
      <trkpt lat="38.610059469938278" lon="-109.41334873437881">
        <ele>1945.800048828125</ele>
        <time>2012-05-14T19:45:25Z</time>
      </trkpt>
      <trkpt lat="38.610199531540275" lon="-109.41354503855109">
        <ele>1944.5999755859375</ele>
        <time>2012-05-14T19:45:28Z</time>
      </trkpt>
      <trkpt lat="38.610353590920568" lon="-109.41373354755342">
        <ele>1943.5999755859375</ele>
        <time>2012-05-14T19:45:31Z</time>
      </trkpt>
      <trkpt lat="38.610498765483499" lon="-109.41392859444022">
        <ele>1943.199951171875</ele>
        <time>2012-05-14T19:45:34Z</time>
      </trkpt>
      <trkpt lat="38.610543273389339" lon="-109.41399816423655">
        <ele>1943.4000244140625</ele>
        <time>2012-05-14T19:45:35Z</time>
      </trkpt>
      <trkpt lat="38.610736057162285" lon="-109.41424777731299">
        <ele>1943.199951171875</ele>
        <time>2012-05-14T19:45:39Z</time>
      </trkpt>
      <trkpt lat="38.611067645251751" lon="-109.41461808979511">
        <ele>1942.199951171875</ele>
        <time>2012-05-14T19:45:46Z</time>
      </trkpt>
      <trkpt lat="38.611095054075122" lon="-109.41465404815972">
        <ele>1942</ele>
        <time>2012-05-14T19:45:47Z</time>
      </trkpt>
      <trkpt lat="38.611204102635384" lon="-109.41482168622315">
        <ele>1942.199951171875</ele>
        <time>2012-05-14T19:45:51Z</time>
      </trkpt>
      <trkpt lat="38.611298650503159" lon="-109.41495294682682">
        <ele>1942.199951171875</ele>
        <time>2012-05-14T19:45:54Z</time>
      </trkpt>
      <trkpt lat="38.611420774832368" lon="-109.41504657268524">
        <ele>1942.199951171875</ele>
        <time>2012-05-14T19:45:57Z</time>
      </trkpt>
      <trkpt lat="38.611741131171584" lon="-109.41531412303448">
        <ele>1942</ele>
        <time>2012-05-14T19:46:06Z</time>
      </trkpt>
      <trkpt lat="38.611936764791608" lon="-109.41549860872328">
        <ele>1941.5999755859375</ele>
        <time>2012-05-14T19:46:12Z</time>
      </trkpt>
      <trkpt lat="38.612093757838011" lon="-109.41565375775099">
        <ele>1942.4000244140625</ele>
        <time>2012-05-14T19:46:17Z</time>
      </trkpt>
      <trkpt lat="38.612159304320812" lon="-109.41575920209289">
        <ele>1942.4000244140625</ele>
        <time>2012-05-14T19:46:20Z</time>
      </trkpt>
      <trkpt lat="38.612227952107787" lon="-109.41587814129889">
        <ele>1942.800048828125</ele>
        <time>2012-05-14T19:46:24Z</time>
      </trkpt>
      <trkpt lat="38.612328954041004" lon="-109.41601124592125">
        <ele>1943.5999755859375</ele>
        <time>2012-05-14T19:46:28Z</time>
      </trkpt>
      <trkpt lat="38.612413611263037" lon="-109.41606095060706">
        <ele>1943.199951171875</ele>
        <time>2012-05-14T19:46:32Z</time>
      </trkpt>
      <trkpt lat="38.612495586276054" lon="-109.41620470024645">
        <ele>1943.800048828125</ele>
        <time>2012-05-14T19:46:37Z</time>
      </trkpt>
      <trkpt lat="38.612589715048671" lon="-109.4163007568568">
        <ele>1944.4000244140625</ele>
        <time>2012-05-14T19:46:42Z</time>
      </trkpt>
      <trkpt lat="38.612676719203591" lon="-109.41641793586314">
        <ele>1944.5999755859375</ele>
        <time>2012-05-14T19:46:47Z</time>
      </trkpt>
      <trkpt lat="38.612790629267693" lon="-109.41655229777098">
        <ele>1945.199951171875</ele>
        <time>2012-05-14T19:46:51Z</time>
      </trkpt>
      <trkpt lat="38.612950388342142" lon="-109.41672949120402">
        <ele>1944.800048828125</ele>
        <time>2012-05-14T19:46:56Z</time>
      </trkpt>
      <trkpt lat="38.613073518499732" lon="-109.41684683784842">
        <ele>1944</ele>
        <time>2012-05-14T19:47:00Z</time>
      </trkpt>
      <trkpt lat="38.613258423283696" lon="-109.41705412231386">
        <ele>1943.800048828125</ele>
        <time>2012-05-14T19:47:06Z</time>
      </trkpt>
      <trkpt lat="38.613291112706065" lon="-109.41714632324874">
        <ele>1943.800048828125</ele>
        <time>2012-05-14T19:47:08Z</time>
      </trkpt>
      <trkpt lat="38.613357748836279" lon="-109.41737397573888">
        <ele>1943.5999755859375</ele>
        <time>2012-05-14T19:47:12Z</time>
      </trkpt>
      <trkpt lat="38.613371914252639" lon="-109.41744103096426">
        <ele>1943.199951171875</ele>
        <time>2012-05-14T19:47:13Z</time>
      </trkpt>
      <trkpt lat="38.613349450752139" lon="-109.41765879280865">
        <ele>1942.199951171875</ele>
        <time>2012-05-14T19:47:16Z</time>
      </trkpt>
      <trkpt lat="38.613317180424929" lon="-109.4179948233068">
        <ele>1941</ele>
        <time>2012-05-14T19:47:20Z</time>
      </trkpt>
      <trkpt lat="38.61329329200089" lon="-109.41808015108109">
        <ele>1940.800048828125</ele>
        <time>2012-05-14T19:47:21Z</time>
      </trkpt>
      <trkpt lat="38.613225901499391" lon="-109.41842230036855">
        <ele>1940</ele>
        <time>2012-05-14T19:47:25Z</time>
      </trkpt>
      <trkpt lat="38.613221207633615" lon="-109.41850880160928">
        <ele>1939.800048828125</ele>
        <time>2012-05-14T19:47:26Z</time>
      </trkpt>
      <trkpt lat="38.613117188215256" lon="-109.41872086375952">
        <ele>1939.5999755859375</ele>
        <time>2012-05-14T19:47:29Z</time>
      </trkpt>
      <trkpt lat="38.613081397488713" lon="-109.41879152320325">
        <ele>1939.4000244140625</ele>
        <time>2012-05-14T19:47:30Z</time>
      </trkpt>
      <trkpt lat="38.612965727224946" lon="-109.41898682154715">
        <ele>1938.800048828125</ele>
        <time>2012-05-14T19:47:33Z</time>
      </trkpt>
      <trkpt lat="38.612913591787219" lon="-109.41911498084664">
        <ele>1938.199951171875</ele>
        <time>2012-05-14T19:47:35Z</time>
      </trkpt>
      <trkpt lat="38.612835723906755" lon="-109.41945545375347">
        <ele>1936</ele>
        <time>2012-05-14T19:47:40Z</time>
      </trkpt>
      <trkpt lat="38.612808482721448" lon="-109.41967413760722">
        <ele>1934.4000244140625</ele>
        <time>2012-05-14T19:47:43Z</time>
      </trkpt>
      <trkpt lat="38.612837651744485" lon="-109.41984102129936">
        <ele>1933</ele>
        <time>2012-05-14T19:47:45Z</time>
      </trkpt>
      <trkpt lat="38.612919962033629" lon="-109.41997655667365">
        <ele>1932</ele>
        <time>2012-05-14T19:47:47Z</time>
      </trkpt>
      <trkpt lat="38.612965475767851" lon="-109.42004998214543">
        <ele>1931.4000244140625</ele>
        <time>2012-05-14T19:47:48Z</time>
      </trkpt>
      <trkpt lat="38.613024316728115" lon="-109.42011427134275">
        <ele>1930.800048828125</ele>
        <time>2012-05-14T19:47:49Z</time>
      </trkpt>
      <trkpt lat="38.613129006698728" lon="-109.42019339650869">
        <ele>1929.5999755859375</ele>
        <time>2012-05-14T19:47:51Z</time>
      </trkpt>
      <trkpt lat="38.613178879022598" lon="-109.42023891024292">
        <ele>1928.800048828125</ele>
        <time>2012-05-14T19:47:52Z</time>
      </trkpt>
      <trkpt lat="38.613317096605897" lon="-109.42035902291536">
        <ele>1926.800048828125</ele>
        <time>2012-05-14T19:47:55Z</time>
      </trkpt>
      <trkpt lat="38.613344086334109" lon="-109.42039129324257">
        <ele>1926.4000244140625</ele>
        <time>2012-05-14T19:47:56Z</time>
      </trkpt>
      <trkpt lat="38.613338889554143" lon="-109.42043420858681">
        <ele>1926</ele>
        <time>2012-05-14T19:47:57Z</time>
      </trkpt>
      <trkpt lat="38.613349115476012" lon="-109.42052439786494">
        <ele>1924.800048828125</ele>
        <time>2012-05-14T19:47:59Z</time>
      </trkpt>
      <trkpt lat="38.61339152790606" lon="-109.42059849388897">
        <ele>1923.4000244140625</ele>
        <time>2012-05-14T19:48:01Z</time>
      </trkpt>
      <trkpt lat="38.613441316410899" lon="-109.42059664987028">
        <ele>1923</ele>
        <time>2012-05-14T19:48:02Z</time>
      </trkpt>
      <trkpt lat="38.613549526780844" lon="-109.4205264095217">
        <ele>1922.800048828125</ele>
        <time>2012-05-14T19:48:05Z</time>
      </trkpt>
      <trkpt lat="38.613621778786182" lon="-109.42054208368063">
        <ele>1922</ele>
        <time>2012-05-14T19:48:08Z</time>
      </trkpt>
      <trkpt lat="38.613714817911386" lon="-109.42074827849865">
        <ele>1918.800048828125</ele>
        <time>2012-05-14T19:48:12Z</time>
      </trkpt>
      <trkpt lat="38.613740047439933" lon="-109.42092471756041">
        <ele>1916.199951171875</ele>
        <time>2012-05-14T19:48:15Z</time>
      </trkpt>
      <trkpt lat="38.61375161446631" lon="-109.42099160514772">
        <ele>1915.4000244140625</ele>
        <time>2012-05-14T19:48:16Z</time>
      </trkpt>
      <trkpt lat="38.613752871751785" lon="-109.42106570117176">
        <ele>1914.5999755859375</ele>
        <time>2012-05-14T19:48:17Z</time>
      </trkpt>
      <trkpt lat="38.613790674135089" lon="-109.42130575887859">
        <ele>1912.5999755859375</ele>
        <time>2012-05-14T19:48:20Z</time>
      </trkpt>
      <trkpt lat="38.613902740180492" lon="-109.42151715047657">
        <ele>1910.199951171875</ele>
        <time>2012-05-14T19:48:24Z</time>
      </trkpt>
      <trkpt lat="38.613885222002864" lon="-109.42166115157306">
        <ele>1909.800048828125</ele>
        <time>2012-05-14T19:48:26Z</time>
      </trkpt>
      <trkpt lat="38.613905170932412" lon="-109.42173122428358">
        <ele>1909.4000244140625</ele>
        <time>2012-05-14T19:48:27Z</time>
      </trkpt>
      <trkpt lat="38.613973734900355" lon="-109.42196139134467">
        <ele>1908.4000244140625</ele>
        <time>2012-05-14T19:48:30Z</time>
      </trkpt>
      <trkpt lat="38.614042298868299" lon="-109.42223480902612">
        <ele>1906.800048828125</ele>
        <time>2012-05-14T19:48:33Z</time>
      </trkpt>
      <trkpt lat="38.614040790125728" lon="-109.42232717759907">
        <ele>1906.199951171875</ele>
        <time>2012-05-14T19:48:34Z</time>
      </trkpt>
      <trkpt lat="38.613980943337083" lon="-109.42262372933328">
        <ele>1904.4000244140625</ele>
        <time>2012-05-14T19:48:38Z</time>
      </trkpt>
      <trkpt lat="38.613959401845932" lon="-109.42267988808453">
        <ele>1904</ele>
        <time>2012-05-14T19:48:39Z</time>
      </trkpt>
      <trkpt lat="38.613951187580824" lon="-109.42274300381541">
        <ele>1903.199951171875</ele>
        <time>2012-05-14T19:48:40Z</time>
      </trkpt>
      <trkpt lat="38.613906763494015" lon="-109.4229351170361">
        <ele>1901.5999755859375</ele>
        <time>2012-05-14T19:48:43Z</time>
      </trkpt>
      <trkpt lat="38.613882539793849" lon="-109.42300627939403">
        <ele>1901.199951171875</ele>
        <time>2012-05-14T19:48:44Z</time>
      </trkpt>
      <trkpt lat="38.613851107656956" lon="-109.42306704819202">
        <ele>1901</ele>
        <time>2012-05-14T19:48:45Z</time>
      </trkpt>
      <trkpt lat="38.613826632499695" lon="-109.42320032045245">
        <ele>1900</ele>
        <time>2012-05-14T19:48:47Z</time>
      </trkpt>
      <trkpt lat="38.613836942240596" lon="-109.42332076840103">
        <ele>1899.199951171875</ele>
        <time>2012-05-14T19:48:49Z</time>
      </trkpt>
      <trkpt lat="38.613802576437593" lon="-109.42336594685912">
        <ele>1899.5999755859375</ele>
        <time>2012-05-14T19:48:50Z</time>
      </trkpt>
      <trkpt lat="38.613757817074656" lon="-109.4235019851476">
        <ele>1899.800048828125</ele>
        <time>2012-05-14T19:48:52Z</time>
      </trkpt>
      <trkpt lat="38.613783549517393" lon="-109.42355931736529">
        <ele>1899.800048828125</ele>
        <time>2012-05-14T19:48:53Z</time>
      </trkpt>
      <trkpt lat="38.613879773765802" lon="-109.42369191907346">
        <ele>1899.199951171875</ele>
        <time>2012-05-14T19:48:56Z</time>
      </trkpt>
      <trkpt lat="38.613922605291009" lon="-109.42379124462605">
        <ele>1899.5999755859375</ele>
        <time>2012-05-14T19:48:58Z</time>
      </trkpt>
      <trkpt lat="38.613973902538419" lon="-109.42386743612587">
        <ele>1899.800048828125</ele>
        <time>2012-05-14T19:49:00Z</time>
      </trkpt>
      <trkpt lat="38.614008435979486" lon="-109.4239042326808">
        <ele>1899.800048828125</ele>
        <time>2012-05-14T19:49:01Z</time>
      </trkpt>
      <trkpt lat="38.614132823422551" lon="-109.42407505586743">
        <ele>1898.4000244140625</ele>
        <time>2012-05-14T19:49:05Z</time>
      </trkpt>
      <trkpt lat="38.6141596455127" lon="-109.42412752658129">
        <ele>1898.199951171875</ele>
        <time>2012-05-14T19:49:06Z</time>
      </trkpt>
      <trkpt lat="38.614237764850259" lon="-109.42423531785607">
        <ele>1897.800048828125</ele>
        <time>2012-05-14T19:49:08Z</time>
      </trkpt>
      <trkpt lat="38.614318817853928" lon="-109.42434587515891">
        <ele>1897.800048828125</ele>
        <time>2012-05-14T19:49:10Z</time>
      </trkpt>
      <trkpt lat="38.614385034888983" lon="-109.4245395809412">
        <ele>1897.4000244140625</ele>
        <time>2012-05-14T19:49:14Z</time>
      </trkpt>
      <trkpt lat="38.61438293941319" lon="-109.42454402334988">
        <ele>1897.4000244140625</ele>
        <time>2012-05-14T19:49:15Z</time>
      </trkpt>
      <trkpt lat="38.614382520318031" lon="-109.42453497089446">
        <ele>1897.4000244140625</ele>
        <time>2012-05-14T19:49:17Z</time>
      </trkpt>
      <trkpt lat="38.614389561116695" lon="-109.42449021153152">
        <ele>1897</ele>
        <time>2012-05-14T19:51:18Z</time>
      </trkpt>
      <trkpt lat="38.614371623843908" lon="-109.42446380853653">
        <ele>1897.199951171875</ele>
        <time>2012-05-14T19:52:13Z</time>
      </trkpt>
      <trkpt lat="38.614369863644242" lon="-109.42447629757226">
        <ele>1897.4000244140625</ele>
        <time>2012-05-14T19:55:38Z</time>
      </trkpt>
      <trkpt lat="38.614367432892323" lon="-109.42449842579663">
        <ele>1897.4000244140625</ele>
        <time>2012-05-14T19:55:53Z</time>
      </trkpt>
      <trkpt lat="38.614358296617866" lon="-109.42449373193085">
        <ele>1897.5999755859375</ele>
        <time>2012-05-14T19:55:58Z</time>
      </trkpt>
      <trkpt lat="38.614361817017198" lon="-109.42450379021466">
        <ele>1897.4000244140625</ele>
        <time>2012-05-14T19:56:29Z</time>
      </trkpt>
      <trkpt lat="38.614465417340398" lon="-109.42449415102601">
        <ele>1896.199951171875</ele>
        <time>2012-05-14T19:57:39Z</time>
      </trkpt>
      <trkpt lat="38.614641604945064" lon="-109.42461007274687">
        <ele>1895</ele>
        <time>2012-05-14T19:57:44Z</time>
      </trkpt>
      <trkpt lat="38.614706816151738" lon="-109.42474326118827">
        <ele>1895.4000244140625</ele>
        <time>2012-05-14T19:57:47Z</time>
      </trkpt>
      <trkpt lat="38.614791641011834" lon="-109.4249040260911">
        <ele>1896</ele>
        <time>2012-05-14T19:57:51Z</time>
      </trkpt>
      <trkpt lat="38.615012504160404" lon="-109.42511684261262">
        <ele>1895.199951171875</ele>
        <time>2012-05-14T19:57:57Z</time>
      </trkpt>
      <trkpt lat="38.615247197449207" lon="-109.42527358420193">
        <ele>1893.800048828125</ele>
        <time>2012-05-14T19:58:02Z</time>
      </trkpt>
      <trkpt lat="38.615289945155382" lon="-109.42530225031078">
        <ele>1893.5999755859375</ele>
        <time>2012-05-14T19:58:03Z</time>
      </trkpt>
      <trkpt lat="38.615458505228162" lon="-109.42542353644967">
        <ele>1894.5999755859375</ele>
        <time>2012-05-14T19:58:07Z</time>
      </trkpt>
      <trkpt lat="38.615502677857876" lon="-109.42544742487371">
        <ele>1894.4000244140625</ele>
        <time>2012-05-14T19:58:08Z</time>
      </trkpt>
      <trkpt lat="38.615662436932325" lon="-109.42553459666669">
        <ele>1893.800048828125</ele>
        <time>2012-05-14T19:58:12Z</time>
      </trkpt>
      <trkpt lat="38.615697473287582" lon="-109.4255634304136">
        <ele>1894</ele>
        <time>2012-05-14T19:58:13Z</time>
      </trkpt>
      <trkpt lat="38.61577651463449" lon="-109.42561833187938">
        <ele>1893.5999755859375</ele>
        <time>2012-05-14T19:58:15Z</time>
      </trkpt>
      <trkpt lat="38.615853041410446" lon="-109.42567348480225">
        <ele>1894</ele>
        <time>2012-05-14T19:58:17Z</time>
      </trkpt>
      <trkpt lat="38.615927724167705" lon="-109.4257277995348">
        <ele>1894.4000244140625</ele>
        <time>2012-05-14T19:58:19Z</time>
      </trkpt>
      <trkpt lat="38.615970723330975" lon="-109.42575068213046">
        <ele>1894.199951171875</ele>
        <time>2012-05-14T19:58:20Z</time>
      </trkpt>
      <trkpt lat="38.616129644215107" lon="-109.42583651281893">
        <ele>1892.4000244140625</ele>
        <time>2012-05-14T19:58:24Z</time>
      </trkpt>
      <trkpt lat="38.616200722754002" lon="-109.425881607458">
        <ele>1892.199951171875</ele>
        <time>2012-05-14T19:58:26Z</time>
      </trkpt>
      <trkpt lat="38.616294600069523" lon="-109.42595897242427">
        <ele>1892.5999755859375</ele>
        <time>2012-05-14T19:58:29Z</time>
      </trkpt>
      <trkpt lat="38.616339024156332" lon="-109.42607816308737">
        <ele>1893.4000244140625</ele>
        <time>2012-05-14T19:58:33Z</time>
      </trkpt>
      <trkpt lat="38.616344220936298" lon="-109.42611386999488">
        <ele>1893.5999755859375</ele>
        <time>2012-05-14T19:58:36Z</time>
      </trkpt>
      <trkpt lat="38.616352770477533" lon="-109.42613314837217">
        <ele>1893.5999755859375</ele>
        <time>2012-05-14T19:58:38Z</time>
      </trkpt>
      <trkpt lat="38.616390572860837" lon="-109.42622073926032">
        <ele>1894</ele>
        <time>2012-05-14T19:58:45Z</time>
      </trkpt>
      <trkpt lat="38.616396859288216" lon="-109.42623062990606">
        <ele>1894</ele>
        <time>2012-05-14T19:58:46Z</time>
      </trkpt>
      <trkpt lat="38.616471122950315" lon="-109.42628578282893">
        <ele>1893.4000244140625</ele>
        <time>2012-05-14T19:58:51Z</time>
      </trkpt>
      <trkpt lat="38.616542536765337" lon="-109.42644998431206">
        <ele>1892.199951171875</ele>
        <time>2012-05-14T19:58:56Z</time>
      </trkpt>
      <trkpt lat="38.616567766293883" lon="-109.42672457545996">
        <ele>1889.199951171875</ele>
        <time>2012-05-14T19:59:01Z</time>
      </trkpt>
      <trkpt lat="38.61653390340507" lon="-109.42687310278416">
        <ele>1888.4000244140625</ele>
        <time>2012-05-14T19:59:04Z</time>
      </trkpt>
      <trkpt lat="38.616507919505239" lon="-109.42690562456846">
        <ele>1888.4000244140625</ele>
        <time>2012-05-14T19:59:05Z</time>
      </trkpt>
      <trkpt lat="38.616476319730282" lon="-109.42702129483223">
        <ele>1886.800048828125</ele>
        <time>2012-05-14T19:59:08Z</time>
      </trkpt>
      <trkpt lat="38.616456370800734" lon="-109.42706454545259">
        <ele>1886.4000244140625</ele>
        <time>2012-05-14T19:59:09Z</time>
      </trkpt>
      <trkpt lat="38.61645377241075" lon="-109.42720510996878">
        <ele>1884.800048828125</ele>
        <time>2012-05-14T19:59:13Z</time>
      </trkpt>
      <trkpt lat="38.616485456004739" lon="-109.427380124107">
        <ele>1882</ele>
        <time>2012-05-14T19:59:17Z</time>
      </trkpt>
      <trkpt lat="38.616455616429448" lon="-109.42753409966826">
        <ele>1884.4000244140625</ele>
        <time>2012-05-14T19:59:20Z</time>
      </trkpt>
      <trkpt lat="38.616569442674518" lon="-109.42762831225991">
        <ele>1882.199951171875</ele>
        <time>2012-05-14T19:59:23Z</time>
      </trkpt>
      <trkpt lat="38.616646304726601" lon="-109.42777432501316">
        <ele>1882.199951171875</ele>
        <time>2012-05-14T19:59:26Z</time>
      </trkpt>
      <trkpt lat="38.616727609187365" lon="-109.42798177711666">
        <ele>1882.800048828125</ele>
        <time>2012-05-14T19:59:30Z</time>
      </trkpt>
      <trkpt lat="38.616832299157977" lon="-109.42822309210896">
        <ele>1881.4000244140625</ele>
        <time>2012-05-14T19:59:34Z</time>
      </trkpt>
      <trkpt lat="38.616936905309558" lon="-109.42839601077139">
        <ele>1879.5999755859375</ele>
        <time>2012-05-14T19:59:37Z</time>
      </trkpt>
      <trkpt lat="38.616993147879839" lon="-109.42852148786187">
        <ele>1878.800048828125</ele>
        <time>2012-05-14T19:59:39Z</time>
      </trkpt>
      <trkpt lat="38.616949310526252" lon="-109.42868971265852">
        <ele>1879.5999755859375</ele>
        <time>2012-05-14T19:59:42Z</time>
      </trkpt>
      <trkpt lat="38.617014521732926" lon="-109.42889247089624">
        <ele>1877.4000244140625</ele>
        <time>2012-05-14T19:59:45Z</time>
      </trkpt>
      <trkpt lat="38.617075206711888" lon="-109.42909464240074">
        <ele>1875.4000244140625</ele>
        <time>2012-05-14T19:59:48Z</time>
      </trkpt>
      <trkpt lat="38.617090294137597" lon="-109.42916261963546">
        <ele>1874.800048828125</ele>
        <time>2012-05-14T19:59:49Z</time>
      </trkpt>
      <trkpt lat="38.617159947752953" lon="-109.42934324964881">
        <ele>1872.800048828125</ele>
        <time>2012-05-14T19:59:53Z</time>
      </trkpt>
      <trkpt lat="38.617209903895855" lon="-109.42930947057903">
        <ele>1872.4000244140625</ele>
        <time>2012-05-14T19:59:56Z</time>
      </trkpt>
      <trkpt lat="38.61726094968617" lon="-109.42928776144981">
        <ele>1871.5999755859375</ele>
        <time>2012-05-14T19:59:58Z</time>
      </trkpt>
      <trkpt lat="38.61733035184443" lon="-109.42929597571492">
        <ele>1870.800048828125</ele>
        <time>2012-05-14T20:00:00Z</time>
      </trkpt>
      <trkpt lat="38.617347870022058" lon="-109.4293178524822">
        <ele>1870.4000244140625</ele>
        <time>2012-05-14T20:00:01Z</time>
      </trkpt>
      <trkpt lat="38.617346528917551" lon="-109.42939127795398">
        <ele>1870.199951171875</ele>
        <time>2012-05-14T20:00:03Z</time>
      </trkpt>
      <trkpt lat="38.617329346016049" lon="-109.42960945889354">
        <ele>1869.199951171875</ele>
        <time>2012-05-14T20:00:07Z</time>
      </trkpt>
      <trkpt lat="38.617356084287167" lon="-109.429877595976">
        <ele>1866.4000244140625</ele>
        <time>2012-05-14T20:00:11Z</time>
      </trkpt>
      <trkpt lat="38.61739682033658" lon="-109.43001983687282">
        <ele>1865.5999755859375</ele>
        <time>2012-05-14T20:00:13Z</time>
      </trkpt>
      <trkpt lat="38.617480052635074" lon="-109.43013466894627">
        <ele>1864.4000244140625</ele>
        <time>2012-05-14T20:00:15Z</time>
      </trkpt>
      <trkpt lat="38.617571918293834" lon="-109.43030172027647">
        <ele>1863.800048828125</ele>
        <time>2012-05-14T20:00:18Z</time>
      </trkpt>
      <trkpt lat="38.617606200277805" lon="-109.43044689483941">
        <ele>1863.4000244140625</ele>
        <time>2012-05-14T20:00:20Z</time>
      </trkpt>
      <trkpt lat="38.617657581344247" lon="-109.43065216764808">
        <ele>1863</ele>
        <time>2012-05-14T20:00:23Z</time>
      </trkpt>
      <trkpt lat="38.617682810872793" lon="-109.43081972189248">
        <ele>1863.199951171875</ele>
        <time>2012-05-14T20:00:25Z</time>
      </trkpt>
      <trkpt lat="38.617709716781974" lon="-109.43090312182903">
        <ele>1863.199951171875</ele>
        <time>2012-05-14T20:00:26Z</time>
      </trkpt>
      <trkpt lat="38.617791691794991" lon="-109.43112088367343">
        <ele>1863.199951171875</ele>
        <time>2012-05-14T20:00:29Z</time>
      </trkpt>
      <trkpt lat="38.617901243269444" lon="-109.43148432299495">
        <ele>1863.199951171875</ele>
        <time>2012-05-14T20:00:35Z</time>
      </trkpt>
      <trkpt lat="38.617972154170275" lon="-109.43179101683199">
        <ele>1863.4000244140625</ele>
        <time>2012-05-14T20:00:40Z</time>
      </trkpt>
      <trkpt lat="38.617993779480457" lon="-109.43191716447473">
        <ele>1863.4000244140625</ele>
        <time>2012-05-14T20:00:42Z</time>
      </trkpt>
      <trkpt lat="38.618033342063427" lon="-109.43209460936487">
        <ele>1863.199951171875</ele>
        <time>2012-05-14T20:00:45Z</time>
      </trkpt>
      <trkpt lat="38.618079693987966" lon="-109.43229828961194">
        <ele>1863.199951171875</ele>
        <time>2012-05-14T20:00:48Z</time>
      </trkpt>
      <trkpt lat="38.618159992620349" lon="-109.43258428014815">
        <ele>1863.199951171875</ele>
        <time>2012-05-14T20:00:52Z</time>
      </trkpt>
      <trkpt lat="38.618188742548227" lon="-109.43265317939222">
        <ele>1863</ele>
        <time>2012-05-14T20:00:53Z</time>
      </trkpt>
      <trkpt lat="38.618192514404655" lon="-109.43273020908237">
        <ele>1863.199951171875</ele>
        <time>2012-05-14T20:00:54Z</time>
      </trkpt>
      <trkpt lat="38.618228221312165" lon="-109.4328735396266">
        <ele>1863.199951171875</ele>
        <time>2012-05-14T20:00:56Z</time>
      </trkpt>
      <trkpt lat="38.618253199383616" lon="-109.43293179385364">
        <ele>1863</ele>
        <time>2012-05-14T20:00:57Z</time>
      </trkpt>
      <trkpt lat="38.618310699239373" lon="-109.43311460316181">
        <ele>1863.199951171875</ele>
        <time>2012-05-14T20:01:00Z</time>
      </trkpt>
      <trkpt lat="38.618295360356569" lon="-109.43334057927132">
        <ele>1864</ele>
        <time>2012-05-14T20:01:04Z</time>
      </trkpt>
      <trkpt lat="38.618289576843381" lon="-109.43339774385095">
        <ele>1864.199951171875</ele>
        <time>2012-05-14T20:01:05Z</time>
      </trkpt>
      <trkpt lat="38.618294941261411" lon="-109.43353218957782">
        <ele>1864.5999755859375</ele>
        <time>2012-05-14T20:01:08Z</time>
      </trkpt>
      <trkpt lat="38.618316147476435" lon="-109.43360569886863">
        <ele>1864.5999755859375</ele>
        <time>2012-05-14T20:01:10Z</time>
      </trkpt>
      <trkpt lat="38.618336515501142" lon="-109.43364878185093">
        <ele>1864.5999755859375</ele>
        <time>2012-05-14T20:01:11Z</time>
      </trkpt>
      <trkpt lat="38.618421005085111" lon="-109.43376244045794">
        <ele>1864.199951171875</ele>
        <time>2012-05-14T20:01:14Z</time>
      </trkpt>
      <trkpt lat="38.618447910994291" lon="-109.43379831500351">
        <ele>1864</ele>
        <time>2012-05-14T20:01:15Z</time>
      </trkpt>
      <trkpt lat="38.618602640926838" lon="-109.43401792086661">
        <ele>1863</ele>
        <time>2012-05-14T20:01:20Z</time>
      </trkpt>
      <trkpt lat="38.618804812431335" lon="-109.43433467298746">
        <ele>1860.5999755859375</ele>
        <time>2012-05-14T20:01:25Z</time>
      </trkpt>
      <trkpt lat="38.618871197104454" lon="-109.4344740640372">
        <ele>1859</ele>
        <time>2012-05-14T20:01:27Z</time>
      </trkpt>
      <trkpt lat="38.618932384997606" lon="-109.43461622111499">
        <ele>1857.5999755859375</ele>
        <time>2012-05-14T20:01:29Z</time>
      </trkpt>
      <trkpt lat="38.619002206251025" lon="-109.43474127911031">
        <ele>1856.199951171875</ele>
        <time>2012-05-14T20:01:31Z</time>
      </trkpt>
      <trkpt lat="38.61907278187573" lon="-109.43482568487525">
        <ele>1855.4000244140625</ele>
        <time>2012-05-14T20:01:33Z</time>
      </trkpt>
      <trkpt lat="38.619115361943841" lon="-109.43495946004987">
        <ele>1854.5999755859375</ele>
        <time>2012-05-14T20:01:36Z</time>
      </trkpt>
      <trkpt lat="38.619132293388247" lon="-109.43499650806189">
        <ele>1854.199951171875</ele>
        <time>2012-05-14T20:01:37Z</time>
      </trkpt>
      <trkpt lat="38.619185937568545" lon="-109.43505669012666">
        <ele>1853.800048828125</ele>
        <time>2012-05-14T20:01:39Z</time>
      </trkpt>
      <trkpt lat="38.619268666952848" lon="-109.43505543284118">
        <ele>1853.5999755859375</ele>
        <time>2012-05-14T20:01:41Z</time>
      </trkpt>
      <trkpt lat="38.619474526494741" lon="-109.43507823161781">
        <ele>1853.5999755859375</ele>
        <time>2012-05-14T20:01:45Z</time>
      </trkpt>
      <trkpt lat="38.619528925046325" lon="-109.43509667180479">
        <ele>1853.5999755859375</ele>
        <time>2012-05-14T20:01:46Z</time>
      </trkpt>
      <trkpt lat="38.619644762948155" lon="-109.43527068011463">
        <ele>1852.5999755859375</ele>
        <time>2012-05-14T20:01:49Z</time>
      </trkpt>
      <trkpt lat="38.619683654978871" lon="-109.43532625213265">
        <ele>1852.4000244140625</ele>
        <time>2012-05-14T20:01:50Z</time>
      </trkpt>
      <trkpt lat="38.619732772931457" lon="-109.43532817997038">
        <ele>1852.4000244140625</ele>
        <time>2012-05-14T20:01:51Z</time>
      </trkpt>
      <trkpt lat="38.619821034371853" lon="-109.43534863181412">
        <ele>1852.4000244140625</ele>
        <time>2012-05-14T20:01:53Z</time>
      </trkpt>
      <trkpt lat="38.619946679100394" lon="-109.43549422547221">
        <ele>1851.4000244140625</ele>
        <time>2012-05-14T20:01:56Z</time>
      </trkpt>
      <trkpt lat="38.61999629996717" lon="-109.43553420715034">
        <ele>1851.199951171875</ele>
        <time>2012-05-14T20:01:57Z</time>
      </trkpt>
      <trkpt lat="38.620136277750134" lon="-109.4356829021126">
        <ele>1850.199951171875</ele>
        <time>2012-05-14T20:02:00Z</time>
      </trkpt>
      <trkpt lat="38.620222778990865" lon="-109.43576965481043">
        <ele>1849.4000244140625</ele>
        <time>2012-05-14T20:02:02Z</time>
      </trkpt>
      <trkpt lat="38.620308358222246" lon="-109.43583553656936">
        <ele>1848.800048828125</ele>
        <time>2012-05-14T20:02:04Z</time>
      </trkpt>
      <trkpt lat="38.620397038757801" lon="-109.43586403504014">
        <ele>1848.4000244140625</ele>
        <time>2012-05-14T20:02:06Z</time>
      </trkpt>
      <trkpt lat="38.620439115911722" lon="-109.43589244969189">
        <ele>1848</ele>
        <time>2012-05-14T20:02:07Z</time>
      </trkpt>
      <trkpt lat="38.620472559705377" lon="-109.4359522126615">
        <ele>1847.5999755859375</ele>
        <time>2012-05-14T20:02:08Z</time>
      </trkpt>
      <trkpt lat="38.620596276596189" lon="-109.43609017878771">
        <ele>1846.4000244140625</ele>
        <time>2012-05-14T20:02:11Z</time>
      </trkpt>
      <trkpt lat="38.620665427297354" lon="-109.43612731061876">
        <ele>1846</ele>
        <time>2012-05-14T20:02:13Z</time>
      </trkpt>
      <trkpt lat="38.620777241885662" lon="-109.43625857122242">
        <ele>1844.5999755859375</ele>
        <time>2012-05-14T20:02:16Z</time>
      </trkpt>
      <trkpt lat="38.620817977935076" lon="-109.4363047555089">
        <ele>1844</ele>
        <time>2012-05-14T20:02:17Z</time>
      </trkpt>
      <trkpt lat="38.620922919362783" lon="-109.43640139885247">
        <ele>1842.5999755859375</ele>
        <time>2012-05-14T20:02:20Z</time>
      </trkpt>
      <trkpt lat="38.62099944613874" lon="-109.43642562255263">
        <ele>1842</ele>
        <time>2012-05-14T20:02:22Z</time>
      </trkpt>
      <trkpt lat="38.621163563802838" lon="-109.4364910852164">
        <ele>1840</ele>
        <time>2012-05-14T20:02:26Z</time>
      </trkpt>
      <trkpt lat="38.621216453611851" lon="-109.4365069270134">
        <ele>1839.4000244140625</ele>
        <time>2012-05-14T20:02:27Z</time>
      </trkpt>
      <trkpt lat="38.62132927402854" lon="-109.43657808937132">
        <ele>1838.199951171875</ele>
        <time>2012-05-14T20:02:29Z</time>
      </trkpt>
      <trkpt lat="38.621384678408504" lon="-109.43664363585413">
        <ele>1837.5999755859375</ele>
        <time>2012-05-14T20:02:30Z</time>
      </trkpt>
      <trkpt lat="38.621688354760408" lon="-109.43688612431288">
        <ele>1835.4000244140625</ele>
        <time>2012-05-14T20:02:35Z</time>
      </trkpt>
      <trkpt lat="38.621795224025846" lon="-109.43697622977197">
        <ele>1835</ele>
        <time>2012-05-14T20:02:37Z</time>
      </trkpt>
      <trkpt lat="38.6219288315624" lon="-109.43702559918165">
        <ele>1834.4000244140625</ele>
        <time>2012-05-14T20:02:39Z</time>
      </trkpt>
      <trkpt lat="38.622063025832176" lon="-109.43710187450051">
        <ele>1833.800048828125</ele>
        <time>2012-05-14T20:02:41Z</time>
      </trkpt>
      <trkpt lat="38.62225228920579" lon="-109.43726213648915">
        <ele>1832</ele>
        <time>2012-05-14T20:02:44Z</time>
      </trkpt>
      <trkpt lat="38.6224399600178" lon="-109.43734168075025">
        <ele>1831.199951171875</ele>
        <time>2012-05-14T20:02:47Z</time>
      </trkpt>
      <trkpt lat="38.622483881190419" lon="-109.4373893737793">
        <ele>1831</ele>
        <time>2012-05-14T20:02:48Z</time>
      </trkpt>
      <trkpt lat="38.622654033824801" lon="-109.43751552142203">
        <ele>1830</ele>
        <time>2012-05-14T20:02:51Z</time>
      </trkpt>
      <trkpt lat="38.622775990515947" lon="-109.43757427856326">
        <ele>1829.4000244140625</ele>
        <time>2012-05-14T20:02:53Z</time>
      </trkpt>
      <trkpt lat="38.622843800112605" lon="-109.43759070709348">
        <ele>1829.199951171875</ele>
        <time>2012-05-14T20:02:54Z</time>
      </trkpt>
      <trkpt lat="38.622956536710262" lon="-109.43765088915825">
        <ele>1828.5999755859375</ele>
        <time>2012-05-14T20:02:56Z</time>
      </trkpt>
      <trkpt lat="38.623015629127622" lon="-109.43769338540733">
        <ele>1828.199951171875</ele>
        <time>2012-05-14T20:02:57Z</time>
      </trkpt>
      <trkpt lat="38.623409494757652" lon="-109.43795624189079">
        <ele>1825.4000244140625</ele>
        <time>2012-05-14T20:03:03Z</time>
      </trkpt>
      <trkpt lat="38.623467329889536" lon="-109.43800477311015">
        <ele>1825</ele>
        <time>2012-05-14T20:03:04Z</time>
      </trkpt>
      <trkpt lat="38.623608900234103" lon="-109.43822102621198">
        <ele>1823</ele>
        <time>2012-05-14T20:03:07Z</time>
      </trkpt>
      <trkpt lat="38.623691294342279" lon="-109.43839847110212">
        <ele>1821.4000244140625</ele>
        <time>2012-05-14T20:03:09Z</time>
      </trkpt>
      <trkpt lat="38.62378072924912" lon="-109.43858010694385">
        <ele>1819.800048828125</ele>
        <time>2012-05-14T20:03:11Z</time>
      </trkpt>
      <trkpt lat="38.623978458344936" lon="-109.4390609767288">
        <ele>1817.5999755859375</ele>
        <time>2012-05-14T20:03:16Z</time>
      </trkpt>
      <trkpt lat="38.62423662096262" lon="-109.43961854092777">
        <ele>1815.199951171875</ele>
        <time>2012-05-14T20:03:22Z</time>
      </trkpt>
      <trkpt lat="38.624367881566286" lon="-109.43991651758552">
        <ele>1813.4000244140625</ele>
        <time>2012-05-14T20:03:25Z</time>
      </trkpt>
      <trkpt lat="38.624452790245414" lon="-109.44012547843158">
        <ele>1812.4000244140625</ele>
        <time>2012-05-14T20:03:27Z</time>
      </trkpt>
      <trkpt lat="38.624685388058424" lon="-109.44060869514942">
        <ele>1814</ele>
        <time>2012-05-14T20:03:32Z</time>
      </trkpt>
      <trkpt lat="38.624766860157251" lon="-109.44074909202754">
        <ele>1814</ele>
        <time>2012-05-14T20:03:34Z</time>
      </trkpt>
      <trkpt lat="38.624812960624695" lon="-109.44079225882888">
        <ele>1814</ele>
        <time>2012-05-14T20:03:35Z</time>
      </trkpt>
      <trkpt lat="38.624834585934877" lon="-109.44088445976377">
        <ele>1813.800048828125</ele>
        <time>2012-05-14T20:03:38Z</time>
      </trkpt>
      <trkpt lat="38.624841207638383" lon="-109.44090206176043">
        <ele>1813.800048828125</ele>
        <time>2012-05-14T20:03:39Z</time>
      </trkpt>
      <trkpt lat="38.624880434945226" lon="-109.44097045809031">
        <ele>1813.800048828125</ele>
        <time>2012-05-14T20:03:42Z</time>
      </trkpt>
      <trkpt lat="38.624902395531535" lon="-109.44100222550333">
        <ele>1813.4000244140625</ele>
        <time>2012-05-14T20:03:43Z</time>
      </trkpt>
      <trkpt lat="38.624948160722852" lon="-109.44113574922085">
        <ele>1812</ele>
        <time>2012-05-14T20:03:46Z</time>
      </trkpt>
      <trkpt lat="38.624957883730531" lon="-109.44117673672736">
        <ele>1811.5999755859375</ele>
        <time>2012-05-14T20:03:47Z</time>
      </trkpt>
      <trkpt lat="38.625060645863414" lon="-109.44131889380515">
        <ele>1811.800048828125</ele>
        <time>2012-05-14T20:03:51Z</time>
      </trkpt>
      <trkpt lat="38.625139435753226" lon="-109.44151268340647">
        <ele>1811.4000244140625</ele>
        <time>2012-05-14T20:03:55Z</time>
      </trkpt>
      <trkpt lat="38.62519190646708" lon="-109.44162382744253">
        <ele>1811.4000244140625</ele>
        <time>2012-05-14T20:03:57Z</time>
      </trkpt>
      <trkpt lat="38.625263320282102" lon="-109.44173522293568">
        <ele>1811.5999755859375</ele>
        <time>2012-05-14T20:03:59Z</time>
      </trkpt>
      <trkpt lat="38.625320233404636" lon="-109.44185810163617">
        <ele>1811.800048828125</ele>
        <time>2012-05-14T20:04:01Z</time>
      </trkpt>
      <trkpt lat="38.625371446833014" lon="-109.44199606776237">
        <ele>1812</ele>
        <time>2012-05-14T20:04:03Z</time>
      </trkpt>
      <trkpt lat="38.625410003587604" lon="-109.44210763089359">
        <ele>1812.199951171875</ele>
        <time>2012-05-14T20:04:05Z</time>
      </trkpt>
      <trkpt lat="38.625438334420323" lon="-109.44223889149725">
        <ele>1812.199951171875</ele>
        <time>2012-05-14T20:04:07Z</time>
      </trkpt>
      <trkpt lat="38.625491810962558" lon="-109.44243871606886">
        <ele>1813.199951171875</ele>
        <time>2012-05-14T20:04:10Z</time>
      </trkpt>
      <trkpt lat="38.625488290563226" lon="-109.4425886683166">
        <ele>1813.4000244140625</ele>
        <time>2012-05-14T20:04:12Z</time>
      </trkpt>
      <trkpt lat="38.625486865639687" lon="-109.44280517287552">
        <ele>1812.800048828125</ele>
        <time>2012-05-14T20:04:15Z</time>
      </trkpt>
      <trkpt lat="38.625502958893776" lon="-109.44286074489355">
        <ele>1813</ele>
        <time>2012-05-14T20:04:16Z</time>
      </trkpt>
      <trkpt lat="38.625488290563226" lon="-109.44314832799137">
        <ele>1811.199951171875</ele>
        <time>2012-05-14T20:04:20Z</time>
      </trkpt>
      <trkpt lat="38.625447722151875" lon="-109.44331713952124">
        <ele>1810</ele>
        <time>2012-05-14T20:04:22Z</time>
      </trkpt>
      <trkpt lat="38.625452918931842" lon="-109.44340062327683">
        <ele>1809.5999755859375</ele>
        <time>2012-05-14T20:04:23Z</time>
      </trkpt>
      <trkpt lat="38.62547186203301" lon="-109.44353817030787">
        <ele>1808.4000244140625</ele>
        <time>2012-05-14T20:04:26Z</time>
      </trkpt>
      <trkpt lat="38.625469179823995" lon="-109.44354671984911">
        <ele>1808.4000244140625</ele>
        <time>2012-05-14T20:04:29Z</time>
      </trkpt>
      <trkpt lat="38.62546356394887" lon="-109.44359181448817">
        <ele>1808</ele>
        <time>2012-05-14T20:04:35Z</time>
      </trkpt>
      <trkpt lat="38.625450823456049" lon="-109.44376062601805">
        <ele>1806.4000244140625</ele>
        <time>2012-05-14T20:04:40Z</time>
      </trkpt>
      <trkpt lat="38.625449147075415" lon="-109.44396464154124">
        <ele>1804.800048828125</ele>
        <time>2012-05-14T20:04:45Z</time>
      </trkpt>
      <trkpt lat="38.625450320541859" lon="-109.44396656937897">
        <ele>1804.800048828125</ele>
        <time>2012-05-14T20:04:49Z</time>
      </trkpt>
      <trkpt lat="38.62549633719027" lon="-109.44398735649884">
        <ele>1804.4000244140625</ele>
        <time>2012-05-14T20:07:39Z</time>
      </trkpt>
      <trkpt lat="38.625529110431671" lon="-109.44417393766344">
        <ele>1803.4000244140625</ele>
        <time>2012-05-14T20:07:45Z</time>
      </trkpt>
      <trkpt lat="38.62566682510078" lon="-109.44435875862837">
        <ele>1802</ele>
        <time>2012-05-14T20:07:49Z</time>
      </trkpt>
      <trkpt lat="38.625807724893093" lon="-109.44453360512853">
        <ele>1800.800048828125</ele>
        <time>2012-05-14T20:07:52Z</time>
      </trkpt>
      <trkpt lat="38.625951893627644" lon="-109.44486862979829">
        <ele>1798</ele>
        <time>2012-05-14T20:07:56Z</time>
      </trkpt>
      <trkpt lat="38.626007130369544" lon="-109.4450393691659">
        <ele>1797</ele>
        <time>2012-05-14T20:07:58Z</time>
      </trkpt>
      <trkpt lat="38.626026408746839" lon="-109.44523508660495">
        <ele>1796</ele>
        <time>2012-05-14T20:08:00Z</time>
      </trkpt>
      <trkpt lat="38.625986343249679" lon="-109.44548478350043">
        <ele>1794.4000244140625</ele>
        <time>2012-05-14T20:08:03Z</time>
      </trkpt>
      <trkpt lat="38.625972596928477" lon="-109.44555032998323">
        <ele>1794</ele>
        <time>2012-05-14T20:08:04Z</time>
      </trkpt>
      <trkpt lat="38.625951558351517" lon="-109.44560674019158">
        <ele>1793.4000244140625</ele>
        <time>2012-05-14T20:08:05Z</time>
      </trkpt>
      <trkpt lat="38.625891879200935" lon="-109.44568108767271">
        <ele>1792.4000244140625</ele>
        <time>2012-05-14T20:08:07Z</time>
      </trkpt>
      <trkpt lat="38.625762546434999" lon="-109.44578007794917">
        <ele>1790.4000244140625</ele>
        <time>2012-05-14T20:08:11Z</time>
      </trkpt>
      <trkpt lat="38.625680655241013" lon="-109.44588443264365">
        <ele>1788.5999755859375</ele>
        <time>2012-05-14T20:08:15Z</time>
      </trkpt>
      <trkpt lat="38.625666489824653" lon="-109.44592064246535">
        <ele>1788.199951171875</ele>
        <time>2012-05-14T20:08:16Z</time>
      </trkpt>
      <trkpt lat="38.625546377152205" lon="-109.44607260636985">
        <ele>1786.199951171875</ele>
        <time>2012-05-14T20:08:20Z</time>
      </trkpt>
      <trkpt lat="38.625499773770571" lon="-109.44631526246667">
        <ele>1783.5999755859375</ele>
        <time>2012-05-14T20:08:24Z</time>
      </trkpt>
      <trkpt lat="38.625516453757882" lon="-109.44637779146433">
        <ele>1783.199951171875</ele>
        <time>2012-05-14T20:08:25Z</time>
      </trkpt>
      <trkpt lat="38.625593148171902" lon="-109.44654433988035">
        <ele>1783</ele>
        <time>2012-05-14T20:08:28Z</time>
      </trkpt>
      <trkpt lat="38.625607481226325" lon="-109.44659572094679">
        <ele>1782.5999755859375</ele>
        <time>2012-05-14T20:08:29Z</time>
      </trkpt>
      <trkpt lat="38.625643355771899" lon="-109.44676470011473">
        <ele>1781.5999755859375</ele>
        <time>2012-05-14T20:08:32Z</time>
      </trkpt>
      <trkpt lat="38.625660119578242" lon="-109.44694415666163">
        <ele>1780.4000244140625</ele>
        <time>2012-05-14T20:08:35Z</time>
      </trkpt>
      <trkpt lat="38.625673111528158" lon="-109.44704968482256">
        <ele>1779.800048828125</ele>
        <time>2012-05-14T20:08:37Z</time>
      </trkpt>
      <trkpt lat="38.625781154260039" lon="-109.44722503423691">
        <ele>1779.800048828125</ele>
        <time>2012-05-14T20:08:41Z</time>
      </trkpt>
      <trkpt lat="38.625825410708785" lon="-109.44729200564325">
        <ele>1779.800048828125</ele>
        <time>2012-05-14T20:08:42Z</time>
      </trkpt>
      <trkpt lat="38.625903278589249" lon="-109.44739233702421">
        <ele>1779.800048828125</ele>
        <time>2012-05-14T20:08:44Z</time>
      </trkpt>
      <trkpt lat="38.625933788716793" lon="-109.44754430092871">
        <ele>1779.199951171875</ele>
        <time>2012-05-14T20:08:47Z</time>
      </trkpt>
      <trkpt lat="38.625963544473052" lon="-109.44761789403856">
        <ele>1779</ele>
        <time>2012-05-14T20:08:49Z</time>
      </trkpt>
      <trkpt lat="38.625970501452684" lon="-109.44764924235642">
        <ele>1778.800048828125</ele>
        <time>2012-05-14T20:08:50Z</time>
      </trkpt>
      <trkpt lat="38.62599422223866" lon="-109.44772811606526">
        <ele>1778.199951171875</ele>
        <time>2012-05-14T20:08:52Z</time>
      </trkpt>
      <trkpt lat="38.62609832547605" lon="-109.4479005318135">
        <ele>1777</ele>
        <time>2012-05-14T20:08:56Z</time>
      </trkpt>
      <trkpt lat="38.626128500327468" lon="-109.4480321276933">
        <ele>1775.4000244140625</ele>
        <time>2012-05-14T20:08:58Z</time>
      </trkpt>
      <trkpt lat="38.626163117587566" lon="-109.44817218929529">
        <ele>1773.5999755859375</ele>
        <time>2012-05-14T20:09:00Z</time>
      </trkpt>
      <trkpt lat="38.626312734559178" lon="-109.44838106632233">
        <ele>1770.800048828125</ele>
        <time>2012-05-14T20:09:04Z</time>
      </trkpt>
      <trkpt lat="38.626340394839644" lon="-109.44844569079578">
        <ele>1769.800048828125</ele>
        <time>2012-05-14T20:09:05Z</time>
      </trkpt>
      <trkpt lat="38.626370569691062" lon="-109.44858700968325">
        <ele>1767.5999755859375</ele>
        <time>2012-05-14T20:09:07Z</time>
      </trkpt>
      <trkpt lat="38.626453131437302" lon="-109.44884148426354">
        <ele>1763.800048828125</ele>
        <time>2012-05-14T20:09:10Z</time>
      </trkpt>
      <trkpt lat="38.626491772010922" lon="-109.4489383790642">
        <ele>1762.5999755859375</ele>
        <time>2012-05-14T20:09:11Z</time>
      </trkpt>
      <trkpt lat="38.626809865236282" lon="-109.44957163184881">
        <ele>1756</ele>
        <time>2012-05-14T20:09:18Z</time>
      </trkpt>
      <trkpt lat="38.62693777307868" lon="-109.44985368289053">
        <ele>1754.4000244140625</ele>
        <time>2012-05-14T20:09:21Z</time>
      </trkpt>
      <trkpt lat="38.626967947930098" lon="-109.44995678029954">
        <ele>1754.4000244140625</ele>
        <time>2012-05-14T20:09:22Z</time>
      </trkpt>
      <trkpt lat="38.627033997327089" lon="-109.45037009194493">
        <ele>1755.199951171875</ele>
        <time>2012-05-14T20:09:26Z</time>
      </trkpt>
      <trkpt lat="38.627046654000878" lon="-109.45045852102339">
        <ele>1755</ele>
        <time>2012-05-14T20:09:27Z</time>
      </trkpt>
      <trkpt lat="38.627037014812231" lon="-109.4506171066314">
        <ele>1753.199951171875</ele>
        <time>2012-05-14T20:09:29Z</time>
      </trkpt>
      <trkpt lat="38.627043468877673" lon="-109.45070059038699">
        <ele>1752.4000244140625</ele>
        <time>2012-05-14T20:09:30Z</time>
      </trkpt>
      <trkpt lat="38.62708336673677" lon="-109.45101558230817">
        <ele>1749.800048828125</ele>
        <time>2012-05-14T20:09:34Z</time>
      </trkpt>
      <trkpt lat="38.627075403928757" lon="-109.45109412074089">
        <ele>1749</ele>
        <time>2012-05-14T20:09:35Z</time>
      </trkpt>
      <trkpt lat="38.627061154693365" lon="-109.4512783549726">
        <ele>1747.5999755859375</ele>
        <time>2012-05-14T20:09:37Z</time>
      </trkpt>
      <trkpt lat="38.627018155530095" lon="-109.45144884288311">
        <ele>1746.4000244140625</ele>
        <time>2012-05-14T20:09:39Z</time>
      </trkpt>
      <trkpt lat="38.627012958750129" lon="-109.45154012180865">
        <ele>1746</ele>
        <time>2012-05-14T20:09:40Z</time>
      </trkpt>
      <trkpt lat="38.626979347318411" lon="-109.45171304047108">
        <ele>1745.4000244140625</ele>
        <time>2012-05-14T20:09:42Z</time>
      </trkpt>
      <trkpt lat="38.626982448622584" lon="-109.45180809125304">
        <ele>1745.199951171875</ele>
        <time>2012-05-14T20:09:43Z</time>
      </trkpt>
      <trkpt lat="38.62700030207634" lon="-109.45200590416789">
        <ele>1744.800048828125</ele>
        <time>2012-05-14T20:09:46Z</time>
      </trkpt>
      <trkpt lat="38.62690843641758" lon="-109.45205602794886">
        <ele>1744.4000244140625</ele>
        <time>2012-05-14T20:09:49Z</time>
      </trkpt>
      <trkpt lat="38.626858564093709" lon="-109.45210095494986">
        <ele>1744</ele>
        <time>2012-05-14T20:09:51Z</time>
      </trkpt>
      <trkpt lat="38.626797879114747" lon="-109.45212895050645">
        <ele>1743.5999755859375</ele>
        <time>2012-05-14T20:09:53Z</time>
      </trkpt>
      <trkpt lat="38.626766027882695" lon="-109.45212425664067">
        <ele>1743.5999755859375</ele>
        <time>2012-05-14T20:09:54Z</time>
      </trkpt>
      <trkpt lat="38.626695368438959" lon="-109.45204068906605">
        <ele>1743.5999755859375</ele>
        <time>2012-05-14T20:09:57Z</time>
      </trkpt>
      <trkpt lat="38.626675587147474" lon="-109.45201948285103">
        <ele>1743.4000244140625</ele>
        <time>2012-05-14T20:09:58Z</time>
      </trkpt>
      <trkpt lat="38.626655051484704" lon="-109.45197531022131">
        <ele>1743.199951171875</ele>
        <time>2012-05-14T20:10:02Z</time>
      </trkpt>
      <trkpt lat="38.626655805855989" lon="-109.45194773375988">
        <ele>1743.199951171875</ele>
        <time>2012-05-14T20:10:54Z</time>
      </trkpt>
      <trkpt lat="38.626609956845641" lon="-109.45195368491113">
        <ele>1742.800048828125</ele>
        <time>2012-05-14T20:12:37Z</time>
      </trkpt>
      <trkpt lat="38.626611549407244" lon="-109.45195251144469">
        <ele>1742.800048828125</ele>
        <time>2012-05-14T20:12:44Z</time>
      </trkpt>
      <trkpt lat="38.626620434224606" lon="-109.45196013897657">
        <ele>1743</ele>
        <time>2012-05-14T20:12:50Z</time>
      </trkpt>
      <trkpt lat="38.626629067584872" lon="-109.45194882340729">
        <ele>1743</ele>
        <time>2012-05-14T20:13:08Z</time>
      </trkpt>
      <trkpt lat="38.626645663753152" lon="-109.45194002240896">
        <ele>1743.199951171875</ele>
        <time>2012-05-14T20:16:03Z</time>
      </trkpt>
      <trkpt lat="38.626659912988544" lon="-109.45196282118559">
        <ele>1743.4000244140625</ele>
        <time>2012-05-14T20:17:49Z</time>
      </trkpt>
      <trkpt lat="38.62666460685432" lon="-109.45196659304202">
        <ele>1743.4000244140625</ele>
        <time>2012-05-14T20:18:30Z</time>
      </trkpt>
      <trkpt lat="38.626655219122767" lon="-109.45199232548475">
        <ele>1743.4000244140625</ele>
        <time>2012-05-14T20:18:39Z</time>
      </trkpt>
      <trkpt lat="38.626641053706408" lon="-109.45200104266405">
        <ele>1743.199951171875</ele>
        <time>2012-05-14T20:18:40Z</time>
      </trkpt>
      <trkpt lat="38.626586655154824" lon="-109.45200498215854">
        <ele>1742.800048828125</ele>
        <time>2012-05-14T20:18:43Z</time>
      </trkpt>
      <trkpt lat="38.626484060660005" lon="-109.45193650200963">
        <ele>1741.800048828125</ele>
        <time>2012-05-14T20:18:49Z</time>
      </trkpt>
      <trkpt lat="38.626336790621281" lon="-109.45189090445638">
        <ele>1740.5999755859375</ele>
        <time>2012-05-14T20:18:55Z</time>
      </trkpt>
      <trkpt lat="38.626287002116442" lon="-109.4519157987088">
        <ele>1740.5999755859375</ele>
        <time>2012-05-14T20:18:57Z</time>
      </trkpt>
      <trkpt lat="38.626276943832636" lon="-109.45198427885771">
        <ele>1741.199951171875</ele>
        <time>2012-05-14T20:18:59Z</time>
      </trkpt>
      <trkpt lat="38.62621508538723" lon="-109.45203565992415">
        <ele>1740.4000244140625</ele>
        <time>2012-05-14T20:19:03Z</time>
      </trkpt>
      <trkpt lat="38.626153226941824" lon="-109.45218058302999">
        <ele>1739.4000244140625</ele>
        <time>2012-05-14T20:19:08Z</time>
      </trkpt>
      <trkpt lat="38.626202009618282" lon="-109.45234453305602">
        <ele>1740.800048828125</ele>
        <time>2012-05-14T20:19:12Z</time>
      </trkpt>
      <trkpt lat="38.62622925080359" lon="-109.45239834487438">
        <ele>1741</ele>
        <time>2012-05-14T20:19:16Z</time>
      </trkpt>
      <trkpt lat="38.626245092600584" lon="-109.45241670124233">
        <ele>1741.199951171875</ele>
        <time>2012-05-14T20:19:21Z</time>
      </trkpt>
      <trkpt lat="38.626291193068027" lon="-109.45247973315418">
        <ele>1740.5999755859375</ele>
        <time>2012-05-14T20:19:24Z</time>
      </trkpt>
      <trkpt lat="38.626449778676033" lon="-109.45263806730509">
        <ele>1739.199951171875</ele>
        <time>2012-05-14T20:19:30Z</time>
      </trkpt>
      <trkpt lat="38.626605682075024" lon="-109.45282724685967">
        <ele>1737.5999755859375</ele>
        <time>2012-05-14T20:19:35Z</time>
      </trkpt>
      <trkpt lat="38.626732667908072" lon="-109.45297962985933">
        <ele>1737.4000244140625</ele>
        <time>2012-05-14T20:19:39Z</time>
      </trkpt>
      <trkpt lat="38.626744905486703" lon="-109.45301801897585">
        <ele>1737.199951171875</ele>
        <time>2012-05-14T20:19:40Z</time>
      </trkpt>
      <trkpt lat="38.626736020669341" lon="-109.45326662622392">
        <ele>1735.199951171875</ele>
        <time>2012-05-14T20:19:45Z</time>
      </trkpt>
      <trkpt lat="38.626602748408914" lon="-109.4535097014159">
        <ele>1732.800048828125</ele>
        <time>2012-05-14T20:19:49Z</time>
      </trkpt>
      <trkpt lat="38.626404348760843" lon="-109.45381195284426">
        <ele>1733.4000244140625</ele>
        <time>2012-05-14T20:19:54Z</time>
      </trkpt>
      <trkpt lat="38.626371240243316" lon="-109.4538789242506">
        <ele>1733.4000244140625</ele>
        <time>2012-05-14T20:19:55Z</time>
      </trkpt>
      <trkpt lat="38.626321703195572" lon="-109.45403248071671">
        <ele>1733.5999755859375</ele>
        <time>2012-05-14T20:19:57Z</time>
      </trkpt>
      <trkpt lat="38.626323128119111" lon="-109.45420598611236">
        <ele>1732.5999755859375</ele>
        <time>2012-05-14T20:19:59Z</time>
      </trkpt>
      <trkpt lat="38.626291276887059" lon="-109.45463966578245">
        <ele>1731.199951171875</ele>
        <time>2012-05-14T20:20:04Z</time>
      </trkpt>
      <trkpt lat="38.626199997961521" lon="-109.45491241291165">
        <ele>1732</ele>
        <time>2012-05-14T20:20:08Z</time>
      </trkpt>
      <trkpt lat="38.626175187528133" lon="-109.45498265326023">
        <ele>1731.5999755859375</ele>
        <time>2012-05-14T20:20:09Z</time>
      </trkpt>
      <trkpt lat="38.626144090667367" lon="-109.45530904456973">
        <ele>1729.5999755859375</ele>
        <time>2012-05-14T20:20:13Z</time>
      </trkpt>
      <trkpt lat="38.626125901937485" lon="-109.45538892410696">
        <ele>1729.199951171875</ele>
        <time>2012-05-14T20:20:14Z</time>
      </trkpt>
      <trkpt lat="38.626108216121793" lon="-109.45556737482548">
        <ele>1728.199951171875</ele>
        <time>2012-05-14T20:20:16Z</time>
      </trkpt>
      <trkpt lat="38.626110227778554" lon="-109.45566426962614">
        <ele>1727.5999755859375</ele>
        <time>2012-05-14T20:20:17Z</time>
      </trkpt>
      <trkpt lat="38.626086842268705" lon="-109.45596509613097">
        <ele>1725.800048828125</ele>
        <time>2012-05-14T20:20:20Z</time>
      </trkpt>
      <trkpt lat="38.626063456758857" lon="-109.45607263594866">
        <ele>1725.4000244140625</ele>
        <time>2012-05-14T20:20:21Z</time>
      </trkpt>
      <trkpt lat="38.626026157289743" lon="-109.456173973158">
        <ele>1725</ele>
        <time>2012-05-14T20:20:22Z</time>
      </trkpt>
      <trkpt lat="38.625908056274056" lon="-109.45635125041008">
        <ele>1724.199951171875</ele>
        <time>2012-05-14T20:20:24Z</time>
      </trkpt>
      <trkpt lat="38.625778974965215" lon="-109.45669180713594">
        <ele>1721.4000244140625</ele>
        <time>2012-05-14T20:20:27Z</time>
      </trkpt>
      <trkpt lat="38.625542186200619" lon="-109.4573135767132">
        <ele>1716.4000244140625</ele>
        <time>2012-05-14T20:20:32Z</time>
      </trkpt>
      <trkpt lat="38.625361891463399" lon="-109.45777030661702">
        <ele>1713.4000244140625</ele>
        <time>2012-05-14T20:20:36Z</time>
      </trkpt>
      <trkpt lat="38.625343199819326" lon="-109.45812167599797">
        <ele>1712</ele>
        <time>2012-05-14T20:20:39Z</time>
      </trkpt>
      <trkpt lat="38.625368932262063" lon="-109.45846550166607">
        <ele>1709.800048828125</ele>
        <time>2012-05-14T20:20:42Z</time>
      </trkpt>
      <trkpt lat="38.625362142920494" lon="-109.45857983082533">
        <ele>1710</ele>
        <time>2012-05-14T20:20:43Z</time>
      </trkpt>
      <trkpt lat="38.625342193990946" lon="-109.45890069007874">
        <ele>1710.5999755859375</ele>
        <time>2012-05-14T20:20:46Z</time>
      </trkpt>
      <trkpt lat="38.625388965010643" lon="-109.45919414050877">
        <ele>1710.4000244140625</ele>
        <time>2012-05-14T20:20:49Z</time>
      </trkpt>
      <trkpt lat="38.625418469309807" lon="-109.45928726345301">
        <ele>1710</ele>
        <time>2012-05-14T20:20:50Z</time>
      </trkpt>
      <trkpt lat="38.625445291399956" lon="-109.45937971584499">
        <ele>1708.800048828125</ele>
        <time>2012-05-14T20:20:51Z</time>
      </trkpt>
      <trkpt lat="38.625447135418653" lon="-109.45945607498288">
        <ele>1708.4000244140625</ele>
        <time>2012-05-14T20:20:52Z</time>
      </trkpt>
      <trkpt lat="38.625444956123829" lon="-109.45956361480057">
        <ele>1708.199951171875</ele>
        <time>2012-05-14T20:20:54Z</time>
      </trkpt>
      <trkpt lat="38.625439843162894" lon="-109.45959714241326">
        <ele>1708.199951171875</ele>
        <time>2012-05-14T20:20:55Z</time>
      </trkpt>
      <trkpt lat="38.625452583655715" lon="-109.45973175577819">
        <ele>1707.4000244140625</ele>
        <time>2012-05-14T20:20:58Z</time>
      </trkpt>
      <trkpt lat="38.625481082126498" lon="-109.45984063670039">
        <ele>1706.5999755859375</ele>
        <time>2012-05-14T20:21:00Z</time>
      </trkpt>
      <trkpt lat="38.625540426000953" lon="-109.46007583290339">
        <ele>1705.5999755859375</ele>
        <time>2012-05-14T20:21:04Z</time>
      </trkpt>
      <trkpt lat="38.625604631379247" lon="-109.46049182675779">
        <ele>1704.5999755859375</ele>
        <time>2012-05-14T20:21:11Z</time>
      </trkpt>
      <trkpt lat="38.625641847029328" lon="-109.46075099520385">
        <ele>1703.800048828125</ele>
        <time>2012-05-14T20:21:16Z</time>
      </trkpt>
      <trkpt lat="38.62567026168108" lon="-109.46086490526795">
        <ele>1703.4000244140625</ele>
        <time>2012-05-14T20:21:18Z</time>
      </trkpt>
      <trkpt lat="38.625679733231664" lon="-109.46103782393038">
        <ele>1703</ele>
        <time>2012-05-14T20:21:21Z</time>
      </trkpt>
      <trkpt lat="38.625701107084751" lon="-109.46115558966994">
        <ele>1702.800048828125</ele>
        <time>2012-05-14T20:21:23Z</time>
      </trkpt>
      <trkpt lat="38.625752739608288" lon="-109.46134594269097">
        <ele>1702.199951171875</ele>
        <time>2012-05-14T20:21:26Z</time>
      </trkpt>
      <trkpt lat="38.625784339383245" lon="-109.46165791712701">
        <ele>1701.4000244140625</ele>
        <time>2012-05-14T20:21:30Z</time>
      </trkpt>
      <trkpt lat="38.62580319866538" lon="-109.46182580664754">
        <ele>1701</ele>
        <time>2012-05-14T20:21:32Z</time>
      </trkpt>
      <trkpt lat="38.625802109017968" lon="-109.46218916215003">
        <ele>1700.4000244140625</ele>
        <time>2012-05-14T20:21:36Z</time>
      </trkpt>
      <trkpt lat="38.625708902254701" lon="-109.46271881461143">
        <ele>1700.4000244140625</ele>
        <time>2012-05-14T20:21:42Z</time>
      </trkpt>
      <trkpt lat="38.625675123184919" lon="-109.46286901831627">
        <ele>1699.4000244140625</ele>
        <time>2012-05-14T20:21:44Z</time>
      </trkpt>
      <trkpt lat="38.625639667734504" lon="-109.46302928030491">
        <ele>1698.4000244140625</ele>
        <time>2012-05-14T20:21:46Z</time>
      </trkpt>
      <trkpt lat="38.625488290563226" lon="-109.46321653202176">
        <ele>1696</ele>
        <time>2012-05-14T20:21:49Z</time>
      </trkpt>
      <trkpt lat="38.62538636662066" lon="-109.46340185590088">
        <ele>1694.5999755859375</ele>
        <time>2012-05-14T20:21:52Z</time>
      </trkpt>
      <trkpt lat="38.625242449343204" lon="-109.46366018615663">
        <ele>1694</ele>
        <time>2012-05-14T20:21:56Z</time>
      </trkpt>
      <trkpt lat="38.625183776021004" lon="-109.46381407789886">
        <ele>1693.5999755859375</ele>
        <time>2012-05-14T20:21:58Z</time>
      </trkpt>
      <trkpt lat="38.625141279771924" lon="-109.46388406679034">
        <ele>1693.5999755859375</ele>
        <time>2012-05-14T20:21:59Z</time>
      </trkpt>
      <trkpt lat="38.62510247156024" lon="-109.46395698934793">
        <ele>1693.5999755859375</ele>
        <time>2012-05-14T20:22:00Z</time>
      </trkpt>
      <trkpt lat="38.625092078000307" lon="-109.46404097601771">
        <ele>1693.5999755859375</ele>
        <time>2012-05-14T20:22:01Z</time>
      </trkpt>
      <trkpt lat="38.625121414661407" lon="-109.46420199237764">
        <ele>1693.5999755859375</ele>
        <time>2012-05-14T20:22:03Z</time>
      </trkpt>
      <trkpt lat="38.625128120183945" lon="-109.46433090604842">
        <ele>1693.5999755859375</ele>
        <time>2012-05-14T20:22:05Z</time>
      </trkpt>
      <trkpt lat="38.625097945332527" lon="-109.46438949555159">
        <ele>1693.4000244140625</ele>
        <time>2012-05-14T20:22:07Z</time>
      </trkpt>
      <trkpt lat="38.625068357214332" lon="-109.46442847140133">
        <ele>1693.4000244140625</ele>
        <time>2012-05-14T20:22:09Z</time>
      </trkpt>
      <trkpt lat="38.625036338344216" lon="-109.46449661627412">
        <ele>1693.199951171875</ele>
        <time>2012-05-14T20:22:11Z</time>
      </trkpt>
      <trkpt lat="38.624923015013337" lon="-109.46471630595624">
        <ele>1688.5999755859375</ele>
        <time>2012-05-14T20:22:16Z</time>
      </trkpt>
      <trkpt lat="38.624906921759248" lon="-109.46490079164505">
        <ele>1687.5999755859375</ele>
        <time>2012-05-14T20:22:20Z</time>
      </trkpt>
      <trkpt lat="38.624971797689795" lon="-109.46508578024805">
        <ele>1687.199951171875</ele>
        <time>2012-05-14T20:22:24Z</time>
      </trkpt>
      <trkpt lat="38.625037763267756" lon="-109.46525844745338">
        <ele>1692.5999755859375</ele>
        <time>2012-05-14T20:22:29Z</time>
      </trkpt>
      <trkpt lat="38.625038098543882" lon="-109.4653903786093">
        <ele>1692.800048828125</ele>
        <time>2012-05-14T20:22:34Z</time>
      </trkpt>
      <trkpt lat="38.625053772702813" lon="-109.46551476605237">
        <ele>1693</ele>
        <time>2012-05-14T20:22:39Z</time>
      </trkpt>
      <trkpt lat="38.625065004453063" lon="-109.46552742272615">
        <ele>1693</ele>
        <time>2012-05-14T20:22:43Z</time>
      </trkpt>
      <trkpt lat="38.625043546780944" lon="-109.46560914628208">
        <ele>1693.199951171875</ele>
        <time>2012-05-14T20:22:50Z</time>
      </trkpt>
      <trkpt lat="38.624973306432366" lon="-109.46567947044969">
        <ele>1688.5999755859375</ele>
        <time>2012-05-14T20:22:56Z</time>
      </trkpt>
      <trkpt lat="38.624897617846727" lon="-109.46585808880627">
        <ele>1689.800048828125</ele>
        <time>2012-05-14T20:23:00Z</time>
      </trkpt>
      <trkpt lat="38.624828634783626" lon="-109.46593101136386">
        <ele>1690</ele>
        <time>2012-05-14T20:23:02Z</time>
      </trkpt>
      <trkpt lat="38.624787395820022" lon="-109.46595557034016">
        <ele>1690.199951171875</ele>
        <time>2012-05-14T20:23:03Z</time>
      </trkpt>
      <trkpt lat="38.624542308971286" lon="-109.466045005247">
        <ele>1688.800048828125</ele>
        <time>2012-05-14T20:23:08Z</time>
      </trkpt>
      <trkpt lat="38.624491849914193" lon="-109.46607811376452">
        <ele>1687.5999755859375</ele>
        <time>2012-05-14T20:23:09Z</time>
      </trkpt>
      <trkpt lat="38.624338461086154" lon="-109.46619923226535">
        <ele>1685.199951171875</ele>
        <time>2012-05-14T20:23:12Z</time>
      </trkpt>
      <trkpt lat="38.624287499114871" lon="-109.46625262498856">
        <ele>1685</ele>
        <time>2012-05-14T20:23:13Z</time>
      </trkpt>
      <trkpt lat="38.624132182449102" lon="-109.46645529940724">
        <ele>1681.199951171875</ele>
        <time>2012-05-14T20:23:16Z</time>
      </trkpt>
      <trkpt lat="38.624012740328908" lon="-109.46657231077552">
        <ele>1679</ele>
        <time>2012-05-14T20:23:18Z</time>
      </trkpt>
      <trkpt lat="38.623954067006707" lon="-109.46661329828203">
        <ele>1678.5999755859375</ele>
        <time>2012-05-14T20:23:19Z</time>
      </trkpt>
      <trkpt lat="38.623894220218062" lon="-109.46666694246233">
        <ele>1678.199951171875</ele>
        <time>2012-05-14T20:23:20Z</time>
      </trkpt>
      <trkpt lat="38.623528936877847" lon="-109.46703675203025">
        <ele>1677.199951171875</ele>
        <time>2012-05-14T20:23:26Z</time>
      </trkpt>
      <trkpt lat="38.62323691137135" lon="-109.46723791770637">
        <ele>1677.4000244140625</ele>
        <time>2012-05-14T20:23:30Z</time>
      </trkpt>
      <trkpt lat="38.623158792033792" lon="-109.46728544309735">
        <ele>1677.4000244140625</ele>
        <time>2012-05-14T20:23:31Z</time>
      </trkpt>
      <trkpt lat="38.623086288571358" lon="-109.4673471339047">
        <ele>1677.4000244140625</ele>
        <time>2012-05-14T20:23:32Z</time>
      </trkpt>
      <trkpt lat="38.622854864224792" lon="-109.46751871146262">
        <ele>1677</ele>
        <time>2012-05-14T20:23:35Z</time>
      </trkpt>
      <trkpt lat="38.622715724632144" lon="-109.46765089407563">
        <ele>1676.199951171875</ele>
        <time>2012-05-14T20:23:37Z</time>
      </trkpt>
      <trkpt lat="38.622563509270549" lon="-109.46779380552471">
        <ele>1674.5999755859375</ele>
        <time>2012-05-14T20:23:39Z</time>
      </trkpt>
      <trkpt lat="38.622257402166724" lon="-109.46802590042353">
        <ele>1671.4000244140625</ele>
        <time>2012-05-14T20:23:43Z</time>
      </trkpt>
      <trkpt lat="38.621940901502967" lon="-109.46826696395874">
        <ele>1667.800048828125</ele>
        <time>2012-05-14T20:23:47Z</time>
      </trkpt>
      <trkpt lat="38.621811149641871" lon="-109.46843703277409">
        <ele>1666.199951171875</ele>
        <time>2012-05-14T20:23:49Z</time>
      </trkpt>
      <trkpt lat="38.621659688651562" lon="-109.46865881793201">
        <ele>1664.199951171875</ele>
        <time>2012-05-14T20:23:52Z</time>
      </trkpt>
      <trkpt lat="38.621542006731033" lon="-109.46886903606355">
        <ele>1662</ele>
        <time>2012-05-14T20:23:55Z</time>
      </trkpt>
      <trkpt lat="38.621494062244892" lon="-109.46893843822181">
        <ele>1661.199951171875</ele>
        <time>2012-05-14T20:23:56Z</time>
      </trkpt>
      <trkpt lat="38.621364226564765" lon="-109.46915519423783">
        <ele>1659.4000244140625</ele>
        <time>2012-05-14T20:23:59Z</time>
      </trkpt>
      <trkpt lat="38.62127847969532" lon="-109.46925460360944">
        <ele>1658.5999755859375</ele>
        <time>2012-05-14T20:24:01Z</time>
      </trkpt>
      <trkpt lat="38.621156439185143" lon="-109.46938971988857">
        <ele>1658</ele>
        <time>2012-05-14T20:24:04Z</time>
      </trkpt>
      <trkpt lat="38.621136909350753" lon="-109.46945174597204">
        <ele>1657.5999755859375</ele>
        <time>2012-05-14T20:24:05Z</time>
      </trkpt>
      <trkpt lat="38.62109181471169" lon="-109.46962575428188">
        <ele>1656.800048828125</ele>
        <time>2012-05-14T20:24:08Z</time>
      </trkpt>
      <trkpt lat="38.621070524677634" lon="-109.46975106373429">
        <ele>1656</ele>
        <time>2012-05-14T20:24:10Z</time>
      </trkpt>
      <trkpt lat="38.621133221313357" lon="-109.46997896768153">
        <ele>1653.800048828125</ele>
        <time>2012-05-14T20:24:14Z</time>
      </trkpt>
      <trkpt lat="38.62110547721386" lon="-109.47016202844679">
        <ele>1652.199951171875</ele>
        <time>2012-05-14T20:24:17Z</time>
      </trkpt>
      <trkpt lat="38.621015455573797" lon="-109.47034609504044">
        <ele>1651.4000244140625</ele>
        <time>2012-05-14T20:24:20Z</time>
      </trkpt>
      <trkpt lat="38.620987711474299" lon="-109.47062755934894">
        <ele>1650.199951171875</ele>
        <time>2012-05-14T20:24:24Z</time>
      </trkpt>
      <trkpt lat="38.620974468067288" lon="-109.47079259902239">
        <ele>1649.800048828125</ele>
        <time>2012-05-14T20:24:27Z</time>
      </trkpt>
      <trkpt lat="38.62097647972405" lon="-109.47084607556462">
        <ele>1649.5999755859375</ele>
        <time>2012-05-14T20:24:28Z</time>
      </trkpt>
      <trkpt lat="38.620981760323048" lon="-109.471156289801">
        <ele>1648.4000244140625</ele>
        <time>2012-05-14T20:24:33Z</time>
      </trkpt>
      <trkpt lat="38.620970444753766" lon="-109.47126399725676">
        <ele>1648.5999755859375</ele>
        <time>2012-05-14T20:24:34Z</time>
      </trkpt>
      <trkpt lat="38.62097354605794" lon="-109.47142794728279">
        <ele>1649.5999755859375</ele>
        <time>2012-05-14T20:24:36Z</time>
      </trkpt>
      <trkpt lat="38.620994836091995" lon="-109.47153867222369">
        <ele>1649.800048828125</ele>
        <time>2012-05-14T20:24:38Z</time>
      </trkpt>
      <trkpt lat="38.621020233258605" lon="-109.4717432744801">
        <ele>1650</ele>
        <time>2012-05-14T20:24:42Z</time>
      </trkpt>
      <trkpt lat="38.6210395116359" lon="-109.47178384289145">
        <ele>1650</ele>
        <time>2012-05-14T20:24:43Z</time>
      </trkpt>
      <trkpt lat="38.62114017829299" lon="-109.47205575183034">
        <ele>1648.800048828125</ele>
        <time>2012-05-14T20:24:49Z</time>
      </trkpt>
      <trkpt lat="38.621149398386478" lon="-109.47210679762065">
        <ele>1648.800048828125</ele>
        <time>2012-05-14T20:24:50Z</time>
      </trkpt>
      <trkpt lat="38.621131125837564" lon="-109.47227267548442">
        <ele>1648.5999755859375</ele>
        <time>2012-05-14T20:24:53Z</time>
      </trkpt>
      <trkpt lat="38.621094916015863" lon="-109.47231215424836">
        <ele>1648.5999755859375</ele>
        <time>2012-05-14T20:24:54Z</time>
      </trkpt>
      <trkpt lat="38.621073961257935" lon="-109.47251239791512">
        <ele>1647</ele>
        <time>2012-05-14T20:24:57Z</time>
      </trkpt>
      <trkpt lat="38.621075721457601" lon="-109.47258573956788">
        <ele>1646.199951171875</ele>
        <time>2012-05-14T20:24:58Z</time>
      </trkpt>
      <trkpt lat="38.621033560484648" lon="-109.47293878532946">
        <ele>1643.800048828125</ele>
        <time>2012-05-14T20:25:02Z</time>
      </trkpt>
      <trkpt lat="38.621106734499335" lon="-109.4732232671231">
        <ele>1640.5999755859375</ele>
        <time>2012-05-14T20:25:05Z</time>
      </trkpt>
      <trkpt lat="38.621144620701671" lon="-109.47331169620156">
        <ele>1640</ele>
        <time>2012-05-14T20:25:06Z</time>
      </trkpt>
      <trkpt lat="38.62119440920651" lon="-109.47339040227234">
        <ele>1639.5999755859375</ele>
        <time>2012-05-14T20:25:07Z</time>
      </trkpt>
      <trkpt lat="38.621233887970448" lon="-109.47356290183961">
        <ele>1639.5999755859375</ele>
        <time>2012-05-14T20:25:09Z</time>
      </trkpt>
      <trkpt lat="38.62126431427896" lon="-109.4738276861608">
        <ele>1639.4000244140625</ele>
        <time>2012-05-14T20:25:12Z</time>
      </trkpt>
      <trkpt lat="38.621383672580123" lon="-109.47403413243592">
        <ele>1639.5999755859375</ele>
        <time>2012-05-14T20:25:15Z</time>
      </trkpt>
      <trkpt lat="38.621429689228535" lon="-109.47438826784492">
        <ele>1634.4000244140625</ele>
        <time>2012-05-14T20:25:19Z</time>
      </trkpt>
      <trkpt lat="38.62151057459414" lon="-109.47459069080651">
        <ele>1631.4000244140625</ele>
        <time>2012-05-14T20:25:22Z</time>
      </trkpt>
      <trkpt lat="38.621626496315002" lon="-109.47461902163923">
        <ele>1629.5999755859375</ele>
        <time>2012-05-14T20:25:25Z</time>
      </trkpt>
      <trkpt lat="38.621685085818172" lon="-109.47469831444323">
        <ele>1627.4000244140625</ele>
        <time>2012-05-14T20:25:28Z</time>
      </trkpt>
      <trkpt lat="38.621680727228522" lon="-109.47487827390432">
        <ele>1624.800048828125</ele>
        <time>2012-05-14T20:25:31Z</time>
      </trkpt>
      <trkpt lat="38.621671171858907" lon="-109.47495270520449">
        <ele>1624.199951171875</ele>
        <time>2012-05-14T20:25:32Z</time>
      </trkpt>
      <trkpt lat="38.62165180966258" lon="-109.47502956725657">
        <ele>1623.800048828125</ele>
        <time>2012-05-14T20:25:33Z</time>
      </trkpt>
      <trkpt lat="38.621655832976103" lon="-109.4751834589988">
        <ele>1622.5999755859375</ele>
        <time>2012-05-14T20:25:35Z</time>
      </trkpt>
      <trkpt lat="38.62171140499413" lon="-109.47537825442851">
        <ele>1621.800048828125</ele>
        <time>2012-05-14T20:25:38Z</time>
      </trkpt>
      <trkpt lat="38.621735461056232" lon="-109.47543784976006">
        <ele>1621.800048828125</ele>
        <time>2012-05-14T20:25:39Z</time>
      </trkpt>
      <trkpt lat="38.621766977012157" lon="-109.47556173428893">
        <ele>1622.199951171875</ele>
        <time>2012-05-14T20:25:41Z</time>
      </trkpt>
      <trkpt lat="38.621803941205144" lon="-109.4756911508739">
        <ele>1623</ele>
        <time>2012-05-14T20:25:43Z</time>
      </trkpt>
      <trkpt lat="38.621918438002467" lon="-109.47586608119309">
        <ele>1621</ele>
        <time>2012-05-14T20:25:47Z</time>
      </trkpt>
      <trkpt lat="38.621888095512986" lon="-109.47593280114233">
        <ele>1621.5999755859375</ele>
        <time>2012-05-14T20:25:50Z</time>
      </trkpt>
      <trkpt lat="38.621878875419497" lon="-109.47594931349158">
        <ele>1621.800048828125</ele>
        <time>2012-05-14T20:25:51Z</time>
      </trkpt>
      <trkpt lat="38.621886670589447" lon="-109.47603967040777">
        <ele>1621.4000244140625</ele>
        <time>2012-05-14T20:25:54Z</time>
      </trkpt>
      <trkpt lat="38.621897483244538" lon="-109.4760643132031">
        <ele>1621.199951171875</ele>
        <time>2012-05-14T20:25:55Z</time>
      </trkpt>
      <trkpt lat="38.621946601197124" lon="-109.47626765817404">
        <ele>1620.4000244140625</ele>
        <time>2012-05-14T20:26:01Z</time>
      </trkpt>
      <trkpt lat="38.621975351125002" lon="-109.47641517966986">
        <ele>1620</ele>
        <time>2012-05-14T20:26:06Z</time>
      </trkpt>
      <trkpt lat="38.621997479349375" lon="-109.47660888545215">
        <ele>1619.800048828125</ele>
        <time>2012-05-14T20:26:10Z</time>
      </trkpt>
      <trkpt lat="38.62205439247191" lon="-109.47688330896199">
        <ele>1619.4000244140625</ele>
        <time>2012-05-14T20:26:16Z</time>
      </trkpt>
      <trkpt lat="38.622086578980088" lon="-109.47704776190221">
        <ele>1618.4000244140625</ele>
        <time>2012-05-14T20:26:21Z</time>
      </trkpt>
      <trkpt lat="38.622187413275242" lon="-109.4772900827229">
        <ele>1614.199951171875</ele>
        <time>2012-05-14T20:26:25Z</time>
      </trkpt>
      <trkpt lat="38.622239967808127" lon="-109.47748613543808">
        <ele>1612.199951171875</ele>
        <time>2012-05-14T20:26:28Z</time>
      </trkpt>
      <trkpt lat="38.622269975021482" lon="-109.47762527503073">
        <ele>1611.199951171875</ele>
        <time>2012-05-14T20:26:30Z</time>
      </trkpt>
      <trkpt lat="38.622271567583084" lon="-109.47769325226545">
        <ele>1611.199951171875</ele>
        <time>2012-05-14T20:26:31Z</time>
      </trkpt>
      <trkpt lat="38.622284391894937" lon="-109.47781386785209">
        <ele>1611.199951171875</ele>
        <time>2012-05-14T20:26:34Z</time>
      </trkpt>
      <trkpt lat="38.622306268662214" lon="-109.47791763581336">
        <ele>1611.4000244140625</ele>
        <time>2012-05-14T20:26:38Z</time>
      </trkpt>
      <trkpt lat="38.622315404936671" lon="-109.4779447093606">
        <ele>1611.4000244140625</ele>
        <time>2012-05-14T20:26:39Z</time>
      </trkpt>
      <trkpt lat="38.62239008769393" lon="-109.47811008431017">
        <ele>1611.800048828125</ele>
        <time>2012-05-14T20:26:43Z</time>
      </trkpt>
      <trkpt lat="38.622450018301606" lon="-109.47828551754355">
        <ele>1612</ele>
        <time>2012-05-14T20:26:47Z</time>
      </trkpt>
      <trkpt lat="38.622450018301606" lon="-109.4782779738307">
        <ele>1611.800048828125</ele>
        <time>2012-05-14T20:26:50Z</time>
      </trkpt>
      <trkpt lat="38.622477259486914" lon="-109.47833865880966">
        <ele>1612</ele>
        <time>2012-05-14T20:27:13Z</time>
      </trkpt>
      <trkpt lat="38.622481031343341" lon="-109.47845005430281">
        <ele>1612.199951171875</ele>
        <time>2012-05-14T20:27:19Z</time>
      </trkpt>
      <trkpt lat="38.622510200366378" lon="-109.47859858162701">
        <ele>1612</ele>
        <time>2012-05-14T20:27:23Z</time>
      </trkpt>
      <trkpt lat="38.622542722150683" lon="-109.47862347587943">
        <ele>1611.800048828125</ele>
        <time>2012-05-14T20:27:24Z</time>
      </trkpt>
      <trkpt lat="38.622678592801094" lon="-109.47877527214587">
        <ele>1611.5999755859375</ele>
        <time>2012-05-14T20:27:29Z</time>
      </trkpt>
      <trkpt lat="38.622769117355347" lon="-109.47885615751147">
        <ele>1610.5999755859375</ele>
        <time>2012-05-14T20:27:33Z</time>
      </trkpt>
      <trkpt lat="38.622831897810102" lon="-109.47909386828542">
        <ele>1610.4000244140625</ele>
        <time>2012-05-14T20:27:38Z</time>
      </trkpt>
      <trkpt lat="38.62290708348155" lon="-109.4793848041445">
        <ele>1610.199951171875</ele>
        <time>2012-05-14T20:27:42Z</time>
      </trkpt>
      <trkpt lat="38.622933235019445" lon="-109.4795021507889">
        <ele>1610</ele>
        <time>2012-05-14T20:27:44Z</time>
      </trkpt>
      <trkpt lat="38.622929379343987" lon="-109.47954908944666">
        <ele>1610</ele>
        <time>2012-05-14T20:27:45Z</time>
      </trkpt>
      <trkpt lat="38.622913453727961" lon="-109.4796559587121">
        <ele>1609</ele>
        <time>2012-05-14T20:27:49Z</time>
      </trkpt>
      <trkpt lat="38.622931474819779" lon="-109.47977003641427">
        <ele>1606.800048828125</ele>
        <time>2012-05-14T20:27:54Z</time>
      </trkpt>
      <trkpt lat="38.622945472598076" lon="-109.47984002530575">
        <ele>1605.5999755859375</ele>
        <time>2012-05-14T20:27:58Z</time>
      </trkpt>
      <trkpt lat="38.623026693239808" lon="-109.47985092177987">
        <ele>1605.4000244140625</ele>
        <time>2012-05-14T20:28:01Z</time>
      </trkpt>
      <trkpt lat="38.623052090406418" lon="-109.47986290790141">
        <ele>1605.4000244140625</ele>
        <time>2012-05-14T20:28:02Z</time>
      </trkpt>
      <trkpt lat="38.623189637437463" lon="-109.48000288568437">
        <ele>1604</ele>
        <time>2012-05-14T20:28:06Z</time>
      </trkpt>
      <trkpt lat="38.623282760381699" lon="-109.48017362505198">
        <ele>1601.5999755859375</ele>
        <time>2012-05-14T20:28:09Z</time>
      </trkpt>
      <trkpt lat="38.623310923576355" lon="-109.48017152957618">
        <ele>1601.4000244140625</ele>
        <time>2012-05-14T20:28:10Z</time>
      </trkpt>
      <trkpt lat="38.623394658789039" lon="-109.48021193034947">
        <ele>1600.800048828125</ele>
        <time>2012-05-14T20:28:12Z</time>
      </trkpt>
      <trkpt lat="38.623474622145295" lon="-109.48028803803027">
        <ele>1600.5999755859375</ele>
        <time>2012-05-14T20:28:14Z</time>
      </trkpt>
      <trkpt lat="38.623543689027429" lon="-109.48039004579186">
        <ele>1600.4000244140625</ele>
        <time>2012-05-14T20:28:16Z</time>
      </trkpt>
      <trkpt lat="38.62356623634696" lon="-109.48044922202826">
        <ele>1600.199951171875</ele>
        <time>2012-05-14T20:28:17Z</time>
      </trkpt>
      <trkpt lat="38.623721050098538" lon="-109.48069715872407">
        <ele>1599.199951171875</ele>
        <time>2012-05-14T20:28:22Z</time>
      </trkpt>
      <trkpt lat="38.623761534690857" lon="-109.48074887506664">
        <ele>1599</ele>
        <time>2012-05-14T20:28:23Z</time>
      </trkpt>
      <trkpt lat="38.623824398964643" lon="-109.48086244985461">
        <ele>1598</ele>
        <time>2012-05-14T20:28:25Z</time>
      </trkpt>
      <trkpt lat="38.623891621828079" lon="-109.48098147287965">
        <ele>1597.199951171875</ele>
        <time>2012-05-14T20:28:27Z</time>
      </trkpt>
      <trkpt lat="38.623930849134922" lon="-109.4810392241925">
        <ele>1596.5999755859375</ele>
        <time>2012-05-14T20:28:28Z</time>
      </trkpt>
      <trkpt lat="38.624062445014715" lon="-109.48126302100718">
        <ele>1594.800048828125</ele>
        <time>2012-05-14T20:28:32Z</time>
      </trkpt>
      <trkpt lat="38.62409295514226" lon="-109.48131658136845">
        <ele>1594</ele>
        <time>2012-05-14T20:28:33Z</time>
      </trkpt>
      <trkpt lat="38.624118352308869" lon="-109.48146251030266">
        <ele>1593</ele>
        <time>2012-05-14T20:28:36Z</time>
      </trkpt>
      <trkpt lat="38.624117346480489" lon="-109.48149620555341">
        <ele>1592.800048828125</ele>
        <time>2012-05-14T20:28:37Z</time>
      </trkpt>
      <trkpt lat="38.624134697020054" lon="-109.48162050917745">
        <ele>1591.5999755859375</ele>
        <time>2012-05-14T20:28:40Z</time>
      </trkpt>
      <trkpt lat="38.624155316501856" lon="-109.4816848821938">
        <ele>1591</ele>
        <time>2012-05-14T20:28:41Z</time>
      </trkpt>
      <trkpt lat="38.624265287071466" lon="-109.4819872174412">
        <ele>1588.5999755859375</ele>
        <time>2012-05-14T20:28:45Z</time>
      </trkpt>
      <trkpt lat="38.624292947351933" lon="-109.48206877335906">
        <ele>1588</ele>
        <time>2012-05-14T20:28:46Z</time>
      </trkpt>
      <trkpt lat="38.624301832169294" lon="-109.48215468786657">
        <ele>1587.4000244140625</ele>
        <time>2012-05-14T20:28:47Z</time>
      </trkpt>
      <trkpt lat="38.624270232394338" lon="-109.48229776695371">
        <ele>1586.4000244140625</ele>
        <time>2012-05-14T20:28:49Z</time>
      </trkpt>
      <trkpt lat="38.624255480244756" lon="-109.48252508416772">
        <ele>1584.5999755859375</ele>
        <time>2012-05-14T20:28:53Z</time>
      </trkpt>
      <trkpt lat="38.624335359781981" lon="-109.48258451186121">
        <ele>1584.4000244140625</ele>
        <time>2012-05-14T20:28:56Z</time>
      </trkpt>
      <trkpt lat="38.624397553503513" lon="-109.48278207331896">
        <ele>1584</ele>
        <time>2012-05-14T20:29:00Z</time>
      </trkpt>
      <trkpt lat="38.624442396685481" lon="-109.48295063339174">
        <ele>1584.5999755859375</ele>
        <time>2012-05-14T20:29:03Z</time>
      </trkpt>
      <trkpt lat="38.624494532123208" lon="-109.48299178853631">
        <ele>1585.4000244140625</ele>
        <time>2012-05-14T20:29:06Z</time>
      </trkpt>
      <trkpt lat="38.624487072229385" lon="-109.48298147879541">
        <ele>1585.199951171875</ele>
        <time>2012-05-14T20:29:12Z</time>
      </trkpt>
      <trkpt lat="38.624524036422372" lon="-109.48292439803481">
        <ele>1585.4000244140625</ele>
        <time>2012-05-14T20:29:59Z</time>
      </trkpt>
      <trkpt lat="38.624514397233725" lon="-109.48289975523949">
        <ele>1585.199951171875</ele>
        <time>2012-05-14T20:30:07Z</time>
      </trkpt>
      <trkpt lat="38.624470895156264" lon="-109.48293856345117">
        <ele>1584.800048828125</ele>
        <time>2012-05-14T20:32:51Z</time>
      </trkpt>
      <trkpt lat="38.624480701982975" lon="-109.48296764865518">
        <ele>1585.199951171875</ele>
        <time>2012-05-14T20:32:55Z</time>
      </trkpt>
      <trkpt lat="38.624475505203009" lon="-109.48305892758071">
        <ele>1585.4000244140625</ele>
        <time>2012-05-14T20:33:00Z</time>
      </trkpt>
      <trkpt lat="38.6244379542768" lon="-109.48330711573362">
        <ele>1584.199951171875</ele>
        <time>2012-05-14T20:33:06Z</time>
      </trkpt>
      <trkpt lat="38.624450527131557" lon="-109.48357835412025">
        <ele>1580.800048828125</ele>
        <time>2012-05-14T20:33:12Z</time>
      </trkpt>
      <trkpt lat="38.624482546001673" lon="-109.48375697247684">
        <ele>1576.800048828125</ele>
        <time>2012-05-14T20:33:17Z</time>
      </trkpt>
      <trkpt lat="38.62450635060668" lon="-109.48400884866714">
        <ele>1573.199951171875</ele>
        <time>2012-05-14T20:33:23Z</time>
      </trkpt>
      <trkpt lat="38.624454131349921" lon="-109.48428486473858">
        <ele>1571.199951171875</ele>
        <time>2012-05-14T20:33:28Z</time>
      </trkpt>
      <trkpt lat="38.624371234327555" lon="-109.48443816974759">
        <ele>1570.5999755859375</ele>
        <time>2012-05-14T20:33:32Z</time>
      </trkpt>
      <trkpt lat="38.624322116374969" lon="-109.48450807482004">
        <ele>1570.4000244140625</ele>
        <time>2012-05-14T20:33:36Z</time>
      </trkpt>
      <trkpt lat="38.624323038384318" lon="-109.48449759744108">
        <ele>1570.4000244140625</ele>
        <time>2012-05-14T20:33:42Z</time>
      </trkpt>
      <trkpt lat="38.624231424182653" lon="-109.48454361408949">
        <ele>1569.199951171875</ele>
        <time>2012-05-14T20:33:47Z</time>
      </trkpt>
      <trkpt lat="38.624129164963961" lon="-109.48468694463372">
        <ele>1567.800048828125</ele>
        <time>2012-05-14T20:33:51Z</time>
      </trkpt>
      <trkpt lat="38.623970411717892" lon="-109.48488785885274">
        <ele>1565.5999755859375</ele>
        <time>2012-05-14T20:33:56Z</time>
      </trkpt>
      <trkpt lat="38.623892879113555" lon="-109.48496203869581">
        <ele>1564.5999755859375</ele>
        <time>2012-05-14T20:33:58Z</time>
      </trkpt>
      <trkpt lat="38.623827751725912" lon="-109.48503697291017">
        <ele>1564.199951171875</ele>
        <time>2012-05-14T20:34:00Z</time>
      </trkpt>
      <trkpt lat="38.623761618509889" lon="-109.48511433787644">
        <ele>1563.5999755859375</ele>
        <time>2012-05-14T20:34:02Z</time>
      </trkpt>
      <trkpt lat="38.623727336525917" lon="-109.48513294570148">
        <ele>1563.4000244140625</ele>
        <time>2012-05-14T20:34:03Z</time>
      </trkpt>
      <trkpt lat="38.623629352077842" lon="-109.48512238450348">
        <ele>1562.5999755859375</ele>
        <time>2012-05-14T20:34:05Z</time>
      </trkpt>
      <trkpt lat="38.623321065679193" lon="-109.48506597429514">
        <ele>1559.800048828125</ele>
        <time>2012-05-14T20:34:11Z</time>
      </trkpt>
      <trkpt lat="38.623166671022773" lon="-109.48499673977494">
        <ele>1558.199951171875</ele>
        <time>2012-05-14T20:34:14Z</time>
      </trkpt>
      <trkpt lat="38.623060891404748" lon="-109.48486916720867">
        <ele>1557.199951171875</ele>
        <time>2012-05-14T20:34:18Z</time>
      </trkpt>
      <trkpt lat="38.622946897521615" lon="-109.48485910892487">
        <ele>1556.199951171875</ele>
        <time>2012-05-14T20:34:21Z</time>
      </trkpt>
      <trkpt lat="38.622874058783054" lon="-109.48493395932019">
        <ele>1555.4000244140625</ele>
        <time>2012-05-14T20:34:24Z</time>
      </trkpt>
      <trkpt lat="38.622819995507598" lon="-109.48504007421434">
        <ele>1554.5999755859375</ele>
        <time>2012-05-14T20:34:28Z</time>
      </trkpt>
      <trkpt lat="38.622809601947665" lon="-109.48503923602402">
        <ele>1554.5999755859375</ele>
        <time>2012-05-14T20:34:32Z</time>
      </trkpt>
      <trkpt lat="38.622809099033475" lon="-109.48502892628312">
        <ele>1554.5999755859375</ele>
        <time>2012-05-14T20:34:47Z</time>
      </trkpt>
      <trkpt lat="38.622733913362026" lon="-109.4850627053529">
        <ele>1553.800048828125</ele>
        <time>2012-05-14T20:34:57Z</time>
      </trkpt>
      <trkpt lat="38.622561832889915" lon="-109.48502280749381">
        <ele>1552.199951171875</ele>
        <time>2012-05-14T20:35:02Z</time>
      </trkpt>
      <trkpt lat="38.62249469384551" lon="-109.48487117886543">
        <ele>1551.800048828125</ele>
        <time>2012-05-14T20:35:05Z</time>
      </trkpt>
      <trkpt lat="38.622463596984744" lon="-109.48471955023706">
        <ele>1551.4000244140625</ele>
        <time>2012-05-14T20:35:09Z</time>
      </trkpt>
      <trkpt lat="38.622351111844182" lon="-109.48458326049149">
        <ele>1550.4000244140625</ele>
        <time>2012-05-14T20:35:13Z</time>
      </trkpt>
      <trkpt lat="38.622202835977077" lon="-109.4845914747566">
        <ele>1550</ele>
        <time>2012-05-14T20:35:16Z</time>
      </trkpt>
      <trkpt lat="38.622120525687933" lon="-109.48453171178699">
        <ele>1549.199951171875</ele>
        <time>2012-05-14T20:35:18Z</time>
      </trkpt>
      <trkpt lat="38.622067552059889" lon="-109.48452970013022">
        <ele>1548.800048828125</ele>
        <time>2012-05-14T20:35:19Z</time>
      </trkpt>
      <trkpt lat="38.6219253949821" lon="-109.48453397490084">
        <ele>1547.800048828125</ele>
        <time>2012-05-14T20:35:22Z</time>
      </trkpt>
      <trkpt lat="38.621821794658899" lon="-109.48451595380902">
        <ele>1546.800048828125</ele>
        <time>2012-05-14T20:35:24Z</time>
      </trkpt>
      <trkpt lat="38.621767144650221" lon="-109.48450111784041">
        <ele>1546</ele>
        <time>2012-05-14T20:35:26Z</time>
      </trkpt>
      <trkpt lat="38.621738394722342" lon="-109.48447739705443">
        <ele>1545.5999755859375</ele>
        <time>2012-05-14T20:35:27Z</time>
      </trkpt>
      <trkpt lat="38.621680056676269" lon="-109.48444780893624">
        <ele>1545</ele>
        <time>2012-05-14T20:35:29Z</time>
      </trkpt>
      <trkpt lat="38.621587855741382" lon="-109.48437304235995">
        <ele>1544.199951171875</ele>
        <time>2012-05-14T20:35:32Z</time>
      </trkpt>
      <trkpt lat="38.621541419997811" lon="-109.48438259772956">
        <ele>1543.800048828125</ele>
        <time>2012-05-14T20:35:33Z</time>
      </trkpt>
      <trkpt lat="38.621474197134376" lon="-109.484444539994">
        <ele>1543</ele>
        <time>2012-05-14T20:35:35Z</time>
      </trkpt>
      <trkpt lat="38.621403789147735" lon="-109.48438687250018">
        <ele>1542.800048828125</ele>
        <time>2012-05-14T20:35:38Z</time>
      </trkpt>
      <trkpt lat="38.621375542134047" lon="-109.48436197824776">
        <ele>1542.800048828125</ele>
        <time>2012-05-14T20:35:39Z</time>
      </trkpt>
      <trkpt lat="38.621267834678292" lon="-109.48433641344309">
        <ele>1542</ele>
        <time>2012-05-14T20:35:42Z</time>
      </trkpt>
      <trkpt lat="38.621170436963439" lon="-109.48431956581771">
        <ele>1541.5999755859375</ele>
        <time>2012-05-14T20:35:47Z</time>
      </trkpt>
      <trkpt lat="38.62116071395576" lon="-109.48431730270386">
        <ele>1541.5999755859375</ele>
        <time>2012-05-14T20:35:51Z</time>
      </trkpt>
      <trkpt lat="38.621146799996495" lon="-109.48432476259768">
        <ele>1541.4000244140625</ele>
        <time>2012-05-14T20:35:53Z</time>
      </trkpt>
      <trkpt lat="38.621091730892658" lon="-109.48434848338366">
        <ele>1541</ele>
        <time>2012-05-14T20:35:58Z</time>
      </trkpt>
      <trkpt lat="38.621070105582476" lon="-109.48434672318399">
        <ele>1540.800048828125</ele>
        <time>2012-05-14T20:35:59Z</time>
      </trkpt>
      <trkpt lat="38.62098335288465" lon="-109.48429869487882">
        <ele>1540.4000244140625</ele>
        <time>2012-05-14T20:36:02Z</time>
      </trkpt>
      <trkpt lat="38.620872041210532" lon="-109.48431294411421">
        <ele>1539.199951171875</ele>
        <time>2012-05-14T20:36:05Z</time>
      </trkpt>
      <trkpt lat="38.620634330436587" lon="-109.48436901904643">
        <ele>1535.4000244140625</ele>
        <time>2012-05-14T20:36:10Z</time>
      </trkpt>
      <trkpt lat="38.620411371812224" lon="-109.4843874592334">
        <ele>1530.800048828125</ele>
        <time>2012-05-14T20:36:14Z</time>
      </trkpt>
      <trkpt lat="38.620259072631598" lon="-109.48450245894492">
        <ele>1529.800048828125</ele>
        <time>2012-05-14T20:36:18Z</time>
      </trkpt>
      <trkpt lat="38.62018003128469" lon="-109.48452291078866">
        <ele>1529.199951171875</ele>
        <time>2012-05-14T20:36:20Z</time>
      </trkpt>
      <trkpt lat="38.620147593319416" lon="-109.48453665710986">
        <ele>1529.199951171875</ele>
        <time>2012-05-14T20:36:21Z</time>
      </trkpt>
      <trkpt lat="38.620068803429604" lon="-109.48456280864775">
        <ele>1528</ele>
        <time>2012-05-14T20:36:25Z</time>
      </trkpt>
      <trkpt lat="38.620051201432943" lon="-109.48458066210151">
        <ele>1528</ele>
        <time>2012-05-14T20:36:29Z</time>
      </trkpt>
      <trkpt lat="38.620019936934114" lon="-109.48456959798932">
        <ele>1527.4000244140625</ele>
        <time>2012-05-14T20:36:35Z</time>
      </trkpt>
      <trkpt lat="38.620010297745466" lon="-109.48457571677864">
        <ele>1527.4000244140625</ele>
        <time>2012-05-14T20:36:39Z</time>
      </trkpt>
      <trkpt lat="38.61995623447001" lon="-109.48464017361403">
        <ele>1526.5999755859375</ele>
        <time>2012-05-14T20:36:43Z</time>
      </trkpt>
      <trkpt lat="38.619846096262336" lon="-109.48468082584441">
        <ele>1525.4000244140625</ele>
        <time>2012-05-14T20:36:47Z</time>
      </trkpt>
      <trkpt lat="38.619728246703744" lon="-109.48480655439198">
        <ele>1524.199951171875</ele>
        <time>2012-05-14T20:36:51Z</time>
      </trkpt>
      <trkpt lat="38.619569493457675" lon="-109.4850352127105">
        <ele>1521.4000244140625</ele>
        <time>2012-05-14T20:36:58Z</time>
      </trkpt>
      <trkpt lat="38.619493721053004" lon="-109.48506622575223">
        <ele>1519.800048828125</ele>
        <time>2012-05-14T20:37:02Z</time>
      </trkpt>
      <trkpt lat="38.619442339986563" lon="-109.4852080475539">
        <ele>1517.800048828125</ele>
        <time>2012-05-14T20:37:06Z</time>
      </trkpt>
      <trkpt lat="38.619365226477385" lon="-109.48525222018361">
        <ele>1516.199951171875</ele>
        <time>2012-05-14T20:37:08Z</time>
      </trkpt>
      <trkpt lat="38.619301272556186" lon="-109.48527711443603">
        <ele>1515</ele>
        <time>2012-05-14T20:37:10Z</time>
      </trkpt>
      <trkpt lat="38.619270510971546" lon="-109.48527610860765">
        <ele>1514.5999755859375</ele>
        <time>2012-05-14T20:37:13Z</time>
      </trkpt>
      <trkpt lat="38.619229272007942" lon="-109.48525859043002">
        <ele>1514.4000244140625</ele>
        <time>2012-05-14T20:37:38Z</time>
      </trkpt>
      <trkpt lat="38.619127683341503" lon="-109.48517628014088">
        <ele>1514.800048828125</ele>
        <time>2012-05-14T20:37:43Z</time>
      </trkpt>
      <trkpt lat="38.618977395817637" lon="-109.48500386439264">
        <ele>1513.4000244140625</ele>
        <time>2012-05-14T20:37:50Z</time>
      </trkpt>
      <trkpt lat="38.618768937885761" lon="-109.48500202037394">
        <ele>1511.5999755859375</ele>
        <time>2012-05-14T20:37:55Z</time>
      </trkpt>
      <trkpt lat="38.618662068620324" lon="-109.48506915941834">
        <ele>1511</ele>
        <time>2012-05-14T20:37:57Z</time>
      </trkpt>
      <trkpt lat="38.618630636483431" lon="-109.48512515053153">
        <ele>1510.800048828125</ele>
        <time>2012-05-14T20:37:58Z</time>
      </trkpt>
      <trkpt lat="38.618591912090778" lon="-109.48526479303837">
        <ele>1509.800048828125</ele>
        <time>2012-05-14T20:38:01Z</time>
      </trkpt>
      <trkpt lat="38.618594091385603" lon="-109.48532044887543">
        <ele>1509.5999755859375</ele>
        <time>2012-05-14T20:38:02Z</time>
      </trkpt>
      <trkpt lat="38.61863792873919" lon="-109.48541172780097">
        <ele>1509</ele>
        <time>2012-05-14T20:38:04Z</time>
      </trkpt>
      <trkpt lat="38.618694758042693" lon="-109.48547031730413">
        <ele>1509.199951171875</ele>
        <time>2012-05-14T20:38:06Z</time>
      </trkpt>
      <trkpt lat="38.618718897923827" lon="-109.48548758402467">
        <ele>1509</ele>
        <time>2012-05-14T20:38:07Z</time>
      </trkpt>
      <trkpt lat="38.618740439414978" lon="-109.48549546301365">
        <ele>1509</ele>
        <time>2012-05-14T20:38:08Z</time>
      </trkpt>
      <trkpt lat="38.618852673098445" lon="-109.48556100949645">
        <ele>1509</ele>
        <time>2012-05-14T20:38:14Z</time>
      </trkpt>
      <trkpt lat="38.618894750252366" lon="-109.48558900505304">
        <ele>1508.800048828125</ele>
        <time>2012-05-14T20:38:16Z</time>
      </trkpt>
      <trkpt lat="38.618970438838005" lon="-109.48564114049077">
        <ele>1508.199951171875</ele>
        <time>2012-05-14T20:38:20Z</time>
      </trkpt>
      <trkpt lat="38.619040595367551" lon="-109.48577147908509">
        <ele>1508.5999755859375</ele>
        <time>2012-05-14T20:38:26Z</time>
      </trkpt>
      <trkpt lat="38.619123073294759" lon="-109.48591983877122">
        <ele>1509.5999755859375</ele>
        <time>2012-05-14T20:38:33Z</time>
      </trkpt>
      <trkpt lat="38.619193565100431" lon="-109.48610180988908">
        <ele>1511.4000244140625</ele>
        <time>2012-05-14T20:38:41Z</time>
      </trkpt>
      <trkpt lat="38.619221225380898" lon="-109.48614028282464">
        <ele>1511.5999755859375</ele>
        <time>2012-05-14T20:38:43Z</time>
      </trkpt>
      <trkpt lat="38.619260955601931" lon="-109.48620029725134">
        <ele>1512</ele>
        <time>2012-05-14T20:38:46Z</time>
      </trkpt>
      <trkpt lat="38.619274869561195" lon="-109.48624522425234">
        <ele>1512.5999755859375</ele>
        <time>2012-05-14T20:38:48Z</time>
      </trkpt>
      <trkpt lat="38.619261039420962" lon="-109.48630196973681">
        <ele>1513</ele>
        <time>2012-05-14T20:38:51Z</time>
      </trkpt>
      <trkpt lat="38.619247041642666" lon="-109.48639475740492">
        <ele>1513.199951171875</ele>
        <time>2012-05-14T20:38:55Z</time>
      </trkpt>
      <trkpt lat="38.619237737730145" lon="-109.48646281845868">
        <ele>1513.4000244140625</ele>
        <time>2012-05-14T20:38:57Z</time>
      </trkpt>
      <trkpt lat="38.6191969178617" lon="-109.48667001910508">
        <ele>1511.5999755859375</ele>
        <time>2012-05-14T20:39:01Z</time>
      </trkpt>
      <trkpt lat="38.619100358337164" lon="-109.48684905655682">
        <ele>1510.800048828125</ele>
        <time>2012-05-14T20:39:04Z</time>
      </trkpt>
      <trkpt lat="38.619074374437332" lon="-109.48692390695214">
        <ele>1510.800048828125</ele>
        <time>2012-05-14T20:39:05Z</time>
      </trkpt>
      <trkpt lat="38.619078397750854" lon="-109.48708693496883">
        <ele>1509.800048828125</ele>
        <time>2012-05-14T20:39:07Z</time>
      </trkpt>
      <trkpt lat="38.619123492389917" lon="-109.48729530908167">
        <ele>1508.800048828125</ele>
        <time>2012-05-14T20:39:10Z</time>
      </trkpt>
      <trkpt lat="38.619159450754523" lon="-109.48735540732741">
        <ele>1507.5999755859375</ele>
        <time>2012-05-14T20:39:11Z</time>
      </trkpt>
      <trkpt lat="38.61928534694016" lon="-109.48752773925662">
        <ele>1504.4000244140625</ele>
        <time>2012-05-14T20:39:14Z</time>
      </trkpt>
      <trkpt lat="38.619337482377887" lon="-109.4875926990062">
        <ele>1503.4000244140625</ele>
        <time>2012-05-14T20:39:15Z</time>
      </trkpt>
      <trkpt lat="38.619453152641654" lon="-109.48771214112639">
        <ele>1501.5999755859375</ele>
        <time>2012-05-14T20:39:17Z</time>
      </trkpt>
      <trkpt lat="38.619516184553504" lon="-109.48777819052339">
        <ele>1500.4000244140625</ele>
        <time>2012-05-14T20:39:18Z</time>
      </trkpt>
      <trkpt lat="38.619665885344148" lon="-109.48798924684525">
        <ele>1500.199951171875</ele>
        <time>2012-05-14T20:39:21Z</time>
      </trkpt>
      <trkpt lat="38.619821788743138" lon="-109.48817909695208">
        <ele>1503.5999755859375</ele>
        <time>2012-05-14T20:39:25Z</time>
      </trkpt>
      <trkpt lat="38.619940895587206" lon="-109.48826073668897">
        <ele>1503.800048828125</ele>
        <time>2012-05-14T20:39:28Z</time>
      </trkpt>
      <trkpt lat="38.620007028803229" lon="-109.48830055072904">
        <ele>1503.800048828125</ele>
        <time>2012-05-14T20:39:30Z</time>
      </trkpt>
      <trkpt lat="38.620059918612242" lon="-109.48834313079715">
        <ele>1504.199951171875</ele>
        <time>2012-05-14T20:39:32Z</time>
      </trkpt>
      <trkpt lat="38.620080035179853" lon="-109.48841915465891">
        <ele>1506.199951171875</ele>
        <time>2012-05-14T20:39:35Z</time>
      </trkpt>
      <trkpt lat="38.62005447037518" lon="-109.48848755098879">
        <ele>1508</ele>
        <time>2012-05-14T20:39:38Z</time>
      </trkpt>
      <trkpt lat="38.620034689083695" lon="-109.48853432200849">
        <ele>1508</ele>
        <time>2012-05-14T20:39:40Z</time>
      </trkpt>
      <trkpt lat="38.619970651343465" lon="-109.48862828314304">
        <ele>1508.4000244140625</ele>
        <time>2012-05-14T20:39:46Z</time>
      </trkpt>
      <trkpt lat="38.61992203630507" lon="-109.48865963146091">
        <ele>1509</ele>
        <time>2012-05-14T20:39:52Z</time>
      </trkpt>
      <trkpt lat="38.619890604168177" lon="-109.48869181796908">
        <ele>1509.199951171875</ele>
        <time>2012-05-14T20:39:58Z</time>
      </trkpt>
      <trkpt lat="38.619819693267345" lon="-109.48873347602785">
        <ele>1510.199951171875</ele>
        <time>2012-05-14T20:40:07Z</time>
      </trkpt>
      <trkpt lat="38.619757499545813" lon="-109.48875853791833">
        <ele>1511</ele>
        <time>2012-05-14T20:40:15Z</time>
      </trkpt>
      <trkpt lat="38.61968114040792" lon="-109.48877974413335">
        <ele>1512.199951171875</ele>
        <time>2012-05-14T20:40:24Z</time>
      </trkpt>
      <trkpt lat="38.619620874524117" lon="-109.48879885487258">
        <ele>1513</ele>
        <time>2012-05-14T20:40:31Z</time>
      </trkpt>
      <trkpt lat="38.619559602811933" lon="-109.48884260840714">
        <ele>1513.5999755859375</ele>
        <time>2012-05-14T20:40:38Z</time>
      </trkpt>
      <trkpt lat="38.619521716609597" lon="-109.48888560757041">
        <ele>1513.4000244140625</ele>
        <time>2012-05-14T20:40:46Z</time>
      </trkpt>
      <trkpt lat="38.619510987773538" lon="-109.48889541439712">
        <ele>1513.4000244140625</ele>
        <time>2012-05-14T20:41:10Z</time>
      </trkpt>
      <trkpt lat="38.619516100734472" lon="-109.4888911396265">
        <ele>1513.4000244140625</ele>
        <time>2012-05-14T20:41:17Z</time>
      </trkpt>
      <trkpt lat="38.619482405483723" lon="-109.48894964531064">
        <ele>1513.4000244140625</ele>
        <time>2012-05-14T20:42:06Z</time>
      </trkpt>
      <trkpt lat="38.61946958117187" lon="-109.48906573466957">
        <ele>1512.5999755859375</ele>
        <time>2012-05-14T20:42:10Z</time>
      </trkpt>
      <trkpt lat="38.61946371383965" lon="-109.48926363140345">
        <ele>1510.5999755859375</ele>
        <time>2012-05-14T20:42:15Z</time>
      </trkpt>
      <trkpt lat="38.619355587288737" lon="-109.48947359807789">
        <ele>1510.800048828125</ele>
        <time>2012-05-14T20:42:20Z</time>
      </trkpt>
      <trkpt lat="38.619327675551176" lon="-109.48954375460744">
        <ele>1510.800048828125</ele>
        <time>2012-05-14T20:42:22Z</time>
      </trkpt>
      <trkpt lat="38.619321556761861" lon="-109.48958826251328">
        <ele>1510.4000244140625</ele>
        <time>2012-05-14T20:42:23Z</time>
      </trkpt>
      <trkpt lat="38.619264392182231" lon="-109.48977584950626">
        <ele>1511.199951171875</ele>
        <time>2012-05-14T20:42:27Z</time>
      </trkpt>
      <trkpt lat="38.61926338635385" lon="-109.48996502906084">
        <ele>1511.199951171875</ele>
        <time>2012-05-14T20:42:32Z</time>
      </trkpt>
      <trkpt lat="38.61920177936554" lon="-109.490089667961">
        <ele>1512.199951171875</ele>
        <time>2012-05-14T20:42:36Z</time>
      </trkpt>
      <trkpt lat="38.61913388594985" lon="-109.49029569514096">
        <ele>1512.5999755859375</ele>
        <time>2012-05-14T20:42:41Z</time>
      </trkpt>
      <trkpt lat="38.619077643379569" lon="-109.49063390493393">
        <ele>1509.800048828125</ele>
        <time>2012-05-14T20:42:46Z</time>
      </trkpt>
      <trkpt lat="38.619065321981907" lon="-109.49070950970054">
        <ele>1509</ele>
        <time>2012-05-14T20:42:47Z</time>
      </trkpt>
      <trkpt lat="38.619001619517803" lon="-109.49102031067014">
        <ele>1506.4000244140625</ele>
        <time>2012-05-14T20:42:51Z</time>
      </trkpt>
      <trkpt lat="38.618995081633329" lon="-109.49117705225945">
        <ele>1505.4000244140625</ele>
        <time>2012-05-14T20:42:53Z</time>
      </trkpt>
      <trkpt lat="38.618961134925485" lon="-109.49131610803306">
        <ele>1504.800048828125</ele>
        <time>2012-05-14T20:42:55Z</time>
      </trkpt>
      <trkpt lat="38.618931630626321" lon="-109.49141719378531">
        <ele>1504.800048828125</ele>
        <time>2012-05-14T20:42:57Z</time>
      </trkpt>
      <trkpt lat="38.618908496573567" lon="-109.49154367670417">
        <ele>1504.4000244140625</ele>
        <time>2012-05-14T20:42:59Z</time>
      </trkpt>
      <trkpt lat="38.618940096348524" lon="-109.49175305664539">
        <ele>1503.4000244140625</ele>
        <time>2012-05-14T20:43:02Z</time>
      </trkpt>
      <trkpt lat="38.618947137147188" lon="-109.49182354845107">
        <ele>1503.199951171875</ele>
        <time>2012-05-14T20:43:03Z</time>
      </trkpt>
      <trkpt lat="38.618958368897438" lon="-109.49195615015924">
        <ele>1503.5999755859375</ele>
        <time>2012-05-14T20:43:05Z</time>
      </trkpt>
      <trkpt lat="38.619000865146518" lon="-109.49210752733052">
        <ele>1503.4000244140625</ele>
        <time>2012-05-14T20:43:08Z</time>
      </trkpt>
      <trkpt lat="38.61903615295887" lon="-109.49220048263669">
        <ele>1503.4000244140625</ele>
        <time>2012-05-14T20:43:10Z</time>
      </trkpt>
      <trkpt lat="38.619124749675393" lon="-109.49234280735254">
        <ele>1502.5999755859375</ele>
        <time>2012-05-14T20:43:13Z</time>
      </trkpt>
      <trkpt lat="38.619152493774891" lon="-109.49240391142666">
        <ele>1502.4000244140625</ele>
        <time>2012-05-14T20:43:14Z</time>
      </trkpt>
      <trkpt lat="38.619206305593252" lon="-109.4925261195749">
        <ele>1502.199951171875</ele>
        <time>2012-05-14T20:43:16Z</time>
      </trkpt>
      <trkpt lat="38.619240922853351" lon="-109.49257867410779">
        <ele>1502</ele>
        <time>2012-05-14T20:43:17Z</time>
      </trkpt>
      <trkpt lat="38.619353575631976" lon="-109.49288628995419">
        <ele>1500.5999755859375</ele>
        <time>2012-05-14T20:43:22Z</time>
      </trkpt>
      <trkpt lat="38.619393389672041" lon="-109.49303976260126">
        <ele>1500</ele>
        <time>2012-05-14T20:43:24Z</time>
      </trkpt>
      <trkpt lat="38.619408728554845" lon="-109.49312073178589">
        <ele>1499.800048828125</ele>
        <time>2012-05-14T20:43:25Z</time>
      </trkpt>
      <trkpt lat="38.619433622807264" lon="-109.4931997731328">
        <ele>1499.4000244140625</ele>
        <time>2012-05-14T20:43:26Z</time>
      </trkpt>
      <trkpt lat="38.619484836235642" lon="-109.49335567653179">
        <ele>1498.5999755859375</ele>
        <time>2012-05-14T20:43:28Z</time>
      </trkpt>
      <trkpt lat="38.619545437395573" lon="-109.49352557770908">
        <ele>1497.5999755859375</ele>
        <time>2012-05-14T20:43:30Z</time>
      </trkpt>
      <trkpt lat="38.619729252532125" lon="-109.49391718022525">
        <ele>1494.5999755859375</ele>
        <time>2012-05-14T20:43:35Z</time>
      </trkpt>
      <trkpt lat="38.619787925854325" lon="-109.49408096261322">
        <ele>1493.5999755859375</ele>
        <time>2012-05-14T20:43:37Z</time>
      </trkpt>
      <trkpt lat="38.619813155382872" lon="-109.49426972307265">
        <ele>1493.5999755859375</ele>
        <time>2012-05-14T20:43:39Z</time>
      </trkpt>
      <trkpt lat="38.619835618883371" lon="-109.49435966089368">
        <ele>1493.199951171875</ele>
        <time>2012-05-14T20:43:40Z</time>
      </trkpt>
      <trkpt lat="38.619896890595555" lon="-109.49462997727096">
        <ele>1491.800048828125</ele>
        <time>2012-05-14T20:43:43Z</time>
      </trkpt>
      <trkpt lat="38.61993620172143" lon="-109.49481764808297">
        <ele>1491.199951171875</ele>
        <time>2012-05-14T20:43:45Z</time>
      </trkpt>
      <trkpt lat="38.619974255561829" lon="-109.49502241797745">
        <ele>1491</ele>
        <time>2012-05-14T20:43:48Z</time>
      </trkpt>
      <trkpt lat="38.620074419304729" lon="-109.49521897360682">
        <ele>1487.800048828125</ele>
        <time>2012-05-14T20:43:51Z</time>
      </trkpt>
      <trkpt lat="38.620170978829265" lon="-109.49552122503519">
        <ele>1487.199951171875</ele>
        <time>2012-05-14T20:43:55Z</time>
      </trkpt>
      <trkpt lat="38.620288241654634" lon="-109.49566095136106">
        <ele>1485</ele>
        <time>2012-05-14T20:43:58Z</time>
      </trkpt>
      <trkpt lat="38.620319422334433" lon="-109.49567645788193">
        <ele>1483.800048828125</ele>
        <time>2012-05-14T20:43:59Z</time>
      </trkpt>
      <trkpt lat="38.620413634926081" lon="-109.49575466103852">
        <ele>1481</ele>
        <time>2012-05-14T20:44:02Z</time>
      </trkpt>
      <trkpt lat="38.620463004335761" lon="-109.4958249013871">
        <ele>1481</ele>
        <time>2012-05-14T20:44:04Z</time>
      </trkpt>
      <trkpt lat="38.620493765920401" lon="-109.49585507623851">
        <ele>1480.800048828125</ele>
        <time>2012-05-14T20:44:05Z</time>
      </trkpt>
      <trkpt lat="38.620555875822902" lon="-109.49590251781046">
        <ele>1480.199951171875</ele>
        <time>2012-05-14T20:44:07Z</time>
      </trkpt>
      <trkpt lat="38.620629971846938" lon="-109.49603889137506">
        <ele>1481.4000244140625</ele>
        <time>2012-05-14T20:44:11Z</time>
      </trkpt>
      <trkpt lat="38.620700966566801" lon="-109.49614785611629">
        <ele>1481.800048828125</ele>
        <time>2012-05-14T20:44:14Z</time>
      </trkpt>
      <trkpt lat="38.620727956295013" lon="-109.49618213810027">
        <ele>1481.5999755859375</ele>
        <time>2012-05-14T20:44:15Z</time>
      </trkpt>
      <trkpt lat="38.620822001248598" lon="-109.49639109894633">
        <ele>1482.199951171875</ele>
        <time>2012-05-14T20:44:20Z</time>
      </trkpt>
      <trkpt lat="38.620923170819879" lon="-109.49668915942311">
        <ele>1483.5999755859375</ele>
        <time>2012-05-14T20:44:27Z</time>
      </trkpt>
      <trkpt lat="38.620982933789492" lon="-109.49693793430924">
        <ele>1485.199951171875</ele>
        <time>2012-05-14T20:44:31Z</time>
      </trkpt>
      <trkpt lat="38.621072536334395" lon="-109.49708327651024">
        <ele>1482.4000244140625</ele>
        <time>2012-05-14T20:44:34Z</time>
      </trkpt>
      <trkpt lat="38.621093323454261" lon="-109.4971267785877">
        <ele>1481.800048828125</ele>
        <time>2012-05-14T20:44:35Z</time>
      </trkpt>
      <trkpt lat="38.621157193556428" lon="-109.49727195315063">
        <ele>1480.4000244140625</ele>
        <time>2012-05-14T20:44:38Z</time>
      </trkpt>
      <trkpt lat="38.621285017579794" lon="-109.49762189760804">
        <ele>1477.4000244140625</ele>
        <time>2012-05-14T20:44:44Z</time>
      </trkpt>
      <trkpt lat="38.621332626789808" lon="-109.49788358062506">
        <ele>1476.5999755859375</ele>
        <time>2012-05-14T20:44:48Z</time>
      </trkpt>
      <trkpt lat="38.621340338140726" lon="-109.49794627726078">
        <ele>1476.4000244140625</ele>
        <time>2012-05-14T20:44:49Z</time>
      </trkpt>
      <trkpt lat="38.621361460536718" lon="-109.49815289117396">
        <ele>1475.4000244140625</ele>
        <time>2012-05-14T20:44:52Z</time>
      </trkpt>
      <trkpt lat="38.621371183544397" lon="-109.49822874739766">
        <ele>1474.5999755859375</ele>
        <time>2012-05-14T20:44:53Z</time>
      </trkpt>
      <trkpt lat="38.621369088068604" lon="-109.4982959702611">
        <ele>1474</ele>
        <time>2012-05-14T20:44:54Z</time>
      </trkpt>
      <trkpt lat="38.621357018128037" lon="-109.49846712872386">
        <ele>1473.199951171875</ele>
        <time>2012-05-14T20:44:57Z</time>
      </trkpt>
      <trkpt lat="38.621319970116019" lon="-109.49856989085674">
        <ele>1474.4000244140625</ele>
        <time>2012-05-14T20:44:59Z</time>
      </trkpt>
      <trkpt lat="38.621301362290978" lon="-109.49863376095891">
        <ele>1474.800048828125</ele>
        <time>2012-05-14T20:45:00Z</time>
      </trkpt>
      <trkpt lat="38.621287951245904" lon="-109.49870131909847">
        <ele>1474.800048828125</ele>
        <time>2012-05-14T20:45:01Z</time>
      </trkpt>
      <trkpt lat="38.621288202702999" lon="-109.49890600517392">
        <ele>1472</ele>
        <time>2012-05-14T20:45:04Z</time>
      </trkpt>
      <trkpt lat="38.621292477473617" lon="-109.49903852306306">
        <ele>1470</ele>
        <time>2012-05-14T20:45:06Z</time>
      </trkpt>
      <trkpt lat="38.621305134147406" lon="-109.49918990023434">
        <ele>1467.199951171875</ele>
        <time>2012-05-14T20:45:08Z</time>
      </trkpt>
      <trkpt lat="38.621318712830544" lon="-109.49941084720194">
        <ele>1464.199951171875</ele>
        <time>2012-05-14T20:45:11Z</time>
      </trkpt>
      <trkpt lat="38.621296165511012" lon="-109.49955350719392">
        <ele>1464.800048828125</ele>
        <time>2012-05-14T20:45:13Z</time>
      </trkpt>
      <trkpt lat="38.621282083913684" lon="-109.49965526349843">
        <ele>1465</ele>
        <time>2012-05-14T20:45:16Z</time>
      </trkpt>
      <trkpt lat="38.621275462210178" lon="-109.49965576641262">
        <ele>1465.5999755859375</ele>
        <time>2012-05-14T20:45:17Z</time>
      </trkpt>
      <trkpt lat="38.62128920853138" lon="-109.49966406449676">
        <ele>1464.4000244140625</ele>
        <time>2012-05-14T20:45:19Z</time>
      </trkpt>
      <trkpt lat="38.621297255158424" lon="-109.49965987354517">
        <ele>1464</ele>
        <time>2012-05-14T20:45:20Z</time>
      </trkpt>
      <trkpt lat="38.621313348412514" lon="-109.49965844862163">
        <ele>1462.800048828125</ele>
        <time>2012-05-14T20:45:26Z</time>
      </trkpt>
      <trkpt lat="38.621288789436221" lon="-109.49963388964534">
        <ele>1464.800048828125</ele>
        <time>2012-05-14T20:45:42Z</time>
      </trkpt>
      <trkpt lat="38.621280826628208" lon="-109.49962768703699">
        <ele>1465.4000244140625</ele>
        <time>2012-05-14T20:45:45Z</time>
      </trkpt>
      <trkpt lat="38.621247885748744" lon="-109.49968937784433">
        <ele>1467.4000244140625</ele>
        <time>2012-05-14T20:45:58Z</time>
      </trkpt>
      <trkpt lat="38.621247047558427" lon="-109.49973028153181">
        <ele>1467.199951171875</ele>
        <time>2012-05-14T20:45:59Z</time>
      </trkpt>
      <trkpt lat="38.621252328157425" lon="-109.49983756989241">
        <ele>1466.4000244140625</ele>
        <time>2012-05-14T20:46:01Z</time>
      </trkpt>
      <trkpt lat="38.621204718947411" lon="-109.50011434033513">
        <ele>1467</ele>
        <time>2012-05-14T20:46:05Z</time>
      </trkpt>
      <trkpt lat="38.621143950149417" lon="-109.5004541426897">
        <ele>1466.4000244140625</ele>
        <time>2012-05-14T20:46:10Z</time>
      </trkpt>
      <trkpt lat="38.621136825531721" lon="-109.50051683932543">
        <ele>1466.199951171875</ele>
        <time>2012-05-14T20:46:11Z</time>
      </trkpt>
      <trkpt lat="38.621150823310018" lon="-109.50072965584695">
        <ele>1462.5999755859375</ele>
        <time>2012-05-14T20:46:14Z</time>
      </trkpt>
      <trkpt lat="38.621150152757764" lon="-109.50079897418618">
        <ele>1461.4000244140625</ele>
        <time>2012-05-14T20:46:15Z</time>
      </trkpt>
      <trkpt lat="38.621142106130719" lon="-109.50092830695212">
        <ele>1460</ele>
        <time>2012-05-14T20:46:18Z</time>
      </trkpt>
      <trkpt lat="38.621146716177464" lon="-109.50095931999385">
        <ele>1459.199951171875</ele>
        <time>2012-05-14T20:46:19Z</time>
      </trkpt>
      <trkpt lat="38.621162222698331" lon="-109.50105126947165">
        <ele>1458.5999755859375</ele>
        <time>2012-05-14T20:46:22Z</time>
      </trkpt>
      <trkpt lat="38.621180327609181" lon="-109.50123650953174">
        <ele>1458.800048828125</ele>
        <time>2012-05-14T20:46:28Z</time>
      </trkpt>
      <trkpt lat="38.621208909898996" lon="-109.50142535381019">
        <ele>1458.5999755859375</ele>
        <time>2012-05-14T20:46:33Z</time>
      </trkpt>
      <trkpt lat="38.621239839121699" lon="-109.50164638459682">
        <ele>1458.199951171875</ele>
        <time>2012-05-14T20:46:38Z</time>
      </trkpt>
      <trkpt lat="38.621293399482965" lon="-109.50185886584222">
        <ele>1454.800048828125</ele>
        <time>2012-05-14T20:46:42Z</time>
      </trkpt>
      <trkpt lat="38.621364058926702" lon="-109.502022145316">
        <ele>1450.800048828125</ele>
        <time>2012-05-14T20:46:46Z</time>
      </trkpt>
      <trkpt lat="38.621450811624527" lon="-109.50222012586892">
        <ele>1447.199951171875</ele>
        <time>2012-05-14T20:46:51Z</time>
      </trkpt>
      <trkpt lat="38.621537899598479" lon="-109.50242430903018">
        <ele>1444.800048828125</ele>
        <time>2012-05-14T20:46:56Z</time>
      </trkpt>
      <trkpt lat="38.621611157432199" lon="-109.50262145139277">
        <ele>1444.800048828125</ele>
        <time>2012-05-14T20:47:01Z</time>
      </trkpt>
      <trkpt lat="38.621671255677938" lon="-109.50284348800778">
        <ele>1445.4000244140625</ele>
        <time>2012-05-14T20:47:06Z</time>
      </trkpt>
      <trkpt lat="38.621748453006148" lon="-109.50311305001378">
        <ele>1445.199951171875</ele>
        <time>2012-05-14T20:47:11Z</time>
      </trkpt>
      <trkpt lat="38.621779885143042" lon="-109.50325805693865">
        <ele>1446.199951171875</ele>
        <time>2012-05-14T20:47:15Z</time>
      </trkpt>
      <trkpt lat="38.621821710839868" lon="-109.50342678464949">
        <ele>1448</ele>
        <time>2012-05-14T20:47:20Z</time>
      </trkpt>
      <trkpt lat="38.621873678639531" lon="-109.50359626673162">
        <ele>1449</ele>
        <time>2012-05-14T20:47:25Z</time>
      </trkpt>
      <trkpt lat="38.62194056622684" lon="-109.50370950624347">
        <ele>1448</ele>
        <time>2012-05-14T20:47:30Z</time>
      </trkpt>
      <trkpt lat="38.62201726064086" lon="-109.50388435274363">
        <ele>1449.199951171875</ele>
        <time>2012-05-14T20:47:37Z</time>
      </trkpt>
      <trkpt lat="38.622045256197453" lon="-109.50393548235297">
        <ele>1449.5999755859375</ele>
        <time>2012-05-14T20:47:41Z</time>
      </trkpt>
      <trkpt lat="38.622067635878921" lon="-109.50394813902676">
        <ele>1449</ele>
        <time>2012-05-14T20:47:44Z</time>
      </trkpt>
      <trkpt lat="38.622080460190773" lon="-109.50396666303277">
        <ele>1449.199951171875</ele>
        <time>2012-05-14T20:47:46Z</time>
      </trkpt>
      <trkpt lat="38.622101498767734" lon="-109.50400530360639">
        <ele>1449.800048828125</ele>
        <time>2012-05-14T20:47:49Z</time>
      </trkpt>
      <trkpt lat="38.622111976146698" lon="-109.50403765775263">
        <ele>1450.199951171875</ele>
        <time>2012-05-14T20:47:51Z</time>
      </trkpt>
      <trkpt lat="38.622141564264894" lon="-109.50408853590488">
        <ele>1450</ele>
        <time>2012-05-14T20:47:55Z</time>
      </trkpt>
      <trkpt lat="38.622151203453541" lon="-109.50410110875964">
        <ele>1449.800048828125</ele>
        <time>2012-05-14T20:47:56Z</time>
      </trkpt>
      <trkpt lat="38.622248768806458" lon="-109.50424837879837">
        <ele>1449.800048828125</ele>
        <time>2012-05-14T20:48:03Z</time>
      </trkpt>
      <trkpt lat="38.622307861223817" lon="-109.50441375374794">
        <ele>1451.4000244140625</ele>
        <time>2012-05-14T20:48:07Z</time>
      </trkpt>
      <trkpt lat="38.622395368292928" lon="-109.50461894273758">
        <ele>1451</ele>
        <time>2012-05-14T20:48:11Z</time>
      </trkpt>
      <trkpt lat="38.622441804036498" lon="-109.50470946729183">
        <ele>1449.800048828125</ele>
        <time>2012-05-14T20:48:14Z</time>
      </trkpt>
      <trkpt lat="38.622494861483574" lon="-109.50476906262338">
        <ele>1448</ele>
        <time>2012-05-14T20:48:19Z</time>
      </trkpt>
      <trkpt lat="38.622514558956027" lon="-109.50478884391487">
        <ele>1447.199951171875</ele>
        <time>2012-05-14T20:48:27Z</time>
      </trkpt>
      <trkpt lat="38.622556552290916" lon="-109.50482237152755">
        <ele>1445.800048828125</ele>
        <time>2012-05-14T20:48:33Z</time>
      </trkpt>
      <trkpt lat="38.622600389644504" lon="-109.50487517751753">
        <ele>1444.800048828125</ele>
        <time>2012-05-14T20:48:41Z</time>
      </trkpt>
      <trkpt lat="38.622642802074552" lon="-109.50491943396628">
        <ele>1443.800048828125</ele>
        <time>2012-05-14T20:48:48Z</time>
      </trkpt>
      <trkpt lat="38.622669959440827" lon="-109.50498154386878">
        <ele>1443.5999755859375</ele>
        <time>2012-05-14T20:48:55Z</time>
      </trkpt>
      <trkpt lat="38.622703403234482" lon="-109.50507827103138">
        <ele>1444.5999755859375</ele>
        <time>2012-05-14T20:48:59Z</time>
      </trkpt>
      <trkpt lat="38.622800130397081" lon="-109.50525982305408">
        <ele>1444.4000244140625</ele>
        <time>2012-05-14T20:49:03Z</time>
      </trkpt>
      <trkpt lat="38.622891074046493" lon="-109.50543073005974">
        <ele>1446.5999755859375</ele>
        <time>2012-05-14T20:49:07Z</time>
      </trkpt>
      <trkpt lat="38.622968690469861" lon="-109.5055746473372">
        <ele>1443.800048828125</ele>
        <time>2012-05-14T20:49:10Z</time>
      </trkpt>
      <trkpt lat="38.623002804815769" lon="-109.50563482940197">
        <ele>1442.800048828125</ele>
        <time>2012-05-14T20:49:11Z</time>
      </trkpt>
      <trkpt lat="38.62308737821877" lon="-109.50577329844236">
        <ele>1441</ele>
        <time>2012-05-14T20:49:14Z</time>
      </trkpt>
      <trkpt lat="38.623157870024443" lon="-109.5059372484684">
        <ele>1442.5999755859375</ele>
        <time>2012-05-14T20:49:18Z</time>
      </trkpt>
      <trkpt lat="38.62319877371192" lon="-109.50603095814586">
        <ele>1443.800048828125</ele>
        <time>2012-05-14T20:49:20Z</time>
      </trkpt>
      <trkpt lat="38.623213358223438" lon="-109.50608166866004">
        <ele>1444.5999755859375</ele>
        <time>2012-05-14T20:49:21Z</time>
      </trkpt>
      <trkpt lat="38.623225260525942" lon="-109.50612441636622">
        <ele>1445.199951171875</ele>
        <time>2012-05-14T20:49:22Z</time>
      </trkpt>
      <trkpt lat="38.623243533074856" lon="-109.50615626759827">
        <ele>1445.4000244140625</ele>
        <time>2012-05-14T20:49:23Z</time>
      </trkpt>
      <trkpt lat="38.623261637985706" lon="-109.50622105970979">
        <ele>1447</ele>
        <time>2012-05-14T20:49:26Z</time>
      </trkpt>
      <trkpt lat="38.623297344893217" lon="-109.50626238249242">
        <ele>1447</ele>
        <time>2012-05-14T20:49:31Z</time>
      </trkpt>
      <trkpt lat="38.623305475339293" lon="-109.50626699253917">
        <ele>1446.5999755859375</ele>
        <time>2012-05-14T20:49:32Z</time>
      </trkpt>
      <trkpt lat="38.623335817828774" lon="-109.50628920458257">
        <ele>1446</ele>
        <time>2012-05-14T20:49:38Z</time>
      </trkpt>
      <trkpt lat="38.623364232480526" lon="-109.50630722567439">
        <ele>1445.5999755859375</ele>
        <time>2012-05-14T20:49:45Z</time>
      </trkpt>
      <trkpt lat="38.62342843785882" lon="-109.50633480213583">
        <ele>1444</ele>
        <time>2012-05-14T20:49:50Z</time>
      </trkpt>
      <trkpt lat="38.623460792005062" lon="-109.5064052939415">
        <ele>1445.800048828125</ele>
        <time>2012-05-14T20:49:57Z</time>
      </trkpt>
      <trkpt lat="38.623499684035778" lon="-109.50647519901395">
        <ele>1447.199951171875</ele>
        <time>2012-05-14T20:50:04Z</time>
      </trkpt>
      <trkpt lat="38.623554669320583" lon="-109.50655524618924">
        <ele>1447.800048828125</ele>
        <time>2012-05-14T20:50:11Z</time>
      </trkpt>
      <trkpt lat="38.623616108670831" lon="-109.50660469941795">
        <ele>1446.4000244140625</ele>
        <time>2012-05-14T20:50:18Z</time>
      </trkpt>
      <trkpt lat="38.623621724545956" lon="-109.50661668553948">
        <ele>1446.5999755859375</ele>
        <time>2012-05-14T20:50:19Z</time>
      </trkpt>
      <trkpt lat="38.623641422018409" lon="-109.50666328892112">
        <ele>1447.5999755859375</ele>
        <time>2012-05-14T20:50:23Z</time>
      </trkpt>
      <trkpt lat="38.623658856377006" lon="-109.50667410157621">
        <ele>1447.4000244140625</ele>
        <time>2012-05-14T20:50:25Z</time>
      </trkpt>
      <trkpt lat="38.623717194423079" lon="-109.50670679099858">
        <ele>1446.5999755859375</ele>
        <time>2012-05-14T20:50:30Z</time>
      </trkpt>
      <trkpt lat="38.623737143352628" lon="-109.50674098916352">
        <ele>1447.4000244140625</ele>
        <time>2012-05-14T20:50:33Z</time>
      </trkpt>
      <trkpt lat="38.623762372881174" lon="-109.50680988840759">
        <ele>1449.5999755859375</ele>
        <time>2012-05-14T20:50:36Z</time>
      </trkpt>
      <trkpt lat="38.623839654028416" lon="-109.50698138214648">
        <ele>1450.5999755859375</ele>
        <time>2012-05-14T20:50:42Z</time>
      </trkpt>
      <trkpt lat="38.623925652354956" lon="-109.50712697580457">
        <ele>1451.4000244140625</ele>
        <time>2012-05-14T20:50:48Z</time>
      </trkpt>
      <trkpt lat="38.624022966250777" lon="-109.50731188058853">
        <ele>1452.199951171875</ele>
        <time>2012-05-14T20:50:54Z</time>
      </trkpt>
      <trkpt lat="38.62403872422874" lon="-109.50740466825664">
        <ele>1452.5999755859375</ele>
        <time>2012-05-14T20:50:57Z</time>
      </trkpt>
      <trkpt lat="38.624047860503197" lon="-109.50745546258986">
        <ele>1452.199951171875</ele>
        <time>2012-05-14T20:50:59Z</time>
      </trkpt>
      <trkpt lat="38.624092619866133" lon="-109.50765520334244">
        <ele>1450.199951171875</ele>
        <time>2012-05-14T20:51:04Z</time>
      </trkpt>
      <trkpt lat="38.624106785282493" lon="-109.50786994770169">
        <ele>1446.4000244140625</ele>
        <time>2012-05-14T20:51:08Z</time>
      </trkpt>
      <trkpt lat="38.624062361195683" lon="-109.50804705731571">
        <ele>1443</ele>
        <time>2012-05-14T20:51:12Z</time>
      </trkpt>
      <trkpt lat="38.62403285689652" lon="-109.50828183442354">
        <ele>1437</ele>
        <time>2012-05-14T20:51:16Z</time>
      </trkpt>
      <trkpt lat="38.623999748378992" lon="-109.50838199816644">
        <ele>1435.4000244140625</ele>
        <time>2012-05-14T20:51:18Z</time>
      </trkpt>
      <trkpt lat="38.623937051743269" lon="-109.50857251882553">
        <ele>1431.800048828125</ele>
        <time>2012-05-14T20:51:22Z</time>
      </trkpt>
      <trkpt lat="38.623885838314891" lon="-109.5087225548923">
        <ele>1429.5999755859375</ele>
        <time>2012-05-14T20:51:25Z</time>
      </trkpt>
      <trkpt lat="38.623844012618065" lon="-109.50883478857577">
        <ele>1429</ele>
        <time>2012-05-14T20:51:27Z</time>
      </trkpt>
      <trkpt lat="38.623786931857467" lon="-109.50902665033937">
        <ele>1428.4000244140625</ele>
        <time>2012-05-14T20:51:30Z</time>
      </trkpt>
      <trkpt lat="38.623737310990691" lon="-109.50914332643151">
        <ele>1427.5999755859375</ele>
        <time>2012-05-14T20:51:32Z</time>
      </trkpt>
      <trkpt lat="38.623701268807054" lon="-109.5092011615634">
        <ele>1427</ele>
        <time>2012-05-14T20:51:33Z</time>
      </trkpt>
      <trkpt lat="38.623632369562984" lon="-109.509382462129">
        <ele>1423.800048828125</ele>
        <time>2012-05-14T20:51:36Z</time>
      </trkpt>
      <trkpt lat="38.623588280752301" lon="-109.50945999473333">
        <ele>1424.4000244140625</ele>
        <time>2012-05-14T20:51:38Z</time>
      </trkpt>
      <trkpt lat="38.623541174456477" lon="-109.50957088731229">
        <ele>1425.199951171875</ele>
        <time>2012-05-14T20:51:40Z</time>
      </trkpt>
      <trkpt lat="38.62348903901875" lon="-109.50966979376972">
        <ele>1427</ele>
        <time>2012-05-14T20:51:42Z</time>
      </trkpt>
      <trkpt lat="38.623457942157984" lon="-109.50971840880811">
        <ele>1427.4000244140625</ele>
        <time>2012-05-14T20:51:44Z</time>
      </trkpt>
      <trkpt lat="38.623453415930271" lon="-109.509731316939">
        <ele>1427</ele>
        <time>2012-05-14T20:51:45Z</time>
      </trkpt>
      <trkpt lat="38.6234484706074" lon="-109.50976316817105">
        <ele>1425.800048828125</ele>
        <time>2012-05-14T20:51:49Z</time>
      </trkpt>
      <trkpt lat="38.62342550419271" lon="-109.50979543849826">
        <ele>1426</ele>
        <time>2012-05-14T20:51:54Z</time>
      </trkpt>
      <trkpt lat="38.62340547144413" lon="-109.50984053313732">
        <ele>1425.199951171875</ele>
        <time>2012-05-14T20:51:58Z</time>
      </trkpt>
      <trkpt lat="38.623394323512912" lon="-109.50987028889358">
        <ele>1424.4000244140625</ele>
        <time>2012-05-14T20:51:59Z</time>
      </trkpt>
      <trkpt lat="38.623315282166004" lon="-109.51000523753464">
        <ele>1423.4000244140625</ele>
        <time>2012-05-14T20:52:04Z</time>
      </trkpt>
      <trkpt lat="38.623283598572016" lon="-109.51019030995667">
        <ele>1418.5999755859375</ele>
        <time>2012-05-14T20:52:09Z</time>
      </trkpt>
      <trkpt lat="38.623218387365341" lon="-109.51039860025048">
        <ele>1419.199951171875</ele>
        <time>2012-05-14T20:52:13Z</time>
      </trkpt>
      <trkpt lat="38.623143285512924" lon="-109.51064335182309">
        <ele>1410.5999755859375</ele>
        <time>2012-05-14T20:52:18Z</time>
      </trkpt>
      <trkpt lat="38.623140351846814" lon="-109.51073572039604">
        <ele>1406.199951171875</ele>
        <time>2012-05-14T20:52:20Z</time>
      </trkpt>
      <trkpt lat="38.623113362118602" lon="-109.51081098988652">
        <ele>1405</ele>
        <time>2012-05-14T20:52:22Z</time>
      </trkpt>
      <trkpt lat="38.623022586107254" lon="-109.51083177700639">
        <ele>1410.199951171875</ele>
        <time>2012-05-14T20:52:25Z</time>
      </trkpt>
      <trkpt lat="38.622988974675536" lon="-109.51085440814495">
        <ele>1411.4000244140625</ele>
        <time>2012-05-14T20:52:26Z</time>
      </trkpt>
      <trkpt lat="38.622932229191065" lon="-109.51091333292425">
        <ele>1411.800048828125</ele>
        <time>2012-05-14T20:52:28Z</time>
      </trkpt>
      <trkpt lat="38.622824940830469" lon="-109.51102724298835">
        <ele>1410</ele>
        <time>2012-05-14T20:52:32Z</time>
      </trkpt>
      <trkpt lat="38.622748833149672" lon="-109.51116361655295">
        <ele>1403.5999755859375</ele>
        <time>2012-05-14T20:52:37Z</time>
      </trkpt>
      <trkpt lat="38.622732320800424" lon="-109.51118138618767">
        <ele>1402.800048828125</ele>
        <time>2012-05-14T20:52:41Z</time>
      </trkpt>
      <trkpt lat="38.622690159827471" lon="-109.51123343780637">
        <ele>1400.199951171875</ele>
        <time>2012-05-14T20:52:45Z</time>
      </trkpt>
      <trkpt lat="38.62260072492063" lon="-109.51131700538099">
        <ele>1400.199951171875</ele>
        <time>2012-05-14T20:52:50Z</time>
      </trkpt>
      <trkpt lat="38.622586308047175" lon="-109.51133251190186">
        <ele>1400.4000244140625</ele>
        <time>2012-05-14T20:52:51Z</time>
      </trkpt>
      <trkpt lat="38.62257381901145" lon="-109.51137777417898">
        <ele>1399</ele>
        <time>2012-05-14T20:52:54Z</time>
      </trkpt>
      <trkpt lat="38.622570633888245" lon="-109.51138255186379">
        <ele>1399</ele>
        <time>2012-05-14T20:52:55Z</time>
      </trkpt>
      <trkpt lat="38.622569628059864" lon="-109.51139864511788">
        <ele>1398.4000244140625</ele>
        <time>2012-05-14T20:52:59Z</time>
      </trkpt>
      <trkpt lat="38.622543644160032" lon="-109.51147039420903">
        <ele>1396</ele>
        <time>2012-05-14T20:53:07Z</time>
      </trkpt>
      <trkpt lat="38.622539872303605" lon="-109.51153082773089">
        <ele>1393.199951171875</ele>
        <time>2012-05-14T20:53:14Z</time>
      </trkpt>
      <trkpt lat="38.622540291398764" lon="-109.51161229982972">
        <ele>1391.4000244140625</ele>
        <time>2012-05-14T20:53:20Z</time>
      </trkpt>
      <trkpt lat="38.622537357732654" lon="-109.51167918741703">
        <ele>1390</ele>
        <time>2012-05-14T20:53:22Z</time>
      </trkpt>
      <trkpt lat="38.622516822069883" lon="-109.51170483604074">
        <ele>1389.800048828125</ele>
        <time>2012-05-14T20:53:23Z</time>
      </trkpt>
      <trkpt lat="38.622423531487584" lon="-109.51175403781235">
        <ele>1390.199951171875</ele>
        <time>2012-05-14T20:53:26Z</time>
      </trkpt>
      <trkpt lat="38.622333593666553" lon="-109.51188362203538">
        <ele>1389.199951171875</ele>
        <time>2012-05-14T20:53:30Z</time>
      </trkpt>
      <trkpt lat="38.622226808220148" lon="-109.51190608553588">
        <ele>1393.4000244140625</ele>
        <time>2012-05-14T20:53:33Z</time>
      </trkpt>
      <trkpt lat="38.622169811278582" lon="-109.51201572082937">
        <ele>1393.4000244140625</ele>
        <time>2012-05-14T20:53:36Z</time>
      </trkpt>
      <trkpt lat="38.622168470174074" lon="-109.51208956539631">
        <ele>1391.800048828125</ele>
        <time>2012-05-14T20:53:38Z</time>
      </trkpt>
      <trkpt lat="38.622173666954041" lon="-109.51217011548579">
        <ele>1390</ele>
        <time>2012-05-14T20:53:40Z</time>
      </trkpt>
      <trkpt lat="38.622151371091604" lon="-109.51229316182435">
        <ele>1388.800048828125</ele>
        <time>2012-05-14T20:53:43Z</time>
      </trkpt>
      <trkpt lat="38.622134188190103" lon="-109.51233523897827">
        <ele>1389</ele>
        <time>2012-05-14T20:53:44Z</time>
      </trkpt>
      <trkpt lat="38.622092949226499" lon="-109.51255920343101">
        <ele>1386.199951171875</ele>
        <time>2012-05-14T20:53:48Z</time>
      </trkpt>
      <trkpt lat="38.622017009183764" lon="-109.51274377293885">
        <ele>1383.199951171875</ele>
        <time>2012-05-14T20:53:51Z</time>
      </trkpt>
      <trkpt lat="38.621977362781763" lon="-109.51279540546238">
        <ele>1382.800048828125</ele>
        <time>2012-05-14T20:53:53Z</time>
      </trkpt>
      <trkpt lat="38.621953222900629" lon="-109.51280378736556">
        <ele>1383.4000244140625</ele>
        <time>2012-05-14T20:53:54Z</time>
      </trkpt>
      <trkpt lat="38.621866134926677" lon="-109.51285466551781">
        <ele>1384.4000244140625</ele>
        <time>2012-05-14T20:53:58Z</time>
      </trkpt>
      <trkpt lat="38.62185750156641" lon="-109.51286095194519">
        <ele>1384.5999755859375</ele>
        <time>2012-05-14T20:53:59Z</time>
      </trkpt>
      <trkpt lat="38.621855992823839" lon="-109.51286656782031">
        <ele>1384.4000244140625</ele>
        <time>2012-05-14T20:54:01Z</time>
      </trkpt>
      <trkpt lat="38.621872086077929" lon="-109.51290872879326">
        <ele>1382.5999755859375</ele>
        <time>2012-05-14T20:54:09Z</time>
      </trkpt>
      <trkpt lat="38.621877366676927" lon="-109.51295172795653">
        <ele>1382</ele>
        <time>2012-05-14T20:54:16Z</time>
      </trkpt>
      <trkpt lat="38.621871331706643" lon="-109.51305557973683">
        <ele>1381.4000244140625</ele>
        <time>2012-05-14T20:54:19Z</time>
      </trkpt>
      <trkpt lat="38.621875438839197" lon="-109.5131297595799">
        <ele>1380.800048828125</ele>
        <time>2012-05-14T20:54:21Z</time>
      </trkpt>
      <trkpt lat="38.621862111613154" lon="-109.51321374624968">
        <ele>1380.800048828125</ele>
        <time>2012-05-14T20:54:23Z</time>
      </trkpt>
      <trkpt lat="38.621864290907979" lon="-109.51337442733347">
        <ele>1380.4000244140625</ele>
        <time>2012-05-14T20:54:27Z</time>
      </trkpt>
      <trkpt lat="38.621863704174757" lon="-109.51342220418155">
        <ele>1380.199951171875</ele>
        <time>2012-05-14T20:54:28Z</time>
      </trkpt>
      <trkpt lat="38.62180083990097" lon="-109.51357752084732">
        <ele>1381.800048828125</ele>
        <time>2012-05-14T20:54:32Z</time>
      </trkpt>
      <trkpt lat="38.621719619259238" lon="-109.51369788497686">
        <ele>1383.199951171875</ele>
        <time>2012-05-14T20:54:37Z</time>
      </trkpt>
      <trkpt lat="38.621720457449555" lon="-109.51381749473512">
        <ele>1381</ele>
        <time>2012-05-14T20:54:41Z</time>
      </trkpt>
      <trkpt lat="38.621676536276937" lon="-109.51396124437451">
        <ele>1379.5999755859375</ele>
        <time>2012-05-14T20:54:44Z</time>
      </trkpt>
      <trkpt lat="38.621618617326021" lon="-109.51419501565397">
        <ele>1375.800048828125</ele>
        <time>2012-05-14T20:54:48Z</time>
      </trkpt>
      <trkpt lat="38.621592968702316" lon="-109.51423281803727">
        <ele>1375.5999755859375</ele>
        <time>2012-05-14T20:54:49Z</time>
      </trkpt>
      <trkpt lat="38.621516274288297" lon="-109.51422829180956">
        <ele>1377.800048828125</ele>
        <time>2012-05-14T20:54:51Z</time>
      </trkpt>
      <trkpt lat="38.621433628723025" lon="-109.51426416635513">
        <ele>1377.4000244140625</ele>
        <time>2012-05-14T20:54:53Z</time>
      </trkpt>
      <trkpt lat="38.621392892673612" lon="-109.51429149135947">
        <ele>1376.800048828125</ele>
        <time>2012-05-14T20:54:54Z</time>
      </trkpt>
      <trkpt lat="38.621250735595822" lon="-109.51443272642791">
        <ele>1374</ele>
        <time>2012-05-14T20:54:58Z</time>
      </trkpt>
      <trkpt lat="38.621178651228547" lon="-109.51450925320387">
        <ele>1373</ele>
        <time>2012-05-14T20:55:01Z</time>
      </trkpt>
      <trkpt lat="38.621144453063607" lon="-109.51453314162791">
        <ele>1372.800048828125</ele>
        <time>2012-05-14T20:55:02Z</time>
      </trkpt>
      <trkpt lat="38.621041188016534" lon="-109.51457010582089">
        <ele>1372.800048828125</ele>
        <time>2012-05-14T20:55:06Z</time>
      </trkpt>
      <trkpt lat="38.621021993458271" lon="-109.51458963565528">
        <ele>1372.4000244140625</ele>
        <time>2012-05-14T20:55:07Z</time>
      </trkpt>
      <trkpt lat="38.620988801121712" lon="-109.51463866978884">
        <ele>1371.5999755859375</ele>
        <time>2012-05-14T20:55:10Z</time>
      </trkpt>
      <trkpt lat="38.62089492380619" lon="-109.51468996703625">
        <ele>1372</ele>
        <time>2012-05-14T20:55:14Z</time>
      </trkpt>
      <trkpt lat="38.620859971269965" lon="-109.51475216075778">
        <ele>1371.5999755859375</ele>
        <time>2012-05-14T20:55:17Z</time>
      </trkpt>
      <trkpt lat="38.620847230777144" lon="-109.51476045884192">
        <ele>1371.5999755859375</ele>
        <time>2012-05-14T20:55:18Z</time>
      </trkpt>
      <trkpt lat="38.620805153623223" lon="-109.51475601643324">
        <ele>1372.5999755859375</ele>
        <time>2012-05-14T20:55:22Z</time>
      </trkpt>
      <trkpt lat="38.620774894952774" lon="-109.51475341804326">
        <ele>1373.199951171875</ele>
        <time>2012-05-14T20:55:26Z</time>
      </trkpt>
      <trkpt lat="38.620717898011208" lon="-109.51478216797113">
        <ele>1374</ele>
        <time>2012-05-14T20:55:30Z</time>
      </trkpt>
      <trkpt lat="38.62071555107832" lon="-109.51478225179017">
        <ele>1374</ele>
        <time>2012-05-14T20:55:31Z</time>
      </trkpt>
      <trkpt lat="38.620706833899021" lon="-109.51479800976813">
        <ele>1374</ele>
        <time>2012-05-14T20:55:34Z</time>
      </trkpt>
      <trkpt lat="38.620721250772476" lon="-109.51485802419484">
        <ele>1372.800048828125</ele>
        <time>2012-05-14T20:55:40Z</time>
      </trkpt>
      <trkpt lat="38.620756957679987" lon="-109.51494553126395">
        <ele>1370.800048828125</ele>
        <time>2012-05-14T20:55:49Z</time>
      </trkpt>
      <trkpt lat="38.620800962671638" lon="-109.51502876356244">
        <ele>1368.4000244140625</ele>
        <time>2012-05-14T20:55:57Z</time>
      </trkpt>
      <trkpt lat="38.620844464749098" lon="-109.51521978713572">
        <ele>1364.199951171875</ele>
        <time>2012-05-14T20:56:03Z</time>
      </trkpt>
      <trkpt lat="38.620801381766796" lon="-109.51541818678379">
        <ele>1363.5999755859375</ele>
        <time>2012-05-14T20:56:08Z</time>
      </trkpt>
      <trkpt lat="38.62069895491004" lon="-109.51558984816074">
        <ele>1365</ele>
        <time>2012-05-14T20:56:12Z</time>
      </trkpt>
      <trkpt lat="38.620608765631914" lon="-109.51579143293202">
        <ele>1364</ele>
        <time>2012-05-14T20:56:17Z</time>
      </trkpt>
      <trkpt lat="38.620461244136095" lon="-109.51594088226557">
        <ele>1365</ele>
        <time>2012-05-14T20:56:22Z</time>
      </trkpt>
      <trkpt lat="38.620308944955468" lon="-109.51609259471297">
        <ele>1365</ele>
        <time>2012-05-14T20:56:26Z</time>
      </trkpt>
      <trkpt lat="38.62013703212142" lon="-109.51626283116639">
        <ele>1363.4000244140625</ele>
        <time>2012-05-14T20:56:30Z</time>
      </trkpt>
      <trkpt lat="38.620107527822256" lon="-109.51631035655737">
        <ele>1362.199951171875</ele>
        <time>2012-05-14T20:56:31Z</time>
      </trkpt>
      <trkpt lat="38.620052877813578" lon="-109.5163743942976">
        <ele>1360.5999755859375</ele>
        <time>2012-05-14T20:56:33Z</time>
      </trkpt>
      <trkpt lat="38.619989510625601" lon="-109.51639266684651">
        <ele>1361.199951171875</ele>
        <time>2012-05-14T20:56:35Z</time>
      </trkpt>
      <trkpt lat="38.619931172579527" lon="-109.5164692774415">
        <ele>1359.199951171875</ele>
        <time>2012-05-14T20:56:39Z</time>
      </trkpt>
      <trkpt lat="38.619900494813919" lon="-109.5165282022208">
        <ele>1357.199951171875</ele>
        <time>2012-05-14T20:56:42Z</time>
      </trkpt>
      <trkpt lat="38.619897644966841" lon="-109.51652711257339">
        <ele>1357.4000244140625</ele>
        <time>2012-05-14T20:56:43Z</time>
      </trkpt>
      <trkpt lat="38.619902255013585" lon="-109.51656868681312">
        <ele>1356</ele>
        <time>2012-05-14T20:56:50Z</time>
      </trkpt>
      <trkpt lat="38.619924802333117" lon="-109.51661998406053">
        <ele>1353.800048828125</ele>
        <time>2012-05-14T20:56:56Z</time>
      </trkpt>
      <trkpt lat="38.61990787088871" lon="-109.51670204289258">
        <ele>1351.5999755859375</ele>
        <time>2012-05-14T20:57:04Z</time>
      </trkpt>
      <trkpt lat="38.61992547288537" lon="-109.51674076728523">
        <ele>1350</ele>
        <time>2012-05-14T20:57:10Z</time>
      </trkpt>
      <trkpt lat="38.619921030476689" lon="-109.51676893047988">
        <ele>1349.199951171875</ele>
        <time>2012-05-14T20:57:12Z</time>
      </trkpt>
      <trkpt lat="38.61990007571876" lon="-109.5168265979737">
        <ele>1348</ele>
        <time>2012-05-14T20:57:15Z</time>
      </trkpt>
      <trkpt lat="38.619884988293052" lon="-109.516985937953">
        <ele>1344.199951171875</ele>
        <time>2012-05-14T20:57:19Z</time>
      </trkpt>
      <trkpt lat="38.619874007999897" lon="-109.51707285828888">
        <ele>1342.199951171875</ele>
        <time>2012-05-14T20:57:21Z</time>
      </trkpt>
      <trkpt lat="38.61984433606267" lon="-109.51718701981008">
        <ele>1340</ele>
        <time>2012-05-14T20:57:24Z</time>
      </trkpt>
      <trkpt lat="38.619791865348816" lon="-109.51734158210456">
        <ele>1338</ele>
        <time>2012-05-14T20:57:28Z</time>
      </trkpt>
      <trkpt lat="38.619761355221272" lon="-109.51739489100873">
        <ele>1337.800048828125</ele>
        <time>2012-05-14T20:57:30Z</time>
      </trkpt>
      <trkpt lat="38.619730258360505" lon="-109.51743730343878">
        <ele>1338.199951171875</ele>
        <time>2012-05-14T20:57:32Z</time>
      </trkpt>
      <trkpt lat="38.619650965556502" lon="-109.51755012385547">
        <ele>1338.4000244140625</ele>
        <time>2012-05-14T20:57:36Z</time>
      </trkpt>
      <trkpt lat="38.619604697450995" lon="-109.51765674166381">
        <ele>1337</ele>
        <time>2012-05-14T20:57:40Z</time>
      </trkpt>
      <trkpt lat="38.619585754349828" lon="-109.51769244857132">
        <ele>1336.800048828125</ele>
        <time>2012-05-14T20:57:41Z</time>
      </trkpt>
      <trkpt lat="38.619522387161851" lon="-109.51777903363109">
        <ele>1337.199951171875</ele>
        <time>2012-05-14T20:57:44Z</time>
      </trkpt>
      <trkpt lat="38.61946614459157" lon="-109.51783670112491">
        <ele>1337.5999755859375</ele>
        <time>2012-05-14T20:57:48Z</time>
      </trkpt>
      <trkpt lat="38.619459439069033" lon="-109.51784156262875">
        <ele>1337.800048828125</ele>
        <time>2012-05-14T20:57:49Z</time>
      </trkpt>
      <trkpt lat="38.619459439069033" lon="-109.5178406406194">
        <ele>1337.800048828125</ele>
        <time>2012-05-14T20:57:51Z</time>
      </trkpt>
      <trkpt lat="38.619453068822622" lon="-109.51785975135863">
        <ele>1337.4000244140625</ele>
        <time>2012-05-14T20:57:52Z</time>
      </trkpt>
      <trkpt lat="38.619422307237983" lon="-109.51792982406914">
        <ele>1336.199951171875</ele>
        <time>2012-05-14T20:57:54Z</time>
      </trkpt>
      <trkpt lat="38.619337398558855" lon="-109.51811690814793">
        <ele>1334.4000244140625</ele>
        <time>2012-05-14T20:57:58Z</time>
      </trkpt>
      <trkpt lat="38.61932055093348" lon="-109.51816736720502">
        <ele>1333.5999755859375</ele>
        <time>2012-05-14T20:58:01Z</time>
      </trkpt>
      <trkpt lat="38.619328094646335" lon="-109.51821849681437">
        <ele>1332.4000244140625</ele>
        <time>2012-05-14T20:58:03Z</time>
      </trkpt>
      <trkpt lat="38.619321053847671" lon="-109.51833215542138">
        <ele>1330.5999755859375</ele>
        <time>2012-05-14T20:58:05Z</time>
      </trkpt>
      <trkpt lat="38.619284592568874" lon="-109.51853617094457">
        <ele>1327.4000244140625</ele>
        <time>2012-05-14T20:58:09Z</time>
      </trkpt>
      <trkpt lat="38.619161881506443" lon="-109.51869584619999">
        <ele>1326.5999755859375</ele>
        <time>2012-05-14T20:58:13Z</time>
      </trkpt>
      <trkpt lat="38.619114104658365" lon="-109.51873406767845">
        <ele>1326.800048828125</ele>
        <time>2012-05-14T20:58:14Z</time>
      </trkpt>
      <trkpt lat="38.619034979492426" lon="-109.51882584951818">
        <ele>1326.5999755859375</ele>
        <time>2012-05-14T20:58:16Z</time>
      </trkpt>
      <trkpt lat="38.619010588154197" lon="-109.51887798495591">
        <ele>1326.199951171875</ele>
        <time>2012-05-14T20:58:17Z</time>
      </trkpt>
      <trkpt lat="38.61892425455153" lon="-109.51916858553886">
        <ele>1322.800048828125</ele>
        <time>2012-05-14T20:58:22Z</time>
      </trkpt>
      <trkpt lat="38.618833897635341" lon="-109.51930873095989">
        <ele>1322.4000244140625</ele>
        <time>2012-05-14T20:58:25Z</time>
      </trkpt>
      <trkpt lat="38.618733314797282" lon="-109.5196139998734">
        <ele>1319.199951171875</ele>
        <time>2012-05-14T20:58:30Z</time>
      </trkpt>
      <trkpt lat="38.618700206279755" lon="-109.51966479420662">
        <ele>1319.4000244140625</ele>
        <time>2012-05-14T20:58:31Z</time>
      </trkpt>
      <trkpt lat="38.618665421381593" lon="-109.51981474645436">
        <ele>1318</ele>
        <time>2012-05-14T20:58:34Z</time>
      </trkpt>
      <trkpt lat="38.61857196316123" lon="-109.51997551135719">
        <ele>1317.5999755859375</ele>
        <time>2012-05-14T20:58:37Z</time>
      </trkpt>
      <trkpt lat="38.618544302880764" lon="-109.52003602869809">
        <ele>1317.4000244140625</ele>
        <time>2012-05-14T20:58:38Z</time>
      </trkpt>
      <trkpt lat="38.618485042825341" lon="-109.52017650939524">
        <ele>1316.800048828125</ele>
        <time>2012-05-14T20:58:40Z</time>
      </trkpt>
      <trkpt lat="38.618459645658731" lon="-109.52024079859257">
        <ele>1317</ele>
        <time>2012-05-14T20:58:41Z</time>
      </trkpt>
      <trkpt lat="38.618379179388285" lon="-109.52043190598488">
        <ele>1317.4000244140625</ele>
        <time>2012-05-14T20:58:45Z</time>
      </trkpt>
      <trkpt lat="38.618338024243712" lon="-109.52050390653312">
        <ele>1317.4000244140625</ele>
        <time>2012-05-14T20:58:47Z</time>
      </trkpt>
      <trkpt lat="38.618253786116838" lon="-109.52062695287168">
        <ele>1317.199951171875</ele>
        <time>2012-05-14T20:58:51Z</time>
      </trkpt>
      <trkpt lat="38.618123028427362" lon="-109.52077799476683">
        <ele>1317.199951171875</ele>
        <time>2012-05-14T20:58:55Z</time>
      </trkpt>
      <trkpt lat="38.617932591587305" lon="-109.52094010077417">
        <ele>1317.199951171875</ele>
        <time>2012-05-14T20:59:00Z</time>
      </trkpt>
      <trkpt lat="38.617838630452752" lon="-109.52107110992074">
        <ele>1316.800048828125</ele>
        <time>2012-05-14T20:59:03Z</time>
      </trkpt>
      <trkpt lat="38.617782136425376" lon="-109.52118610963225">
        <ele>1316</ele>
        <time>2012-05-14T20:59:05Z</time>
      </trkpt>
      <trkpt lat="38.617640817537904" lon="-109.52130245044827">
        <ele>1315.5999755859375</ele>
        <time>2012-05-14T20:59:08Z</time>
      </trkpt>
      <trkpt lat="38.617567392066121" lon="-109.52140244655311">
        <ele>1315.199951171875</ele>
        <time>2012-05-14T20:59:11Z</time>
      </trkpt>
      <trkpt lat="38.61743588000536" lon="-109.52143153175712">
        <ele>1315.800048828125</ele>
        <time>2012-05-14T20:59:15Z</time>
      </trkpt>
      <trkpt lat="38.61736798658967" lon="-109.5215741917491">
        <ele>1314.5999755859375</ele>
        <time>2012-05-14T20:59:18Z</time>
      </trkpt>
      <trkpt lat="38.617290621623397" lon="-109.52173043042421">
        <ele>1312.5999755859375</ele>
        <time>2012-05-14T20:59:21Z</time>
      </trkpt>
      <trkpt lat="38.61723798327148" lon="-109.52182573266327">
        <ele>1311</ele>
        <time>2012-05-14T20:59:23Z</time>
      </trkpt>
      <trkpt lat="38.617179393768311" lon="-109.52190988697112">
        <ele>1309.199951171875</ele>
        <time>2012-05-14T20:59:25Z</time>
      </trkpt>
      <trkpt lat="38.617123821750283" lon="-109.52199571765959">
        <ele>1307.199951171875</ele>
        <time>2012-05-14T20:59:27Z</time>
      </trkpt>
      <trkpt lat="38.61710756085813" lon="-109.52203536406159">
        <ele>1306</ele>
        <time>2012-05-14T20:59:28Z</time>
      </trkpt>
      <trkpt lat="38.617051485925913" lon="-109.52213100157678">
        <ele>1304.800048828125</ele>
        <time>2012-05-14T20:59:31Z</time>
      </trkpt>
      <trkpt lat="38.617028770968318" lon="-109.52216084115207">
        <ele>1304.800048828125</ele>
        <time>2012-05-14T20:59:32Z</time>
      </trkpt>
      <trkpt lat="38.616905808448792" lon="-109.52221716754138">
        <ele>1305.199951171875</ele>
        <time>2012-05-14T20:59:36Z</time>
      </trkpt>
      <trkpt lat="38.616841267794371" lon="-109.5222560595721">
        <ele>1305</ele>
        <time>2012-05-14T20:59:39Z</time>
      </trkpt>
      <trkpt lat="38.616838501766324" lon="-109.52228858135641">
        <ele>1304.5999755859375</ele>
        <time>2012-05-14T20:59:40Z</time>
      </trkpt>
      <trkpt lat="38.616773961111903" lon="-109.52253132127225">
        <ele>1300.199951171875</ele>
        <time>2012-05-14T20:59:45Z</time>
      </trkpt>
      <trkpt lat="38.616693997755647" lon="-109.52278981916606">
        <ele>1296.5999755859375</ele>
        <time>2012-05-14T20:59:49Z</time>
      </trkpt>
      <trkpt lat="38.616678155958652" lon="-109.52283323742449">
        <ele>1296</ele>
        <time>2012-05-14T20:59:50Z</time>
      </trkpt>
      <trkpt lat="38.616667930036783" lon="-109.52288738451898">
        <ele>1295.199951171875</ele>
        <time>2012-05-14T20:59:52Z</time>
      </trkpt>
      <trkpt lat="38.616662984713912" lon="-109.52289802953601">
        <ele>1295</ele>
        <time>2012-05-14T20:59:56Z</time>
      </trkpt>
      <trkpt lat="38.616674216464162" lon="-109.52293247915804">
        <ele>1294.4000244140625</ele>
        <time>2012-05-14T21:00:03Z</time>
      </trkpt>
      <trkpt lat="38.616678742691875" lon="-109.52298050746322">
        <ele>1294</ele>
        <time>2012-05-14T21:00:10Z</time>
      </trkpt>
      <trkpt lat="38.61665066331625" lon="-109.52306801453233">
        <ele>1293.5999755859375</ele>
        <time>2012-05-14T21:00:15Z</time>
      </trkpt>
      <trkpt lat="38.616555612534285" lon="-109.52324311248958">
        <ele>1292.199951171875</ele>
        <time>2012-05-14T21:00:20Z</time>
      </trkpt>
      <trkpt lat="38.616531556472182" lon="-109.5234321244061">
        <ele>1291</ele>
        <time>2012-05-14T21:00:26Z</time>
      </trkpt>
      <trkpt lat="38.616566760465503" lon="-109.52361476607621">
        <ele>1289.800048828125</ele>
        <time>2012-05-14T21:00:31Z</time>
      </trkpt>
      <trkpt lat="38.616609591990709" lon="-109.52377452515066">
        <ele>1288.800048828125</ele>
        <time>2012-05-14T21:00:35Z</time>
      </trkpt>
      <trkpt lat="38.616620488464832" lon="-109.52379824593663">
        <ele>1288.5999755859375</ele>
        <time>2012-05-14T21:00:37Z</time>
      </trkpt>
      <trkpt lat="38.616639766842127" lon="-109.52384937554598">
        <ele>1288</ele>
        <time>2012-05-14T21:00:40Z</time>
      </trkpt>
      <trkpt lat="38.616648903116584" lon="-109.52399773523211">
        <ele>1286.800048828125</ele>
        <time>2012-05-14T21:00:46Z</time>
      </trkpt>
      <trkpt lat="38.616652758792043" lon="-109.52402765862644">
        <ele>1286.5999755859375</ele>
        <time>2012-05-14T21:00:47Z</time>
      </trkpt>
      <trkpt lat="38.616651920601726" lon="-109.52423234470189">
        <ele>1285.800048828125</ele>
        <time>2012-05-14T21:00:53Z</time>
      </trkpt>
      <trkpt lat="38.616598695516586" lon="-109.5244007371366">
        <ele>1285.800048828125</ele>
        <time>2012-05-14T21:00:58Z</time>
      </trkpt>
      <trkpt lat="38.616583775728941" lon="-109.52460911124945">
        <ele>1284</ele>
        <time>2012-05-14T21:01:02Z</time>
      </trkpt>
      <trkpt lat="38.616516971960664" lon="-109.52480684034526">
        <ele>1284</ele>
        <time>2012-05-14T21:01:05Z</time>
      </trkpt>
      <trkpt lat="38.616469111293554" lon="-109.52486224472523">
        <ele>1283.800048828125</ele>
        <time>2012-05-14T21:01:06Z</time>
      </trkpt>
      <trkpt lat="38.616373892873526" lon="-109.52499283477664">
        <ele>1279</ele>
        <time>2012-05-14T21:01:08Z</time>
      </trkpt>
      <trkpt lat="38.616276578977704" lon="-109.52510389499366">
        <ele>1277.4000244140625</ele>
        <time>2012-05-14T21:01:10Z</time>
      </trkpt>
      <trkpt lat="38.616175325587392" lon="-109.52516843564808">
        <ele>1276.800048828125</ele>
        <time>2012-05-14T21:01:12Z</time>
      </trkpt>
      <trkpt lat="38.616132829338312" lon="-109.52520414255559">
        <ele>1276</ele>
        <time>2012-05-14T21:01:13Z</time>
      </trkpt>
      <trkpt lat="38.616025038063526" lon="-109.52533582225442">
        <ele>1273.199951171875</ele>
        <time>2012-05-14T21:01:16Z</time>
      </trkpt>
      <trkpt lat="38.615985391661525" lon="-109.52536884695292">
        <ele>1272.5999755859375</ele>
        <time>2012-05-14T21:01:17Z</time>
      </trkpt>
      <trkpt lat="38.615958737209439" lon="-109.52546783722937">
        <ele>1270.800048828125</ele>
        <time>2012-05-14T21:01:19Z</time>
      </trkpt>
      <trkpt lat="38.615836948156357" lon="-109.52568979002535">
        <ele>1270.800048828125</ele>
        <time>2012-05-14T21:01:23Z</time>
      </trkpt>
      <trkpt lat="38.615669393911958" lon="-109.52579531818628">
        <ele>1274.800048828125</ele>
        <time>2012-05-14T21:01:26Z</time>
      </trkpt>
      <trkpt lat="38.615615917369723" lon="-109.52582113444805">
        <ele>1275.800048828125</ele>
        <time>2012-05-14T21:01:27Z</time>
      </trkpt>
      <trkpt lat="38.615572834387422" lon="-109.52586270868778">
        <ele>1276.199951171875</ele>
        <time>2012-05-14T21:01:28Z</time>
      </trkpt>
      <trkpt lat="38.615508880466223" lon="-109.52598743140697">
        <ele>1274.800048828125</ele>
        <time>2012-05-14T21:01:30Z</time>
      </trkpt>
      <trkpt lat="38.615382649004459" lon="-109.52619915828109">
        <ele>1270.800048828125</ele>
        <time>2012-05-14T21:01:34Z</time>
      </trkpt>
      <trkpt lat="38.615353815257549" lon="-109.52623377554119">
        <ele>1270</ele>
        <time>2012-05-14T21:01:35Z</time>
      </trkpt>
      <trkpt lat="38.615332692861557" lon="-109.52626696787775">
        <ele>1269.199951171875</ele>
        <time>2012-05-14T21:01:36Z</time>
      </trkpt>
      <trkpt lat="38.615225236862898" lon="-109.52634131535888">
        <ele>1268</ele>
        <time>2012-05-14T21:01:39Z</time>
      </trkpt>
      <trkpt lat="38.615098837763071" lon="-109.52626705169678">
        <ele>1270</ele>
        <time>2012-05-14T21:01:42Z</time>
      </trkpt>
      <trkpt lat="38.614943604916334" lon="-109.52617568895221">
        <ele>1271.199951171875</ele>
        <time>2012-05-14T21:01:46Z</time>
      </trkpt>
      <trkpt lat="38.614844447001815" lon="-109.52631851658225">
        <ele>1266.4000244140625</ele>
        <time>2012-05-14T21:01:49Z</time>
      </trkpt>
      <trkpt lat="38.614841429516673" lon="-109.52647081576288">
        <ele>1264.199951171875</ele>
        <time>2012-05-14T21:01:51Z</time>
      </trkpt>
      <trkpt lat="38.614843441173434" lon="-109.52654164284468">
        <ele>1263.199951171875</ele>
        <time>2012-05-14T21:01:52Z</time>
      </trkpt>
      <trkpt lat="38.614847548305988" lon="-109.52659503556788">
        <ele>1262.4000244140625</ele>
        <time>2012-05-14T21:01:53Z</time>
      </trkpt>
      <trkpt lat="38.614807985723019" lon="-109.52668991871178">
        <ele>1260.800048828125</ele>
        <time>2012-05-14T21:01:56Z</time>
      </trkpt>
      <trkpt lat="38.614783259108663" lon="-109.52682293951511">
        <ele>1258.5999755859375</ele>
        <time>2012-05-14T21:02:00Z</time>
      </trkpt>
      <trkpt lat="38.614754257723689" lon="-109.5268894918263">
        <ele>1257.4000244140625</ele>
        <time>2012-05-14T21:02:02Z</time>
      </trkpt>
      <trkpt lat="38.614703882485628" lon="-109.52689619734883">
        <ele>1256.800048828125</ele>
        <time>2012-05-14T21:02:04Z</time>
      </trkpt>
      <trkpt lat="38.614640599116683" lon="-109.52680701389909">
        <ele>1257.800048828125</ele>
        <time>2012-05-14T21:02:07Z</time>
      </trkpt>
      <trkpt lat="38.61462039873004" lon="-109.52677315101027">
        <ele>1258.199951171875</ele>
        <time>2012-05-14T21:02:08Z</time>
      </trkpt>
      <trkpt lat="38.614611765369773" lon="-109.52669586986303">
        <ele>1259.4000244140625</ele>
        <time>2012-05-14T21:02:10Z</time>
      </trkpt>
      <trkpt lat="38.614609921351075" lon="-109.52666594646871">
        <ele>1259.800048828125</ele>
        <time>2012-05-14T21:02:11Z</time>
      </trkpt>
      <trkpt lat="38.614524928852916" lon="-109.52653074637055">
        <ele>1260.5999755859375</ele>
        <time>2012-05-14T21:02:16Z</time>
      </trkpt>
      <trkpt lat="38.61440640874207" lon="-109.52639881521463">
        <ele>1261.199951171875</ele>
        <time>2012-05-14T21:02:21Z</time>
      </trkpt>
      <trkpt lat="38.614368690177798" lon="-109.52637660317123">
        <ele>1260.5999755859375</ele>
        <time>2012-05-14T21:02:22Z</time>
      </trkpt>
      <trkpt lat="38.614227455109358" lon="-109.52630812302232">
        <ele>1258</ele>
        <time>2012-05-14T21:02:25Z</time>
      </trkpt>
      <trkpt lat="38.614168362691998" lon="-109.52616554684937">
        <ele>1258.199951171875</ele>
        <time>2012-05-14T21:02:28Z</time>
      </trkpt>
      <trkpt lat="38.614181270822883" lon="-109.52609203755856">
        <ele>1259.4000244140625</ele>
        <time>2012-05-14T21:02:30Z</time>
      </trkpt>
      <trkpt lat="38.614191329106688" lon="-109.52604216523468">
        <ele>1260.4000244140625</ele>
        <time>2012-05-14T21:02:31Z</time>
      </trkpt>
      <trkpt lat="38.614165764302015" lon="-109.52596069313586">
        <ele>1260.4000244140625</ele>
        <time>2012-05-14T21:02:34Z</time>
      </trkpt>
      <trkpt lat="38.614127542823553" lon="-109.52584619633853">
        <ele>1260.4000244140625</ele>
        <time>2012-05-14T21:02:38Z</time>
      </trkpt>
      <trkpt lat="38.614109437912703" lon="-109.52582457102835">
        <ele>1260</ele>
        <time>2012-05-14T21:02:39Z</time>
      </trkpt>
      <trkpt lat="38.614104324951768" lon="-109.5258011855185">
        <ele>1260.199951171875</ele>
        <time>2012-05-14T21:02:40Z</time>
      </trkpt>
      <trkpt lat="38.614118490368128" lon="-109.52575684525073">
        <ele>1261</ele>
        <time>2012-05-14T21:02:42Z</time>
      </trkpt>
      <trkpt lat="38.614125614985824" lon="-109.52559432014823">
        <ele>1263</ele>
        <time>2012-05-14T21:02:48Z</time>
      </trkpt>
      <trkpt lat="38.61407850869" lon="-109.52552307397127">
        <ele>1262.4000244140625</ele>
        <time>2012-05-14T21:02:52Z</time>
      </trkpt>
      <trkpt lat="38.614025032147765" lon="-109.52542232349515">
        <ele>1261.4000244140625</ele>
        <time>2012-05-14T21:02:56Z</time>
      </trkpt>
      <trkpt lat="38.6140301451087" lon="-109.52526382170618">
        <ele>1264</ele>
        <time>2012-05-14T21:03:01Z</time>
      </trkpt>
      <trkpt lat="38.61401547677815" lon="-109.5252126082778">
        <ele>1264</ele>
        <time>2012-05-14T21:03:03Z</time>
      </trkpt>
      <trkpt lat="38.6140301451087" lon="-109.52512468211353">
        <ele>1266</ele>
        <time>2012-05-14T21:03:06Z</time>
      </trkpt>
      <trkpt lat="38.614024864509702" lon="-109.52509132213891">
        <ele>1266</ele>
        <time>2012-05-14T21:03:07Z</time>
      </trkpt>
      <trkpt lat="38.61399837769568" lon="-109.52505519613624">
        <ele>1264.800048828125</ele>
        <time>2012-05-14T21:03:09Z</time>
      </trkpt>
      <trkpt lat="38.613952109590173" lon="-109.5249033998698">
        <ele>1264</ele>
        <time>2012-05-14T21:03:15Z</time>
      </trkpt>
      <trkpt lat="38.613911289721727" lon="-109.5247546210885">
        <ele>1263.5999755859375</ele>
        <time>2012-05-14T21:03:19Z</time>
      </trkpt>
      <trkpt lat="38.613911205902696" lon="-109.5246856380254">
        <ele>1264.4000244140625</ele>
        <time>2012-05-14T21:03:23Z</time>
      </trkpt>
      <trkpt lat="38.613906009122729" lon="-109.52469452284276">
        <ele>1264</ele>
        <time>2012-05-14T21:03:34Z</time>
      </trkpt>
      <trkpt lat="38.613906847313046" lon="-109.52464289031923">
        <ele>1264.5999755859375</ele>
        <time>2012-05-14T21:03:41Z</time>
      </trkpt>
      <trkpt lat="38.613874325528741" lon="-109.52457248233259">
        <ele>1263.5999755859375</ele>
        <time>2012-05-14T21:03:50Z</time>
      </trkpt>
      <trkpt lat="38.613836858421564" lon="-109.52453970909119">
        <ele>1261.800048828125</ele>
        <time>2012-05-14T21:03:57Z</time>
      </trkpt>
      <trkpt lat="38.61381221562624" lon="-109.5244594104588">
        <ele>1261</ele>
        <time>2012-05-14T21:04:05Z</time>
      </trkpt>
      <trkpt lat="38.613802660256624" lon="-109.52443610876799">
        <ele>1260.5999755859375</ele>
        <time>2012-05-14T21:04:07Z</time>
      </trkpt>
      <trkpt lat="38.613785393536091" lon="-109.52442353591323">
        <ele>1259.800048828125</ele>
        <time>2012-05-14T21:04:09Z</time>
      </trkpt>
      <trkpt lat="38.613765612244606" lon="-109.52441942878067">
        <ele>1258.800048828125</ele>
        <time>2012-05-14T21:04:11Z</time>
      </trkpt>
      <trkpt lat="38.613742142915726" lon="-109.52441364526749">
        <ele>1257.5999755859375</ele>
        <time>2012-05-14T21:04:14Z</time>
      </trkpt>
      <trkpt lat="38.613722193986177" lon="-109.52441263943911">
        <ele>1257</ele>
        <time>2012-05-14T21:04:16Z</time>
      </trkpt>
      <trkpt lat="38.613713979721069" lon="-109.52442563138902">
        <ele>1256.5999755859375</ele>
        <time>2012-05-14T21:04:18Z</time>
      </trkpt>
      <trkpt lat="38.613653462380171" lon="-109.52450148761272">
        <ele>1254.199951171875</ele>
        <time>2012-05-14T21:04:27Z</time>
      </trkpt>
      <trkpt lat="38.61363435164094" lon="-109.52452822588384">
        <ele>1253.4000244140625</ele>
        <time>2012-05-14T21:04:30Z</time>
      </trkpt>
      <trkpt lat="38.613629573956132" lon="-109.52453970909119">
        <ele>1253.199951171875</ele>
        <time>2012-05-14T21:04:32Z</time>
      </trkpt>
      <trkpt lat="38.613625131547451" lon="-109.52456074766815">
        <ele>1253</ele>
        <time>2012-05-14T21:04:33Z</time>
      </trkpt>
      <trkpt lat="38.613598309457302" lon="-109.52467826195061">
        <ele>1250.800048828125</ele>
        <time>2012-05-14T21:04:37Z</time>
      </trkpt>
      <trkpt lat="38.61353175714612" lon="-109.52473735436797">
        <ele>1247.5999755859375</ele>
        <time>2012-05-14T21:04:41Z</time>
      </trkpt>
      <trkpt lat="38.613516082987189" lon="-109.52476065605879">
        <ele>1246.800048828125</ele>
        <time>2012-05-14T21:04:42Z</time>
      </trkpt>
      <trkpt lat="38.613507114350796" lon="-109.52481782063842">
        <ele>1245.800048828125</ele>
        <time>2012-05-14T21:04:45Z</time>
      </trkpt>
      <trkpt lat="38.613505605608225" lon="-109.52482058666646">
        <ele>1245.5999755859375</ele>
        <time>2012-05-14T21:04:46Z</time>
      </trkpt>
      <trkpt lat="38.613510970026255" lon="-109.52481572516263">
        <ele>1246</ele>
        <time>2012-05-14T21:04:50Z</time>
      </trkpt>
      <trkpt lat="38.613471575081348" lon="-109.52487205155194">
        <ele>1244</ele>
        <time>2012-05-14T21:05:00Z</time>
      </trkpt>
      <trkpt lat="38.6134550627321" lon="-109.52489552088082">
        <ele>1244.5999755859375</ele>
        <time>2012-05-14T21:05:05Z</time>
      </trkpt>
      <trkpt lat="38.613433353602886" lon="-109.5249398611486">
        <ele>1245.5999755859375</ele>
        <time>2012-05-14T21:05:10Z</time>
      </trkpt>
      <trkpt lat="38.613431761041284" lon="-109.52500306069851">
        <ele>1245.800048828125</ele>
        <time>2012-05-14T21:05:16Z</time>
      </trkpt>
      <trkpt lat="38.613420864567161" lon="-109.52509769238532">
        <ele>1246.4000244140625</ele>
        <time>2012-05-14T21:05:25Z</time>
      </trkpt>
      <trkpt lat="38.613422373309731" lon="-109.52512074261904">
        <ele>1246.4000244140625</ele>
        <time>2012-05-14T21:05:27Z</time>
      </trkpt>
      <trkpt lat="38.613426899537444" lon="-109.5251518394798">
        <ele>1246.199951171875</ele>
        <time>2012-05-14T21:05:31Z</time>
      </trkpt>
      <trkpt lat="38.613447602838278" lon="-109.52516650781035">
        <ele>1244.800048828125</ele>
        <time>2012-05-14T21:05:36Z</time>
      </trkpt>
      <trkpt lat="38.613489679992199" lon="-109.52524580061436">
        <ele>1243.4000244140625</ele>
        <time>2012-05-14T21:05:40Z</time>
      </trkpt>
      <trkpt lat="38.613512562587857" lon="-109.52539164572954">
        <ele>1243.199951171875</ele>
        <time>2012-05-14T21:05:45Z</time>
      </trkpt>
      <trkpt lat="38.613519435748458" lon="-109.52560588717461">
        <ele>1242.800048828125</ele>
        <time>2012-05-14T21:05:51Z</time>
      </trkpt>
      <trkpt lat="38.613526811823249" lon="-109.5257477927953">
        <ele>1242.5999755859375</ele>
        <time>2012-05-14T21:05:56Z</time>
      </trkpt>
      <trkpt lat="38.613506024703383" lon="-109.52584150247276">
        <ele>1242.5999755859375</ele>
        <time>2012-05-14T21:06:00Z</time>
      </trkpt>
      <trkpt lat="38.613497307524085" lon="-109.52585214748979">
        <ele>1242.5999755859375</ele>
        <time>2012-05-14T21:06:01Z</time>
      </trkpt>
      <trkpt lat="38.613488003611565" lon="-109.52586622908711">
        <ele>1242.800048828125</ele>
        <time>2012-05-14T21:06:04Z</time>
      </trkpt>
      <trkpt lat="38.613475430756807" lon="-109.52592347748578">
        <ele>1242.800048828125</ele>
        <time>2012-05-14T21:06:08Z</time>
      </trkpt>
      <trkpt lat="38.613539971411228" lon="-109.52600486576557">
        <ele>1242.4000244140625</ele>
        <time>2012-05-14T21:06:12Z</time>
      </trkpt>
      <trkpt lat="38.613536031916738" lon="-109.52608340419829">
        <ele>1242</ele>
        <time>2012-05-14T21:06:16Z</time>
      </trkpt>
      <trkpt lat="38.613536115735769" lon="-109.52608088962734">
        <ele>1242</ele>
        <time>2012-05-14T21:06:17Z</time>
      </trkpt>
      <trkpt lat="38.613512394949794" lon="-109.52613604255021">
        <ele>1241.800048828125</ele>
        <time>2012-05-14T21:06:31Z</time>
      </trkpt>
      <trkpt lat="38.613512478768826" lon="-109.52615967951715">
        <ele>1241.800048828125</ele>
        <time>2012-05-14T21:06:33Z</time>
      </trkpt>
      <trkpt lat="38.613519854843616" lon="-109.52624115161598">
        <ele>1241.4000244140625</ele>
        <time>2012-05-14T21:06:36Z</time>
      </trkpt>
      <trkpt lat="38.613522117957473" lon="-109.52642354182899">
        <ele>1240.800048828125</ele>
        <time>2012-05-14T21:06:42Z</time>
      </trkpt>
      <trkpt lat="38.613526057451963" lon="-109.52646050602198">
        <ele>1240.800048828125</ele>
        <time>2012-05-14T21:06:46Z</time>
      </trkpt>
      <trkpt lat="38.613524800166488" lon="-109.52646846882999">
        <ele>1240.800048828125</ele>
        <time>2012-05-14T21:06:47Z</time>
      </trkpt>
      <trkpt lat="38.61353469081223" lon="-109.52649998478591">
        <ele>1240.5999755859375</ele>
        <time>2012-05-14T21:06:53Z</time>
      </trkpt>
      <trkpt lat="38.613527650013566" lon="-109.5265128929168">
        <ele>1240.5999755859375</ele>
        <time>2012-05-14T21:06:59Z</time>
      </trkpt>
      <trkpt lat="38.613536870107055" lon="-109.52660978771746">
        <ele>1241.4000244140625</ele>
        <time>2012-05-14T21:07:09Z</time>
      </trkpt>
      <trkpt lat="38.613552544265985" lon="-109.52672403305769">
        <ele>1242.199951171875</ele>
        <time>2012-05-14T21:07:15Z</time>
      </trkpt>
      <trkpt lat="38.613570481538773" lon="-109.52673149295151">
        <ele>1241.5999755859375</ele>
        <time>2012-05-14T21:07:20Z</time>
      </trkpt>
      <trkpt lat="38.613597890362144" lon="-109.52678639441729">
        <ele>1241</ele>
        <time>2012-05-14T21:07:26Z</time>
      </trkpt>
      <trkpt lat="38.613637620583177" lon="-109.52686451375484">
        <ele>1240.4000244140625</ele>
        <time>2012-05-14T21:07:29Z</time>
      </trkpt>
      <trkpt lat="38.613645667210221" lon="-109.52689619734883">
        <ele>1240.4000244140625</ele>
        <time>2012-05-14T21:07:31Z</time>
      </trkpt>
      <trkpt lat="38.613687409088016" lon="-109.52693307772279">
        <ele>1238.800048828125</ele>
        <time>2012-05-14T21:07:34Z</time>
      </trkpt>
      <trkpt lat="38.613726552575827" lon="-109.52698077075183">
        <ele>1237.4000244140625</ele>
        <time>2012-05-14T21:07:37Z</time>
      </trkpt>
      <trkpt lat="38.613826716318727" lon="-109.52710649929941">
        <ele>1235.5999755859375</ele>
        <time>2012-05-14T21:07:43Z</time>
      </trkpt>
      <trkpt lat="38.613857477903366" lon="-109.52729986980557">
        <ele>1236.4000244140625</ele>
        <time>2012-05-14T21:07:48Z</time>
      </trkpt>
      <trkpt lat="38.613824956119061" lon="-109.52754579484463">
        <ele>1236.5999755859375</ele>
        <time>2012-05-14T21:07:52Z</time>
      </trkpt>
      <trkpt lat="38.613798972219229" lon="-109.52767009846866">
        <ele>1236.800048828125</ele>
        <time>2012-05-14T21:07:55Z</time>
      </trkpt>
      <trkpt lat="38.61380198970437" lon="-109.5276646502316">
        <ele>1236.800048828125</ele>
        <time>2012-05-14T21:07:58Z</time>
      </trkpt>
      <trkpt lat="38.613815903663635" lon="-109.52766892500222">
        <ele>1236.4000244140625</ele>
        <time>2012-05-14T21:08:03Z</time>
      </trkpt>
      <trkpt lat="38.613890837877989" lon="-109.52772810123861">
        <ele>1234.4000244140625</ele>
        <time>2012-05-14T21:08:13Z</time>
      </trkpt>
      <trkpt lat="38.613900896161795" lon="-109.52782147563994">
        <ele>1234.199951171875</ele>
        <time>2012-05-14T21:08:21Z</time>
      </trkpt>
      <trkpt lat="38.613898800686002" lon="-109.52794527634978">
        <ele>1234.4000244140625</ele>
        <time>2012-05-14T21:08:27Z</time>
      </trkpt>
      <trkpt lat="38.613871140405536" lon="-109.52817837707698">
        <ele>1235.4000244140625</ele>
        <time>2012-05-14T21:08:33Z</time>
      </trkpt>
      <trkpt lat="38.613880779594183" lon="-109.52837132848799">
        <ele>1233.5999755859375</ele>
        <time>2012-05-14T21:08:37Z</time>
      </trkpt>
      <trkpt lat="38.613893436267972" lon="-109.52861323021352">
        <ele>1230.4000244140625</ele>
        <time>2012-05-14T21:08:41Z</time>
      </trkpt>
      <trkpt lat="38.6138781812042" lon="-109.52866880223155">
        <ele>1230.5999755859375</ele>
        <time>2012-05-14T21:08:42Z</time>
      </trkpt>
      <trkpt lat="38.613874996080995" lon="-109.52878195792437">
        <ele>1230</ele>
        <time>2012-05-14T21:08:44Z</time>
      </trkpt>
      <trkpt lat="38.613824285566807" lon="-109.52890961430967">
        <ele>1233.199951171875</ele>
        <time>2012-05-14T21:08:47Z</time>
      </trkpt>
      <trkpt lat="38.613680116832256" lon="-109.52904573641717">
        <ele>1239.4000244140625</ele>
        <time>2012-05-14T21:08:51Z</time>
      </trkpt>
      <trkpt lat="38.61365488730371" lon="-109.52918822877109">
        <ele>1239.199951171875</ele>
        <time>2012-05-14T21:08:54Z</time>
      </trkpt>
      <trkpt lat="38.613640638068318" lon="-109.52940272167325">
        <ele>1237.5999755859375</ele>
        <time>2012-05-14T21:08:58Z</time>
      </trkpt>
      <trkpt lat="38.613499570637941" lon="-109.52955099754035">
        <ele>1237.5999755859375</ele>
        <time>2012-05-14T21:09:02Z</time>
      </trkpt>
      <trkpt lat="38.613416086882353" lon="-109.52970866113901">
        <ele>1235.800048828125</ele>
        <time>2012-05-14T21:09:05Z</time>
      </trkpt>
      <trkpt lat="38.613343248143792" lon="-109.52981175854802">
        <ele>1234.800048828125</ele>
        <time>2012-05-14T21:09:07Z</time>
      </trkpt>
      <trkpt lat="38.613242665305734" lon="-109.52986808493733">
        <ele>1234.800048828125</ele>
        <time>2012-05-14T21:09:09Z</time>
      </trkpt>
      <trkpt lat="38.613162618130445" lon="-109.52995710074902">
        <ele>1233.5999755859375</ele>
        <time>2012-05-14T21:09:12Z</time>
      </trkpt>
      <trkpt lat="38.613154236227274" lon="-109.5300392434001">
        <ele>1231.800048828125</ele>
        <time>2012-05-14T21:09:14Z</time>
      </trkpt>
      <trkpt lat="38.613124396651983" lon="-109.53012314625084">
        <ele>1230.199951171875</ele>
        <time>2012-05-14T21:09:16Z</time>
      </trkpt>
      <trkpt lat="38.613093802705407" lon="-109.53014309518039">
        <ele>1230</ele>
        <time>2012-05-14T21:09:17Z</time>
      </trkpt>
      <trkpt lat="38.612933624535799" lon="-109.53016019426286">
        <ele>1231.199951171875</ele>
        <time>2012-05-14T21:09:21Z</time>
      </trkpt>
      <trkpt lat="38.612873945385218" lon="-109.53017980791628">
        <ele>1232.199951171875</ele>
        <time>2012-05-14T21:09:23Z</time>
      </trkpt>
      <trkpt lat="38.612860450521111" lon="-109.53021258115768">
        <ele>1232.4000244140625</ele>
        <time>2012-05-14T21:09:24Z</time>
      </trkpt>
      <trkpt lat="38.61291560344398" lon="-109.53030394390225">
        <ele>1230.4000244140625</ele>
        <time>2012-05-14T21:09:27Z</time>
      </trkpt>
      <trkpt lat="38.612942341715097" lon="-109.5303928758949">
        <ele>1229.4000244140625</ele>
        <time>2012-05-14T21:09:31Z</time>
      </trkpt>
      <trkpt lat="38.612936977297068" lon="-109.53055439516902">
        <ele>1228.199951171875</ele>
        <time>2012-05-14T21:09:35Z</time>
      </trkpt>
      <trkpt lat="38.612812086939812" lon="-109.53072370961308">
        <ele>1230.199951171875</ele>
        <time>2012-05-14T21:09:39Z</time>
      </trkpt>
      <trkpt lat="38.612756431102753" lon="-109.53089612536132">
        <ele>1229</ele>
        <time>2012-05-14T21:09:42Z</time>
      </trkpt>
      <trkpt lat="38.612710749730468" lon="-109.53102914616466">
        <ele>1227.800048828125</ele>
        <time>2012-05-14T21:09:44Z</time>
      </trkpt>
      <trkpt lat="38.612616788595915" lon="-109.53113903291523">
        <ele>1228</ele>
        <time>2012-05-14T21:09:46Z</time>
      </trkpt>
      <trkpt lat="38.612550320103765" lon="-109.5312581397593">
        <ele>1227.199951171875</ele>
        <time>2012-05-14T21:09:48Z</time>
      </trkpt>
      <trkpt lat="38.612520061433315" lon="-109.53137196600437">
        <ele>1225.199951171875</ele>
        <time>2012-05-14T21:09:50Z</time>
      </trkpt>
      <trkpt lat="38.612487455829978" lon="-109.53152485191822">
        <ele>1222</ele>
        <time>2012-05-14T21:09:53Z</time>
      </trkpt>
      <trkpt lat="38.612372791394591" lon="-109.53173456713557">
        <ele>1219.5999755859375</ele>
        <time>2012-05-14T21:09:56Z</time>
      </trkpt>
      <trkpt lat="38.612269693985581" lon="-109.53192257322371">
        <ele>1217.199951171875</ele>
        <time>2012-05-14T21:09:59Z</time>
      </trkpt>
      <trkpt lat="38.612222503870726" lon="-109.53195392154157">
        <ele>1217.199951171875</ele>
        <time>2012-05-14T21:10:00Z</time>
      </trkpt>
      <trkpt lat="38.612136673182249" lon="-109.53203413635492">
        <ele>1216.800048828125</ele>
        <time>2012-05-14T21:10:03Z</time>
      </trkpt>
      <trkpt lat="38.612105743959546" lon="-109.53205576166511">
        <ele>1216.5999755859375</ele>
        <time>2012-05-14T21:10:04Z</time>
      </trkpt>
      <trkpt lat="38.612067941576242" lon="-109.53207353129983">
        <ele>1216.800048828125</ele>
        <time>2012-05-14T21:10:05Z</time>
      </trkpt>
      <trkpt lat="38.612002478912473" lon="-109.53212390653789">
        <ele>1216.800048828125</ele>
        <time>2012-05-14T21:10:07Z</time>
      </trkpt>
      <trkpt lat="38.611985212191939" lon="-109.53215324319899">
        <ele>1216.5999755859375</ele>
        <time>2012-05-14T21:10:08Z</time>
      </trkpt>
      <trkpt lat="38.61200918443501" lon="-109.53223521821201">
        <ele>1215.199951171875</ele>
        <time>2012-05-14T21:10:11Z</time>
      </trkpt>
      <trkpt lat="38.612013710662723" lon="-109.53226908110082">
        <ele>1214.5999755859375</ele>
        <time>2012-05-14T21:10:12Z</time>
      </trkpt>
      <trkpt lat="38.612039359286427" lon="-109.53227654099464">
        <ele>1214.199951171875</ele>
        <time>2012-05-14T21:10:15Z</time>
      </trkpt>
      <trkpt lat="38.61204975284636" lon="-109.53227704390883">
        <ele>1214</ele>
        <time>2012-05-14T21:10:16Z</time>
      </trkpt>
      <trkpt lat="38.612140528857708" lon="-109.53236631117761">
        <ele>1211.800048828125</ele>
        <time>2012-05-14T21:10:32Z</time>
      </trkpt>
      <trkpt lat="38.61222367733717" lon="-109.53235960565507">
        <ele>1211</ele>
        <time>2012-05-14T21:10:35Z</time>
      </trkpt>
      <trkpt lat="38.612250918522477" lon="-109.53242146410048">
        <ele>1210.199951171875</ele>
        <time>2012-05-14T21:10:39Z</time>
      </trkpt>
      <trkpt lat="38.612360721454024" lon="-109.53258122317493">
        <ele>1208.4000244140625</ele>
        <time>2012-05-14T21:10:45Z</time>
      </trkpt>
      <trkpt lat="38.612441271543503" lon="-109.53260318376124">
        <ele>1208.199951171875</ele>
        <time>2012-05-14T21:10:49Z</time>
      </trkpt>
      <trkpt lat="38.612438421696424" lon="-109.53259723260999">
        <ele>1208.199951171875</ele>
        <time>2012-05-14T21:10:51Z</time>
      </trkpt>
      <trkpt lat="38.612428866326809" lon="-109.53258935362101">
        <ele>1208.199951171875</ele>
        <time>2012-05-14T21:10:53Z</time>
      </trkpt>
      <trkpt lat="38.612387627363205" lon="-109.53250167891383">
        <ele>1208.5999755859375</ele>
        <time>2012-05-14T21:12:19Z</time>
      </trkpt>
      <trkpt lat="38.612365582957864" lon="-109.53251416794956">
        <ele>1208.5999755859375</ele>
        <time>2012-05-14T21:12:24Z</time>
      </trkpt>
      <trkpt lat="38.612371617928147" lon="-109.53252975828946">
        <ele>1208.5999755859375</ele>
        <time>2012-05-14T21:12:25Z</time>
      </trkpt>
      <trkpt lat="38.612401373684406" lon="-109.53256806358695">
        <ele>1208.4000244140625</ele>
        <time>2012-05-14T21:12:32Z</time>
      </trkpt>
      <trkpt lat="38.61235611140728" lon="-109.53259052708745">
        <ele>1208.199951171875</ele>
        <time>2012-05-14T21:43:02Z</time>
      </trkpt>
      <trkpt lat="38.612356781959534" lon="-109.53259019181132">
        <ele>1208.199951171875</ele>
        <time>2012-05-14T21:43:03Z</time>
      </trkpt>
      <trkpt lat="38.612370695918798" lon="-109.53255808912218">
        <ele>1208.4000244140625</ele>
        <time>2012-05-14T21:43:28Z</time>
      </trkpt>
      <trkpt lat="38.612331636250019" lon="-109.53255456872284">
        <ele>1208.5999755859375</ele>
        <time>2012-05-14T21:43:34Z</time>
      </trkpt>
      <trkpt lat="38.612296348437667" lon="-109.53249488957226">
        <ele>1209.4000244140625</ele>
        <time>2012-05-14T21:43:41Z</time>
      </trkpt>
      <trkpt lat="38.612215463072062" lon="-109.53241559676826">
        <ele>1210.5999755859375</ele>
        <time>2012-05-14T21:43:51Z</time>
      </trkpt>
      <trkpt lat="38.612121250480413" lon="-109.53240344300866">
        <ele>1211.5999755859375</ele>
        <time>2012-05-14T21:44:00Z</time>
      </trkpt>
      <trkpt lat="38.612031145021319" lon="-109.53244627453387">
        <ele>1212.199951171875</ele>
        <time>2012-05-14T21:44:10Z</time>
      </trkpt>
      <trkpt lat="38.611963335424662" lon="-109.53250293619931">
        <ele>1212.5999755859375</ele>
        <time>2012-05-14T21:44:19Z</time>
      </trkpt>
      <trkpt lat="38.611873229965568" lon="-109.53252137638628">
        <ele>1213.4000244140625</ele>
        <time>2012-05-14T21:44:30Z</time>
      </trkpt>
      <trkpt lat="38.611850934103131" lon="-109.53252615407109">
        <ele>1213.800048828125</ele>
        <time>2012-05-14T21:44:33Z</time>
      </trkpt>
      <trkpt lat="38.611813466995955" lon="-109.53251651488245">
        <ele>1214.199951171875</ele>
        <time>2012-05-14T21:44:37Z</time>
      </trkpt>
      <trkpt lat="38.611784549430013" lon="-109.53251793980598">
        <ele>1214.800048828125</ele>
        <time>2012-05-14T21:44:40Z</time>
      </trkpt>
      <trkpt lat="38.611753452569246" lon="-109.53250536695123">
        <ele>1215.4000244140625</ele>
        <time>2012-05-14T21:44:43Z</time>
      </trkpt>
      <trkpt lat="38.611744400113821" lon="-109.53250201418996">
        <ele>1215.5999755859375</ele>
        <time>2012-05-14T21:44:44Z</time>
      </trkpt>
      <trkpt lat="38.611721936613321" lon="-109.53249941579998">
        <ele>1216</ele>
        <time>2012-05-14T21:44:46Z</time>
      </trkpt>
      <trkpt lat="38.61168765462935" lon="-109.53251978382468">
        <ele>1216.4000244140625</ele>
        <time>2012-05-14T21:44:49Z</time>
      </trkpt>
      <trkpt lat="38.611663263291121" lon="-109.53252254985273">
        <ele>1216.800048828125</ele>
        <time>2012-05-14T21:44:51Z</time>
      </trkpt>
      <trkpt lat="38.61163929104805" lon="-109.53255146741867">
        <ele>1216.800048828125</ele>
        <time>2012-05-14T21:44:52Z</time>
      </trkpt>
      <trkpt lat="38.611577264964581" lon="-109.53259890899062">
        <ele>1217</ele>
        <time>2012-05-14T21:44:55Z</time>
      </trkpt>
      <trkpt lat="38.611382804811001" lon="-109.53274399973452">
        <ele>1219.4000244140625</ele>
        <time>2012-05-14T21:45:03Z</time>
      </trkpt>
      <trkpt lat="38.611228158697486" lon="-109.53285665251315">
        <ele>1223.199951171875</ele>
        <time>2012-05-14T21:45:09Z</time>
      </trkpt>
      <trkpt lat="38.61102900467813" lon="-109.53303434886038">
        <ele>1225.5999755859375</ele>
        <time>2012-05-14T21:45:16Z</time>
      </trkpt>
      <trkpt lat="38.610742846503854" lon="-109.53330164775252">
        <ele>1226.4000244140625</ele>
        <time>2012-05-14T21:45:25Z</time>
      </trkpt>
      <trkpt lat="38.610490802675486" lon="-109.53358948230743">
        <ele>1220.5999755859375</ele>
        <time>2012-05-14T21:45:32Z</time>
      </trkpt>
      <trkpt lat="38.610206237062812" lon="-109.53397982753813">
        <ele>1211.199951171875</ele>
        <time>2012-05-14T21:45:39Z</time>
      </trkpt>
      <trkpt lat="38.609909266233444" lon="-109.53450445085764">
        <ele>1211</ele>
        <time>2012-05-14T21:45:47Z</time>
      </trkpt>
      <trkpt lat="38.60976786352694" lon="-109.53480360098183">
        <ele>1214.800048828125</ele>
        <time>2012-05-14T21:45:52Z</time>
      </trkpt>
      <trkpt lat="38.609743639826775" lon="-109.53486596234143">
        <ele>1215</ele>
        <time>2012-05-14T21:45:53Z</time>
      </trkpt>
      <trkpt lat="38.609497714787722" lon="-109.53549695201218">
        <ele>1213.5999755859375</ele>
        <time>2012-05-14T21:46:04Z</time>
      </trkpt>
      <trkpt lat="38.609261931851506" lon="-109.53607295639813">
        <ele>1211.4000244140625</ele>
        <time>2012-05-14T21:46:14Z</time>
      </trkpt>
      <trkpt lat="38.608990106731653" lon="-109.5365787204355">
        <ele>1210.4000244140625</ele>
        <time>2012-05-14T21:46:23Z</time>
      </trkpt>
      <trkpt lat="38.608694393187761" lon="-109.53712044283748">
        <ele>1209.4000244140625</ele>
        <time>2012-05-14T21:46:32Z</time>
      </trkpt>
      <trkpt lat="38.608449976891279" lon="-109.53774313442409">
        <ele>1208.4000244140625</ele>
        <time>2012-05-14T21:46:41Z</time>
      </trkpt>
      <trkpt lat="38.608420640230179" lon="-109.53781764954329">
        <ele>1208.800048828125</ele>
        <time>2012-05-14T21:46:42Z</time>
      </trkpt>
      <trkpt lat="38.608185863122344" lon="-109.53844612464309">
        <ele>1208.199951171875</ele>
        <time>2012-05-14T21:46:50Z</time>
      </trkpt>
      <trkpt lat="38.608125848695636" lon="-109.53859683126211">
        <ele>1208.800048828125</ele>
        <time>2012-05-14T21:46:52Z</time>
      </trkpt>
      <trkpt lat="38.607921916991472" lon="-109.53914559446275">
        <ele>1208.4000244140625</ele>
        <time>2012-05-14T21:46:59Z</time>
      </trkpt>
      <trkpt lat="38.607688816264272" lon="-109.53969444148242">
        <ele>1210.5999755859375</ele>
        <time>2012-05-14T21:47:07Z</time>
      </trkpt>
      <trkpt lat="38.607492260634899" lon="-109.54033808782697">
        <ele>1209.800048828125</ele>
        <time>2012-05-14T21:47:16Z</time>
      </trkpt>
      <trkpt lat="38.607426714152098" lon="-109.54078668728471">
        <ele>1212.5999755859375</ele>
        <time>2012-05-14T21:47:22Z</time>
      </trkpt>
      <trkpt lat="38.607394192367792" lon="-109.54129412770271">
        <ele>1211</ele>
        <time>2012-05-14T21:47:29Z</time>
      </trkpt>
      <trkpt lat="38.607382541522384" lon="-109.54177625477314">
        <ele>1208.800048828125</ele>
        <time>2012-05-14T21:47:36Z</time>
      </trkpt>
      <trkpt lat="38.607356222346425" lon="-109.54249978065491">
        <ele>1208.800048828125</ele>
        <time>2012-05-14T21:47:46Z</time>
      </trkpt>
      <trkpt lat="38.607352031394839" lon="-109.54306262545288">
        <ele>1209.5999755859375</ele>
        <time>2012-05-14T21:47:54Z</time>
      </trkpt>
      <trkpt lat="38.607411878183484" lon="-109.54369529150426">
        <ele>1209.800048828125</ele>
        <time>2012-05-14T21:48:03Z</time>
      </trkpt>
      <trkpt lat="38.607529979199171" lon="-109.54426903277636">
        <ele>1210.199951171875</ele>
        <time>2012-05-14T21:48:11Z</time>
      </trkpt>
      <trkpt lat="38.607676075771451" lon="-109.54486330971122">
        <ele>1208.800048828125</ele>
        <time>2012-05-14T21:48:19Z</time>
      </trkpt>
      <trkpt lat="38.607759727165103" lon="-109.54550754278898">
        <ele>1211.5999755859375</ele>
        <time>2012-05-14T21:48:27Z</time>
      </trkpt>
      <trkpt lat="38.607898280024529" lon="-109.5460004825145">
        <ele>1213.800048828125</ele>
        <time>2012-05-14T21:48:33Z</time>
      </trkpt>
      <trkpt lat="38.608166500926018" lon="-109.54664890654385">
        <ele>1228.800048828125</ele>
        <time>2012-05-14T21:48:41Z</time>
      </trkpt>
      <trkpt lat="38.60850814729929" lon="-109.54721468500793">
        <ele>1230</ele>
        <time>2012-05-14T21:48:49Z</time>
      </trkpt>
      <trkpt lat="38.608553661033511" lon="-109.54728073440492">
        <ele>1233.199951171875</ele>
        <time>2012-05-14T21:48:50Z</time>
      </trkpt>
      <trkpt lat="38.60891374759376" lon="-109.54780803993344">
        <ele>1231</ele>
        <time>2012-05-14T21:48:58Z</time>
      </trkpt>
      <trkpt lat="38.609000332653522" lon="-109.54794131219387">
        <ele>1221.4000244140625</ele>
        <time>2012-05-14T21:49:00Z</time>
      </trkpt>
      <trkpt lat="38.609403586015105" lon="-109.54851387999952">
        <ele>1216.800048828125</ele>
        <time>2012-05-14T21:49:09Z</time>
      </trkpt>
      <trkpt lat="38.609442478045821" lon="-109.54857842065394">
        <ele>1221.4000244140625</ele>
        <time>2012-05-14T21:49:10Z</time>
      </trkpt>
      <trkpt lat="38.609788147732615" lon="-109.54916532151401">
        <ele>1223.4000244140625</ele>
        <time>2012-05-14T21:49:19Z</time>
      </trkpt>
      <trkpt lat="38.610077407211065" lon="-109.54965063370764">
        <ele>1236</ele>
        <time>2012-05-14T21:49:27Z</time>
      </trkpt>
      <trkpt lat="38.610460963100195" lon="-109.55012613907456">
        <ele>1253.5999755859375</ele>
        <time>2012-05-14T21:49:36Z</time>
      </trkpt>
      <trkpt lat="38.610906880348921" lon="-109.55059384927154">
        <ele>1237.800048828125</ele>
        <time>2012-05-14T21:49:45Z</time>
      </trkpt>
      <trkpt lat="38.611346930265427" lon="-109.5510290376842">
        <ele>1225.199951171875</ele>
        <time>2012-05-14T21:49:54Z</time>
      </trkpt>
      <trkpt lat="38.611725624650717" lon="-109.55148559994996">
        <ele>1227.199951171875</ele>
        <time>2012-05-14T21:50:02Z</time>
      </trkpt>
      <trkpt lat="38.612185707315803" lon="-109.55194626934826">
        <ele>1216.199951171875</ele>
        <time>2012-05-14T21:50:11Z</time>
      </trkpt>
      <trkpt lat="38.612618297338486" lon="-109.55248145386577">
        <ele>1211</ele>
        <time>2012-05-14T21:50:20Z</time>
      </trkpt>
      <trkpt lat="38.612663559615612" lon="-109.55254222266376">
        <ele>1210.800048828125</ele>
        <time>2012-05-14T21:50:21Z</time>
      </trkpt>
      <trkpt lat="38.612975617870688" lon="-109.55309224314988">
        <ele>1209.800048828125</ele>
        <time>2012-05-14T21:50:29Z</time>
      </trkpt>
      <trkpt lat="38.613169407472014" lon="-109.5536969974637">
        <ele>1209</ele>
        <time>2012-05-14T21:50:37Z</time>
      </trkpt>
      <trkpt lat="38.61321659758687" lon="-109.55402716062963">
        <ele>1210.800048828125</ele>
        <time>2012-05-14T21:50:42Z</time>
      </trkpt>
      <trkpt lat="38.613248029723763" lon="-109.5544779393822">
        <ele>1211.5999755859375</ele>
        <time>2012-05-14T21:50:50Z</time>
      </trkpt>
      <trkpt lat="38.613268816843629" lon="-109.55463049001992">
        <ele>1211.199951171875</ele>
        <time>2012-05-14T21:50:53Z</time>
      </trkpt>
      <trkpt lat="38.613314582034945" lon="-109.55473534762859">
        <ele>1210.4000244140625</ele>
        <time>2012-05-14T21:50:55Z</time>
      </trkpt>
      <trkpt lat="38.613317096605897" lon="-109.55479041673243">
        <ele>1210.4000244140625</ele>
        <time>2012-05-14T21:50:56Z</time>
      </trkpt>
      <trkpt lat="38.613311816006899" lon="-109.55490776337683">
        <ele>1210.4000244140625</ele>
        <time>2012-05-14T21:50:58Z</time>
      </trkpt>
      <trkpt lat="38.613295890390873" lon="-109.55503894016147">
        <ele>1210.4000244140625</ele>
        <time>2012-05-14T21:51:00Z</time>
      </trkpt>
      <trkpt lat="38.613252136856318" lon="-109.55531185492873">
        <ele>1210.5999755859375</ele>
        <time>2012-05-14T21:51:04Z</time>
      </trkpt>
      <trkpt lat="38.613115176558495" lon="-109.55584670417011">
        <ele>1211</ele>
        <time>2012-05-14T21:51:12Z</time>
      </trkpt>
      <trkpt lat="38.612884758040309" lon="-109.55634861253202">
        <ele>1212.4000244140625</ele>
        <time>2012-05-14T21:51:19Z</time>
      </trkpt>
      <trkpt lat="38.612609915435314" lon="-109.55674977041781">
        <ele>1213.199951171875</ele>
        <time>2012-05-14T21:51:26Z</time>
      </trkpt>
      <trkpt lat="38.612252427265048" lon="-109.55712025053799">
        <ele>1213.199951171875</ele>
        <time>2012-05-14T21:51:34Z</time>
      </trkpt>
      <trkpt lat="38.611953612416983" lon="-109.55732862465084">
        <ele>1213</ele>
        <time>2012-05-14T21:51:41Z</time>
      </trkpt>
      <trkpt lat="38.611649433150887" lon="-109.55745577812195">
        <ele>1213.199951171875</ele>
        <time>2012-05-14T21:51:47Z</time>
      </trkpt>
      <trkpt lat="38.611250622197986" lon="-109.55757647752762">
        <ele>1213</ele>
        <time>2012-05-14T21:51:53Z</time>
      </trkpt>
      <trkpt lat="38.610697668045759" lon="-109.55769969150424">
        <ele>1213</ele>
        <time>2012-05-14T21:52:02Z</time>
      </trkpt>
      <trkpt lat="38.610143205150962" lon="-109.55774696543813">
        <ele>1213</ele>
        <time>2012-05-14T21:52:11Z</time>
      </trkpt>
      <trkpt lat="38.609954528510571" lon="-109.55776180140674">
        <ele>1213</ele>
        <time>2012-05-14T21:52:14Z</time>
      </trkpt>
      <trkpt lat="38.609559740871191" lon="-109.55771561712027">
        <ele>1213.199951171875</ele>
        <time>2012-05-14T21:52:21Z</time>
      </trkpt>
      <trkpt lat="38.609271571040154" lon="-109.55769198015332">
        <ele>1213.4000244140625</ele>
        <time>2012-05-14T21:52:26Z</time>
      </trkpt>
      <trkpt lat="38.608918441459537" lon="-109.5576707739383">
        <ele>1214.199951171875</ele>
        <time>2012-05-14T21:52:31Z</time>
      </trkpt>
      <trkpt lat="38.608492976054549" lon="-109.55771779641509">
        <ele>1214.800048828125</ele>
        <time>2012-05-14T21:52:37Z</time>
      </trkpt>
      <trkpt lat="38.607953935861588" lon="-109.55790395848453">
        <ele>1215</ele>
        <time>2012-05-14T21:52:45Z</time>
      </trkpt>
      <trkpt lat="38.607418751344085" lon="-109.55814183689654">
        <ele>1215</ele>
        <time>2012-05-14T21:52:53Z</time>
      </trkpt>
      <trkpt lat="38.6073540430516" lon="-109.55816086381674">
        <ele>1215</ele>
        <time>2012-05-14T21:52:54Z</time>
      </trkpt>
      <trkpt lat="38.606887925416231" lon="-109.55822942778468">
        <ele>1215.199951171875</ele>
        <time>2012-05-14T21:53:01Z</time>
      </trkpt>
      <trkpt lat="38.606287697330117" lon="-109.55827368423343">
        <ele>1216</ele>
        <time>2012-05-14T21:53:10Z</time>
      </trkpt>
      <trkpt lat="38.605746394023299" lon="-109.55824761651456">
        <ele>1217.199951171875</ele>
        <time>2012-05-14T21:53:18Z</time>
      </trkpt>
      <trkpt lat="38.605489656329155" lon="-109.55841047689319">
        <ele>1216.5999755859375</ele>
        <time>2012-05-14T21:53:22Z</time>
      </trkpt>
      <trkpt lat="38.605431066825986" lon="-109.55846621654928">
        <ele>1216.5999755859375</ele>
        <time>2012-05-14T21:53:23Z</time>
      </trkpt>
      <trkpt lat="38.605176173150539" lon="-109.55876788124442">
        <ele>1216.800048828125</ele>
        <time>2012-05-14T21:53:28Z</time>
      </trkpt>
      <trkpt lat="38.605115152895451" lon="-109.55881926231086">
        <ele>1216.800048828125</ele>
        <time>2012-05-14T21:53:29Z</time>
      </trkpt>
      <trkpt lat="38.604909963905811" lon="-109.5589073561132">
        <ele>1217.199951171875</ele>
        <time>2012-05-14T21:53:32Z</time>
      </trkpt>
      <trkpt lat="38.604840729385614" lon="-109.55892898142338">
        <ele>1217.4000244140625</ele>
        <time>2012-05-14T21:53:33Z</time>
      </trkpt>
      <trkpt lat="38.604455245658755" lon="-109.55905999056995">
        <ele>1217.4000244140625</ele>
        <time>2012-05-14T21:53:39Z</time>
      </trkpt>
      <trkpt lat="38.604059284552932" lon="-109.55927733331919">
        <ele>1217.199951171875</ele>
        <time>2012-05-14T21:53:45Z</time>
      </trkpt>
      <trkpt lat="38.603542456403375" lon="-109.55957648344338">
        <ele>1218.4000244140625</ele>
        <time>2012-05-14T21:53:53Z</time>
      </trkpt>
      <trkpt lat="38.603060245513916" lon="-109.55989348702133">
        <ele>1216.800048828125</ele>
        <time>2012-05-14T21:54:01Z</time>
      </trkpt>
      <trkpt lat="38.603002661839128" lon="-109.55994646064937">
        <ele>1216.5999755859375</ele>
        <time>2012-05-14T21:54:02Z</time>
      </trkpt>
      <trkpt lat="38.602714911103249" lon="-109.56032951362431">
        <ele>1216</ele>
        <time>2012-05-14T21:54:08Z</time>
      </trkpt>
      <trkpt lat="38.602526569738984" lon="-109.56080552190542">
        <ele>1214</ele>
        <time>2012-05-14T21:54:14Z</time>
      </trkpt>
      <trkpt lat="38.602329092100263" lon="-109.56115135923028">
        <ele>1213</ele>
        <time>2012-05-14T21:54:19Z</time>
      </trkpt>
      <trkpt lat="38.602002030238509" lon="-109.56159040331841">
        <ele>1213.199951171875</ele>
        <time>2012-05-14T21:54:26Z</time>
      </trkpt>
      <trkpt lat="38.601722158491611" lon="-109.56205031834543">
        <ele>1214.4000244140625</ele>
        <time>2012-05-14T21:54:33Z</time>
      </trkpt>
      <trkpt lat="38.601588886231184" lon="-109.56243261694908">
        <ele>1213.800048828125</ele>
        <time>2012-05-14T21:54:38Z</time>
      </trkpt>
      <trkpt lat="38.601487381383777" lon="-109.56289588473737">
        <ele>1214.4000244140625</ele>
        <time>2012-05-14T21:54:45Z</time>
      </trkpt>
      <trkpt lat="38.60146215185523" lon="-109.56347960047424">
        <ele>1211.5999755859375</ele>
        <time>2012-05-14T21:54:54Z</time>
      </trkpt>
      <trkpt lat="38.601444382220507" lon="-109.56387153826654">
        <ele>1211.800048828125</ele>
        <time>2012-05-14T21:55:00Z</time>
      </trkpt>
      <trkpt lat="38.60145234502852" lon="-109.56453421153128">
        <ele>1211.5999755859375</ele>
        <time>2012-05-14T21:55:10Z</time>
      </trkpt>
      <trkpt lat="38.601475562900305" lon="-109.5652396325022">
        <ele>1212</ele>
        <time>2012-05-14T21:55:21Z</time>
      </trkpt>
      <trkpt lat="38.601564997807145" lon="-109.56588109955192">
        <ele>1210.4000244140625</ele>
        <time>2012-05-14T21:55:31Z</time>
      </trkpt>
      <trkpt lat="38.601689385250211" lon="-109.56651686690748">
        <ele>1212.4000244140625</ele>
        <time>2012-05-14T21:55:41Z</time>
      </trkpt>
      <trkpt lat="38.601876134052873" lon="-109.5672252215445">
        <ele>1213.4000244140625</ele>
        <time>2012-05-14T21:55:52Z</time>
      </trkpt>
      <trkpt lat="38.602084089070559" lon="-109.56786895170808">
        <ele>1210</ele>
        <time>2012-05-14T21:56:02Z</time>
      </trkpt>
      <trkpt lat="38.602105462923646" lon="-109.56793307326734">
        <ele>1210.5999755859375</ele>
        <time>2012-05-14T21:56:03Z</time>
      </trkpt>
      <trkpt lat="38.60233873128891" lon="-109.56857101991773">
        <ele>1210</ele>
        <time>2012-05-14T21:56:13Z</time>
      </trkpt>
      <trkpt lat="38.602385502308607" lon="-109.56869934685528">
        <ele>1209.4000244140625</ele>
        <time>2012-05-14T21:56:15Z</time>
      </trkpt>
      <trkpt lat="38.602615753188729" lon="-109.56938465125859">
        <ele>1210</ele>
        <time>2012-05-14T21:56:26Z</time>
      </trkpt>
      <trkpt lat="38.602782972157001" lon="-109.57002854906023">
        <ele>1212</ele>
        <time>2012-05-14T21:56:36Z</time>
      </trkpt>
      <trkpt lat="38.602915154770017" lon="-109.57060874439776">
        <ele>1209</ele>
        <time>2012-05-14T21:56:45Z</time>
      </trkpt>
      <trkpt lat="38.603032166138291" lon="-109.57126068882644">
        <ele>1212.4000244140625</ele>
        <time>2012-05-14T21:56:55Z</time>
      </trkpt>
      <trkpt lat="38.603093856945634" lon="-109.57192721776664">
        <ele>1211.800048828125</ele>
        <time>2012-05-14T21:57:05Z</time>
      </trkpt>
      <trkpt lat="38.603105591610074" lon="-109.57215746864676">
        <ele>1211.4000244140625</ele>
        <time>2012-05-14T21:57:09Z</time>
      </trkpt>
      <trkpt lat="38.603074410930276" lon="-109.5722421258688">
        <ele>1212.800048828125</ele>
        <time>2012-05-14T21:57:11Z</time>
      </trkpt>
      <trkpt lat="38.603059491142631" lon="-109.5723438821733">
        <ele>1213.5999755859375</ele>
        <time>2012-05-14T21:57:14Z</time>
      </trkpt>
      <trkpt lat="38.603070890530944" lon="-109.57240305840969">
        <ele>1213</ele>
        <time>2012-05-14T21:57:16Z</time>
      </trkpt>
      <trkpt lat="38.603078434243798" lon="-109.57244815304875">
        <ele>1212.5999755859375</ele>
        <time>2012-05-14T21:57:18Z</time>
      </trkpt>
      <trkpt lat="38.603091426193714" lon="-109.57251135259867">
        <ele>1212</ele>
        <time>2012-05-14T21:57:22Z</time>
      </trkpt>
      <trkpt lat="38.60309804789722" lon="-109.57261813804507">
        <ele>1211.5999755859375</ele>
        <time>2012-05-14T21:57:27Z</time>
      </trkpt>
      <trkpt lat="38.603122774511576" lon="-109.57267790101469">
        <ele>1210.4000244140625</ele>
        <time>2012-05-14T21:57:29Z</time>
      </trkpt>
      <trkpt lat="38.60315571539104" lon="-109.57283011637628">
        <ele>1209</ele>
        <time>2012-05-14T21:57:33Z</time>
      </trkpt>
      <trkpt lat="38.603137191385031" lon="-109.57313966006041">
        <ele>1209.4000244140625</ele>
        <time>2012-05-14T21:57:40Z</time>
      </trkpt>
      <trkpt lat="38.60308438539505" lon="-109.57352992147207">
        <ele>1211</ele>
        <time>2012-05-14T21:57:49Z</time>
      </trkpt>
      <trkpt lat="38.602984640747309" lon="-109.57393677905202">
        <ele>1212.800048828125</ele>
        <time>2012-05-14T21:57:58Z</time>
      </trkpt>
      <trkpt lat="38.602784983813763" lon="-109.57446584478021">
        <ele>1215.199951171875</ele>
        <time>2012-05-14T21:58:10Z</time>
      </trkpt>
      <trkpt lat="38.6026915255934" lon="-109.57464018836617">
        <ele>1216</ele>
        <time>2012-05-14T21:58:16Z</time>
      </trkpt>
      <trkpt lat="38.602615501731634" lon="-109.57476859912276">
        <ele>1216.199951171875</ele>
        <time>2012-05-14T21:58:23Z</time>
      </trkpt>
      <trkpt lat="38.602466052398086" lon="-109.57495727576315">
        <ele>1216.199951171875</ele>
        <time>2012-05-14T21:58:30Z</time>
      </trkpt>
      <trkpt lat="38.602175284177065" lon="-109.57523002289236">
        <ele>1216</ele>
        <time>2012-05-14T21:58:41Z</time>
      </trkpt>
      <trkpt lat="38.601970011368394" lon="-109.57540713250637">
        <ele>1216</ele>
        <time>2012-05-14T21:58:49Z</time>
      </trkpt>
      <trkpt lat="38.601825926452875" lon="-109.57548231817782">
        <ele>1215.800048828125</ele>
        <time>2012-05-14T21:58:54Z</time>
      </trkpt>
      <trkpt lat="38.601606991142035" lon="-109.57567116245627">
        <ele>1214</ele>
        <time>2012-05-14T21:59:02Z</time>
      </trkpt>
      <trkpt lat="38.601433569565415" lon="-109.57571206614375">
        <ele>1213.4000244140625</ele>
        <time>2012-05-14T21:59:07Z</time>
      </trkpt>
      <trkpt lat="38.60128671862185" lon="-109.57562740892172">
        <ele>1214</ele>
        <time>2012-05-14T21:59:11Z</time>
      </trkpt>
      <trkpt lat="38.601016653701663" lon="-109.57537109032273">
        <ele>1215.5999755859375</ele>
        <time>2012-05-14T21:59:18Z</time>
      </trkpt>
      <trkpt lat="38.600601498037577" lon="-109.57495937123895">
        <ele>1216.5999755859375</ele>
        <time>2012-05-14T21:59:28Z</time>
      </trkpt>
      <trkpt lat="38.600141247734427" lon="-109.57451244816184">
        <ele>1216.4000244140625</ele>
        <time>2012-05-14T21:59:39Z</time>
      </trkpt>
      <trkpt lat="38.600099254399538" lon="-109.5744716282934">
        <ele>1216.5999755859375</ele>
        <time>2012-05-14T21:59:40Z</time>
      </trkpt>
      <trkpt lat="38.599662138149142" lon="-109.57404465414584">
        <ele>1216.4000244140625</ele>
        <time>2012-05-14T21:59:50Z</time>
      </trkpt>
      <trkpt lat="38.599615702405572" lon="-109.57400131970644">
        <ele>1216.4000244140625</ele>
        <time>2012-05-14T21:59:51Z</time>
      </trkpt>
      <trkpt lat="38.599172215908766" lon="-109.57355531863868">
        <ele>1216.5999755859375</ele>
        <time>2012-05-14T22:00:01Z</time>
      </trkpt>
      <trkpt lat="38.59874582849443" lon="-109.57313052378595">
        <ele>1217.4000244140625</ele>
        <time>2012-05-14T22:00:11Z</time>
      </trkpt>
      <trkpt lat="38.598663518205285" lon="-109.57305215299129">
        <ele>1217.5999755859375</ele>
        <time>2012-05-14T22:00:13Z</time>
      </trkpt>
      <trkpt lat="38.598216092213988" lon="-109.57258318550885">
        <ele>1219</ele>
        <time>2012-05-14T22:00:24Z</time>
      </trkpt>
      <trkpt lat="38.597896993160248" lon="-109.57223835401237">
        <ele>1221.199951171875</ele>
        <time>2012-05-14T22:00:32Z</time>
      </trkpt>
      <trkpt lat="38.597486363723874" lon="-109.5717032533139">
        <ele>1224.4000244140625</ele>
        <time>2012-05-14T22:00:43Z</time>
      </trkpt>
      <trkpt lat="38.597449231892824" lon="-109.57165019586682">
        <ele>1224.5999755859375</ele>
        <time>2012-05-14T22:00:44Z</time>
      </trkpt>
      <trkpt lat="38.597071543335915" lon="-109.57110964693129">
        <ele>1224.199951171875</ele>
        <time>2012-05-14T22:00:54Z</time>
      </trkpt>
      <trkpt lat="38.596951346844435" lon="-109.57094368524849">
        <ele>1224.199951171875</ele>
        <time>2012-05-14T22:00:57Z</time>
      </trkpt>
      <trkpt lat="38.596562594175339" lon="-109.57038654014468">
        <ele>1224</ele>
        <time>2012-05-14T22:01:07Z</time>
      </trkpt>
      <trkpt lat="38.596441894769669" lon="-109.5702248532325">
        <ele>1223.5999755859375</ele>
        <time>2012-05-14T22:01:10Z</time>
      </trkpt>
      <trkpt lat="38.596044257283211" lon="-109.56966251134872">
        <ele>1223.4000244140625</ele>
        <time>2012-05-14T22:01:20Z</time>
      </trkpt>
      <trkpt lat="38.595965802669525" lon="-109.56955178640783">
        <ele>1223.4000244140625</ele>
        <time>2012-05-14T22:01:22Z</time>
      </trkpt>
      <trkpt lat="38.595577888190746" lon="-109.56898961216211">
        <ele>1223.4000244140625</ele>
        <time>2012-05-14T22:01:32Z</time>
      </trkpt>
      <trkpt lat="38.595538912340999" lon="-109.56893412396312">
        <ele>1223.199951171875</ele>
        <time>2012-05-14T22:01:33Z</time>
      </trkpt>
      <trkpt lat="38.595152171328664" lon="-109.56838980317116">
        <ele>1222.199951171875</ele>
        <time>2012-05-14T22:01:43Z</time>
      </trkpt>
      <trkpt lat="38.595113279297948" lon="-109.56833506934345">
        <ele>1222</ele>
        <time>2012-05-14T22:01:44Z</time>
      </trkpt>
      <trkpt lat="38.594726705923676" lon="-109.5677881501615">
        <ele>1222.5999755859375</ele>
        <time>2012-05-14T22:01:54Z</time>
      </trkpt>
      <trkpt lat="38.594607431441545" lon="-109.56762311048806">
        <ele>1222.5999755859375</ele>
        <time>2012-05-14T22:01:57Z</time>
      </trkpt>
      <trkpt lat="38.594238292425871" lon="-109.56711466424167">
        <ele>1221.800048828125</ele>
        <time>2012-05-14T22:02:06Z</time>
      </trkpt>
      <trkpt lat="38.594197891652584" lon="-109.56705775111914">
        <ele>1221.5999755859375</ele>
        <time>2012-05-14T22:02:07Z</time>
      </trkpt>
      <trkpt lat="38.593832859769464" lon="-109.56654670648277">
        <ele>1219.4000244140625</ele>
        <time>2012-05-14T22:02:16Z</time>
      </trkpt>
      <trkpt lat="38.593746274709702" lon="-109.56643723882735">
        <ele>1219.4000244140625</ele>
        <time>2012-05-14T22:02:18Z</time>
      </trkpt>
      <trkpt lat="38.593381829559803" lon="-109.5659251883626">
        <ele>1221.5999755859375</ele>
        <time>2012-05-14T22:02:27Z</time>
      </trkpt>
      <trkpt lat="38.593342518433928" lon="-109.56587003543973">
        <ele>1221.5999755859375</ele>
        <time>2012-05-14T22:02:28Z</time>
      </trkpt>
      <trkpt lat="38.592939851805568" lon="-109.56530584953725">
        <ele>1222.800048828125</ele>
        <time>2012-05-14T22:02:38Z</time>
      </trkpt>
      <trkpt lat="38.592859385535121" lon="-109.56519554369152">
        <ele>1223.199951171875</ele>
        <time>2012-05-14T22:02:40Z</time>
      </trkpt>
      <trkpt lat="38.592470800504088" lon="-109.56470595672727">
        <ele>1222.199951171875</ele>
        <time>2012-05-14T22:02:49Z</time>
      </trkpt>
      <trkpt lat="38.592427214607596" lon="-109.5646508038044">
        <ele>1222</ele>
        <time>2012-05-14T22:02:50Z</time>
      </trkpt>
      <trkpt lat="38.592015411704779" lon="-109.56418787129223">
        <ele>1221.800048828125</ele>
        <time>2012-05-14T22:02:59Z</time>
      </trkpt>
      <trkpt lat="38.591572176665068" lon="-109.56373323686421">
        <ele>1222.4000244140625</ele>
        <time>2012-05-14T22:03:08Z</time>
      </trkpt>
      <trkpt lat="38.591102370992303" lon="-109.56327927298844">
        <ele>1223</ele>
        <time>2012-05-14T22:03:17Z</time>
      </trkpt>
      <trkpt lat="38.590889554470778" lon="-109.56307835876942">
        <ele>1223.4000244140625</ele>
        <time>2012-05-14T22:03:21Z</time>
      </trkpt>
      <trkpt lat="38.590392675250769" lon="-109.56265314482152">
        <ele>1223.800048828125</ele>
        <time>2012-05-14T22:03:30Z</time>
      </trkpt>
      <trkpt lat="38.590338276699185" lon="-109.56260712817311">
        <ele>1223.800048828125</ele>
        <time>2012-05-14T22:03:31Z</time>
      </trkpt>
      <trkpt lat="38.589861681684852" lon="-109.56219884566963">
        <ele>1223.5999755859375</ele>
        <time>2012-05-14T22:03:40Z</time>
      </trkpt>
      <trkpt lat="38.589704604819417" lon="-109.5620568562299">
        <ele>1223.800048828125</ele>
        <time>2012-05-14T22:03:43Z</time>
      </trkpt>
      <trkpt lat="38.589297579601407" lon="-109.56162611022592">
        <ele>1224.800048828125</ele>
        <time>2012-05-14T22:03:52Z</time>
      </trkpt>
      <trkpt lat="38.588947467505932" lon="-109.56120198592544">
        <ele>1225.4000244140625</ele>
        <time>2012-05-14T22:04:01Z</time>
      </trkpt>
      <trkpt lat="38.588592829182744" lon="-109.56076243892312">
        <ele>1225</ele>
        <time>2012-05-14T22:04:11Z</time>
      </trkpt>
      <trkpt lat="38.588208016008139" lon="-109.56027209758759">
        <ele>1225</ele>
        <time>2012-05-14T22:04:22Z</time>
      </trkpt>
      <trkpt lat="38.588171051815152" lon="-109.56022608093917">
        <ele>1225</ele>
        <time>2012-05-14T22:04:23Z</time>
      </trkpt>
      <trkpt lat="38.587755812332034" lon="-109.55970263108611">
        <ele>1225.199951171875</ele>
        <time>2012-05-14T22:04:35Z</time>
      </trkpt>
      <trkpt lat="38.587356330826879" lon="-109.55916593782604">
        <ele>1224.800048828125</ele>
        <time>2012-05-14T22:04:47Z</time>
      </trkpt>
      <trkpt lat="38.586972020566463" lon="-109.55864064395428">
        <ele>1225.4000244140625</ele>
        <time>2012-05-14T22:04:59Z</time>
      </trkpt>
      <trkpt lat="38.586907479912043" lon="-109.55855229869485">
        <ele>1225.4000244140625</ele>
        <time>2012-05-14T22:05:01Z</time>
      </trkpt>
      <trkpt lat="38.586494252085686" lon="-109.55802256241441">
        <ele>1226.4000244140625</ele>
        <time>2012-05-14T22:05:13Z</time>
      </trkpt>
      <trkpt lat="38.586459048092365" lon="-109.55797755159438">
        <ele>1226.4000244140625</ele>
        <time>2012-05-14T22:05:14Z</time>
      </trkpt>
      <trkpt lat="38.586068032309413" lon="-109.5574839413166">
        <ele>1227.199951171875</ele>
        <time>2012-05-14T22:05:25Z</time>
      </trkpt>
      <trkpt lat="38.586028972640634" lon="-109.55743666738272">
        <ele>1227.199951171875</ele>
        <time>2012-05-14T22:05:26Z</time>
      </trkpt>
      <trkpt lat="38.585661510005593" lon="-109.55697817727923">
        <ele>1227.800048828125</ele>
        <time>2012-05-14T22:05:36Z</time>
      </trkpt>
      <trkpt lat="38.585265884175897" lon="-109.55647828057408">
        <ele>1228.5999755859375</ele>
        <time>2012-05-14T22:05:47Z</time>
      </trkpt>
      <trkpt lat="38.585161445662379" lon="-109.55634383484721">
        <ele>1228.800048828125</ele>
        <time>2012-05-14T22:05:50Z</time>
      </trkpt>
      <trkpt lat="38.584749726578593" lon="-109.55582683905959">
        <ele>1229.4000244140625</ele>
        <time>2012-05-14T22:06:02Z</time>
      </trkpt>
      <trkpt lat="38.584352005273104" lon="-109.55533163622022">
        <ele>1229.5999755859375</ele>
        <time>2012-05-14T22:06:13Z</time>
      </trkpt>
      <trkpt lat="38.583939867094159" lon="-109.55482377670705">
        <ele>1229.800048828125</ele>
        <time>2012-05-14T22:06:24Z</time>
      </trkpt>
      <trkpt lat="38.583826962858438" lon="-109.55468698404729">
        <ele>1229.800048828125</ele>
        <time>2012-05-14T22:06:27Z</time>
      </trkpt>
      <trkpt lat="38.58341122046113" lon="-109.55418298020959">
        <ele>1230.199951171875</ele>
        <time>2012-05-14T22:06:38Z</time>
      </trkpt>
      <trkpt lat="38.583338381722569" lon="-109.5540910307318">
        <ele>1230.199951171875</ele>
        <time>2012-05-14T22:06:40Z</time>
      </trkpt>
      <trkpt lat="38.582930350676179" lon="-109.55358283594251">
        <ele>1230.800048828125</ele>
        <time>2012-05-14T22:06:51Z</time>
      </trkpt>
      <trkpt lat="38.58278039842844" lon="-109.55339734442532">
        <ele>1230.5999755859375</ele>
        <time>2012-05-14T22:06:55Z</time>
      </trkpt>
      <trkpt lat="38.582359459251165" lon="-109.55288772471249">
        <ele>1230.5999755859375</ele>
        <time>2012-05-14T22:07:06Z</time>
      </trkpt>
      <trkpt lat="38.582318220287561" lon="-109.55284145660698">
        <ele>1230.5999755859375</ele>
        <time>2012-05-14T22:07:07Z</time>
      </trkpt>
      <trkpt lat="38.581883367151022" lon="-109.55239822156727">
        <ele>1231</ele>
        <time>2012-05-14T22:07:17Z</time>
      </trkpt>
      <trkpt lat="38.581791501492262" lon="-109.55231658183038">
        <ele>1231</ele>
        <time>2012-05-14T22:07:19Z</time>
      </trkpt>
      <trkpt lat="38.581310715526342" lon="-109.55192984081805">
        <ele>1230.5999755859375</ele>
        <time>2012-05-14T22:07:29Z</time>
      </trkpt>
      <trkpt lat="38.580822888761759" lon="-109.5516112446785">
        <ele>1230.800048828125</ele>
        <time>2012-05-14T22:07:39Z</time>
      </trkpt>
      <trkpt lat="38.580722054466605" lon="-109.55155475065112">
        <ele>1230.5999755859375</ele>
        <time>2012-05-14T22:07:41Z</time>
      </trkpt>
      <trkpt lat="38.580180918797851" lon="-109.55129885114729">
        <ele>1230.5999755859375</ele>
        <time>2012-05-14T22:07:51Z</time>
      </trkpt>
      <trkpt lat="38.579696444794536" lon="-109.55110346898437">
        <ele>1229.800048828125</ele>
        <time>2012-05-14T22:07:59Z</time>
      </trkpt>
      <trkpt lat="38.57920560054481" lon="-109.55096801742911">
        <ele>1229.4000244140625</ele>
        <time>2012-05-14T22:08:06Z</time>
      </trkpt>
      <trkpt lat="38.578622052446008" lon="-109.55086810514331">
        <ele>1229</ele>
        <time>2012-05-14T22:08:14Z</time>
      </trkpt>
      <trkpt lat="38.578547788783908" lon="-109.55086198635399">
        <ele>1229</ele>
        <time>2012-05-14T22:08:15Z</time>
      </trkpt>
      <trkpt lat="38.57803774997592" lon="-109.55085192807019">
        <ele>1228.4000244140625</ele>
        <time>2012-05-14T22:08:22Z</time>
      </trkpt>
      <trkpt lat="38.577593676745892" lon="-109.55085159279406">
        <ele>1228</ele>
        <time>2012-05-14T22:08:29Z</time>
      </trkpt>
      <trkpt lat="38.577046422287822" lon="-109.55085813067853">
        <ele>1227.5999755859375</ele>
        <time>2012-05-14T22:08:39Z</time>
      </trkpt>
      <trkpt lat="38.576996047049761" lon="-109.5508564542979">
        <ele>1227.5999755859375</ele>
        <time>2012-05-14T22:08:40Z</time>
      </trkpt>
      <trkpt lat="38.576548369601369" lon="-109.5508598908782">
        <ele>1227.4000244140625</ele>
        <time>2012-05-14T22:08:49Z</time>
      </trkpt>
      <trkpt lat="38.576058028265834" lon="-109.55086466856301">
        <ele>1227</ele>
        <time>2012-05-14T22:08:59Z</time>
      </trkpt>
      <trkpt lat="38.575566597282887" lon="-109.55086508765817">
        <ele>1226.800048828125</ele>
        <time>2012-05-14T22:09:09Z</time>
      </trkpt>
      <trkpt lat="38.575044823810458" lon="-109.55087036825716">
        <ele>1226.800048828125</ele>
        <time>2012-05-14T22:09:20Z</time>
      </trkpt>
      <trkpt lat="38.574637295678258" lon="-109.55086341127753">
        <ele>1226.5999755859375</ele>
        <time>2012-05-14T22:09:29Z</time>
      </trkpt>
      <trkpt lat="38.574152067303658" lon="-109.5508601423353">
        <ele>1226.199951171875</ele>
        <time>2012-05-14T22:09:40Z</time>
      </trkpt>
      <trkpt lat="38.574108481407166" lon="-109.55086433328688">
        <ele>1226.199951171875</ele>
        <time>2012-05-14T22:09:41Z</time>
      </trkpt>
      <trkpt lat="38.57397629879415" lon="-109.55085419118404">
        <ele>1226.199951171875</ele>
        <time>2012-05-14T22:09:44Z</time>
      </trkpt>
      <trkpt lat="38.573885774239898" lon="-109.55080272629857">
        <ele>1226.4000244140625</ele>
        <time>2012-05-14T22:09:46Z</time>
      </trkpt>
      <trkpt lat="38.573664072901011" lon="-109.55077808350325">
        <ele>1226.4000244140625</ele>
        <time>2012-05-14T22:09:50Z</time>
      </trkpt>
      <trkpt lat="38.573510097339749" lon="-109.55076609738171">
        <ele>1226.4000244140625</ele>
        <time>2012-05-14T22:09:53Z</time>
      </trkpt>
      <trkpt lat="38.573436671867967" lon="-109.55070029944181">
        <ele>1226.4000244140625</ele>
        <time>2012-05-14T22:09:55Z</time>
      </trkpt>
      <trkpt lat="38.573362659662962" lon="-109.55061631277204">
        <ele>1226.4000244140625</ele>
        <time>2012-05-14T22:09:58Z</time>
      </trkpt>
      <trkpt lat="38.573330640792847" lon="-109.55056141130626">
        <ele>1226.4000244140625</ele>
        <time>2012-05-14T22:10:00Z</time>
      </trkpt>
      <trkpt lat="38.573230812326074" lon="-109.55056828446686">
        <ele>1226.4000244140625</ele>
        <time>2012-05-14T22:10:04Z</time>
      </trkpt>
      <trkpt lat="38.573102988302708" lon="-109.5506526902318">
        <ele>1226.4000244140625</ele>
        <time>2012-05-14T22:10:09Z</time>
      </trkpt>
      <trkpt lat="38.573012463748455" lon="-109.55064866691828">
        <ele>1226.199951171875</ele>
        <time>2012-05-14T22:10:12Z</time>
      </trkpt>
      <trkpt lat="38.572906265035272" lon="-109.55064590089023">
        <ele>1226.199951171875</ele>
        <time>2012-05-14T22:10:16Z</time>
      </trkpt>
      <trkpt lat="38.57270048931241" lon="-109.55061153508723">
        <ele>1226.4000244140625</ele>
        <time>2012-05-14T22:10:24Z</time>
      </trkpt>
      <trkpt lat="38.572566211223602" lon="-109.55052905716002">
        <ele>1226.4000244140625</ele>
        <time>2012-05-14T22:10:29Z</time>
      </trkpt>
      <trkpt lat="38.572554308921099" lon="-109.55049217678607">
        <ele>1226.4000244140625</ele>
        <time>2012-05-14T22:10:30Z</time>
      </trkpt>
      <trkpt lat="38.572540059685707" lon="-109.5503331720829">
        <ele>1226.800048828125</ele>
        <time>2012-05-14T22:10:34Z</time>
      </trkpt>
      <trkpt lat="38.572538215667009" lon="-109.55029335804284">
        <ele>1226.800048828125</ele>
        <time>2012-05-14T22:10:35Z</time>
      </trkpt>
      <trkpt lat="38.572497060522437" lon="-109.55006645992398">
        <ele>1227</ele>
        <time>2012-05-14T22:10:43Z</time>
      </trkpt>
      <trkpt lat="38.572490690276027" lon="-109.55007643438876">
        <ele>1227</ele>
        <time>2012-05-14T22:10:54Z</time>
      </trkpt>
      <trkpt lat="38.572518769651651" lon="-109.5500450860709">
        <ele>1227.199951171875</ele>
        <time>2012-05-14T22:10:59Z</time>
      </trkpt>
      <trkpt lat="38.572548357769847" lon="-109.55003008246422">
        <ele>1227.199951171875</ele>
        <time>2012-05-14T22:11:05Z</time>
      </trkpt>
      <trkpt lat="38.572577945888042" lon="-109.55002698116004">
        <ele>1227.199951171875</ele>
        <time>2012-05-14T22:11:11Z</time>
      </trkpt>
      <trkpt lat="38.572547687217593" lon="-109.55005413852632">
        <ele>1227.199951171875</ele>
        <time>2012-05-14T22:15:35Z</time>
      </trkpt>
    </trkseg>
  </trk>

</gpx>
